<?xml version="1.0"?>
<gpx
 version="1.1"
 creator="Satmap Active 20"
 xmlns:xsi="http://www.w3.org/2001/XMLSchema-instance"
 xmlns="http://www.topografix.com/GPX/1/1"
 xmlns:satmap="http://www.satmap.com/updates/xmlschemas/GpxExtensions/v2/GpxExtensions_v2.xsd"
 xsi:schemaLocation="http://www.topografix.com/GPX/1/1 http://www.topografix.com/GPX/1/1/gpx.xsd">
<metadata>
<time>2022-03-28T12:32:37Z</time>
<extensions>
<satmap:platform>43</satmap:platform>
<satmap:software version="3.12.831">SM15.exe</satmap:software>
<satmap:username>Jim Grant</satmap:username>
<satmap:network_ids>
<satmap:network_id type="wifi">00-23-A7-EC-D5-78</satmap:network_id>
<satmap:network_id type="bluetooth">80-BB-EB-D7-5B-7C</satmap:network_id>
</satmap:network_ids>
<satmap:snap_type>simple</satmap:snap_type>
</extensions>
</metadata>
<trk>
<name>2022-03-28_1232</name>
<desc>Track 1</desc>
<number>1</number>
<trkseg>
<trkpt lat="54.438655" lon="-3.320313"><ele>78</ele><time>2022-03-28T12:32:37Z</time><name>PT1</name></trkpt>
<trkpt lat="54.438661" lon="-3.320312"><ele>78</ele><time>2022-03-28T12:32:47Z</time><name>PT2</name></trkpt>
<trkpt lat="54.438662" lon="-3.320313"><ele>78</ele><time>2022-03-28T12:32:49Z</time><name>PT3</name></trkpt>
<trkpt lat="54.438663" lon="-3.320304"><ele>79</ele><time>2022-03-28T12:32:49Z</time><name>PT4</name></trkpt>
<trkpt lat="54.438664" lon="-3.320299"><ele>79</ele><time>2022-03-28T12:32:50Z</time><name>PT5</name></trkpt>
<trkpt lat="54.438665" lon="-3.320292"><ele>79</ele><time>2022-03-28T12:32:52Z</time><name>PT6</name></trkpt>
<trkpt lat="54.438663" lon="-3.320289"><ele>79</ele><time>2022-03-28T12:32:52Z</time><name>PT7</name></trkpt>
<trkpt lat="54.438662" lon="-3.320285"><ele>79</ele><time>2022-03-28T12:32:54Z</time><name>PT8</name></trkpt>
<trkpt lat="54.438662" lon="-3.320284"><ele>79</ele><time>2022-03-28T12:32:55Z</time><name>PT9</name></trkpt>
<trkpt lat="54.438661" lon="-3.320285"><ele>79</ele><time>2022-03-28T12:32:55Z</time><name>PT10</name></trkpt>
<trkpt lat="54.438658" lon="-3.320282"><ele>78</ele><time>2022-03-28T12:32:56Z</time><name>PT11</name></trkpt>
<trkpt lat="54.438657" lon="-3.320292"><ele>77</ele><time>2022-03-28T12:33:28Z</time><name>PT12</name></trkpt>
<trkpt lat="54.438657" lon="-3.320296"><ele>77</ele><time>2022-03-28T12:33:29Z</time><name>PT13</name></trkpt>
<trkpt lat="54.438656" lon="-3.320299"><ele>77</ele><time>2022-03-28T12:33:31Z</time><name>PT14</name></trkpt>
<trkpt lat="54.438650" lon="-3.320311"><ele>77</ele><time>2022-03-28T12:35:16Z</time><name>PT15</name></trkpt>
<trkpt lat="54.438651" lon="-3.320311"><ele>77</ele><time>2022-03-28T12:35:16Z</time><name>PT16</name></trkpt>
<trkpt lat="54.438650" lon="-3.320309"><ele>77</ele><time>2022-03-28T12:35:17Z</time><name>PT17</name></trkpt>
<trkpt lat="54.438651" lon="-3.320306"><ele>77</ele><time>2022-03-28T12:35:25Z</time><name>PT18</name></trkpt>
<trkpt lat="54.438651" lon="-3.320302"><ele>77</ele><time>2022-03-28T12:35:25Z</time><name>PT19</name></trkpt>
<trkpt lat="54.438650" lon="-3.320306"><ele>77</ele><time>2022-03-28T12:35:26Z</time><name>PT20</name></trkpt>
<trkpt lat="54.438654" lon="-3.320336"><ele>78</ele><time>2022-03-28T12:35:47Z</time><name>PT21</name></trkpt>
<trkpt lat="54.438659" lon="-3.320357"><ele>78</ele><time>2022-03-28T12:35:49Z</time><name>PT22</name></trkpt>
<trkpt lat="54.438671" lon="-3.320391"><ele>79</ele><time>2022-03-28T12:35:49Z</time><name>PT23</name></trkpt>
<trkpt lat="54.438683" lon="-3.320413"><ele>79</ele><time>2022-03-28T12:35:50Z</time><name>PT24</name></trkpt>
<trkpt lat="54.438691" lon="-3.320435"><ele>79</ele><time>2022-03-28T12:35:52Z</time><name>PT25</name></trkpt>
<trkpt lat="54.438700" lon="-3.320455"><ele>79</ele><time>2022-03-28T12:35:52Z</time><name>PT26</name></trkpt>
<trkpt lat="54.438710" lon="-3.320471"><ele>79</ele><time>2022-03-28T12:35:53Z</time><name>PT27</name></trkpt>
<trkpt lat="54.438717" lon="-3.320492"><ele>79</ele><time>2022-03-28T12:35:55Z</time><name>PT28</name></trkpt>
<trkpt lat="54.438722" lon="-3.320510"><ele>79</ele><time>2022-03-28T12:35:55Z</time><name>PT29</name></trkpt>
<trkpt lat="54.438744" lon="-3.320576"><ele>79</ele><time>2022-03-28T12:35:59Z</time><name>PT30</name></trkpt>
<trkpt lat="54.438763" lon="-3.320648"><ele>79</ele><time>2022-03-28T12:36:04Z</time><name>PT31</name></trkpt>
<trkpt lat="54.438776" lon="-3.320694"><ele>80</ele><time>2022-03-28T12:36:07Z</time><name>PT32</name></trkpt>
<trkpt lat="54.438801" lon="-3.320744"><ele>79</ele><time>2022-03-28T12:36:10Z</time><name>PT33</name></trkpt>
<trkpt lat="54.438822" lon="-3.320782"><ele>78</ele><time>2022-03-28T12:36:13Z</time><name>PT34</name></trkpt>
<trkpt lat="54.438849" lon="-3.320820"><ele>78</ele><time>2022-03-28T12:36:16Z</time><name>PT35</name></trkpt>
<trkpt lat="54.438890" lon="-3.320851"><ele>79</ele><time>2022-03-28T12:36:20Z</time><name>PT36</name></trkpt>
<trkpt lat="54.438917" lon="-3.320876"><ele>79</ele><time>2022-03-28T12:36:23Z</time><name>PT37</name></trkpt>
<trkpt lat="54.438961" lon="-3.320904"><ele>80</ele><time>2022-03-28T12:36:28Z</time><name>PT38</name></trkpt>
<trkpt lat="54.439000" lon="-3.320925"><ele>80</ele><time>2022-03-28T12:36:31Z</time><name>PT39</name></trkpt>
<trkpt lat="54.439044" lon="-3.320941"><ele>80</ele><time>2022-03-28T12:36:35Z</time><name>PT40</name></trkpt>
<trkpt lat="54.439089" lon="-3.320952"><ele>81</ele><time>2022-03-28T12:36:40Z</time><name>PT41</name></trkpt>
<trkpt lat="54.439116" lon="-3.320961"><ele>81</ele><time>2022-03-28T12:36:43Z</time><name>PT42</name></trkpt>
<trkpt lat="54.439144" lon="-3.320972"><ele>82</ele><time>2022-03-28T12:36:46Z</time><name>PT43</name></trkpt>
<trkpt lat="54.439178" lon="-3.320990"><ele>82</ele><time>2022-03-28T12:36:49Z</time><name>PT44</name></trkpt>
<trkpt lat="54.439213" lon="-3.321013"><ele>83</ele><time>2022-03-28T12:36:53Z</time><name>PT45</name></trkpt>
<trkpt lat="54.439236" lon="-3.321029"><ele>82</ele><time>2022-03-28T12:36:56Z</time><name>PT46</name></trkpt>
<trkpt lat="54.439268" lon="-3.321046"><ele>82</ele><time>2022-03-28T12:37:01Z</time><name>PT47</name></trkpt>
<trkpt lat="54.439297" lon="-3.321058"><ele>82</ele><time>2022-03-28T12:37:04Z</time><name>PT48</name></trkpt>
<trkpt lat="54.439332" lon="-3.321078"><ele>82</ele><time>2022-03-28T12:37:07Z</time><name>PT49</name></trkpt>
<trkpt lat="54.439362" lon="-3.321086"><ele>83</ele><time>2022-03-28T12:37:10Z</time><name>PT50</name></trkpt>
<trkpt lat="54.439395" lon="-3.321093"><ele>85</ele><time>2022-03-28T12:37:14Z</time><name>PT51</name></trkpt>
<trkpt lat="54.439435" lon="-3.321098"><ele>87</ele><time>2022-03-28T12:37:19Z</time><name>PT52</name></trkpt>
<trkpt lat="54.439468" lon="-3.321105"><ele>87</ele><time>2022-03-28T12:37:22Z</time><name>PT53</name></trkpt>
<trkpt lat="54.439500" lon="-3.321109"><ele>87</ele><time>2022-03-28T12:37:25Z</time><name>PT54</name></trkpt>
<trkpt lat="54.439526" lon="-3.321111"><ele>87</ele><time>2022-03-28T12:37:28Z</time><name>PT55</name></trkpt>
<trkpt lat="54.439553" lon="-3.321124"><ele>87</ele><time>2022-03-28T12:37:31Z</time><name>PT56</name></trkpt>
<trkpt lat="54.439593" lon="-3.321119"><ele>88</ele><time>2022-03-28T12:37:35Z</time><name>PT57</name></trkpt>
<trkpt lat="54.439633" lon="-3.321117"><ele>88</ele><time>2022-03-28T12:37:40Z</time><name>PT58</name></trkpt>
<trkpt lat="54.439660" lon="-3.321122"><ele>88</ele><time>2022-03-28T12:37:43Z</time><name>PT59</name></trkpt>
<trkpt lat="54.439698" lon="-3.321128"><ele>88</ele><time>2022-03-28T12:37:46Z</time><name>PT60</name></trkpt>
<trkpt lat="54.439728" lon="-3.321139"><ele>89</ele><time>2022-03-28T12:37:49Z</time><name>PT61</name></trkpt>
<trkpt lat="54.439751" lon="-3.321158"><ele>89</ele><time>2022-03-28T12:37:52Z</time><name>PT62</name></trkpt>
<trkpt lat="54.439786" lon="-3.321169"><ele>89</ele><time>2022-03-28T12:37:56Z</time><name>PT63</name></trkpt>
<trkpt lat="54.439813" lon="-3.321181"><ele>90</ele><time>2022-03-28T12:37:59Z</time><name>PT64</name></trkpt>
<trkpt lat="54.439851" lon="-3.321198"><ele>89</ele><time>2022-03-28T12:38:04Z</time><name>PT65</name></trkpt>
<trkpt lat="54.439872" lon="-3.321205"><ele>89</ele><time>2022-03-28T12:38:07Z</time><name>PT66</name></trkpt>
<trkpt lat="54.439908" lon="-3.321214"><ele>90</ele><time>2022-03-28T12:38:10Z</time><name>PT67</name></trkpt>
<trkpt lat="54.439931" lon="-3.321229"><ele>91</ele><time>2022-03-28T12:38:13Z</time><name>PT68</name></trkpt>
<trkpt lat="54.439973" lon="-3.321241"><ele>91</ele><time>2022-03-28T12:38:17Z</time><name>PT69</name></trkpt>
<trkpt lat="54.440004" lon="-3.321244"><ele>92</ele><time>2022-03-28T12:38:20Z</time><name>PT70</name></trkpt>
<trkpt lat="54.440041" lon="-3.321250"><ele>93</ele><time>2022-03-28T12:38:25Z</time><name>PT71</name></trkpt>
<trkpt lat="54.440072" lon="-3.321251"><ele>93</ele><time>2022-03-28T12:38:28Z</time><name>PT72</name></trkpt>
<trkpt lat="54.440095" lon="-3.321252"><ele>93</ele><time>2022-03-28T12:38:31Z</time><name>PT73</name></trkpt>
<trkpt lat="54.440124" lon="-3.321249"><ele>94</ele><time>2022-03-28T12:38:34Z</time><name>PT74</name></trkpt>
<trkpt lat="54.440158" lon="-3.321250"><ele>94</ele><time>2022-03-28T12:38:38Z</time><name>PT75</name></trkpt>
<trkpt lat="54.440182" lon="-3.321233"><ele>93</ele><time>2022-03-28T12:38:43Z</time><name>PT76</name></trkpt>
<trkpt lat="54.440218" lon="-3.321223"><ele>95</ele><time>2022-03-28T12:38:46Z</time><name>PT77</name></trkpt>
<trkpt lat="54.440257" lon="-3.321221"><ele>95</ele><time>2022-03-28T12:38:49Z</time><name>PT78</name></trkpt>
<trkpt lat="54.440276" lon="-3.321220"><ele>95</ele><time>2022-03-28T12:38:52Z</time><name>PT79</name></trkpt>
<trkpt lat="54.440300" lon="-3.321233"><ele>95</ele><time>2022-03-28T12:38:55Z</time><name>PT80</name></trkpt>
<trkpt lat="54.440334" lon="-3.321251"><ele>95</ele><time>2022-03-28T12:38:59Z</time><name>PT81</name></trkpt>
<trkpt lat="54.440362" lon="-3.321246"><ele>96</ele><time>2022-03-28T12:39:02Z</time><name>PT82</name></trkpt>
<trkpt lat="54.440368" lon="-3.321247"><ele>96</ele><time>2022-03-28T12:39:07Z</time><name>PT83</name></trkpt>
<trkpt lat="54.440404" lon="-3.321229"><ele>98</ele><time>2022-03-28T12:39:10Z</time><name>PT84</name></trkpt>
<trkpt lat="54.440435" lon="-3.321216"><ele>98</ele><time>2022-03-28T12:39:13Z</time><name>PT85</name></trkpt>
<trkpt lat="54.440455" lon="-3.321220"><ele>99</ele><time>2022-03-28T12:39:16Z</time><name>PT86</name></trkpt>
<trkpt lat="54.440491" lon="-3.321217"><ele>99</ele><time>2022-03-28T12:39:19Z</time><name>PT87</name></trkpt>
<trkpt lat="54.440533" lon="-3.321205"><ele>100</ele><time>2022-03-28T12:39:23Z</time><name>PT88</name></trkpt>
<trkpt lat="54.440569" lon="-3.321202"><ele>102</ele><time>2022-03-28T12:39:26Z</time><name>PT89</name></trkpt>
<trkpt lat="54.440594" lon="-3.321207"><ele>102</ele><time>2022-03-28T12:39:29Z</time><name>PT90</name></trkpt>
<trkpt lat="54.440632" lon="-3.321214"><ele>103</ele><time>2022-03-28T12:39:34Z</time><name>PT91</name></trkpt>
<trkpt lat="54.440658" lon="-3.321224"><ele>104</ele><time>2022-03-28T12:39:37Z</time><name>PT92</name></trkpt>
<trkpt lat="54.440672" lon="-3.321233"><ele>104</ele><time>2022-03-28T12:39:39Z</time><name>PT93</name></trkpt>
<trkpt lat="54.440683" lon="-3.321239"><ele>105</ele><time>2022-03-28T12:39:40Z</time><name>PT94</name></trkpt>
<trkpt lat="54.440692" lon="-3.321244"><ele>105</ele><time>2022-03-28T12:39:40Z</time><name>PT95</name></trkpt>
<trkpt lat="54.440707" lon="-3.321250"><ele>105</ele><time>2022-03-28T12:39:41Z</time><name>PT96</name></trkpt>
<trkpt lat="54.440711" lon="-3.321258"><ele>105</ele><time>2022-03-28T12:39:43Z</time><name>PT97</name></trkpt>
<trkpt lat="54.440716" lon="-3.321263"><ele>105</ele><time>2022-03-28T12:39:43Z</time><name>PT98</name></trkpt>
<trkpt lat="54.440724" lon="-3.321270"><ele>105</ele><time>2022-03-28T12:39:44Z</time><name>PT99</name></trkpt>
<trkpt lat="54.440729" lon="-3.321273"><ele>105</ele><time>2022-03-28T12:39:46Z</time><name>PT100</name></trkpt>
<trkpt lat="54.440724" lon="-3.321280"><ele>106</ele><time>2022-03-28T12:39:46Z</time><name>PT101</name></trkpt>
<trkpt lat="54.440735" lon="-3.321286"><ele>105</ele><time>2022-03-28T12:39:47Z</time><name>PT102</name></trkpt>
<trkpt lat="54.440742" lon="-3.321289"><ele>107</ele><time>2022-03-28T12:39:49Z</time><name>PT103</name></trkpt>
<trkpt lat="54.440750" lon="-3.321294"><ele>107</ele><time>2022-03-28T12:39:49Z</time><name>PT104</name></trkpt>
<trkpt lat="54.440758" lon="-3.321300"><ele>107</ele><time>2022-03-28T12:39:50Z</time><name>PT105</name></trkpt>
<trkpt lat="54.440765" lon="-3.321306"><ele>107</ele><time>2022-03-28T12:39:52Z</time><name>PT106</name></trkpt>
<trkpt lat="54.440767" lon="-3.321301"><ele>107</ele><time>2022-03-28T12:39:52Z</time><name>PT107</name></trkpt>
<trkpt lat="54.440768" lon="-3.321302"><ele>107</ele><time>2022-03-28T12:39:53Z</time><name>PT108</name></trkpt>
<trkpt lat="54.440768" lon="-3.321305"><ele>108</ele><time>2022-03-28T12:39:55Z</time><name>PT109</name></trkpt>
<trkpt lat="54.440774" lon="-3.321303"><ele>108</ele><time>2022-03-28T12:39:55Z</time><name>PT110</name></trkpt>
<trkpt lat="54.440783" lon="-3.321304"><ele>107</ele><time>2022-03-28T12:39:56Z</time><name>PT111</name></trkpt>
<trkpt lat="54.440788" lon="-3.321307"><ele>107</ele><time>2022-03-28T12:39:58Z</time><name>PT112</name></trkpt>
<trkpt lat="54.440791" lon="-3.321305"><ele>107</ele><time>2022-03-28T12:39:58Z</time><name>PT113</name></trkpt>
<trkpt lat="54.440805" lon="-3.321303"><ele>108</ele><time>2022-03-28T12:39:59Z</time><name>PT114</name></trkpt>
<trkpt lat="54.440815" lon="-3.321300"><ele>108</ele><time>2022-03-28T12:40:01Z</time><name>PT115</name></trkpt>
<trkpt lat="54.440825" lon="-3.321293"><ele>107</ele><time>2022-03-28T12:40:01Z</time><name>PT116</name></trkpt>
<trkpt lat="54.440832" lon="-3.321286"><ele>107</ele><time>2022-03-28T12:40:02Z</time><name>PT117</name></trkpt>
<trkpt lat="54.440841" lon="-3.321282"><ele>108</ele><time>2022-03-28T12:40:04Z</time><name>PT118</name></trkpt>
<trkpt lat="54.440848" lon="-3.321283"><ele>108</ele><time>2022-03-28T12:40:04Z</time><name>PT119</name></trkpt>
<trkpt lat="54.440852" lon="-3.321283"><ele>108</ele><time>2022-03-28T12:40:05Z</time><name>PT120</name></trkpt>
<trkpt lat="54.440858" lon="-3.321282"><ele>108</ele><time>2022-03-28T12:40:07Z</time><name>PT121</name></trkpt>
<trkpt lat="54.440864" lon="-3.321280"><ele>108</ele><time>2022-03-28T12:40:07Z</time><name>PT122</name></trkpt>
<trkpt lat="54.440871" lon="-3.321280"><ele>108</ele><time>2022-03-28T12:40:08Z</time><name>PT123</name></trkpt>
<trkpt lat="54.440874" lon="-3.321281"><ele>108</ele><time>2022-03-28T12:40:10Z</time><name>PT124</name></trkpt>
<trkpt lat="54.440882" lon="-3.321282"><ele>108</ele><time>2022-03-28T12:40:10Z</time><name>PT125</name></trkpt>
<trkpt lat="54.440890" lon="-3.321286"><ele>108</ele><time>2022-03-28T12:40:11Z</time><name>PT126</name></trkpt>
<trkpt lat="54.440900" lon="-3.321286"><ele>108</ele><time>2022-03-28T12:40:13Z</time><name>PT127</name></trkpt>
<trkpt lat="54.440905" lon="-3.321288"><ele>108</ele><time>2022-03-28T12:40:13Z</time><name>PT128</name></trkpt>
<trkpt lat="54.440913" lon="-3.321287"><ele>109</ele><time>2022-03-28T12:40:14Z</time><name>PT129</name></trkpt>
<trkpt lat="54.440921" lon="-3.321286"><ele>109</ele><time>2022-03-28T12:40:16Z</time><name>PT130</name></trkpt>
<trkpt lat="54.440930" lon="-3.321284"><ele>109</ele><time>2022-03-28T12:40:16Z</time><name>PT131</name></trkpt>
<trkpt lat="54.440941" lon="-3.321283"><ele>109</ele><time>2022-03-28T12:40:17Z</time><name>PT132</name></trkpt>
<trkpt lat="54.440953" lon="-3.321280"><ele>109</ele><time>2022-03-28T12:40:19Z</time><name>PT133</name></trkpt>
<trkpt lat="54.440964" lon="-3.321276"><ele>109</ele><time>2022-03-28T12:40:19Z</time><name>PT134</name></trkpt>
<trkpt lat="54.440977" lon="-3.321275"><ele>109</ele><time>2022-03-28T12:40:20Z</time><name>PT135</name></trkpt>
<trkpt lat="54.440984" lon="-3.321274"><ele>109</ele><time>2022-03-28T12:40:22Z</time><name>PT136</name></trkpt>
<trkpt lat="54.440993" lon="-3.321271"><ele>109</ele><time>2022-03-28T12:40:22Z</time><name>PT137</name></trkpt>
<trkpt lat="54.440999" lon="-3.321267"><ele>109</ele><time>2022-03-28T12:40:23Z</time><name>PT138</name></trkpt>
<trkpt lat="54.441007" lon="-3.321265"><ele>109</ele><time>2022-03-28T12:40:25Z</time><name>PT139</name></trkpt>
<trkpt lat="54.441013" lon="-3.321264"><ele>110</ele><time>2022-03-28T12:40:25Z</time><name>PT140</name></trkpt>
<trkpt lat="54.441027" lon="-3.321264"><ele>110</ele><time>2022-03-28T12:40:26Z</time><name>PT141</name></trkpt>
<trkpt lat="54.441031" lon="-3.321265"><ele>110</ele><time>2022-03-28T12:40:28Z</time><name>PT142</name></trkpt>
<trkpt lat="54.441040" lon="-3.321263"><ele>110</ele><time>2022-03-28T12:40:28Z</time><name>PT143</name></trkpt>
<trkpt lat="54.441038" lon="-3.321267"><ele>110</ele><time>2022-03-28T12:40:29Z</time><name>PT144</name></trkpt>
<trkpt lat="54.441040" lon="-3.321269"><ele>111</ele><time>2022-03-28T12:40:31Z</time><name>PT145</name></trkpt>
<trkpt lat="54.441049" lon="-3.321272"><ele>111</ele><time>2022-03-28T12:40:31Z</time><name>PT146</name></trkpt>
<trkpt lat="54.441054" lon="-3.321276"><ele>111</ele><time>2022-03-28T12:40:32Z</time><name>PT147</name></trkpt>
<trkpt lat="54.441060" lon="-3.321279"><ele>112</ele><time>2022-03-28T12:40:34Z</time><name>PT148</name></trkpt>
<trkpt lat="54.441064" lon="-3.321283"><ele>112</ele><time>2022-03-28T12:40:34Z</time><name>PT149</name></trkpt>
<trkpt lat="54.441065" lon="-3.321290"><ele>112</ele><time>2022-03-28T12:40:35Z</time><name>PT150</name></trkpt>
<trkpt lat="54.441069" lon="-3.321299"><ele>112</ele><time>2022-03-28T12:40:37Z</time><name>PT151</name></trkpt>
<trkpt lat="54.441070" lon="-3.321314"><ele>112</ele><time>2022-03-28T12:40:37Z</time><name>PT152</name></trkpt>
<trkpt lat="54.441070" lon="-3.321327"><ele>112</ele><time>2022-03-28T12:40:38Z</time><name>PT153</name></trkpt>
<trkpt lat="54.441073" lon="-3.321333"><ele>112</ele><time>2022-03-28T12:40:40Z</time><name>PT154</name></trkpt>
<trkpt lat="54.441074" lon="-3.321341"><ele>112</ele><time>2022-03-28T12:40:40Z</time><name>PT155</name></trkpt>
<trkpt lat="54.441077" lon="-3.321349"><ele>113</ele><time>2022-03-28T12:40:41Z</time><name>PT156</name></trkpt>
<trkpt lat="54.441082" lon="-3.321354"><ele>113</ele><time>2022-03-28T12:40:43Z</time><name>PT157</name></trkpt>
<trkpt lat="54.441089" lon="-3.321363"><ele>113</ele><time>2022-03-28T12:40:43Z</time><name>PT158</name></trkpt>
<trkpt lat="54.441092" lon="-3.321370"><ele>113</ele><time>2022-03-28T12:40:44Z</time><name>PT159</name></trkpt>
<trkpt lat="54.441100" lon="-3.321379"><ele>114</ele><time>2022-03-28T12:40:46Z</time><name>PT160</name></trkpt>
<trkpt lat="54.441108" lon="-3.321387"><ele>114</ele><time>2022-03-28T12:40:46Z</time><name>PT161</name></trkpt>
<trkpt lat="54.441115" lon="-3.321395"><ele>114</ele><time>2022-03-28T12:40:47Z</time><name>PT162</name></trkpt>
<trkpt lat="54.441120" lon="-3.321402"><ele>114</ele><time>2022-03-28T12:40:49Z</time><name>PT163</name></trkpt>
<trkpt lat="54.441125" lon="-3.321411"><ele>114</ele><time>2022-03-28T12:40:49Z</time><name>PT164</name></trkpt>
<trkpt lat="54.441134" lon="-3.321419"><ele>115</ele><time>2022-03-28T12:40:50Z</time><name>PT165</name></trkpt>
<trkpt lat="54.441141" lon="-3.321429"><ele>116</ele><time>2022-03-28T12:40:52Z</time><name>PT166</name></trkpt>
<trkpt lat="54.441144" lon="-3.321438"><ele>115</ele><time>2022-03-28T12:40:52Z</time><name>PT167</name></trkpt>
<trkpt lat="54.441150" lon="-3.321447"><ele>115</ele><time>2022-03-28T12:40:53Z</time><name>PT168</name></trkpt>
<trkpt lat="54.441153" lon="-3.321455"><ele>116</ele><time>2022-03-28T12:40:55Z</time><name>PT169</name></trkpt>
<trkpt lat="54.441159" lon="-3.321463"><ele>116</ele><time>2022-03-28T12:40:55Z</time><name>PT170</name></trkpt>
<trkpt lat="54.441165" lon="-3.321472"><ele>116</ele><time>2022-03-28T12:40:56Z</time><name>PT171</name></trkpt>
<trkpt lat="54.441171" lon="-3.321480"><ele>117</ele><time>2022-03-28T12:40:58Z</time><name>PT172</name></trkpt>
<trkpt lat="54.441174" lon="-3.321491"><ele>117</ele><time>2022-03-28T12:40:58Z</time><name>PT173</name></trkpt>
<trkpt lat="54.441178" lon="-3.321499"><ele>116</ele><time>2022-03-28T12:40:59Z</time><name>PT174</name></trkpt>
<trkpt lat="54.441182" lon="-3.321510"><ele>116</ele><time>2022-03-28T12:41:01Z</time><name>PT175</name></trkpt>
<trkpt lat="54.441185" lon="-3.321518"><ele>116</ele><time>2022-03-28T12:41:01Z</time><name>PT176</name></trkpt>
<trkpt lat="54.441190" lon="-3.321526"><ele>116</ele><time>2022-03-28T12:41:02Z</time><name>PT177</name></trkpt>
<trkpt lat="54.441195" lon="-3.321532"><ele>117</ele><time>2022-03-28T12:41:04Z</time><name>PT178</name></trkpt>
<trkpt lat="54.441200" lon="-3.321537"><ele>117</ele><time>2022-03-28T12:41:04Z</time><name>PT179</name></trkpt>
<trkpt lat="54.441208" lon="-3.321544"><ele>117</ele><time>2022-03-28T12:41:05Z</time><name>PT180</name></trkpt>
<trkpt lat="54.441213" lon="-3.321548"><ele>117</ele><time>2022-03-28T12:41:07Z</time><name>PT181</name></trkpt>
<trkpt lat="54.441219" lon="-3.321554"><ele>117</ele><time>2022-03-28T12:41:07Z</time><name>PT182</name></trkpt>
<trkpt lat="54.441227" lon="-3.321559"><ele>117</ele><time>2022-03-28T12:41:08Z</time><name>PT183</name></trkpt>
<trkpt lat="54.441234" lon="-3.321566"><ele>117</ele><time>2022-03-28T12:41:10Z</time><name>PT184</name></trkpt>
<trkpt lat="54.441240" lon="-3.321573"><ele>118</ele><time>2022-03-28T12:41:10Z</time><name>PT185</name></trkpt>
<trkpt lat="54.441248" lon="-3.321581"><ele>118</ele><time>2022-03-28T12:41:11Z</time><name>PT186</name></trkpt>
<trkpt lat="54.441254" lon="-3.321588"><ele>118</ele><time>2022-03-28T12:41:13Z</time><name>PT187</name></trkpt>
<trkpt lat="54.441259" lon="-3.321596"><ele>118</ele><time>2022-03-28T12:41:13Z</time><name>PT188</name></trkpt>
<trkpt lat="54.441267" lon="-3.321604"><ele>118</ele><time>2022-03-28T12:41:14Z</time><name>PT189</name></trkpt>
<trkpt lat="54.441273" lon="-3.321613"><ele>118</ele><time>2022-03-28T12:41:16Z</time><name>PT190</name></trkpt>
<trkpt lat="54.441277" lon="-3.321620"><ele>118</ele><time>2022-03-28T12:41:16Z</time><name>PT191</name></trkpt>
<trkpt lat="54.441283" lon="-3.321627"><ele>118</ele><time>2022-03-28T12:41:17Z</time><name>PT192</name></trkpt>
<trkpt lat="54.441288" lon="-3.321637"><ele>119</ele><time>2022-03-28T12:41:19Z</time><name>PT193</name></trkpt>
<trkpt lat="54.441293" lon="-3.321649"><ele>119</ele><time>2022-03-28T12:41:19Z</time><name>PT194</name></trkpt>
<trkpt lat="54.441298" lon="-3.321659"><ele>119</ele><time>2022-03-28T12:41:20Z</time><name>PT195</name></trkpt>
<trkpt lat="54.441305" lon="-3.321666"><ele>120</ele><time>2022-03-28T12:41:22Z</time><name>PT196</name></trkpt>
<trkpt lat="54.441308" lon="-3.321671"><ele>120</ele><time>2022-03-28T12:41:22Z</time><name>PT197</name></trkpt>
<trkpt lat="54.441314" lon="-3.321678"><ele>120</ele><time>2022-03-28T12:41:23Z</time><name>PT198</name></trkpt>
<trkpt lat="54.441319" lon="-3.321684"><ele>120</ele><time>2022-03-28T12:41:25Z</time><name>PT199</name></trkpt>
<trkpt lat="54.441323" lon="-3.321688"><ele>120</ele><time>2022-03-28T12:41:25Z</time><name>PT200</name></trkpt>
<trkpt lat="54.441326" lon="-3.321693"><ele>120</ele><time>2022-03-28T12:41:26Z</time><name>PT201</name></trkpt>
<trkpt lat="54.441331" lon="-3.321700"><ele>120</ele><time>2022-03-28T12:41:28Z</time><name>PT202</name></trkpt>
<trkpt lat="54.441334" lon="-3.321709"><ele>120</ele><time>2022-03-28T12:41:28Z</time><name>PT203</name></trkpt>
<trkpt lat="54.441340" lon="-3.321717"><ele>121</ele><time>2022-03-28T12:41:29Z</time><name>PT204</name></trkpt>
<trkpt lat="54.441345" lon="-3.321726"><ele>121</ele><time>2022-03-28T12:41:31Z</time><name>PT205</name></trkpt>
<trkpt lat="54.441347" lon="-3.321733"><ele>121</ele><time>2022-03-28T12:41:31Z</time><name>PT206</name></trkpt>
<trkpt lat="54.441353" lon="-3.321742"><ele>121</ele><time>2022-03-28T12:41:32Z</time><name>PT207</name></trkpt>
<trkpt lat="54.441360" lon="-3.321748"><ele>121</ele><time>2022-03-28T12:41:34Z</time><name>PT208</name></trkpt>
<trkpt lat="54.441365" lon="-3.321752"><ele>121</ele><time>2022-03-28T12:41:34Z</time><name>PT209</name></trkpt>
<trkpt lat="54.441368" lon="-3.321759"><ele>121</ele><time>2022-03-28T12:41:35Z</time><name>PT210</name></trkpt>
<trkpt lat="54.441372" lon="-3.321766"><ele>121</ele><time>2022-03-28T12:41:37Z</time><name>PT211</name></trkpt>
<trkpt lat="54.441378" lon="-3.321771"><ele>122</ele><time>2022-03-28T12:41:37Z</time><name>PT212</name></trkpt>
<trkpt lat="54.441384" lon="-3.321778"><ele>122</ele><time>2022-03-28T12:41:38Z</time><name>PT213</name></trkpt>
<trkpt lat="54.441390" lon="-3.321786"><ele>122</ele><time>2022-03-28T12:41:40Z</time><name>PT214</name></trkpt>
<trkpt lat="54.441393" lon="-3.321792"><ele>122</ele><time>2022-03-28T12:41:40Z</time><name>PT215</name></trkpt>
<trkpt lat="54.441399" lon="-3.321801"><ele>122</ele><time>2022-03-28T12:41:41Z</time><name>PT216</name></trkpt>
<trkpt lat="54.441405" lon="-3.321809"><ele>123</ele><time>2022-03-28T12:41:43Z</time><name>PT217</name></trkpt>
<trkpt lat="54.441406" lon="-3.321815"><ele>123</ele><time>2022-03-28T12:41:43Z</time><name>PT218</name></trkpt>
<trkpt lat="54.441410" lon="-3.321821"><ele>123</ele><time>2022-03-28T12:41:44Z</time><name>PT219</name></trkpt>
<trkpt lat="54.441415" lon="-3.321818"><ele>124</ele><time>2022-03-28T12:41:56Z</time><name>PT220</name></trkpt>
<trkpt lat="54.441424" lon="-3.321826"><ele>124</ele><time>2022-03-28T12:41:58Z</time><name>PT221</name></trkpt>
<trkpt lat="54.441434" lon="-3.321835"><ele>124</ele><time>2022-03-28T12:41:58Z</time><name>PT222</name></trkpt>
<trkpt lat="54.441439" lon="-3.321850"><ele>124</ele><time>2022-03-28T12:41:59Z</time><name>PT223</name></trkpt>
<trkpt lat="54.441450" lon="-3.321854"><ele>124</ele><time>2022-03-28T12:42:01Z</time><name>PT224</name></trkpt>
<trkpt lat="54.441453" lon="-3.321858"><ele>124</ele><time>2022-03-28T12:42:01Z</time><name>PT225</name></trkpt>
<trkpt lat="54.441460" lon="-3.321862"><ele>124</ele><time>2022-03-28T12:42:02Z</time><name>PT226</name></trkpt>
<trkpt lat="54.441462" lon="-3.321864"><ele>124</ele><time>2022-03-28T12:42:04Z</time><name>PT227</name></trkpt>
<trkpt lat="54.441475" lon="-3.321870"><ele>124</ele><time>2022-03-28T12:42:04Z</time><name>PT228</name></trkpt>
<trkpt lat="54.441482" lon="-3.321874"><ele>124</ele><time>2022-03-28T12:42:05Z</time><name>PT229</name></trkpt>
<trkpt lat="54.441487" lon="-3.321877"><ele>125</ele><time>2022-03-28T12:42:07Z</time><name>PT230</name></trkpt>
<trkpt lat="54.441495" lon="-3.321880"><ele>125</ele><time>2022-03-28T12:42:07Z</time><name>PT231</name></trkpt>
<trkpt lat="54.441503" lon="-3.321888"><ele>125</ele><time>2022-03-28T12:42:08Z</time><name>PT232</name></trkpt>
<trkpt lat="54.441508" lon="-3.321897"><ele>125</ele><time>2022-03-28T12:42:10Z</time><name>PT233</name></trkpt>
<trkpt lat="54.441511" lon="-3.321903"><ele>125</ele><time>2022-03-28T12:42:10Z</time><name>PT234</name></trkpt>
<trkpt lat="54.441515" lon="-3.321909"><ele>126</ele><time>2022-03-28T12:42:11Z</time><name>PT235</name></trkpt>
<trkpt lat="54.441521" lon="-3.321921"><ele>126</ele><time>2022-03-28T12:42:16Z</time><name>PT236</name></trkpt>
<trkpt lat="54.441534" lon="-3.321913"><ele>127</ele><time>2022-03-28T12:42:16Z</time><name>PT237</name></trkpt>
<trkpt lat="54.441543" lon="-3.321904"><ele>127</ele><time>2022-03-28T12:42:17Z</time><name>PT238</name></trkpt>
<trkpt lat="54.441547" lon="-3.321900"><ele>128</ele><time>2022-03-28T12:42:19Z</time><name>PT239</name></trkpt>
<trkpt lat="54.441555" lon="-3.321897"><ele>128</ele><time>2022-03-28T12:42:19Z</time><name>PT240</name></trkpt>
<trkpt lat="54.441559" lon="-3.321899"><ele>128</ele><time>2022-03-28T12:42:20Z</time><name>PT241</name></trkpt>
<trkpt lat="54.441566" lon="-3.321903"><ele>128</ele><time>2022-03-28T12:42:22Z</time><name>PT242</name></trkpt>
<trkpt lat="54.441574" lon="-3.321907"><ele>128</ele><time>2022-03-28T12:42:22Z</time><name>PT243</name></trkpt>
<trkpt lat="54.441577" lon="-3.321913"><ele>128</ele><time>2022-03-28T12:42:23Z</time><name>PT244</name></trkpt>
<trkpt lat="54.441579" lon="-3.321917"><ele>129</ele><time>2022-03-28T12:42:25Z</time><name>PT245</name></trkpt>
<trkpt lat="54.441586" lon="-3.321918"><ele>129</ele><time>2022-03-28T12:42:25Z</time><name>PT246</name></trkpt>
<trkpt lat="54.441598" lon="-3.321926"><ele>129</ele><time>2022-03-28T12:42:26Z</time><name>PT247</name></trkpt>
<trkpt lat="54.441604" lon="-3.321933"><ele>130</ele><time>2022-03-28T12:42:29Z</time><name>PT248</name></trkpt>
<trkpt lat="54.441618" lon="-3.321947"><ele>131</ele><time>2022-03-28T12:42:32Z</time><name>PT249</name></trkpt>
<trkpt lat="54.441629" lon="-3.321969"><ele>131</ele><time>2022-03-28T12:42:35Z</time><name>PT250</name></trkpt>
<trkpt lat="54.441646" lon="-3.322008"><ele>131</ele><time>2022-03-28T12:42:40Z</time><name>PT251</name></trkpt>
<trkpt lat="54.441668" lon="-3.322032"><ele>131</ele><time>2022-03-28T12:42:43Z</time><name>PT252</name></trkpt>
<trkpt lat="54.441684" lon="-3.322070"><ele>132</ele><time>2022-03-28T12:42:47Z</time><name>PT253</name></trkpt>
<trkpt lat="54.441695" lon="-3.322087"><ele>133</ele><time>2022-03-28T12:42:50Z</time><name>PT254</name></trkpt>
<trkpt lat="54.441727" lon="-3.322089"><ele>134</ele><time>2022-03-28T12:42:55Z</time><name>PT255</name></trkpt>
<trkpt lat="54.441734" lon="-3.322083"><ele>134</ele><time>2022-03-28T12:42:58Z</time><name>PT256</name></trkpt>
<trkpt lat="54.441759" lon="-3.322084"><ele>135</ele><time>2022-03-28T12:43:01Z</time><name>PT257</name></trkpt>
<trkpt lat="54.441779" lon="-3.322089"><ele>137</ele><time>2022-03-28T12:43:05Z</time><name>PT258</name></trkpt>
<trkpt lat="54.441797" lon="-3.322112"><ele>138</ele><time>2022-03-28T12:43:08Z</time><name>PT259</name></trkpt>
<trkpt lat="54.441811" lon="-3.322125"><ele>139</ele><time>2022-03-28T12:43:11Z</time><name>PT260</name></trkpt>
<trkpt lat="54.441826" lon="-3.322141"><ele>139</ele><time>2022-03-28T12:43:14Z</time><name>PT261</name></trkpt>
<trkpt lat="54.441829" lon="-3.322148"><ele>138</ele><time>2022-03-28T12:43:19Z</time><name>PT262</name></trkpt>
<trkpt lat="54.441839" lon="-3.322163"><ele>139</ele><time>2022-03-28T12:43:25Z</time><name>PT263</name></trkpt>
<trkpt lat="54.441853" lon="-3.322175"><ele>139</ele><time>2022-03-28T12:43:28Z</time><name>PT264</name></trkpt>
<trkpt lat="54.441872" lon="-3.322180"><ele>140</ele><time>2022-03-28T12:43:35Z</time><name>PT265</name></trkpt>
<trkpt lat="54.441891" lon="-3.322190"><ele>140</ele><time>2022-03-28T12:43:40Z</time><name>PT266</name></trkpt>
<trkpt lat="54.441912" lon="-3.322198"><ele>140</ele><time>2022-03-28T12:43:43Z</time><name>PT267</name></trkpt>
<trkpt lat="54.441930" lon="-3.322210"><ele>140</ele><time>2022-03-28T12:43:46Z</time><name>PT268</name></trkpt>
<trkpt lat="54.441955" lon="-3.322219"><ele>140</ele><time>2022-03-28T12:43:50Z</time><name>PT269</name></trkpt>
<trkpt lat="54.441970" lon="-3.322220"><ele>141</ele><time>2022-03-28T12:43:53Z</time><name>PT270</name></trkpt>
<trkpt lat="54.441990" lon="-3.322205"><ele>142</ele><time>2022-03-28T12:43:58Z</time><name>PT271</name></trkpt>
<trkpt lat="54.442002" lon="-3.322201"><ele>142</ele><time>2022-03-28T12:44:01Z</time><name>PT272</name></trkpt>
<trkpt lat="54.442013" lon="-3.322205"><ele>143</ele><time>2022-03-28T12:44:04Z</time><name>PT273</name></trkpt>
<trkpt lat="54.442029" lon="-3.322223"><ele>144</ele><time>2022-03-28T12:44:07Z</time><name>PT274</name></trkpt>
<trkpt lat="54.442045" lon="-3.322229"><ele>144</ele><time>2022-03-28T12:44:10Z</time><name>PT275</name></trkpt>
<trkpt lat="54.442056" lon="-3.322241"><ele>145</ele><time>2022-03-28T12:44:22Z</time><name>PT276</name></trkpt>
<trkpt lat="54.442072" lon="-3.322249"><ele>147</ele><time>2022-03-28T12:44:25Z</time><name>PT277</name></trkpt>
<trkpt lat="54.442093" lon="-3.322275"><ele>146</ele><time>2022-03-28T12:44:28Z</time><name>PT278</name></trkpt>
<trkpt lat="54.442097" lon="-3.322292"><ele>147</ele><time>2022-03-28T12:44:32Z</time><name>PT279</name></trkpt>
<trkpt lat="54.442109" lon="-3.322303"><ele>149</ele><time>2022-03-28T12:44:35Z</time><name>PT280</name></trkpt>
<trkpt lat="54.442128" lon="-3.322318"><ele>149</ele><time>2022-03-28T12:44:38Z</time><name>PT281</name></trkpt>
<trkpt lat="54.442137" lon="-3.322326"><ele>150</ele><time>2022-03-28T12:44:41Z</time><name>PT282</name></trkpt>
<trkpt lat="54.442150" lon="-3.322326"><ele>152</ele><time>2022-03-28T12:44:44Z</time><name>PT283</name></trkpt>
<trkpt lat="54.442186" lon="-3.322331"><ele>153</ele><time>2022-03-28T12:44:49Z</time><name>PT284</name></trkpt>
<trkpt lat="54.442203" lon="-3.322350"><ele>154</ele><time>2022-03-28T12:44:52Z</time><name>PT285</name></trkpt>
<trkpt lat="54.442219" lon="-3.322378"><ele>155</ele><time>2022-03-28T12:44:56Z</time><name>PT286</name></trkpt>
<trkpt lat="54.442217" lon="-3.322383"><ele>155</ele><time>2022-03-28T12:44:59Z</time><name>PT287</name></trkpt>
<trkpt lat="54.442230" lon="-3.322409"><ele>156</ele><time>2022-03-28T12:45:02Z</time><name>PT288</name></trkpt>
<trkpt lat="54.442256" lon="-3.322429"><ele>157</ele><time>2022-03-28T12:45:07Z</time><name>PT289</name></trkpt>
<trkpt lat="54.442265" lon="-3.322445"><ele>156</ele><time>2022-03-28T12:45:10Z</time><name>PT290</name></trkpt>
<trkpt lat="54.442281" lon="-3.322472"><ele>157</ele><time>2022-03-28T12:45:13Z</time><name>PT291</name></trkpt>
<trkpt lat="54.442297" lon="-3.322487"><ele>158</ele><time>2022-03-28T12:45:16Z</time><name>PT292</name></trkpt>
<trkpt lat="54.442306" lon="-3.322498"><ele>157</ele><time>2022-03-28T12:45:19Z</time><name>PT293</name></trkpt>
<trkpt lat="54.442317" lon="-3.322516"><ele>159</ele><time>2022-03-28T12:45:23Z</time><name>PT294</name></trkpt>
<trkpt lat="54.442333" lon="-3.322536"><ele>160</ele><time>2022-03-28T12:45:28Z</time><name>PT295</name></trkpt>
<trkpt lat="54.442348" lon="-3.322544"><ele>160</ele><time>2022-03-28T12:45:31Z</time><name>PT296</name></trkpt>
<trkpt lat="54.442365" lon="-3.322564"><ele>161</ele><time>2022-03-28T12:45:34Z</time><name>PT297</name></trkpt>
<trkpt lat="54.442386" lon="-3.322588"><ele>162</ele><time>2022-03-28T12:45:37Z</time><name>PT298</name></trkpt>
<trkpt lat="54.442399" lon="-3.322600"><ele>163</ele><time>2022-03-28T12:45:41Z</time><name>PT299</name></trkpt>
<trkpt lat="54.442417" lon="-3.322613"><ele>163</ele><time>2022-03-28T12:45:44Z</time><name>PT300</name></trkpt>
<trkpt lat="54.442441" lon="-3.322618"><ele>163</ele><time>2022-03-28T12:45:49Z</time><name>PT301</name></trkpt>
<trkpt lat="54.442460" lon="-3.322624"><ele>164</ele><time>2022-03-28T12:45:52Z</time><name>PT302</name></trkpt>
<trkpt lat="54.442464" lon="-3.322629"><ele>165</ele><time>2022-03-28T12:45:55Z</time><name>PT303</name></trkpt>
<trkpt lat="54.442476" lon="-3.322640"><ele>165</ele><time>2022-03-28T12:45:58Z</time><name>PT304</name></trkpt>
<trkpt lat="54.442486" lon="-3.322640"><ele>166</ele><time>2022-03-28T12:46:01Z</time><name>PT305</name></trkpt>
<trkpt lat="54.442506" lon="-3.322654"><ele>166</ele><time>2022-03-28T12:46:05Z</time><name>PT306</name></trkpt>
<trkpt lat="54.442519" lon="-3.322666"><ele>166</ele><time>2022-03-28T12:46:08Z</time><name>PT307</name></trkpt>
<trkpt lat="54.442535" lon="-3.322678"><ele>167</ele><time>2022-03-28T12:46:11Z</time><name>PT308</name></trkpt>
<trkpt lat="54.442560" lon="-3.322696"><ele>168</ele><time>2022-03-28T12:46:22Z</time><name>PT309</name></trkpt>
<trkpt lat="54.442581" lon="-3.322711"><ele>169</ele><time>2022-03-28T12:46:25Z</time><name>PT310</name></trkpt>
<trkpt lat="54.442607" lon="-3.322749"><ele>170</ele><time>2022-03-28T12:46:28Z</time><name>PT311</name></trkpt>
<trkpt lat="54.442628" lon="-3.322767"><ele>170</ele><time>2022-03-28T12:46:32Z</time><name>PT312</name></trkpt>
<trkpt lat="54.442653" lon="-3.322782"><ele>170</ele><time>2022-03-28T12:46:37Z</time><name>PT313</name></trkpt>
<trkpt lat="54.442664" lon="-3.322793"><ele>172</ele><time>2022-03-28T12:46:40Z</time><name>PT314</name></trkpt>
<trkpt lat="54.442673" lon="-3.322808"><ele>173</ele><time>2022-03-28T12:46:44Z</time><name>PT315</name></trkpt>
<trkpt lat="54.442685" lon="-3.322818"><ele>174</ele><time>2022-03-28T12:46:47Z</time><name>PT316</name></trkpt>
<trkpt lat="54.442709" lon="-3.322833"><ele>176</ele><time>2022-03-28T12:46:52Z</time><name>PT317</name></trkpt>
<trkpt lat="54.442726" lon="-3.322832"><ele>177</ele><time>2022-03-28T12:46:55Z</time><name>PT318</name></trkpt>
<trkpt lat="54.442744" lon="-3.322824"><ele>178</ele><time>2022-03-28T12:46:59Z</time><name>PT319</name></trkpt>
<trkpt lat="54.442753" lon="-3.322824"><ele>179</ele><time>2022-03-28T12:47:02Z</time><name>PT320</name></trkpt>
<trkpt lat="54.442766" lon="-3.322819"><ele>179</ele><time>2022-03-28T12:47:05Z</time><name>PT321</name></trkpt>
<trkpt lat="54.442778" lon="-3.322814"><ele>181</ele><time>2022-03-28T12:47:10Z</time><name>PT322</name></trkpt>
<trkpt lat="54.442787" lon="-3.322825"><ele>183</ele><time>2022-03-28T12:47:13Z</time><name>PT323</name></trkpt>
<trkpt lat="54.442804" lon="-3.322834"><ele>183</ele><time>2022-03-28T12:47:16Z</time><name>PT324</name></trkpt>
<trkpt lat="54.442824" lon="-3.322833"><ele>185</ele><time>2022-03-28T12:47:19Z</time><name>PT325</name></trkpt>
<trkpt lat="54.442847" lon="-3.322846"><ele>186</ele><time>2022-03-28T12:47:23Z</time><name>PT326</name></trkpt>
<trkpt lat="54.442876" lon="-3.322857"><ele>185</ele><time>2022-03-28T12:47:28Z</time><name>PT327</name></trkpt>
<trkpt lat="54.442895" lon="-3.322873"><ele>185</ele><time>2022-03-28T12:47:31Z</time><name>PT328</name></trkpt>
<trkpt lat="54.442907" lon="-3.322889"><ele>184</ele><time>2022-03-28T12:47:35Z</time><name>PT329</name></trkpt>
<trkpt lat="54.442921" lon="-3.322898"><ele>185</ele><time>2022-03-28T12:47:38Z</time><name>PT330</name></trkpt>
<trkpt lat="54.442933" lon="-3.322913"><ele>186</ele><time>2022-03-28T12:47:41Z</time><name>PT331</name></trkpt>
<trkpt lat="54.442946" lon="-3.322934"><ele>186</ele><time>2022-03-28T12:47:46Z</time><name>PT332</name></trkpt>
<trkpt lat="54.442965" lon="-3.322931"><ele>188</ele><time>2022-03-28T12:47:49Z</time><name>PT333</name></trkpt>
<trkpt lat="54.442979" lon="-3.322923"><ele>189</ele><time>2022-03-28T12:47:52Z</time><name>PT334</name></trkpt>
<trkpt lat="54.442987" lon="-3.322923"><ele>189</ele><time>2022-03-28T12:47:55Z</time><name>PT335</name></trkpt>
<trkpt lat="54.442987" lon="-3.322924"><ele>189</ele><time>2022-03-28T12:47:58Z</time><name>PT336</name></trkpt>
<trkpt lat="54.442989" lon="-3.322921"><ele>190</ele><time>2022-03-28T12:48:08Z</time><name>PT337</name></trkpt>
<trkpt lat="54.443020" lon="-3.322901"><ele>191</ele><time>2022-03-28T12:48:13Z</time><name>PT338</name></trkpt>
<trkpt lat="54.443034" lon="-3.322898"><ele>192</ele><time>2022-03-28T12:48:16Z</time><name>PT339</name></trkpt>
<trkpt lat="54.443045" lon="-3.322905"><ele>193</ele><time>2022-03-28T12:48:19Z</time><name>PT340</name></trkpt>
<trkpt lat="54.443062" lon="-3.322926"><ele>194</ele><time>2022-03-28T12:48:22Z</time><name>PT341</name></trkpt>
<trkpt lat="54.443078" lon="-3.322957"><ele>194</ele><time>2022-03-28T12:48:25Z</time><name>PT342</name></trkpt>
<trkpt lat="54.443103" lon="-3.322983"><ele>195</ele><time>2022-03-28T12:48:29Z</time><name>PT343</name></trkpt>
<trkpt lat="54.443122" lon="-3.323011"><ele>195</ele><time>2022-03-28T12:48:34Z</time><name>PT344</name></trkpt>
<trkpt lat="54.443151" lon="-3.323028"><ele>196</ele><time>2022-03-28T12:48:37Z</time><name>PT345</name></trkpt>
<trkpt lat="54.443164" lon="-3.323016"><ele>197</ele><time>2022-03-28T12:48:40Z</time><name>PT346</name></trkpt>
<trkpt lat="54.443187" lon="-3.323030"><ele>199</ele><time>2022-03-28T12:48:44Z</time><name>PT347</name></trkpt>
<trkpt lat="54.443202" lon="-3.323046"><ele>199</ele><time>2022-03-28T12:48:47Z</time><name>PT348</name></trkpt>
<trkpt lat="54.443215" lon="-3.323048"><ele>200</ele><time>2022-03-28T12:48:50Z</time><name>PT349</name></trkpt>
<trkpt lat="54.443220" lon="-3.323051"><ele>200</ele><time>2022-03-28T12:48:52Z</time><name>PT350</name></trkpt>
<trkpt lat="54.443224" lon="-3.323058"><ele>200</ele><time>2022-03-28T12:48:52Z</time><name>PT351</name></trkpt>
<trkpt lat="54.443222" lon="-3.323064"><ele>200</ele><time>2022-03-28T12:48:53Z</time><name>PT352</name></trkpt>
<trkpt lat="54.443221" lon="-3.323071"><ele>200</ele><time>2022-03-28T12:48:55Z</time><name>PT353</name></trkpt>
<trkpt lat="54.443221" lon="-3.323074"><ele>200</ele><time>2022-03-28T12:48:55Z</time><name>PT354</name></trkpt>
<trkpt lat="54.443223" lon="-3.323073"><ele>200</ele><time>2022-03-28T12:48:56Z</time><name>PT355</name></trkpt>
<trkpt lat="54.443226" lon="-3.323074"><ele>202</ele><time>2022-03-28T12:48:58Z</time><name>PT356</name></trkpt>
<trkpt lat="54.443229" lon="-3.323073"><ele>204</ele><time>2022-03-28T12:48:58Z</time><name>PT357</name></trkpt>
<trkpt lat="54.443233" lon="-3.323075"><ele>205</ele><time>2022-03-28T12:48:59Z</time><name>PT358</name></trkpt>
<trkpt lat="54.443228" lon="-3.323072"><ele>205</ele><time>2022-03-28T12:49:01Z</time><name>PT359</name></trkpt>
<trkpt lat="54.443226" lon="-3.323071"><ele>204</ele><time>2022-03-28T12:49:02Z</time><name>PT360</name></trkpt>
<trkpt lat="54.443227" lon="-3.323071"><ele>204</ele><time>2022-03-28T12:49:04Z</time><name>PT361</name></trkpt>
<trkpt lat="54.443229" lon="-3.323073"><ele>203</ele><time>2022-03-28T12:49:04Z</time><name>PT362</name></trkpt>
<trkpt lat="54.443233" lon="-3.323073"><ele>204</ele><time>2022-03-28T12:49:05Z</time><name>PT363</name></trkpt>
<trkpt lat="54.443237" lon="-3.323072"><ele>204</ele><time>2022-03-28T12:49:07Z</time><name>PT364</name></trkpt>
<trkpt lat="54.443243" lon="-3.323065"><ele>204</ele><time>2022-03-28T12:49:07Z</time><name>PT365</name></trkpt>
<trkpt lat="54.443249" lon="-3.323062"><ele>204</ele><time>2022-03-28T12:49:08Z</time><name>PT366</name></trkpt>
<trkpt lat="54.443255" lon="-3.323056"><ele>204</ele><time>2022-03-28T12:49:10Z</time><name>PT367</name></trkpt>
<trkpt lat="54.443260" lon="-3.323055"><ele>204</ele><time>2022-03-28T12:49:10Z</time><name>PT368</name></trkpt>
<trkpt lat="54.443266" lon="-3.323051"><ele>204</ele><time>2022-03-28T12:49:11Z</time><name>PT369</name></trkpt>
<trkpt lat="54.443274" lon="-3.323048"><ele>204</ele><time>2022-03-28T12:49:13Z</time><name>PT370</name></trkpt>
<trkpt lat="54.443279" lon="-3.323048"><ele>204</ele><time>2022-03-28T12:49:13Z</time><name>PT371</name></trkpt>
<trkpt lat="54.443285" lon="-3.323045"><ele>204</ele><time>2022-03-28T12:49:14Z</time><name>PT372</name></trkpt>
<trkpt lat="54.443290" lon="-3.323040"><ele>204</ele><time>2022-03-28T12:49:16Z</time><name>PT373</name></trkpt>
<trkpt lat="54.443296" lon="-3.323037"><ele>204</ele><time>2022-03-28T12:49:16Z</time><name>PT374</name></trkpt>
<trkpt lat="54.443303" lon="-3.323035"><ele>204</ele><time>2022-03-28T12:49:17Z</time><name>PT375</name></trkpt>
<trkpt lat="54.443309" lon="-3.323033"><ele>205</ele><time>2022-03-28T12:49:19Z</time><name>PT376</name></trkpt>
<trkpt lat="54.443311" lon="-3.323029"><ele>205</ele><time>2022-03-28T12:49:19Z</time><name>PT377</name></trkpt>
<trkpt lat="54.443315" lon="-3.323027"><ele>205</ele><time>2022-03-28T12:49:20Z</time><name>PT378</name></trkpt>
<trkpt lat="54.443319" lon="-3.323025"><ele>206</ele><time>2022-03-28T12:49:22Z</time><name>PT379</name></trkpt>
<trkpt lat="54.443323" lon="-3.323021"><ele>206</ele><time>2022-03-28T12:49:22Z</time><name>PT380</name></trkpt>
<trkpt lat="54.443331" lon="-3.323018"><ele>206</ele><time>2022-03-28T12:49:23Z</time><name>PT381</name></trkpt>
<trkpt lat="54.443334" lon="-3.323016"><ele>206</ele><time>2022-03-28T12:49:25Z</time><name>PT382</name></trkpt>
<trkpt lat="54.443339" lon="-3.323012"><ele>206</ele><time>2022-03-28T12:49:25Z</time><name>PT383</name></trkpt>
<trkpt lat="54.443345" lon="-3.323014"><ele>206</ele><time>2022-03-28T12:49:26Z</time><name>PT384</name></trkpt>
<trkpt lat="54.443351" lon="-3.323013"><ele>206</ele><time>2022-03-28T12:49:28Z</time><name>PT385</name></trkpt>
<trkpt lat="54.443357" lon="-3.323011"><ele>207</ele><time>2022-03-28T12:49:28Z</time><name>PT386</name></trkpt>
<trkpt lat="54.443360" lon="-3.323015"><ele>207</ele><time>2022-03-28T12:49:29Z</time><name>PT387</name></trkpt>
<trkpt lat="54.443365" lon="-3.323015"><ele>208</ele><time>2022-03-28T12:49:31Z</time><name>PT388</name></trkpt>
<trkpt lat="54.443370" lon="-3.323012"><ele>208</ele><time>2022-03-28T12:49:31Z</time><name>PT389</name></trkpt>
<trkpt lat="54.443375" lon="-3.323012"><ele>209</ele><time>2022-03-28T12:49:32Z</time><name>PT390</name></trkpt>
<trkpt lat="54.443378" lon="-3.323012"><ele>209</ele><time>2022-03-28T12:49:34Z</time><name>PT391</name></trkpt>
<trkpt lat="54.443384" lon="-3.323014"><ele>209</ele><time>2022-03-28T12:49:34Z</time><name>PT392</name></trkpt>
<trkpt lat="54.443389" lon="-3.323016"><ele>210</ele><time>2022-03-28T12:49:35Z</time><name>PT393</name></trkpt>
<trkpt lat="54.443394" lon="-3.323016"><ele>210</ele><time>2022-03-28T12:49:37Z</time><name>PT394</name></trkpt>
<trkpt lat="54.443403" lon="-3.323016"><ele>210</ele><time>2022-03-28T12:49:37Z</time><name>PT395</name></trkpt>
<trkpt lat="54.443407" lon="-3.323011"><ele>209</ele><time>2022-03-28T12:49:38Z</time><name>PT396</name></trkpt>
<trkpt lat="54.443407" lon="-3.323004"><ele>209</ele><time>2022-03-28T12:49:40Z</time><name>PT397</name></trkpt>
<trkpt lat="54.443411" lon="-3.323001"><ele>209</ele><time>2022-03-28T12:49:40Z</time><name>PT398</name></trkpt>
<trkpt lat="54.443414" lon="-3.322997"><ele>210</ele><time>2022-03-28T12:49:41Z</time><name>PT399</name></trkpt>
<trkpt lat="54.443416" lon="-3.322994"><ele>209</ele><time>2022-03-28T12:49:43Z</time><name>PT400</name></trkpt>
<trkpt lat="54.443418" lon="-3.322992"><ele>209</ele><time>2022-03-28T12:49:43Z</time><name>PT401</name></trkpt>
<trkpt lat="54.443421" lon="-3.322992"><ele>209</ele><time>2022-03-28T12:49:49Z</time><name>PT402</name></trkpt>
<trkpt lat="54.443426" lon="-3.322991"><ele>210</ele><time>2022-03-28T12:49:50Z</time><name>PT403</name></trkpt>
<trkpt lat="54.443430" lon="-3.322995"><ele>210</ele><time>2022-03-28T12:49:52Z</time><name>PT404</name></trkpt>
<trkpt lat="54.443435" lon="-3.322995"><ele>210</ele><time>2022-03-28T12:49:52Z</time><name>PT405</name></trkpt>
<trkpt lat="54.443436" lon="-3.322991"><ele>211</ele><time>2022-03-28T12:49:53Z</time><name>PT406</name></trkpt>
<trkpt lat="54.443440" lon="-3.322981"><ele>211</ele><time>2022-03-28T12:49:55Z</time><name>PT407</name></trkpt>
<trkpt lat="54.443442" lon="-3.322976"><ele>211</ele><time>2022-03-28T12:49:55Z</time><name>PT408</name></trkpt>
<trkpt lat="54.443445" lon="-3.322972"><ele>211</ele><time>2022-03-28T12:49:56Z</time><name>PT409</name></trkpt>
<trkpt lat="54.443452" lon="-3.322967"><ele>211</ele><time>2022-03-28T12:49:58Z</time><name>PT410</name></trkpt>
<trkpt lat="54.443458" lon="-3.322962"><ele>211</ele><time>2022-03-28T12:49:58Z</time><name>PT411</name></trkpt>
<trkpt lat="54.443463" lon="-3.322958"><ele>212</ele><time>2022-03-28T12:49:59Z</time><name>PT412</name></trkpt>
<trkpt lat="54.443467" lon="-3.322959"><ele>212</ele><time>2022-03-28T12:50:01Z</time><name>PT413</name></trkpt>
<trkpt lat="54.443473" lon="-3.322951"><ele>212</ele><time>2022-03-28T12:50:01Z</time><name>PT414</name></trkpt>
<trkpt lat="54.443475" lon="-3.322945"><ele>213</ele><time>2022-03-28T12:50:02Z</time><name>PT415</name></trkpt>
<trkpt lat="54.443479" lon="-3.322943"><ele>213</ele><time>2022-03-28T12:50:04Z</time><name>PT416</name></trkpt>
<trkpt lat="54.443484" lon="-3.322946"><ele>213</ele><time>2022-03-28T12:50:04Z</time><name>PT417</name></trkpt>
<trkpt lat="54.443488" lon="-3.322945"><ele>214</ele><time>2022-03-28T12:50:05Z</time><name>PT418</name></trkpt>
<trkpt lat="54.443493" lon="-3.322946"><ele>214</ele><time>2022-03-28T12:50:07Z</time><name>PT419</name></trkpt>
<trkpt lat="54.443493" lon="-3.322946"><ele>214</ele><time>2022-03-28T12:50:07Z</time><name>PT420</name></trkpt>
<trkpt lat="54.443496" lon="-3.322947"><ele>214</ele><time>2022-03-28T12:50:08Z</time><name>PT421</name></trkpt>
<trkpt lat="54.443498" lon="-3.322948"><ele>214</ele><time>2022-03-28T12:50:10Z</time><name>PT422</name></trkpt>
<trkpt lat="54.443502" lon="-3.322954"><ele>213</ele><time>2022-03-28T12:50:10Z</time><name>PT423</name></trkpt>
<trkpt lat="54.443506" lon="-3.322956"><ele>213</ele><time>2022-03-28T12:50:11Z</time><name>PT424</name></trkpt>
<trkpt lat="54.443512" lon="-3.322955"><ele>214</ele><time>2022-03-28T12:50:13Z</time><name>PT425</name></trkpt>
<trkpt lat="54.443518" lon="-3.322954"><ele>214</ele><time>2022-03-28T12:50:13Z</time><name>PT426</name></trkpt>
<trkpt lat="54.443526" lon="-3.322952"><ele>214</ele><time>2022-03-28T12:50:14Z</time><name>PT427</name></trkpt>
<trkpt lat="54.443531" lon="-3.322951"><ele>215</ele><time>2022-03-28T12:50:16Z</time><name>PT428</name></trkpt>
<trkpt lat="54.443537" lon="-3.322947"><ele>215</ele><time>2022-03-28T12:50:16Z</time><name>PT429</name></trkpt>
<trkpt lat="54.443541" lon="-3.322948"><ele>215</ele><time>2022-03-28T12:50:17Z</time><name>PT430</name></trkpt>
<trkpt lat="54.443544" lon="-3.322951"><ele>215</ele><time>2022-03-28T12:50:19Z</time><name>PT431</name></trkpt>
<trkpt lat="54.443546" lon="-3.322956"><ele>215</ele><time>2022-03-28T12:50:19Z</time><name>PT432</name></trkpt>
<trkpt lat="54.443549" lon="-3.322955"><ele>215</ele><time>2022-03-28T12:50:20Z</time><name>PT433</name></trkpt>
<trkpt lat="54.443552" lon="-3.322955"><ele>215</ele><time>2022-03-28T12:50:22Z</time><name>PT434</name></trkpt>
<trkpt lat="54.443555" lon="-3.322952"><ele>216</ele><time>2022-03-28T12:50:22Z</time><name>PT435</name></trkpt>
<trkpt lat="54.443561" lon="-3.322949"><ele>216</ele><time>2022-03-28T12:50:23Z</time><name>PT436</name></trkpt>
<trkpt lat="54.443564" lon="-3.322950"><ele>216</ele><time>2022-03-28T12:50:25Z</time><name>PT437</name></trkpt>
<trkpt lat="54.443565" lon="-3.322952"><ele>216</ele><time>2022-03-28T12:50:25Z</time><name>PT438</name></trkpt>
<trkpt lat="54.443572" lon="-3.322953"><ele>216</ele><time>2022-03-28T12:50:26Z</time><name>PT439</name></trkpt>
<trkpt lat="54.443575" lon="-3.322951"><ele>216</ele><time>2022-03-28T12:50:28Z</time><name>PT440</name></trkpt>
<trkpt lat="54.443581" lon="-3.322948"><ele>217</ele><time>2022-03-28T12:50:28Z</time><name>PT441</name></trkpt>
<trkpt lat="54.443583" lon="-3.322939"><ele>217</ele><time>2022-03-28T12:50:29Z</time><name>PT442</name></trkpt>
<trkpt lat="54.443587" lon="-3.322937"><ele>217</ele><time>2022-03-28T12:50:31Z</time><name>PT443</name></trkpt>
<trkpt lat="54.443592" lon="-3.322942"><ele>217</ele><time>2022-03-28T12:50:31Z</time><name>PT444</name></trkpt>
<trkpt lat="54.443596" lon="-3.322943"><ele>219</ele><time>2022-03-28T12:50:32Z</time><name>PT445</name></trkpt>
<trkpt lat="54.443600" lon="-3.322943"><ele>219</ele><time>2022-03-28T12:50:34Z</time><name>PT446</name></trkpt>
<trkpt lat="54.443605" lon="-3.322944"><ele>219</ele><time>2022-03-28T12:50:34Z</time><name>PT447</name></trkpt>
<trkpt lat="54.443611" lon="-3.322948"><ele>220</ele><time>2022-03-28T12:50:35Z</time><name>PT448</name></trkpt>
<trkpt lat="54.443619" lon="-3.322951"><ele>220</ele><time>2022-03-28T12:50:37Z</time><name>PT449</name></trkpt>
<trkpt lat="54.443628" lon="-3.322953"><ele>220</ele><time>2022-03-28T12:50:37Z</time><name>PT450</name></trkpt>
<trkpt lat="54.443634" lon="-3.322954"><ele>220</ele><time>2022-03-28T12:50:38Z</time><name>PT451</name></trkpt>
<trkpt lat="54.443644" lon="-3.322956"><ele>220</ele><time>2022-03-28T12:50:40Z</time><name>PT452</name></trkpt>
<trkpt lat="54.443652" lon="-3.322955"><ele>220</ele><time>2022-03-28T12:50:40Z</time><name>PT453</name></trkpt>
<trkpt lat="54.443659" lon="-3.322952"><ele>221</ele><time>2022-03-28T12:50:41Z</time><name>PT454</name></trkpt>
<trkpt lat="54.443664" lon="-3.322949"><ele>221</ele><time>2022-03-28T12:50:43Z</time><name>PT455</name></trkpt>
<trkpt lat="54.443670" lon="-3.322946"><ele>221</ele><time>2022-03-28T12:50:43Z</time><name>PT456</name></trkpt>
<trkpt lat="54.443678" lon="-3.322943"><ele>221</ele><time>2022-03-28T12:50:44Z</time><name>PT457</name></trkpt>
<trkpt lat="54.443682" lon="-3.322941"><ele>221</ele><time>2022-03-28T12:50:46Z</time><name>PT458</name></trkpt>
<trkpt lat="54.443686" lon="-3.322938"><ele>221</ele><time>2022-03-28T12:50:46Z</time><name>PT459</name></trkpt>
<trkpt lat="54.443686" lon="-3.322936"><ele>221</ele><time>2022-03-28T12:50:49Z</time><name>PT460</name></trkpt>
<trkpt lat="54.443694" lon="-3.322934"><ele>221</ele><time>2022-03-28T12:50:49Z</time><name>PT461</name></trkpt>
<trkpt lat="54.443712" lon="-3.322930"><ele>222</ele><time>2022-03-28T12:50:52Z</time><name>PT462</name></trkpt>
<trkpt lat="54.443739" lon="-3.322926"><ele>222</ele><time>2022-03-28T12:50:56Z</time><name>PT463</name></trkpt>
<trkpt lat="54.443755" lon="-3.322918"><ele>223</ele><time>2022-03-28T12:50:59Z</time><name>PT464</name></trkpt>
<trkpt lat="54.443772" lon="-3.322898"><ele>224</ele><time>2022-03-28T12:51:04Z</time><name>PT465</name></trkpt>
<trkpt lat="54.443787" lon="-3.322884"><ele>224</ele><time>2022-03-28T12:51:07Z</time><name>PT466</name></trkpt>
<trkpt lat="54.443804" lon="-3.322867"><ele>224</ele><time>2022-03-28T12:51:11Z</time><name>PT467</name></trkpt>
<trkpt lat="54.443825" lon="-3.322855"><ele>225</ele><time>2022-03-28T12:51:16Z</time><name>PT468</name></trkpt>
<trkpt lat="54.443846" lon="-3.322840"><ele>227</ele><time>2022-03-28T12:51:19Z</time><name>PT469</name></trkpt>
<trkpt lat="54.443857" lon="-3.322800"><ele>228</ele><time>2022-03-28T12:51:23Z</time><name>PT470</name></trkpt>
<trkpt lat="54.443865" lon="-3.322775"><ele>230</ele><time>2022-03-28T12:51:26Z</time><name>PT471</name></trkpt>
<trkpt lat="54.443868" lon="-3.322740"><ele>230</ele><time>2022-03-28T12:51:31Z</time><name>PT472</name></trkpt>
<trkpt lat="54.443871" lon="-3.322716"><ele>231</ele><time>2022-03-28T12:51:34Z</time><name>PT473</name></trkpt>
<trkpt lat="54.443878" lon="-3.322689"><ele>232</ele><time>2022-03-28T12:51:37Z</time><name>PT474</name></trkpt>
<trkpt lat="54.443899" lon="-3.322672"><ele>232</ele><time>2022-03-28T12:51:40Z</time><name>PT475</name></trkpt>
<trkpt lat="54.443921" lon="-3.322656"><ele>233</ele><time>2022-03-28T12:51:43Z</time><name>PT476</name></trkpt>
<trkpt lat="54.443941" lon="-3.322647"><ele>234</ele><time>2022-03-28T12:51:47Z</time><name>PT477</name></trkpt>
<trkpt lat="54.443951" lon="-3.322635"><ele>234</ele><time>2022-03-28T12:51:50Z</time><name>PT478</name></trkpt>
<trkpt lat="54.443965" lon="-3.322626"><ele>234</ele><time>2022-03-28T12:51:55Z</time><name>PT479</name></trkpt>
<trkpt lat="54.443970" lon="-3.322622"><ele>235</ele><time>2022-03-28T12:51:58Z</time><name>PT480</name></trkpt>
<trkpt lat="54.443976" lon="-3.322603"><ele>235</ele><time>2022-03-28T12:52:01Z</time><name>PT481</name></trkpt>
<trkpt lat="54.443991" lon="-3.322572"><ele>235</ele><time>2022-03-28T12:52:04Z</time><name>PT482</name></trkpt>
<trkpt lat="54.444011" lon="-3.322558"><ele>236</ele><time>2022-03-28T12:52:07Z</time><name>PT483</name></trkpt>
<trkpt lat="54.444014" lon="-3.322541"><ele>236</ele><time>2022-03-28T12:52:11Z</time><name>PT484</name></trkpt>
<trkpt lat="54.444023" lon="-3.322522"><ele>237</ele><time>2022-03-28T12:52:16Z</time><name>PT485</name></trkpt>
<trkpt lat="54.444043" lon="-3.322507"><ele>238</ele><time>2022-03-28T12:52:19Z</time><name>PT486</name></trkpt>
<trkpt lat="54.444051" lon="-3.322495"><ele>239</ele><time>2022-03-28T12:52:22Z</time><name>PT487</name></trkpt>
<trkpt lat="54.444053" lon="-3.322497"><ele>239</ele><time>2022-03-28T12:52:25Z</time><name>PT488</name></trkpt>
<trkpt lat="54.444085" lon="-3.322476"><ele>238</ele><time>2022-03-28T12:52:29Z</time><name>PT489</name></trkpt>
<trkpt lat="54.444095" lon="-3.322453"><ele>239</ele><time>2022-03-28T12:52:34Z</time><name>PT490</name></trkpt>
<trkpt lat="54.444094" lon="-3.322437"><ele>239</ele><time>2022-03-28T12:52:37Z</time><name>PT491</name></trkpt>
<trkpt lat="54.444094" lon="-3.322425"><ele>239</ele><time>2022-03-28T12:52:47Z</time><name>PT492</name></trkpt>
<trkpt lat="54.444111" lon="-3.322382"><ele>240</ele><time>2022-03-28T12:52:50Z</time><name>PT493</name></trkpt>
<trkpt lat="54.444124" lon="-3.322348"><ele>240</ele><time>2022-03-28T12:52:53Z</time><name>PT494</name></trkpt>
<trkpt lat="54.444134" lon="-3.322312"><ele>240</ele><time>2022-03-28T12:52:58Z</time><name>PT495</name></trkpt>
<trkpt lat="54.444153" lon="-3.322285"><ele>240</ele><time>2022-03-28T12:53:01Z</time><name>PT496</name></trkpt>
<trkpt lat="54.444163" lon="-3.322261"><ele>241</ele><time>2022-03-28T12:53:04Z</time><name>PT497</name></trkpt>
<trkpt lat="54.444178" lon="-3.322236"><ele>243</ele><time>2022-03-28T12:53:08Z</time><name>PT498</name></trkpt>
<trkpt lat="54.444203" lon="-3.322215"><ele>244</ele><time>2022-03-28T12:53:13Z</time><name>PT499</name></trkpt>
<trkpt lat="54.444217" lon="-3.322199"><ele>245</ele><time>2022-03-28T12:53:16Z</time><name>PT500</name></trkpt>
<trkpt lat="54.444225" lon="-3.322182"><ele>247</ele><time>2022-03-28T12:53:19Z</time><name>PT501</name></trkpt>
<trkpt lat="54.444235" lon="-3.322168"><ele>247</ele><time>2022-03-28T12:53:22Z</time><name>PT502</name></trkpt>
<trkpt lat="54.444256" lon="-3.322142"><ele>248</ele><time>2022-03-28T12:53:25Z</time><name>PT503</name></trkpt>
<trkpt lat="54.444261" lon="-3.322113"><ele>249</ele><time>2022-03-28T12:53:29Z</time><name>PT504</name></trkpt>
<trkpt lat="54.444275" lon="-3.322106"><ele>250</ele><time>2022-03-28T12:53:32Z</time><name>PT505</name></trkpt>
<trkpt lat="54.444297" lon="-3.322089"><ele>251</ele><time>2022-03-28T12:53:37Z</time><name>PT506</name></trkpt>
<trkpt lat="54.444320" lon="-3.322084"><ele>252</ele><time>2022-03-28T12:53:40Z</time><name>PT507</name></trkpt>
<trkpt lat="54.444350" lon="-3.322078"><ele>252</ele><time>2022-03-28T12:53:44Z</time><name>PT508</name></trkpt>
<trkpt lat="54.444369" lon="-3.322073"><ele>253</ele><time>2022-03-28T12:53:49Z</time><name>PT509</name></trkpt>
<trkpt lat="54.444384" lon="-3.322061"><ele>254</ele><time>2022-03-28T12:53:52Z</time><name>PT510</name></trkpt>
<trkpt lat="54.444396" lon="-3.322046"><ele>255</ele><time>2022-03-28T12:53:55Z</time><name>PT511</name></trkpt>
<trkpt lat="54.444408" lon="-3.322016"><ele>256</ele><time>2022-03-28T12:53:59Z</time><name>PT512</name></trkpt>
<trkpt lat="54.444416" lon="-3.321994"><ele>256</ele><time>2022-03-28T12:54:02Z</time><name>PT513</name></trkpt>
<trkpt lat="54.444434" lon="-3.321982"><ele>257</ele><time>2022-03-28T12:54:07Z</time><name>PT514</name></trkpt>
<trkpt lat="54.444449" lon="-3.321973"><ele>257</ele><time>2022-03-28T12:54:10Z</time><name>PT515</name></trkpt>
<trkpt lat="54.444467" lon="-3.321953"><ele>259</ele><time>2022-03-28T12:54:13Z</time><name>PT516</name></trkpt>
<trkpt lat="54.444481" lon="-3.321937"><ele>261</ele><time>2022-03-28T12:54:16Z</time><name>PT517</name></trkpt>
<trkpt lat="54.444498" lon="-3.321922"><ele>262</ele><time>2022-03-28T12:54:20Z</time><name>PT518</name></trkpt>
<trkpt lat="54.444514" lon="-3.321917"><ele>262</ele><time>2022-03-28T12:54:25Z</time><name>PT519</name></trkpt>
<trkpt lat="54.444534" lon="-3.321897"><ele>262</ele><time>2022-03-28T12:54:28Z</time><name>PT520</name></trkpt>
<trkpt lat="54.444549" lon="-3.321874"><ele>263</ele><time>2022-03-28T12:54:31Z</time><name>PT521</name></trkpt>
<trkpt lat="54.444561" lon="-3.321862"><ele>264</ele><time>2022-03-28T12:54:35Z</time><name>PT522</name></trkpt>
<trkpt lat="54.444569" lon="-3.321853"><ele>263</ele><time>2022-03-28T12:54:40Z</time><name>PT523</name></trkpt>
<trkpt lat="54.444579" lon="-3.321832"><ele>264</ele><time>2022-03-28T12:54:43Z</time><name>PT524</name></trkpt>
<trkpt lat="54.444601" lon="-3.321807"><ele>264</ele><time>2022-03-28T12:54:46Z</time><name>PT525</name></trkpt>
<trkpt lat="54.444623" lon="-3.321785"><ele>266</ele><time>2022-03-28T12:54:50Z</time><name>PT526</name></trkpt>
<trkpt lat="54.444635" lon="-3.321766"><ele>266</ele><time>2022-03-28T12:54:55Z</time><name>PT527</name></trkpt>
<trkpt lat="54.444648" lon="-3.321748"><ele>266</ele><time>2022-03-28T12:54:58Z</time><name>PT528</name></trkpt>
<trkpt lat="54.444658" lon="-3.321728"><ele>267</ele><time>2022-03-28T12:55:01Z</time><name>PT529</name></trkpt>
<trkpt lat="54.444673" lon="-3.321695"><ele>268</ele><time>2022-03-28T12:55:04Z</time><name>PT530</name></trkpt>
<trkpt lat="54.444684" lon="-3.321674"><ele>268</ele><time>2022-03-28T12:55:08Z</time><name>PT531</name></trkpt>
<trkpt lat="54.444699" lon="-3.321666"><ele>269</ele><time>2022-03-28T12:55:11Z</time><name>PT532</name></trkpt>
<trkpt lat="54.444725" lon="-3.321666"><ele>270</ele><time>2022-03-28T12:55:14Z</time><name>PT533</name></trkpt>
<trkpt lat="54.444742" lon="-3.321643"><ele>270</ele><time>2022-03-28T12:55:19Z</time><name>PT534</name></trkpt>
<trkpt lat="54.444753" lon="-3.321608"><ele>269</ele><time>2022-03-28T12:55:22Z</time><name>PT535</name></trkpt>
<trkpt lat="54.444760" lon="-3.321565"><ele>270</ele><time>2022-03-28T12:55:26Z</time><name>PT536</name></trkpt>
<trkpt lat="54.444772" lon="-3.321545"><ele>271</ele><time>2022-03-28T12:55:29Z</time><name>PT537</name></trkpt>
<trkpt lat="54.444780" lon="-3.321513"><ele>271</ele><time>2022-03-28T12:55:34Z</time><name>PT538</name></trkpt>
<trkpt lat="54.444785" lon="-3.321489"><ele>271</ele><time>2022-03-28T12:55:37Z</time><name>PT539</name></trkpt>
<trkpt lat="54.444791" lon="-3.321466"><ele>271</ele><time>2022-03-28T12:55:40Z</time><name>PT540</name></trkpt>
<trkpt lat="54.444794" lon="-3.321452"><ele>272</ele><time>2022-03-28T12:55:47Z</time><name>PT541</name></trkpt>
<trkpt lat="54.444810" lon="-3.321422"><ele>271</ele><time>2022-03-28T12:55:50Z</time><name>PT542</name></trkpt>
<trkpt lat="54.444816" lon="-3.321404"><ele>272</ele><time>2022-03-28T12:55:55Z</time><name>PT543</name></trkpt>
<trkpt lat="54.444805" lon="-3.321347"><ele>273</ele><time>2022-03-28T12:55:58Z</time><name>PT544</name></trkpt>
<trkpt lat="54.444801" lon="-3.321323"><ele>274</ele><time>2022-03-28T12:56:01Z</time><name>PT545</name></trkpt>
<trkpt lat="54.444803" lon="-3.321308"><ele>274</ele><time>2022-03-28T12:56:01Z</time><name>PT546</name></trkpt>
<trkpt lat="54.444809" lon="-3.321300"><ele>274</ele><time>2022-03-28T12:56:02Z</time><name>PT547</name></trkpt>
<trkpt lat="54.444805" lon="-3.321292"><ele>275</ele><time>2022-03-28T12:56:04Z</time><name>PT548</name></trkpt>
<trkpt lat="54.444800" lon="-3.321283"><ele>275</ele><time>2022-03-28T12:56:04Z</time><name>PT549</name></trkpt>
<trkpt lat="54.444794" lon="-3.321273"><ele>275</ele><time>2022-03-28T12:56:05Z</time><name>PT550</name></trkpt>
<trkpt lat="54.444792" lon="-3.321265"><ele>276</ele><time>2022-03-28T12:56:07Z</time><name>PT551</name></trkpt>
<trkpt lat="54.444791" lon="-3.321258"><ele>276</ele><time>2022-03-28T12:56:07Z</time><name>PT552</name></trkpt>
<trkpt lat="54.444792" lon="-3.321254"><ele>276</ele><time>2022-03-28T12:56:08Z</time><name>PT553</name></trkpt>
<trkpt lat="54.444794" lon="-3.321239"><ele>276</ele><time>2022-03-28T12:56:16Z</time><name>PT554</name></trkpt>
<trkpt lat="54.444794" lon="-3.321229"><ele>276</ele><time>2022-03-28T12:56:16Z</time><name>PT555</name></trkpt>
<trkpt lat="54.444793" lon="-3.321222"><ele>276</ele><time>2022-03-28T12:56:17Z</time><name>PT556</name></trkpt>
<trkpt lat="54.444796" lon="-3.321220"><ele>276</ele><time>2022-03-28T12:56:19Z</time><name>PT557</name></trkpt>
<trkpt lat="54.444799" lon="-3.321216"><ele>277</ele><time>2022-03-28T12:56:19Z</time><name>PT558</name></trkpt>
<trkpt lat="54.444801" lon="-3.321207"><ele>277</ele><time>2022-03-28T12:56:20Z</time><name>PT559</name></trkpt>
<trkpt lat="54.444800" lon="-3.321198"><ele>277</ele><time>2022-03-28T12:56:22Z</time><name>PT560</name></trkpt>
<trkpt lat="54.444799" lon="-3.321186"><ele>278</ele><time>2022-03-28T12:56:22Z</time><name>PT561</name></trkpt>
<trkpt lat="54.444798" lon="-3.321173"><ele>278</ele><time>2022-03-28T12:56:23Z</time><name>PT562</name></trkpt>
<trkpt lat="54.444797" lon="-3.321164"><ele>278</ele><time>2022-03-28T12:56:25Z</time><name>PT563</name></trkpt>
<trkpt lat="54.444795" lon="-3.321153"><ele>278</ele><time>2022-03-28T12:56:25Z</time><name>PT564</name></trkpt>
<trkpt lat="54.444796" lon="-3.321144"><ele>278</ele><time>2022-03-28T12:56:26Z</time><name>PT565</name></trkpt>
<trkpt lat="54.444791" lon="-3.321130"><ele>278</ele><time>2022-03-28T12:56:28Z</time><name>PT566</name></trkpt>
<trkpt lat="54.444788" lon="-3.321119"><ele>278</ele><time>2022-03-28T12:56:28Z</time><name>PT567</name></trkpt>
<trkpt lat="54.444784" lon="-3.321115"><ele>278</ele><time>2022-03-28T12:56:29Z</time><name>PT568</name></trkpt>
<trkpt lat="54.444782" lon="-3.321108"><ele>279</ele><time>2022-03-28T12:56:31Z</time><name>PT569</name></trkpt>
<trkpt lat="54.444779" lon="-3.321102"><ele>278</ele><time>2022-03-28T12:56:31Z</time><name>PT570</name></trkpt>
<trkpt lat="54.444777" lon="-3.321092"><ele>278</ele><time>2022-03-28T12:56:32Z</time><name>PT571</name></trkpt>
<trkpt lat="54.444777" lon="-3.321085"><ele>278</ele><time>2022-03-28T12:56:34Z</time><name>PT572</name></trkpt>
<trkpt lat="54.444775" lon="-3.321073"><ele>279</ele><time>2022-03-28T12:56:43Z</time><name>PT573</name></trkpt>
<trkpt lat="54.444774" lon="-3.321060"><ele>279</ele><time>2022-03-28T12:56:44Z</time><name>PT574</name></trkpt>
<trkpt lat="54.444771" lon="-3.321044"><ele>280</ele><time>2022-03-28T12:56:46Z</time><name>PT575</name></trkpt>
<trkpt lat="54.444770" lon="-3.321025"><ele>280</ele><time>2022-03-28T12:56:46Z</time><name>PT576</name></trkpt>
<trkpt lat="54.444770" lon="-3.321016"><ele>281</ele><time>2022-03-28T12:56:47Z</time><name>PT577</name></trkpt>
<trkpt lat="54.444771" lon="-3.321005"><ele>281</ele><time>2022-03-28T12:56:49Z</time><name>PT578</name></trkpt>
<trkpt lat="54.444771" lon="-3.320996"><ele>281</ele><time>2022-03-28T12:56:49Z</time><name>PT579</name></trkpt>
<trkpt lat="54.444772" lon="-3.320987"><ele>282</ele><time>2022-03-28T12:56:50Z</time><name>PT580</name></trkpt>
<trkpt lat="54.444772" lon="-3.320975"><ele>282</ele><time>2022-03-28T12:56:52Z</time><name>PT581</name></trkpt>
<trkpt lat="54.444770" lon="-3.320962"><ele>282</ele><time>2022-03-28T12:56:52Z</time><name>PT582</name></trkpt>
<trkpt lat="54.444771" lon="-3.320951"><ele>282</ele><time>2022-03-28T12:56:53Z</time><name>PT583</name></trkpt>
<trkpt lat="54.444775" lon="-3.320943"><ele>283</ele><time>2022-03-28T12:56:55Z</time><name>PT584</name></trkpt>
<trkpt lat="54.444775" lon="-3.320933"><ele>283</ele><time>2022-03-28T12:56:55Z</time><name>PT585</name></trkpt>
<trkpt lat="54.444777" lon="-3.320916"><ele>285</ele><time>2022-03-28T12:56:56Z</time><name>PT586</name></trkpt>
<trkpt lat="54.444778" lon="-3.320906"><ele>285</ele><time>2022-03-28T12:56:58Z</time><name>PT587</name></trkpt>
<trkpt lat="54.444778" lon="-3.320894"><ele>285</ele><time>2022-03-28T12:56:58Z</time><name>PT588</name></trkpt>
<trkpt lat="54.444779" lon="-3.320889"><ele>285</ele><time>2022-03-28T12:56:59Z</time><name>PT589</name></trkpt>
<trkpt lat="54.444781" lon="-3.320883"><ele>285</ele><time>2022-03-28T12:57:01Z</time><name>PT590</name></trkpt>
<trkpt lat="54.444786" lon="-3.320878"><ele>285</ele><time>2022-03-28T12:57:01Z</time><name>PT591</name></trkpt>
<trkpt lat="54.444790" lon="-3.320875"><ele>285</ele><time>2022-03-28T12:57:02Z</time><name>PT592</name></trkpt>
<trkpt lat="54.444793" lon="-3.320875"><ele>285</ele><time>2022-03-28T12:57:04Z</time><name>PT593</name></trkpt>
<trkpt lat="54.444799" lon="-3.320877"><ele>286</ele><time>2022-03-28T12:57:04Z</time><name>PT594</name></trkpt>
<trkpt lat="54.444803" lon="-3.320879"><ele>285</ele><time>2022-03-28T12:57:05Z</time><name>PT595</name></trkpt>
<trkpt lat="54.444806" lon="-3.320874"><ele>285</ele><time>2022-03-28T12:57:07Z</time><name>PT596</name></trkpt>
<trkpt lat="54.444811" lon="-3.320868"><ele>286</ele><time>2022-03-28T12:57:07Z</time><name>PT597</name></trkpt>
<trkpt lat="54.444812" lon="-3.320863"><ele>286</ele><time>2022-03-28T12:57:08Z</time><name>PT598</name></trkpt>
<trkpt lat="54.444816" lon="-3.320859"><ele>287</ele><time>2022-03-28T12:57:10Z</time><name>PT599</name></trkpt>
<trkpt lat="54.444820" lon="-3.320856"><ele>287</ele><time>2022-03-28T12:57:10Z</time><name>PT600</name></trkpt>
<trkpt lat="54.444824" lon="-3.320851"><ele>287</ele><time>2022-03-28T12:57:11Z</time><name>PT601</name></trkpt>
<trkpt lat="54.444827" lon="-3.320848"><ele>287</ele><time>2022-03-28T12:57:13Z</time><name>PT602</name></trkpt>
<trkpt lat="54.444831" lon="-3.320848"><ele>288</ele><time>2022-03-28T12:57:13Z</time><name>PT603</name></trkpt>
<trkpt lat="54.444834" lon="-3.320846"><ele>288</ele><time>2022-03-28T12:57:14Z</time><name>PT604</name></trkpt>
<trkpt lat="54.444836" lon="-3.320842"><ele>288</ele><time>2022-03-28T12:57:16Z</time><name>PT605</name></trkpt>
<trkpt lat="54.444841" lon="-3.320845"><ele>288</ele><time>2022-03-28T12:57:16Z</time><name>PT606</name></trkpt>
<trkpt lat="54.444843" lon="-3.320843"><ele>289</ele><time>2022-03-28T12:57:17Z</time><name>PT607</name></trkpt>
<trkpt lat="54.444846" lon="-3.320847"><ele>288</ele><time>2022-03-28T12:57:19Z</time><name>PT608</name></trkpt>
<trkpt lat="54.444851" lon="-3.320848"><ele>288</ele><time>2022-03-28T12:57:19Z</time><name>PT609</name></trkpt>
<trkpt lat="54.444854" lon="-3.320846"><ele>288</ele><time>2022-03-28T12:57:20Z</time><name>PT610</name></trkpt>
<trkpt lat="54.444859" lon="-3.320845"><ele>288</ele><time>2022-03-28T12:57:22Z</time><name>PT611</name></trkpt>
<trkpt lat="54.444863" lon="-3.320838"><ele>288</ele><time>2022-03-28T12:57:22Z</time><name>PT612</name></trkpt>
<trkpt lat="54.444864" lon="-3.320833"><ele>288</ele><time>2022-03-28T12:57:23Z</time><name>PT613</name></trkpt>
<trkpt lat="54.444867" lon="-3.320827"><ele>288</ele><time>2022-03-28T12:57:25Z</time><name>PT614</name></trkpt>
<trkpt lat="54.444871" lon="-3.320820"><ele>289</ele><time>2022-03-28T12:57:25Z</time><name>PT615</name></trkpt>
<trkpt lat="54.444873" lon="-3.320812"><ele>289</ele><time>2022-03-28T12:57:26Z</time><name>PT616</name></trkpt>
<trkpt lat="54.444879" lon="-3.320804"><ele>289</ele><time>2022-03-28T12:57:28Z</time><name>PT617</name></trkpt>
<trkpt lat="54.444878" lon="-3.320795"><ele>289</ele><time>2022-03-28T12:57:28Z</time><name>PT618</name></trkpt>
<trkpt lat="54.444874" lon="-3.320784"><ele>289</ele><time>2022-03-28T12:57:29Z</time><name>PT619</name></trkpt>
<trkpt lat="54.444873" lon="-3.320778"><ele>289</ele><time>2022-03-28T12:57:31Z</time><name>PT620</name></trkpt>
<trkpt lat="54.444876" lon="-3.320771"><ele>289</ele><time>2022-03-28T12:57:31Z</time><name>PT621</name></trkpt>
<trkpt lat="54.444878" lon="-3.320768"><ele>289</ele><time>2022-03-28T12:57:32Z</time><name>PT622</name></trkpt>
<trkpt lat="54.444879" lon="-3.320760"><ele>290</ele><time>2022-03-28T12:57:34Z</time><name>PT623</name></trkpt>
<trkpt lat="54.444880" lon="-3.320754"><ele>290</ele><time>2022-03-28T12:57:34Z</time><name>PT624</name></trkpt>
<trkpt lat="54.444881" lon="-3.320749"><ele>290</ele><time>2022-03-28T12:57:35Z</time><name>PT625</name></trkpt>
<trkpt lat="54.444882" lon="-3.320743"><ele>290</ele><time>2022-03-28T12:57:37Z</time><name>PT626</name></trkpt>
<trkpt lat="54.444885" lon="-3.320714"><ele>290</ele><time>2022-03-28T12:57:44Z</time><name>PT627</name></trkpt>
<trkpt lat="54.444887" lon="-3.320712"><ele>290</ele><time>2022-03-28T12:57:46Z</time><name>PT628</name></trkpt>
<trkpt lat="54.444892" lon="-3.320705"><ele>290</ele><time>2022-03-28T12:57:46Z</time><name>PT629</name></trkpt>
<trkpt lat="54.444897" lon="-3.320702"><ele>290</ele><time>2022-03-28T12:57:47Z</time><name>PT630</name></trkpt>
<trkpt lat="54.444898" lon="-3.320692"><ele>291</ele><time>2022-03-28T12:57:49Z</time><name>PT631</name></trkpt>
<trkpt lat="54.444896" lon="-3.320684"><ele>291</ele><time>2022-03-28T12:57:49Z</time><name>PT632</name></trkpt>
<trkpt lat="54.444894" lon="-3.320671"><ele>291</ele><time>2022-03-28T12:57:50Z</time><name>PT633</name></trkpt>
<trkpt lat="54.444895" lon="-3.320665"><ele>291</ele><time>2022-03-28T12:57:52Z</time><name>PT634</name></trkpt>
<trkpt lat="54.444898" lon="-3.320656"><ele>291</ele><time>2022-03-28T12:57:52Z</time><name>PT635</name></trkpt>
<trkpt lat="54.444903" lon="-3.320653"><ele>291</ele><time>2022-03-28T12:57:53Z</time><name>PT636</name></trkpt>
<trkpt lat="54.444906" lon="-3.320651"><ele>292</ele><time>2022-03-28T12:57:55Z</time><name>PT637</name></trkpt>
<trkpt lat="54.444908" lon="-3.320647"><ele>292</ele><time>2022-03-28T12:57:55Z</time><name>PT638</name></trkpt>
<trkpt lat="54.444911" lon="-3.320642"><ele>292</ele><time>2022-03-28T12:57:56Z</time><name>PT639</name></trkpt>
<trkpt lat="54.444914" lon="-3.320633"><ele>292</ele><time>2022-03-28T12:57:58Z</time><name>PT640</name></trkpt>
<trkpt lat="54.444916" lon="-3.320627"><ele>292</ele><time>2022-03-28T12:57:58Z</time><name>PT641</name></trkpt>
<trkpt lat="54.444918" lon="-3.320618"><ele>292</ele><time>2022-03-28T12:57:59Z</time><name>PT642</name></trkpt>
<trkpt lat="54.444919" lon="-3.320611"><ele>293</ele><time>2022-03-28T12:58:01Z</time><name>PT643</name></trkpt>
<trkpt lat="54.444922" lon="-3.320601"><ele>294</ele><time>2022-03-28T12:58:01Z</time><name>PT644</name></trkpt>
<trkpt lat="54.444920" lon="-3.320592"><ele>294</ele><time>2022-03-28T12:58:02Z</time><name>PT645</name></trkpt>
<trkpt lat="54.444917" lon="-3.320583"><ele>294</ele><time>2022-03-28T12:58:04Z</time><name>PT646</name></trkpt>
<trkpt lat="54.444916" lon="-3.320572"><ele>294</ele><time>2022-03-28T12:58:04Z</time><name>PT647</name></trkpt>
<trkpt lat="54.444917" lon="-3.320564"><ele>295</ele><time>2022-03-28T12:58:05Z</time><name>PT648</name></trkpt>
<trkpt lat="54.444920" lon="-3.320559"><ele>295</ele><time>2022-03-28T12:58:07Z</time><name>PT649</name></trkpt>
<trkpt lat="54.444925" lon="-3.320556"><ele>295</ele><time>2022-03-28T12:58:07Z</time><name>PT650</name></trkpt>
<trkpt lat="54.444927" lon="-3.320552"><ele>295</ele><time>2022-03-28T12:58:08Z</time><name>PT651</name></trkpt>
<trkpt lat="54.444930" lon="-3.320548"><ele>295</ele><time>2022-03-28T12:58:10Z</time><name>PT652</name></trkpt>
<trkpt lat="54.444932" lon="-3.320544"><ele>295</ele><time>2022-03-28T12:58:10Z</time><name>PT653</name></trkpt>
<trkpt lat="54.444936" lon="-3.320539"><ele>296</ele><time>2022-03-28T12:58:11Z</time><name>PT654</name></trkpt>
<trkpt lat="54.444939" lon="-3.320532"><ele>296</ele><time>2022-03-28T12:58:13Z</time><name>PT655</name></trkpt>
<trkpt lat="54.444938" lon="-3.320527"><ele>296</ele><time>2022-03-28T12:58:13Z</time><name>PT656</name></trkpt>
<trkpt lat="54.444942" lon="-3.320522"><ele>296</ele><time>2022-03-28T12:58:14Z</time><name>PT657</name></trkpt>
<trkpt lat="54.444947" lon="-3.320517"><ele>297</ele><time>2022-03-28T12:58:16Z</time><name>PT658</name></trkpt>
<trkpt lat="54.444952" lon="-3.320513"><ele>297</ele><time>2022-03-28T12:58:16Z</time><name>PT659</name></trkpt>
<trkpt lat="54.444954" lon="-3.320510"><ele>297</ele><time>2022-03-28T12:58:19Z</time><name>PT660</name></trkpt>
<trkpt lat="54.444957" lon="-3.320501"><ele>298</ele><time>2022-03-28T12:58:19Z</time><name>PT661</name></trkpt>
<trkpt lat="54.444959" lon="-3.320490"><ele>298</ele><time>2022-03-28T12:58:20Z</time><name>PT662</name></trkpt>
<trkpt lat="54.444961" lon="-3.320480"><ele>298</ele><time>2022-03-28T12:58:22Z</time><name>PT663</name></trkpt>
<trkpt lat="54.444965" lon="-3.320473"><ele>298</ele><time>2022-03-28T12:58:22Z</time><name>PT664</name></trkpt>
<trkpt lat="54.444967" lon="-3.320463"><ele>297</ele><time>2022-03-28T12:58:23Z</time><name>PT665</name></trkpt>
<trkpt lat="54.444969" lon="-3.320457"><ele>297</ele><time>2022-03-28T12:58:25Z</time><name>PT666</name></trkpt>
<trkpt lat="54.444973" lon="-3.320452"><ele>297</ele><time>2022-03-28T12:58:25Z</time><name>PT667</name></trkpt>
<trkpt lat="54.444974" lon="-3.320442"><ele>297</ele><time>2022-03-28T12:58:26Z</time><name>PT668</name></trkpt>
<trkpt lat="54.444977" lon="-3.320434"><ele>297</ele><time>2022-03-28T12:58:28Z</time><name>PT669</name></trkpt>
<trkpt lat="54.444979" lon="-3.320425"><ele>297</ele><time>2022-03-28T12:58:28Z</time><name>PT670</name></trkpt>
<trkpt lat="54.444982" lon="-3.320419"><ele>297</ele><time>2022-03-28T12:58:29Z</time><name>PT671</name></trkpt>
<trkpt lat="54.444981" lon="-3.320415"><ele>297</ele><time>2022-03-28T12:58:31Z</time><name>PT672</name></trkpt>
<trkpt lat="54.444984" lon="-3.320407"><ele>297</ele><time>2022-03-28T12:58:31Z</time><name>PT673</name></trkpt>
<trkpt lat="54.444986" lon="-3.320399"><ele>297</ele><time>2022-03-28T12:58:32Z</time><name>PT674</name></trkpt>
<trkpt lat="54.444993" lon="-3.320397"><ele>297</ele><time>2022-03-28T12:58:34Z</time><name>PT675</name></trkpt>
<trkpt lat="54.444995" lon="-3.320398"><ele>298</ele><time>2022-03-28T12:58:34Z</time><name>PT676</name></trkpt>
<trkpt lat="54.444998" lon="-3.320394"><ele>298</ele><time>2022-03-28T12:58:36Z</time><name>PT677</name></trkpt>
<trkpt lat="54.445001" lon="-3.320395"><ele>298</ele><time>2022-03-28T12:58:37Z</time><name>PT678</name></trkpt>
<trkpt lat="54.445006" lon="-3.320394"><ele>298</ele><time>2022-03-28T12:58:37Z</time><name>PT679</name></trkpt>
<trkpt lat="54.445008" lon="-3.320396"><ele>298</ele><time>2022-03-28T12:58:38Z</time><name>PT680</name></trkpt>
<trkpt lat="54.445009" lon="-3.320393"><ele>298</ele><time>2022-03-28T12:58:40Z</time><name>PT681</name></trkpt>
<trkpt lat="54.445014" lon="-3.320399"><ele>298</ele><time>2022-03-28T12:58:40Z</time><name>PT682</name></trkpt>
<trkpt lat="54.445019" lon="-3.320402"><ele>299</ele><time>2022-03-28T12:58:41Z</time><name>PT683</name></trkpt>
<trkpt lat="54.445026" lon="-3.320404"><ele>299</ele><time>2022-03-28T12:58:43Z</time><name>PT684</name></trkpt>
<trkpt lat="54.445029" lon="-3.320408"><ele>299</ele><time>2022-03-28T12:58:43Z</time><name>PT685</name></trkpt>
<trkpt lat="54.445031" lon="-3.320408"><ele>299</ele><time>2022-03-28T12:58:44Z</time><name>PT686</name></trkpt>
<trkpt lat="54.445034" lon="-3.320408"><ele>299</ele><time>2022-03-28T12:58:46Z</time><name>PT687</name></trkpt>
<trkpt lat="54.445039" lon="-3.320409"><ele>300</ele><time>2022-03-28T12:58:46Z</time><name>PT688</name></trkpt>
<trkpt lat="54.445042" lon="-3.320407"><ele>300</ele><time>2022-03-28T12:58:47Z</time><name>PT689</name></trkpt>
<trkpt lat="54.445046" lon="-3.320409"><ele>300</ele><time>2022-03-28T12:58:49Z</time><name>PT690</name></trkpt>
<trkpt lat="54.445049" lon="-3.320412"><ele>301</ele><time>2022-03-28T12:58:49Z</time><name>PT691</name></trkpt>
<trkpt lat="54.445053" lon="-3.320413"><ele>302</ele><time>2022-03-28T12:58:50Z</time><name>PT692</name></trkpt>
<trkpt lat="54.445057" lon="-3.320413"><ele>302</ele><time>2022-03-28T12:58:52Z</time><name>PT693</name></trkpt>
<trkpt lat="54.445063" lon="-3.320409"><ele>302</ele><time>2022-03-28T12:58:52Z</time><name>PT694</name></trkpt>
<trkpt lat="54.445068" lon="-3.320408"><ele>303</ele><time>2022-03-28T12:58:53Z</time><name>PT695</name></trkpt>
<trkpt lat="54.445072" lon="-3.320408"><ele>303</ele><time>2022-03-28T12:58:55Z</time><name>PT696</name></trkpt>
<trkpt lat="54.445075" lon="-3.320409"><ele>303</ele><time>2022-03-28T12:58:55Z</time><name>PT697</name></trkpt>
<trkpt lat="54.445078" lon="-3.320411"><ele>304</ele><time>2022-03-28T12:58:56Z</time><name>PT698</name></trkpt>
<trkpt lat="54.445084" lon="-3.320415"><ele>304</ele><time>2022-03-28T12:58:58Z</time><name>PT699</name></trkpt>
<trkpt lat="54.445087" lon="-3.320417"><ele>305</ele><time>2022-03-28T12:58:58Z</time><name>PT700</name></trkpt>
<trkpt lat="54.445092" lon="-3.320417"><ele>305</ele><time>2022-03-28T12:58:59Z</time><name>PT701</name></trkpt>
<trkpt lat="54.445093" lon="-3.320413"><ele>305</ele><time>2022-03-28T12:59:01Z</time><name>PT702</name></trkpt>
<trkpt lat="54.445093" lon="-3.320408"><ele>306</ele><time>2022-03-28T12:59:01Z</time><name>PT703</name></trkpt>
<trkpt lat="54.445095" lon="-3.320404"><ele>306</ele><time>2022-03-28T12:59:02Z</time><name>PT704</name></trkpt>
<trkpt lat="54.445096" lon="-3.320399"><ele>306</ele><time>2022-03-28T12:59:04Z</time><name>PT705</name></trkpt>
<trkpt lat="54.445098" lon="-3.320394"><ele>307</ele><time>2022-03-28T12:59:04Z</time><name>PT706</name></trkpt>
<trkpt lat="54.445105" lon="-3.320391"><ele>307</ele><time>2022-03-28T12:59:05Z</time><name>PT707</name></trkpt>
<trkpt lat="54.445107" lon="-3.320386"><ele>307</ele><time>2022-03-28T12:59:07Z</time><name>PT708</name></trkpt>
<trkpt lat="54.445109" lon="-3.320380"><ele>307</ele><time>2022-03-28T12:59:07Z</time><name>PT709</name></trkpt>
<trkpt lat="54.445113" lon="-3.320375"><ele>307</ele><time>2022-03-28T12:59:08Z</time><name>PT710</name></trkpt>
<trkpt lat="54.445117" lon="-3.320367"><ele>307</ele><time>2022-03-28T12:59:10Z</time><name>PT711</name></trkpt>
<trkpt lat="54.445122" lon="-3.320363"><ele>307</ele><time>2022-03-28T12:59:10Z</time><name>PT712</name></trkpt>
<trkpt lat="54.445121" lon="-3.320359"><ele>307</ele><time>2022-03-28T12:59:11Z</time><name>PT713</name></trkpt>
<trkpt lat="54.445122" lon="-3.320356"><ele>307</ele><time>2022-03-28T12:59:13Z</time><name>PT714</name></trkpt>
<trkpt lat="54.445127" lon="-3.320354"><ele>308</ele><time>2022-03-28T12:59:13Z</time><name>PT715</name></trkpt>
<trkpt lat="54.445127" lon="-3.320350"><ele>308</ele><time>2022-03-28T12:59:14Z</time><name>PT716</name></trkpt>
<trkpt lat="54.445132" lon="-3.320348"><ele>310</ele><time>2022-03-28T12:59:16Z</time><name>PT717</name></trkpt>
<trkpt lat="54.445132" lon="-3.320342"><ele>310</ele><time>2022-03-28T12:59:16Z</time><name>PT718</name></trkpt>
<trkpt lat="54.445139" lon="-3.320335"><ele>312</ele><time>2022-03-28T12:59:17Z</time><name>PT719</name></trkpt>
<trkpt lat="54.445144" lon="-3.320329"><ele>312</ele><time>2022-03-28T12:59:19Z</time><name>PT720</name></trkpt>
<trkpt lat="54.445149" lon="-3.320325"><ele>311</ele><time>2022-03-28T12:59:19Z</time><name>PT721</name></trkpt>
<trkpt lat="54.445151" lon="-3.320320"><ele>311</ele><time>2022-03-28T12:59:21Z</time><name>PT722</name></trkpt>
<trkpt lat="54.445153" lon="-3.320317"><ele>311</ele><time>2022-03-28T12:59:22Z</time><name>PT723</name></trkpt>
<trkpt lat="54.445156" lon="-3.320311"><ele>311</ele><time>2022-03-28T12:59:22Z</time><name>PT724</name></trkpt>
<trkpt lat="54.445159" lon="-3.320305"><ele>311</ele><time>2022-03-28T12:59:23Z</time><name>PT725</name></trkpt>
<trkpt lat="54.445165" lon="-3.320306"><ele>312</ele><time>2022-03-28T12:59:25Z</time><name>PT726</name></trkpt>
<trkpt lat="54.445171" lon="-3.320308"><ele>312</ele><time>2022-03-28T12:59:25Z</time><name>PT727</name></trkpt>
<trkpt lat="54.445172" lon="-3.320306"><ele>312</ele><time>2022-03-28T12:59:26Z</time><name>PT728</name></trkpt>
<trkpt lat="54.445178" lon="-3.320305"><ele>311</ele><time>2022-03-28T12:59:28Z</time><name>PT729</name></trkpt>
<trkpt lat="54.445182" lon="-3.320300"><ele>311</ele><time>2022-03-28T12:59:28Z</time><name>PT730</name></trkpt>
<trkpt lat="54.445186" lon="-3.320294"><ele>311</ele><time>2022-03-28T12:59:29Z</time><name>PT731</name></trkpt>
<trkpt lat="54.445190" lon="-3.320285"><ele>311</ele><time>2022-03-28T12:59:31Z</time><name>PT732</name></trkpt>
<trkpt lat="54.445193" lon="-3.320276"><ele>311</ele><time>2022-03-28T12:59:31Z</time><name>PT733</name></trkpt>
<trkpt lat="54.445196" lon="-3.320267"><ele>311</ele><time>2022-03-28T12:59:32Z</time><name>PT734</name></trkpt>
<trkpt lat="54.445200" lon="-3.320261"><ele>311</ele><time>2022-03-28T12:59:34Z</time><name>PT735</name></trkpt>
<trkpt lat="54.445207" lon="-3.320253"><ele>311</ele><time>2022-03-28T12:59:34Z</time><name>PT736</name></trkpt>
<trkpt lat="54.445213" lon="-3.320245"><ele>311</ele><time>2022-03-28T12:59:35Z</time><name>PT737</name></trkpt>
<trkpt lat="54.445215" lon="-3.320239"><ele>311</ele><time>2022-03-28T12:59:37Z</time><name>PT738</name></trkpt>
<trkpt lat="54.445220" lon="-3.320231"><ele>312</ele><time>2022-03-28T12:59:37Z</time><name>PT739</name></trkpt>
<trkpt lat="54.445226" lon="-3.320212"><ele>312</ele><time>2022-03-28T12:59:49Z</time><name>PT740</name></trkpt>
<trkpt lat="54.445229" lon="-3.320187"><ele>313</ele><time>2022-03-28T12:59:49Z</time><name>PT741</name></trkpt>
<trkpt lat="54.445230" lon="-3.320178"><ele>313</ele><time>2022-03-28T12:59:50Z</time><name>PT742</name></trkpt>
<trkpt lat="54.445236" lon="-3.320169"><ele>313</ele><time>2022-03-28T12:59:52Z</time><name>PT743</name></trkpt>
<trkpt lat="54.445238" lon="-3.320166"><ele>313</ele><time>2022-03-28T12:59:52Z</time><name>PT744</name></trkpt>
<trkpt lat="54.445241" lon="-3.320161"><ele>313</ele><time>2022-03-28T12:59:53Z</time><name>PT745</name></trkpt>
<trkpt lat="54.445245" lon="-3.320161"><ele>314</ele><time>2022-03-28T12:59:55Z</time><name>PT746</name></trkpt>
<trkpt lat="54.445250" lon="-3.320152"><ele>314</ele><time>2022-03-28T12:59:55Z</time><name>PT747</name></trkpt>
<trkpt lat="54.445251" lon="-3.320157"><ele>314</ele><time>2022-03-28T12:59:56Z</time><name>PT748</name></trkpt>
<trkpt lat="54.445256" lon="-3.320163"><ele>314</ele><time>2022-03-28T12:59:58Z</time><name>PT749</name></trkpt>
<trkpt lat="54.445259" lon="-3.320166"><ele>314</ele><time>2022-03-28T12:59:58Z</time><name>PT750</name></trkpt>
<trkpt lat="54.445261" lon="-3.320164"><ele>314</ele><time>2022-03-28T12:59:59Z</time><name>PT751</name></trkpt>
<trkpt lat="54.445263" lon="-3.320158"><ele>314</ele><time>2022-03-28T13:00:01Z</time><name>PT752</name></trkpt>
<trkpt lat="54.445267" lon="-3.320153"><ele>314</ele><time>2022-03-28T13:00:01Z</time><name>PT753</name></trkpt>
<trkpt lat="54.445270" lon="-3.320142"><ele>314</ele><time>2022-03-28T13:00:02Z</time><name>PT754</name></trkpt>
<trkpt lat="54.445276" lon="-3.320135"><ele>314</ele><time>2022-03-28T13:00:04Z</time><name>PT755</name></trkpt>
<trkpt lat="54.445278" lon="-3.320129"><ele>314</ele><time>2022-03-28T13:00:04Z</time><name>PT756</name></trkpt>
<trkpt lat="54.445281" lon="-3.320124"><ele>314</ele><time>2022-03-28T13:00:05Z</time><name>PT757</name></trkpt>
<trkpt lat="54.445285" lon="-3.320119"><ele>314</ele><time>2022-03-28T13:00:07Z</time><name>PT758</name></trkpt>
<trkpt lat="54.445290" lon="-3.320112"><ele>314</ele><time>2022-03-28T13:00:07Z</time><name>PT759</name></trkpt>
<trkpt lat="54.445293" lon="-3.320105"><ele>315</ele><time>2022-03-28T13:00:08Z</time><name>PT760</name></trkpt>
<trkpt lat="54.445297" lon="-3.320102"><ele>315</ele><time>2022-03-28T13:00:10Z</time><name>PT761</name></trkpt>
<trkpt lat="54.445299" lon="-3.320092"><ele>315</ele><time>2022-03-28T13:00:10Z</time><name>PT762</name></trkpt>
<trkpt lat="54.445302" lon="-3.320085"><ele>315</ele><time>2022-03-28T13:00:11Z</time><name>PT763</name></trkpt>
<trkpt lat="54.445307" lon="-3.320083"><ele>316</ele><time>2022-03-28T13:00:13Z</time><name>PT764</name></trkpt>
<trkpt lat="54.445314" lon="-3.320084"><ele>316</ele><time>2022-03-28T13:00:13Z</time><name>PT765</name></trkpt>
<trkpt lat="54.445321" lon="-3.320084"><ele>316</ele><time>2022-03-28T13:00:14Z</time><name>PT766</name></trkpt>
<trkpt lat="54.445326" lon="-3.320082"><ele>316</ele><time>2022-03-28T13:00:16Z</time><name>PT767</name></trkpt>
<trkpt lat="54.445329" lon="-3.320079"><ele>316</ele><time>2022-03-28T13:00:16Z</time><name>PT768</name></trkpt>
<trkpt lat="54.445334" lon="-3.320082"><ele>317</ele><time>2022-03-28T13:00:17Z</time><name>PT769</name></trkpt>
<trkpt lat="54.445338" lon="-3.320078"><ele>317</ele><time>2022-03-28T13:00:19Z</time><name>PT770</name></trkpt>
<trkpt lat="54.445344" lon="-3.320071"><ele>318</ele><time>2022-03-28T13:00:19Z</time><name>PT771</name></trkpt>
<trkpt lat="54.445349" lon="-3.320065"><ele>318</ele><time>2022-03-28T13:00:20Z</time><name>PT772</name></trkpt>
<trkpt lat="54.445354" lon="-3.320058"><ele>318</ele><time>2022-03-28T13:00:22Z</time><name>PT773</name></trkpt>
<trkpt lat="54.445357" lon="-3.320052"><ele>318</ele><time>2022-03-28T13:00:22Z</time><name>PT774</name></trkpt>
<trkpt lat="54.445364" lon="-3.320048"><ele>318</ele><time>2022-03-28T13:00:23Z</time><name>PT775</name></trkpt>
<trkpt lat="54.445370" lon="-3.320042"><ele>318</ele><time>2022-03-28T13:00:25Z</time><name>PT776</name></trkpt>
<trkpt lat="54.445376" lon="-3.320038"><ele>318</ele><time>2022-03-28T13:00:25Z</time><name>PT777</name></trkpt>
<trkpt lat="54.445379" lon="-3.320037"><ele>319</ele><time>2022-03-28T13:00:26Z</time><name>PT778</name></trkpt>
<trkpt lat="54.445383" lon="-3.320036"><ele>319</ele><time>2022-03-28T13:00:28Z</time><name>PT779</name></trkpt>
<trkpt lat="54.445389" lon="-3.320032"><ele>319</ele><time>2022-03-28T13:00:28Z</time><name>PT780</name></trkpt>
<trkpt lat="54.445391" lon="-3.320028"><ele>319</ele><time>2022-03-28T13:00:29Z</time><name>PT781</name></trkpt>
<trkpt lat="54.445396" lon="-3.320026"><ele>319</ele><time>2022-03-28T13:00:31Z</time><name>PT782</name></trkpt>
<trkpt lat="54.445398" lon="-3.320025"><ele>320</ele><time>2022-03-28T13:00:31Z</time><name>PT783</name></trkpt>
<trkpt lat="54.445401" lon="-3.320022"><ele>320</ele><time>2022-03-28T13:00:32Z</time><name>PT784</name></trkpt>
<trkpt lat="54.445406" lon="-3.320019"><ele>320</ele><time>2022-03-28T13:00:34Z</time><name>PT785</name></trkpt>
<trkpt lat="54.445411" lon="-3.320019"><ele>320</ele><time>2022-03-28T13:00:34Z</time><name>PT786</name></trkpt>
<trkpt lat="54.445416" lon="-3.320017"><ele>321</ele><time>2022-03-28T13:00:35Z</time><name>PT787</name></trkpt>
<trkpt lat="54.445419" lon="-3.320015"><ele>321</ele><time>2022-03-28T13:00:37Z</time><name>PT788</name></trkpt>
<trkpt lat="54.445420" lon="-3.320010"><ele>321</ele><time>2022-03-28T13:00:41Z</time><name>PT789</name></trkpt>
<trkpt lat="54.445426" lon="-3.320001"><ele>322</ele><time>2022-03-28T13:00:43Z</time><name>PT790</name></trkpt>
<trkpt lat="54.445430" lon="-3.319993"><ele>322</ele><time>2022-03-28T13:00:43Z</time><name>PT791</name></trkpt>
<trkpt lat="54.445435" lon="-3.319984"><ele>321</ele><time>2022-03-28T13:00:44Z</time><name>PT792</name></trkpt>
<trkpt lat="54.445441" lon="-3.319976"><ele>321</ele><time>2022-03-28T13:00:46Z</time><name>PT793</name></trkpt>
<trkpt lat="54.445443" lon="-3.319967"><ele>321</ele><time>2022-03-28T13:00:46Z</time><name>PT794</name></trkpt>
<trkpt lat="54.445446" lon="-3.319957"><ele>322</ele><time>2022-03-28T13:00:47Z</time><name>PT795</name></trkpt>
<trkpt lat="54.445450" lon="-3.319948"><ele>322</ele><time>2022-03-28T13:00:49Z</time><name>PT796</name></trkpt>
<trkpt lat="54.445455" lon="-3.319940"><ele>322</ele><time>2022-03-28T13:00:49Z</time><name>PT797</name></trkpt>
<trkpt lat="54.445460" lon="-3.319932"><ele>322</ele><time>2022-03-28T13:00:50Z</time><name>PT798</name></trkpt>
<trkpt lat="54.445467" lon="-3.319924"><ele>322</ele><time>2022-03-28T13:00:52Z</time><name>PT799</name></trkpt>
<trkpt lat="54.445474" lon="-3.319918"><ele>322</ele><time>2022-03-28T13:00:52Z</time><name>PT800</name></trkpt>
<trkpt lat="54.445480" lon="-3.319914"><ele>322</ele><time>2022-03-28T13:00:53Z</time><name>PT801</name></trkpt>
<trkpt lat="54.445485" lon="-3.319911"><ele>322</ele><time>2022-03-28T13:00:55Z</time><name>PT802</name></trkpt>
<trkpt lat="54.445486" lon="-3.319904"><ele>322</ele><time>2022-03-28T13:00:55Z</time><name>PT803</name></trkpt>
<trkpt lat="54.445488" lon="-3.319897"><ele>322</ele><time>2022-03-28T13:00:56Z</time><name>PT804</name></trkpt>
<trkpt lat="54.445490" lon="-3.319892"><ele>322</ele><time>2022-03-28T13:00:58Z</time><name>PT805</name></trkpt>
<trkpt lat="54.445497" lon="-3.319884"><ele>323</ele><time>2022-03-28T13:00:58Z</time><name>PT806</name></trkpt>
<trkpt lat="54.445500" lon="-3.319876"><ele>323</ele><time>2022-03-28T13:00:59Z</time><name>PT807</name></trkpt>
<trkpt lat="54.445504" lon="-3.319867"><ele>323</ele><time>2022-03-28T13:01:01Z</time><name>PT808</name></trkpt>
<trkpt lat="54.445506" lon="-3.319859"><ele>323</ele><time>2022-03-28T13:01:01Z</time><name>PT809</name></trkpt>
<trkpt lat="54.445508" lon="-3.319852"><ele>323</ele><time>2022-03-28T13:01:02Z</time><name>PT810</name></trkpt>
<trkpt lat="54.445514" lon="-3.319837"><ele>323</ele><time>2022-03-28T13:01:10Z</time><name>PT811</name></trkpt>
<trkpt lat="54.445519" lon="-3.319820"><ele>323</ele><time>2022-03-28T13:01:10Z</time><name>PT812</name></trkpt>
<trkpt lat="54.445525" lon="-3.319808"><ele>324</ele><time>2022-03-28T13:01:11Z</time><name>PT813</name></trkpt>
<trkpt lat="54.445527" lon="-3.319796"><ele>324</ele><time>2022-03-28T13:01:13Z</time><name>PT814</name></trkpt>
<trkpt lat="54.445533" lon="-3.319755"><ele>324</ele><time>2022-03-28T13:01:16Z</time><name>PT815</name></trkpt>
<trkpt lat="54.445550" lon="-3.319722"><ele>325</ele><time>2022-03-28T13:01:19Z</time><name>PT816</name></trkpt>
<trkpt lat="54.445571" lon="-3.319678"><ele>326</ele><time>2022-03-28T13:01:22Z</time><name>PT817</name></trkpt>
<trkpt lat="54.445583" lon="-3.319646"><ele>326</ele><time>2022-03-28T13:01:26Z</time><name>PT818</name></trkpt>
<trkpt lat="54.445601" lon="-3.319614"><ele>327</ele><time>2022-03-28T13:01:31Z</time><name>PT819</name></trkpt>
<trkpt lat="54.445604" lon="-3.319602"><ele>327</ele><time>2022-03-28T13:01:34Z</time><name>PT820</name></trkpt>
<trkpt lat="54.445612" lon="-3.319573"><ele>328</ele><time>2022-03-28T13:01:37Z</time><name>PT821</name></trkpt>
<trkpt lat="54.445623" lon="-3.319574"><ele>328</ele><time>2022-03-28T13:01:41Z</time><name>PT822</name></trkpt>
<trkpt lat="54.445632" lon="-3.319565"><ele>328</ele><time>2022-03-28T13:01:44Z</time><name>PT823</name></trkpt>
<trkpt lat="54.445626" lon="-3.319535"><ele>329</ele><time>2022-03-28T13:01:49Z</time><name>PT824</name></trkpt>
<trkpt lat="54.445632" lon="-3.319519"><ele>329</ele><time>2022-03-28T13:01:52Z</time><name>PT825</name></trkpt>
<trkpt lat="54.445638" lon="-3.319509"><ele>328</ele><time>2022-03-28T13:01:55Z</time><name>PT826</name></trkpt>
<trkpt lat="54.445647" lon="-3.319473"><ele>329</ele><time>2022-03-28T13:01:58Z</time><name>PT827</name></trkpt>
<trkpt lat="54.445662" lon="-3.319443"><ele>330</ele><time>2022-03-28T13:02:02Z</time><name>PT828</name></trkpt>
<trkpt lat="54.445682" lon="-3.319441"><ele>331</ele><time>2022-03-28T13:02:07Z</time><name>PT829</name></trkpt>
<trkpt lat="54.445700" lon="-3.319437"><ele>332</ele><time>2022-03-28T13:02:10Z</time><name>PT830</name></trkpt>
<trkpt lat="54.445716" lon="-3.319419"><ele>333</ele><time>2022-03-28T13:02:13Z</time><name>PT831</name></trkpt>
<trkpt lat="54.445728" lon="-3.319416"><ele>334</ele><time>2022-03-28T13:02:16Z</time><name>PT832</name></trkpt>
<trkpt lat="54.445752" lon="-3.319426"><ele>336</ele><time>2022-03-28T13:02:20Z</time><name>PT833</name></trkpt>
<trkpt lat="54.445769" lon="-3.319438"><ele>336</ele><time>2022-03-28T13:02:23Z</time><name>PT834</name></trkpt>
<trkpt lat="54.445792" lon="-3.319445"><ele>337</ele><time>2022-03-28T13:02:28Z</time><name>PT835</name></trkpt>
<trkpt lat="54.445807" lon="-3.319450"><ele>337</ele><time>2022-03-28T13:02:31Z</time><name>PT836</name></trkpt>
<trkpt lat="54.445835" lon="-3.319467"><ele>339</ele><time>2022-03-28T13:02:35Z</time><name>PT837</name></trkpt>
<trkpt lat="54.445863" lon="-3.319500"><ele>340</ele><time>2022-03-28T13:02:40Z</time><name>PT838</name></trkpt>
<trkpt lat="54.445886" lon="-3.319511"><ele>341</ele><time>2022-03-28T13:02:43Z</time><name>PT839</name></trkpt>
<trkpt lat="54.445905" lon="-3.319510"><ele>341</ele><time>2022-03-28T13:02:46Z</time><name>PT840</name></trkpt>
<trkpt lat="54.445929" lon="-3.319497"><ele>342</ele><time>2022-03-28T13:02:49Z</time><name>PT841</name></trkpt>
<trkpt lat="54.445943" lon="-3.319484"><ele>343</ele><time>2022-03-28T13:02:52Z</time><name>PT842</name></trkpt>
<trkpt lat="54.445947" lon="-3.319484"><ele>343</ele><time>2022-03-28T13:02:54Z</time><name>PT843</name></trkpt>
<trkpt lat="54.445949" lon="-3.319482"><ele>344</ele><time>2022-03-28T13:02:55Z</time><name>PT844</name></trkpt>
<trkpt lat="54.445952" lon="-3.319483"><ele>344</ele><time>2022-03-28T13:02:55Z</time><name>PT845</name></trkpt>
<trkpt lat="54.445956" lon="-3.319487"><ele>344</ele><time>2022-03-28T13:02:56Z</time><name>PT846</name></trkpt>
<trkpt lat="54.445959" lon="-3.319491"><ele>345</ele><time>2022-03-28T13:02:58Z</time><name>PT847</name></trkpt>
<trkpt lat="54.445964" lon="-3.319493"><ele>345</ele><time>2022-03-28T13:02:58Z</time><name>PT848</name></trkpt>
<trkpt lat="54.445965" lon="-3.319491"><ele>345</ele><time>2022-03-28T13:02:59Z</time><name>PT849</name></trkpt>
<trkpt lat="54.445970" lon="-3.319493"><ele>346</ele><time>2022-03-28T13:03:01Z</time><name>PT850</name></trkpt>
<trkpt lat="54.445974" lon="-3.319498"><ele>346</ele><time>2022-03-28T13:03:01Z</time><name>PT851</name></trkpt>
<trkpt lat="54.445978" lon="-3.319501"><ele>347</ele><time>2022-03-28T13:03:02Z</time><name>PT852</name></trkpt>
<trkpt lat="54.445981" lon="-3.319501"><ele>347</ele><time>2022-03-28T13:03:04Z</time><name>PT853</name></trkpt>
<trkpt lat="54.445982" lon="-3.319501"><ele>347</ele><time>2022-03-28T13:03:04Z</time><name>PT854</name></trkpt>
<trkpt lat="54.445990" lon="-3.319502"><ele>346</ele><time>2022-03-28T13:03:05Z</time><name>PT855</name></trkpt>
<trkpt lat="54.445997" lon="-3.319506"><ele>346</ele><time>2022-03-28T13:03:07Z</time><name>PT856</name></trkpt>
<trkpt lat="54.446004" lon="-3.319508"><ele>347</ele><time>2022-03-28T13:03:07Z</time><name>PT857</name></trkpt>
<trkpt lat="54.446009" lon="-3.319511"><ele>347</ele><time>2022-03-28T13:03:08Z</time><name>PT858</name></trkpt>
<trkpt lat="54.446013" lon="-3.319511"><ele>347</ele><time>2022-03-28T13:03:10Z</time><name>PT859</name></trkpt>
<trkpt lat="54.446021" lon="-3.319510"><ele>347</ele><time>2022-03-28T13:03:10Z</time><name>PT860</name></trkpt>
<trkpt lat="54.446029" lon="-3.319510"><ele>347</ele><time>2022-03-28T13:03:11Z</time><name>PT861</name></trkpt>
<trkpt lat="54.446037" lon="-3.319507"><ele>347</ele><time>2022-03-28T13:03:13Z</time><name>PT862</name></trkpt>
<trkpt lat="54.446040" lon="-3.319499"><ele>347</ele><time>2022-03-28T13:03:13Z</time><name>PT863</name></trkpt>
<trkpt lat="54.446043" lon="-3.319488"><ele>347</ele><time>2022-03-28T13:03:14Z</time><name>PT864</name></trkpt>
<trkpt lat="54.446046" lon="-3.319477"><ele>347</ele><time>2022-03-28T13:03:16Z</time><name>PT865</name></trkpt>
<trkpt lat="54.446053" lon="-3.319468"><ele>347</ele><time>2022-03-28T13:03:16Z</time><name>PT866</name></trkpt>
<trkpt lat="54.446057" lon="-3.319455"><ele>347</ele><time>2022-03-28T13:03:17Z</time><name>PT867</name></trkpt>
<trkpt lat="54.446059" lon="-3.319440"><ele>347</ele><time>2022-03-28T13:03:19Z</time><name>PT868</name></trkpt>
<trkpt lat="54.446063" lon="-3.319428"><ele>347</ele><time>2022-03-28T13:03:19Z</time><name>PT869</name></trkpt>
<trkpt lat="54.446066" lon="-3.319414"><ele>348</ele><time>2022-03-28T13:03:20Z</time><name>PT870</name></trkpt>
<trkpt lat="54.446069" lon="-3.319406"><ele>348</ele><time>2022-03-28T13:03:22Z</time><name>PT871</name></trkpt>
<trkpt lat="54.446073" lon="-3.319398"><ele>348</ele><time>2022-03-28T13:03:22Z</time><name>PT872</name></trkpt>
<trkpt lat="54.446075" lon="-3.319389"><ele>348</ele><time>2022-03-28T13:03:23Z</time><name>PT873</name></trkpt>
<trkpt lat="54.446078" lon="-3.319379"><ele>348</ele><time>2022-03-28T13:03:25Z</time><name>PT874</name></trkpt>
<trkpt lat="54.446079" lon="-3.319367"><ele>348</ele><time>2022-03-28T13:03:25Z</time><name>PT875</name></trkpt>
<trkpt lat="54.446079" lon="-3.319355"><ele>348</ele><time>2022-03-28T13:03:26Z</time><name>PT876</name></trkpt>
<trkpt lat="54.446080" lon="-3.319344"><ele>349</ele><time>2022-03-28T13:03:28Z</time><name>PT877</name></trkpt>
<trkpt lat="54.446081" lon="-3.319337"><ele>349</ele><time>2022-03-28T13:03:28Z</time><name>PT878</name></trkpt>
<trkpt lat="54.446084" lon="-3.319329"><ele>349</ele><time>2022-03-28T13:03:29Z</time><name>PT879</name></trkpt>
<trkpt lat="54.446086" lon="-3.319321"><ele>349</ele><time>2022-03-28T13:03:31Z</time><name>PT880</name></trkpt>
<trkpt lat="54.446089" lon="-3.319315"><ele>349</ele><time>2022-03-28T13:03:31Z</time><name>PT881</name></trkpt>
<trkpt lat="54.446092" lon="-3.319307"><ele>349</ele><time>2022-03-28T13:03:32Z</time><name>PT882</name></trkpt>
<trkpt lat="54.446095" lon="-3.319299"><ele>350</ele><time>2022-03-28T13:03:34Z</time><name>PT883</name></trkpt>
<trkpt lat="54.446097" lon="-3.319288"><ele>350</ele><time>2022-03-28T13:03:34Z</time><name>PT884</name></trkpt>
<trkpt lat="54.446099" lon="-3.319279"><ele>350</ele><time>2022-03-28T13:03:35Z</time><name>PT885</name></trkpt>
<trkpt lat="54.446103" lon="-3.319271"><ele>350</ele><time>2022-03-28T13:03:37Z</time><name>PT886</name></trkpt>
<trkpt lat="54.446105" lon="-3.319263"><ele>350</ele><time>2022-03-28T13:03:37Z</time><name>PT887</name></trkpt>
<trkpt lat="54.446108" lon="-3.319257"><ele>350</ele><time>2022-03-28T13:03:38Z</time><name>PT888</name></trkpt>
<trkpt lat="54.446118" lon="-3.319213"><ele>352</ele><time>2022-03-28T13:04:14Z</time><name>PT889</name></trkpt>
<trkpt lat="54.446126" lon="-3.319175"><ele>353</ele><time>2022-03-28T13:04:16Z</time><name>PT890</name></trkpt>
<trkpt lat="54.446139" lon="-3.319153"><ele>353</ele><time>2022-03-28T13:04:16Z</time><name>PT891</name></trkpt>
<trkpt lat="54.446150" lon="-3.319120"><ele>353</ele><time>2022-03-28T13:04:22Z</time><name>PT892</name></trkpt>
<trkpt lat="54.446155" lon="-3.319105"><ele>353</ele><time>2022-03-28T13:04:23Z</time><name>PT893</name></trkpt>
<trkpt lat="54.446165" lon="-3.319089"><ele>354</ele><time>2022-03-28T13:04:25Z</time><name>PT894</name></trkpt>
<trkpt lat="54.446173" lon="-3.319074"><ele>353</ele><time>2022-03-28T13:04:25Z</time><name>PT895</name></trkpt>
<trkpt lat="54.446192" lon="-3.319066"><ele>353</ele><time>2022-03-28T13:04:26Z</time><name>PT896</name></trkpt>
<trkpt lat="54.446203" lon="-3.319054"><ele>353</ele><time>2022-03-28T13:04:28Z</time><name>PT897</name></trkpt>
<trkpt lat="54.446211" lon="-3.319043"><ele>353</ele><time>2022-03-28T13:04:28Z</time><name>PT898</name></trkpt>
<trkpt lat="54.446219" lon="-3.319032"><ele>353</ele><time>2022-03-28T13:04:29Z</time><name>PT899</name></trkpt>
<trkpt lat="54.446227" lon="-3.319022"><ele>354</ele><time>2022-03-28T13:04:31Z</time><name>PT900</name></trkpt>
<trkpt lat="54.446235" lon="-3.319011"><ele>354</ele><time>2022-03-28T13:04:31Z</time><name>PT901</name></trkpt>
<trkpt lat="54.446243" lon="-3.318999"><ele>354</ele><time>2022-03-28T13:04:32Z</time><name>PT902</name></trkpt>
<trkpt lat="54.446248" lon="-3.318987"><ele>354</ele><time>2022-03-28T13:04:34Z</time><name>PT903</name></trkpt>
<trkpt lat="54.446254" lon="-3.318976"><ele>354</ele><time>2022-03-28T13:04:34Z</time><name>PT904</name></trkpt>
<trkpt lat="54.446263" lon="-3.318966"><ele>355</ele><time>2022-03-28T13:04:35Z</time><name>PT905</name></trkpt>
<trkpt lat="54.446269" lon="-3.318953"><ele>355</ele><time>2022-03-28T13:04:37Z</time><name>PT906</name></trkpt>
<trkpt lat="54.446277" lon="-3.318944"><ele>355</ele><time>2022-03-28T13:04:37Z</time><name>PT907</name></trkpt>
<trkpt lat="54.446285" lon="-3.318934"><ele>355</ele><time>2022-03-28T13:04:38Z</time><name>PT908</name></trkpt>
<trkpt lat="54.446295" lon="-3.318925"><ele>355</ele><time>2022-03-28T13:04:40Z</time><name>PT909</name></trkpt>
<trkpt lat="54.446304" lon="-3.318918"><ele>356</ele><time>2022-03-28T13:04:40Z</time><name>PT910</name></trkpt>
<trkpt lat="54.446314" lon="-3.318912"><ele>356</ele><time>2022-03-28T13:04:41Z</time><name>PT911</name></trkpt>
<trkpt lat="54.446321" lon="-3.318905"><ele>356</ele><time>2022-03-28T13:04:43Z</time><name>PT912</name></trkpt>
<trkpt lat="54.446328" lon="-3.318898"><ele>356</ele><time>2022-03-28T13:04:43Z</time><name>PT913</name></trkpt>
<trkpt lat="54.446337" lon="-3.318891"><ele>356</ele><time>2022-03-28T13:04:44Z</time><name>PT914</name></trkpt>
<trkpt lat="54.446343" lon="-3.318884"><ele>356</ele><time>2022-03-28T13:04:46Z</time><name>PT915</name></trkpt>
<trkpt lat="54.446349" lon="-3.318878"><ele>356</ele><time>2022-03-28T13:04:46Z</time><name>PT916</name></trkpt>
<trkpt lat="54.446355" lon="-3.318870"><ele>356</ele><time>2022-03-28T13:04:47Z</time><name>PT917</name></trkpt>
<trkpt lat="54.446361" lon="-3.318862"><ele>356</ele><time>2022-03-28T13:04:49Z</time><name>PT918</name></trkpt>
<trkpt lat="54.446366" lon="-3.318853"><ele>356</ele><time>2022-03-28T13:04:49Z</time><name>PT919</name></trkpt>
<trkpt lat="54.446373" lon="-3.318846"><ele>356</ele><time>2022-03-28T13:04:50Z</time><name>PT920</name></trkpt>
<trkpt lat="54.446379" lon="-3.318839"><ele>357</ele><time>2022-03-28T13:04:52Z</time><name>PT921</name></trkpt>
<trkpt lat="54.446384" lon="-3.318830"><ele>357</ele><time>2022-03-28T13:04:52Z</time><name>PT922</name></trkpt>
<trkpt lat="54.446390" lon="-3.318823"><ele>357</ele><time>2022-03-28T13:04:53Z</time><name>PT923</name></trkpt>
<trkpt lat="54.446400" lon="-3.318788"><ele>358</ele><time>2022-03-28T13:04:56Z</time><name>PT924</name></trkpt>
<trkpt lat="54.446412" lon="-3.318752"><ele>360</ele><time>2022-03-28T13:05:01Z</time><name>PT925</name></trkpt>
<trkpt lat="54.446430" lon="-3.318721"><ele>361</ele><time>2022-03-28T13:05:04Z</time><name>PT926</name></trkpt>
<trkpt lat="54.446443" lon="-3.318707"><ele>362</ele><time>2022-03-28T13:05:07Z</time><name>PT927</name></trkpt>
<trkpt lat="54.446452" lon="-3.318679"><ele>363</ele><time>2022-03-28T13:05:10Z</time><name>PT928</name></trkpt>
<trkpt lat="54.446454" lon="-3.318672"><ele>363</ele><time>2022-03-28T13:05:13Z</time><name>PT929</name></trkpt>
<trkpt lat="54.446466" lon="-3.318659"><ele>363</ele><time>2022-03-28T13:05:20Z</time><name>PT930</name></trkpt>
<trkpt lat="54.446497" lon="-3.318631"><ele>364</ele><time>2022-03-28T13:05:25Z</time><name>PT931</name></trkpt>
<trkpt lat="54.446516" lon="-3.318613"><ele>365</ele><time>2022-03-28T13:05:28Z</time><name>PT932</name></trkpt>
<trkpt lat="54.446534" lon="-3.318590"><ele>366</ele><time>2022-03-28T13:05:32Z</time><name>PT933</name></trkpt>
<trkpt lat="54.446560" lon="-3.318582"><ele>366</ele><time>2022-03-28T13:05:37Z</time><name>PT934</name></trkpt>
<trkpt lat="54.446576" lon="-3.318581"><ele>366</ele><time>2022-03-28T13:05:40Z</time><name>PT935</name></trkpt>
<trkpt lat="54.446596" lon="-3.318573"><ele>367</ele><time>2022-03-28T13:05:43Z</time><name>PT936</name></trkpt>
<trkpt lat="54.446625" lon="-3.318552"><ele>368</ele><time>2022-03-28T13:05:46Z</time><name>PT937</name></trkpt>
<trkpt lat="54.446665" lon="-3.318535"><ele>368</ele><time>2022-03-28T13:05:50Z</time><name>PT938</name></trkpt>
<trkpt lat="54.446695" lon="-3.318514"><ele>369</ele><time>2022-03-28T13:05:55Z</time><name>PT939</name></trkpt>
<trkpt lat="54.446721" lon="-3.318502"><ele>369</ele><time>2022-03-28T13:05:58Z</time><name>PT940</name></trkpt>
<trkpt lat="54.446742" lon="-3.318489"><ele>370</ele><time>2022-03-28T13:06:01Z</time><name>PT941</name></trkpt>
<trkpt lat="54.446772" lon="-3.318475"><ele>371</ele><time>2022-03-28T13:06:05Z</time><name>PT942</name></trkpt>
<trkpt lat="54.446789" lon="-3.318464"><ele>372</ele><time>2022-03-28T13:06:08Z</time><name>PT943</name></trkpt>
<trkpt lat="54.446813" lon="-3.318442"><ele>372</ele><time>2022-03-28T13:06:13Z</time><name>PT944</name></trkpt>
<trkpt lat="54.446832" lon="-3.318422"><ele>373</ele><time>2022-03-28T13:06:16Z</time><name>PT945</name></trkpt>
<trkpt lat="54.446856" lon="-3.318405"><ele>375</ele><time>2022-03-28T13:06:19Z</time><name>PT946</name></trkpt>
<trkpt lat="54.446885" lon="-3.318401"><ele>376</ele><time>2022-03-28T13:06:23Z</time><name>PT947</name></trkpt>
<trkpt lat="54.446901" lon="-3.318400"><ele>376</ele><time>2022-03-28T13:06:26Z</time><name>PT948</name></trkpt>
<trkpt lat="54.446921" lon="-3.318401"><ele>377</ele><time>2022-03-28T13:06:29Z</time><name>PT949</name></trkpt>
<trkpt lat="54.446948" lon="-3.318402"><ele>377</ele><time>2022-03-28T13:06:34Z</time><name>PT950</name></trkpt>
<trkpt lat="54.446976" lon="-3.318395"><ele>377</ele><time>2022-03-28T13:06:37Z</time><name>PT951</name></trkpt>
<trkpt lat="54.446995" lon="-3.318369"><ele>378</ele><time>2022-03-28T13:06:41Z</time><name>PT952</name></trkpt>
<trkpt lat="54.447010" lon="-3.318351"><ele>378</ele><time>2022-03-28T13:06:44Z</time><name>PT953</name></trkpt>
<trkpt lat="54.447025" lon="-3.318322"><ele>379</ele><time>2022-03-28T13:06:49Z</time><name>PT954</name></trkpt>
<trkpt lat="54.447037" lon="-3.318302"><ele>379</ele><time>2022-03-28T13:06:52Z</time><name>PT955</name></trkpt>
<trkpt lat="54.447060" lon="-3.318293"><ele>380</ele><time>2022-03-28T13:06:55Z</time><name>PT956</name></trkpt>
<trkpt lat="54.447076" lon="-3.318290"><ele>380</ele><time>2022-03-28T13:06:59Z</time><name>PT957</name></trkpt>
<trkpt lat="54.447107" lon="-3.318284"><ele>380</ele><time>2022-03-28T13:07:04Z</time><name>PT958</name></trkpt>
<trkpt lat="54.447122" lon="-3.318279"><ele>381</ele><time>2022-03-28T13:07:07Z</time><name>PT959</name></trkpt>
<trkpt lat="54.447137" lon="-3.318260"><ele>381</ele><time>2022-03-28T13:07:10Z</time><name>PT960</name></trkpt>
<trkpt lat="54.447151" lon="-3.318250"><ele>382</ele><time>2022-03-28T13:07:13Z</time><name>PT961</name></trkpt>
<trkpt lat="54.447160" lon="-3.318248"><ele>382</ele><time>2022-03-28T13:07:17Z</time><name>PT962</name></trkpt>
<trkpt lat="54.447178" lon="-3.318245"><ele>382</ele><time>2022-03-28T13:07:20Z</time><name>PT963</name></trkpt>
<trkpt lat="54.447198" lon="-3.318227"><ele>383</ele><time>2022-03-28T13:07:23Z</time><name>PT964</name></trkpt>
<trkpt lat="54.447224" lon="-3.318212"><ele>384</ele><time>2022-03-28T13:07:28Z</time><name>PT965</name></trkpt>
<trkpt lat="54.447247" lon="-3.318203"><ele>385</ele><time>2022-03-28T13:07:31Z</time><name>PT966</name></trkpt>
<trkpt lat="54.447270" lon="-3.318183"><ele>385</ele><time>2022-03-28T13:07:34Z</time><name>PT967</name></trkpt>
<trkpt lat="54.447270" lon="-3.318179"><ele>386</ele><time>2022-03-28T13:07:49Z</time><name>PT968</name></trkpt>
<trkpt lat="54.447317" lon="-3.318161"><ele>386</ele><time>2022-03-28T13:07:52Z</time><name>PT969</name></trkpt>
<trkpt lat="54.447350" lon="-3.318152"><ele>387</ele><time>2022-03-28T13:07:56Z</time><name>PT970</name></trkpt>
<trkpt lat="54.447379" lon="-3.318164"><ele>388</ele><time>2022-03-28T13:08:01Z</time><name>PT971</name></trkpt>
<trkpt lat="54.447401" lon="-3.318166"><ele>389</ele><time>2022-03-28T13:08:04Z</time><name>PT972</name></trkpt>
<trkpt lat="54.447426" lon="-3.318191"><ele>390</ele><time>2022-03-28T13:08:08Z</time><name>PT973</name></trkpt>
<trkpt lat="54.447446" lon="-3.318178"><ele>390</ele><time>2022-03-28T13:08:11Z</time><name>PT974</name></trkpt>
<trkpt lat="54.447457" lon="-3.318159"><ele>390</ele><time>2022-03-28T13:08:14Z</time><name>PT975</name></trkpt>
<trkpt lat="54.447479" lon="-3.318152"><ele>390</ele><time>2022-03-28T13:08:19Z</time><name>PT976</name></trkpt>
<trkpt lat="54.447493" lon="-3.318149"><ele>390</ele><time>2022-03-28T13:08:22Z</time><name>PT977</name></trkpt>
<trkpt lat="54.447515" lon="-3.318120"><ele>391</ele><time>2022-03-28T13:08:26Z</time><name>PT978</name></trkpt>
<trkpt lat="54.447540" lon="-3.318106"><ele>391</ele><time>2022-03-28T13:08:31Z</time><name>PT979</name></trkpt>
<trkpt lat="54.447553" lon="-3.318081"><ele>392</ele><time>2022-03-28T13:08:34Z</time><name>PT980</name></trkpt>
<trkpt lat="54.447558" lon="-3.318053"><ele>392</ele><time>2022-03-28T13:08:37Z</time><name>PT981</name></trkpt>
<trkpt lat="54.447573" lon="-3.318026"><ele>393</ele><time>2022-03-28T13:08:40Z</time><name>PT982</name></trkpt>
<trkpt lat="54.447595" lon="-3.317993"><ele>393</ele><time>2022-03-28T13:08:43Z</time><name>PT983</name></trkpt>
<trkpt lat="54.447614" lon="-3.317967"><ele>393</ele><time>2022-03-28T13:08:47Z</time><name>PT984</name></trkpt>
<trkpt lat="54.447629" lon="-3.317944"><ele>393</ele><time>2022-03-28T13:08:50Z</time><name>PT985</name></trkpt>
<trkpt lat="54.447641" lon="-3.317917"><ele>393</ele><time>2022-03-28T13:08:53Z</time><name>PT986</name></trkpt>
<trkpt lat="54.447660" lon="-3.317855"><ele>394</ele><time>2022-03-28T13:08:58Z</time><name>PT987</name></trkpt>
<trkpt lat="54.447665" lon="-3.317800"><ele>394</ele><time>2022-03-28T13:09:01Z</time><name>PT988</name></trkpt>
<trkpt lat="54.447676" lon="-3.317770"><ele>395</ele><time>2022-03-28T13:09:04Z</time><name>PT989</name></trkpt>
<trkpt lat="54.447683" lon="-3.317738"><ele>396</ele><time>2022-03-28T13:09:07Z</time><name>PT990</name></trkpt>
<trkpt lat="54.447698" lon="-3.317706"><ele>397</ele><time>2022-03-28T13:09:11Z</time><name>PT991</name></trkpt>
<trkpt lat="54.447712" lon="-3.317677"><ele>399</ele><time>2022-03-28T13:09:14Z</time><name>PT992</name></trkpt>
<trkpt lat="54.447727" lon="-3.317654"><ele>399</ele><time>2022-03-28T13:09:17Z</time><name>PT993</name></trkpt>
<trkpt lat="54.447751" lon="-3.317636"><ele>400</ele><time>2022-03-28T13:09:22Z</time><name>PT994</name></trkpt>
<trkpt lat="54.447780" lon="-3.317644"><ele>400</ele><time>2022-03-28T13:09:25Z</time><name>PT995</name></trkpt>
<trkpt lat="54.447814" lon="-3.317652"><ele>401</ele><time>2022-03-28T13:09:29Z</time><name>PT996</name></trkpt>
<trkpt lat="54.447844" lon="-3.317640"><ele>401</ele><time>2022-03-28T13:09:34Z</time><name>PT997</name></trkpt>
<trkpt lat="54.447868" lon="-3.317629"><ele>402</ele><time>2022-03-28T13:09:37Z</time><name>PT998</name></trkpt>
<trkpt lat="54.447895" lon="-3.317613"><ele>403</ele><time>2022-03-28T13:09:41Z</time><name>PT999</name></trkpt>
<trkpt lat="54.447912" lon="-3.317596"><ele>403</ele><time>2022-03-28T13:09:46Z</time><name>PT1000</name></trkpt>
<trkpt lat="54.447931" lon="-3.317584"><ele>403</ele><time>2022-03-28T13:09:49Z</time><name>PT1001</name></trkpt>
<trkpt lat="54.447949" lon="-3.317572"><ele>404</ele><time>2022-03-28T13:09:52Z</time><name>PT1002</name></trkpt>
<trkpt lat="54.447970" lon="-3.317562"><ele>404</ele><time>2022-03-28T13:09:55Z</time><name>PT1003</name></trkpt>
<trkpt lat="54.448000" lon="-3.317547"><ele>405</ele><time>2022-03-28T13:09:58Z</time><name>PT1004</name></trkpt>
<trkpt lat="54.448027" lon="-3.317536"><ele>405</ele><time>2022-03-28T13:10:02Z</time><name>PT1005</name></trkpt>
<trkpt lat="54.448046" lon="-3.317520"><ele>406</ele><time>2022-03-28T13:10:05Z</time><name>PT1006</name></trkpt>
<trkpt lat="54.448067" lon="-3.317492"><ele>406</ele><time>2022-03-28T13:10:10Z</time><name>PT1007</name></trkpt>
<trkpt lat="54.448089" lon="-3.317455"><ele>407</ele><time>2022-03-28T13:10:13Z</time><name>PT1008</name></trkpt>
<trkpt lat="54.448113" lon="-3.317422"><ele>408</ele><time>2022-03-28T13:10:17Z</time><name>PT1009</name></trkpt>
<trkpt lat="54.448139" lon="-3.317400"><ele>409</ele><time>2022-03-28T13:10:22Z</time><name>PT1010</name></trkpt>
<trkpt lat="54.448159" lon="-3.317378"><ele>409</ele><time>2022-03-28T13:10:25Z</time><name>PT1011</name></trkpt>
<trkpt lat="54.448187" lon="-3.317356"><ele>410</ele><time>2022-03-28T13:10:29Z</time><name>PT1012</name></trkpt>
<trkpt lat="54.448207" lon="-3.317332"><ele>411</ele><time>2022-03-28T13:10:32Z</time><name>PT1013</name></trkpt>
<trkpt lat="54.448238" lon="-3.317319"><ele>413</ele><time>2022-03-28T13:10:37Z</time><name>PT1014</name></trkpt>
<trkpt lat="54.448257" lon="-3.317309"><ele>413</ele><time>2022-03-28T13:10:40Z</time><name>PT1015</name></trkpt>
<trkpt lat="54.448285" lon="-3.317287"><ele>413</ele><time>2022-03-28T13:10:43Z</time><name>PT1016</name></trkpt>
<trkpt lat="54.448305" lon="-3.317267"><ele>413</ele><time>2022-03-28T13:10:46Z</time><name>PT1017</name></trkpt>
<trkpt lat="54.448318" lon="-3.317237"><ele>414</ele><time>2022-03-28T13:10:50Z</time><name>PT1018</name></trkpt>
<trkpt lat="54.448338" lon="-3.317204"><ele>413</ele><time>2022-03-28T13:10:55Z</time><name>PT1019</name></trkpt>
<trkpt lat="54.448353" lon="-3.317180"><ele>413</ele><time>2022-03-28T13:10:58Z</time><name>PT1020</name></trkpt>
<trkpt lat="54.448369" lon="-3.317145"><ele>415</ele><time>2022-03-28T13:11:01Z</time><name>PT1021</name></trkpt>
<trkpt lat="54.448391" lon="-3.317121"><ele>415</ele><time>2022-03-28T13:11:05Z</time><name>PT1022</name></trkpt>
<trkpt lat="54.448412" lon="-3.317087"><ele>416</ele><time>2022-03-28T13:11:10Z</time><name>PT1023</name></trkpt>
<trkpt lat="54.448425" lon="-3.317058"><ele>417</ele><time>2022-03-28T13:11:13Z</time><name>PT1024</name></trkpt>
<trkpt lat="54.448445" lon="-3.317029"><ele>417</ele><time>2022-03-28T13:11:16Z</time><name>PT1025</name></trkpt>
<trkpt lat="54.448465" lon="-3.316997"><ele>418</ele><time>2022-03-28T13:11:19Z</time><name>PT1026</name></trkpt>
<trkpt lat="54.448491" lon="-3.316953"><ele>419</ele><time>2022-03-28T13:11:23Z</time><name>PT1027</name></trkpt>
<trkpt lat="54.448503" lon="-3.316909"><ele>419</ele><time>2022-03-28T13:11:28Z</time><name>PT1028</name></trkpt>
<trkpt lat="54.448514" lon="-3.316877"><ele>419</ele><time>2022-03-28T13:11:31Z</time><name>PT1029</name></trkpt>
<trkpt lat="54.448528" lon="-3.316842"><ele>420</ele><time>2022-03-28T13:11:34Z</time><name>PT1030</name></trkpt>
<trkpt lat="54.448550" lon="-3.316827"><ele>421</ele><time>2022-03-28T13:11:38Z</time><name>PT1031</name></trkpt>
<trkpt lat="54.448565" lon="-3.316812"><ele>421</ele><time>2022-03-28T13:11:41Z</time><name>PT1032</name></trkpt>
<trkpt lat="54.448582" lon="-3.316791"><ele>422</ele><time>2022-03-28T13:11:44Z</time><name>PT1033</name></trkpt>
<trkpt lat="54.448602" lon="-3.316761"><ele>422</ele><time>2022-03-28T13:11:49Z</time><name>PT1034</name></trkpt>
<trkpt lat="54.448612" lon="-3.316732"><ele>422</ele><time>2022-03-28T13:11:52Z</time><name>PT1035</name></trkpt>
<trkpt lat="54.448620" lon="-3.316708"><ele>422</ele><time>2022-03-28T13:11:55Z</time><name>PT1036</name></trkpt>
<trkpt lat="54.448634" lon="-3.316680"><ele>423</ele><time>2022-03-28T13:11:59Z</time><name>PT1037</name></trkpt>
<trkpt lat="54.448645" lon="-3.316664"><ele>423</ele><time>2022-03-28T13:12:02Z</time><name>PT1038</name></trkpt>
<trkpt lat="54.448666" lon="-3.316644"><ele>424</ele><time>2022-03-28T13:12:05Z</time><name>PT1039</name></trkpt>
<trkpt lat="54.448689" lon="-3.316615"><ele>425</ele><time>2022-03-28T13:12:10Z</time><name>PT1040</name></trkpt>
<trkpt lat="54.448703" lon="-3.316591"><ele>426</ele><time>2022-03-28T13:12:13Z</time><name>PT1041</name></trkpt>
<trkpt lat="54.448720" lon="-3.316569"><ele>427</ele><time>2022-03-28T13:12:16Z</time><name>PT1042</name></trkpt>
<trkpt lat="54.448729" lon="-3.316545"><ele>427</ele><time>2022-03-28T13:12:20Z</time><name>PT1043</name></trkpt>
<trkpt lat="54.448744" lon="-3.316522"><ele>428</ele><time>2022-03-28T13:12:25Z</time><name>PT1044</name></trkpt>
<trkpt lat="54.448754" lon="-3.316502"><ele>428</ele><time>2022-03-28T13:12:28Z</time><name>PT1045</name></trkpt>
<trkpt lat="54.448770" lon="-3.316483"><ele>430</ele><time>2022-03-28T13:12:31Z</time><name>PT1046</name></trkpt>
<trkpt lat="54.448792" lon="-3.316474"><ele>430</ele><time>2022-03-28T13:12:35Z</time><name>PT1047</name></trkpt>
<trkpt lat="54.448811" lon="-3.316454"><ele>430</ele><time>2022-03-28T13:12:38Z</time><name>PT1048</name></trkpt>
<trkpt lat="54.448825" lon="-3.316442"><ele>431</ele><time>2022-03-28T13:12:41Z</time><name>PT1049</name></trkpt>
<trkpt lat="54.448828" lon="-3.316432"><ele>431</ele><time>2022-03-28T13:12:43Z</time><name>PT1050</name></trkpt>
<trkpt lat="54.448830" lon="-3.316422"><ele>431</ele><time>2022-03-28T13:12:43Z</time><name>PT1051</name></trkpt>
<trkpt lat="54.448833" lon="-3.316411"><ele>431</ele><time>2022-03-28T13:12:44Z</time><name>PT1052</name></trkpt>
<trkpt lat="54.448836" lon="-3.316400"><ele>432</ele><time>2022-03-28T13:12:46Z</time><name>PT1053</name></trkpt>
<trkpt lat="54.448839" lon="-3.316394"><ele>432</ele><time>2022-03-28T13:12:46Z</time><name>PT1054</name></trkpt>
<trkpt lat="54.448843" lon="-3.316387"><ele>432</ele><time>2022-03-28T13:12:47Z</time><name>PT1055</name></trkpt>
<trkpt lat="54.448847" lon="-3.316386"><ele>432</ele><time>2022-03-28T13:12:49Z</time><name>PT1056</name></trkpt>
<trkpt lat="54.448852" lon="-3.316385"><ele>432</ele><time>2022-03-28T13:12:49Z</time><name>PT1057</name></trkpt>
<trkpt lat="54.448857" lon="-3.316384"><ele>432</ele><time>2022-03-28T13:12:50Z</time><name>PT1058</name></trkpt>
<trkpt lat="54.448861" lon="-3.316376"><ele>432</ele><time>2022-03-28T13:12:52Z</time><name>PT1059</name></trkpt>
<trkpt lat="54.448864" lon="-3.316370"><ele>432</ele><time>2022-03-28T13:12:52Z</time><name>PT1060</name></trkpt>
<trkpt lat="54.448865" lon="-3.316361"><ele>433</ele><time>2022-03-28T13:12:53Z</time><name>PT1061</name></trkpt>
<trkpt lat="54.448865" lon="-3.316354"><ele>433</ele><time>2022-03-28T13:12:55Z</time><name>PT1062</name></trkpt>
<trkpt lat="54.448866" lon="-3.316344"><ele>433</ele><time>2022-03-28T13:12:55Z</time><name>PT1063</name></trkpt>
<trkpt lat="54.448868" lon="-3.316335"><ele>434</ele><time>2022-03-28T13:12:56Z</time><name>PT1064</name></trkpt>
<trkpt lat="54.448867" lon="-3.316324"><ele>434</ele><time>2022-03-28T13:12:58Z</time><name>PT1065</name></trkpt>
<trkpt lat="54.448869" lon="-3.316313"><ele>434</ele><time>2022-03-28T13:12:58Z</time><name>PT1066</name></trkpt>
<trkpt lat="54.448873" lon="-3.316299"><ele>435</ele><time>2022-03-28T13:12:59Z</time><name>PT1067</name></trkpt>
<trkpt lat="54.448878" lon="-3.316297"><ele>434</ele><time>2022-03-28T13:13:01Z</time><name>PT1068</name></trkpt>
<trkpt lat="54.448885" lon="-3.316290"><ele>435</ele><time>2022-03-28T13:13:01Z</time><name>PT1069</name></trkpt>
<trkpt lat="54.448890" lon="-3.316283"><ele>435</ele><time>2022-03-28T13:13:02Z</time><name>PT1070</name></trkpt>
<trkpt lat="54.448895" lon="-3.316273"><ele>435</ele><time>2022-03-28T13:13:04Z</time><name>PT1071</name></trkpt>
<trkpt lat="54.448901" lon="-3.316263"><ele>435</ele><time>2022-03-28T13:13:04Z</time><name>PT1072</name></trkpt>
<trkpt lat="54.448907" lon="-3.316254"><ele>435</ele><time>2022-03-28T13:13:05Z</time><name>PT1073</name></trkpt>
<trkpt lat="54.448911" lon="-3.316241"><ele>435</ele><time>2022-03-28T13:13:07Z</time><name>PT1074</name></trkpt>
<trkpt lat="54.448914" lon="-3.316232"><ele>436</ele><time>2022-03-28T13:13:07Z</time><name>PT1075</name></trkpt>
<trkpt lat="54.448918" lon="-3.316224"><ele>436</ele><time>2022-03-28T13:13:08Z</time><name>PT1076</name></trkpt>
<trkpt lat="54.448920" lon="-3.316223"><ele>435</ele><time>2022-03-28T13:13:10Z</time><name>PT1077</name></trkpt>
<trkpt lat="54.448922" lon="-3.316216"><ele>435</ele><time>2022-03-28T13:13:10Z</time><name>PT1078</name></trkpt>
<trkpt lat="54.448925" lon="-3.316210"><ele>436</ele><time>2022-03-28T13:13:11Z</time><name>PT1079</name></trkpt>
<trkpt lat="54.448929" lon="-3.316201"><ele>436</ele><time>2022-03-28T13:13:13Z</time><name>PT1080</name></trkpt>
<trkpt lat="54.448933" lon="-3.316189"><ele>436</ele><time>2022-03-28T13:13:13Z</time><name>PT1081</name></trkpt>
<trkpt lat="54.448937" lon="-3.316176"><ele>437</ele><time>2022-03-28T13:13:14Z</time><name>PT1082</name></trkpt>
<trkpt lat="54.448941" lon="-3.316163"><ele>437</ele><time>2022-03-28T13:13:16Z</time><name>PT1083</name></trkpt>
<trkpt lat="54.448950" lon="-3.316150"><ele>438</ele><time>2022-03-28T13:13:16Z</time><name>PT1084</name></trkpt>
<trkpt lat="54.448955" lon="-3.316135"><ele>438</ele><time>2022-03-28T13:13:17Z</time><name>PT1085</name></trkpt>
<trkpt lat="54.448957" lon="-3.316123"><ele>438</ele><time>2022-03-28T13:13:19Z</time><name>PT1086</name></trkpt>
<trkpt lat="54.448959" lon="-3.316110"><ele>438</ele><time>2022-03-28T13:13:19Z</time><name>PT1087</name></trkpt>
<trkpt lat="54.448961" lon="-3.316095"><ele>438</ele><time>2022-03-28T13:13:20Z</time><name>PT1088</name></trkpt>
<trkpt lat="54.448964" lon="-3.316083"><ele>438</ele><time>2022-03-28T13:13:22Z</time><name>PT1089</name></trkpt>
<trkpt lat="54.448966" lon="-3.316073"><ele>438</ele><time>2022-03-28T13:13:22Z</time><name>PT1090</name></trkpt>
<trkpt lat="54.448968" lon="-3.316063"><ele>438</ele><time>2022-03-28T13:13:23Z</time><name>PT1091</name></trkpt>
<trkpt lat="54.448969" lon="-3.316052"><ele>439</ele><time>2022-03-28T13:13:25Z</time><name>PT1092</name></trkpt>
<trkpt lat="54.448966" lon="-3.316041"><ele>439</ele><time>2022-03-28T13:13:25Z</time><name>PT1093</name></trkpt>
<trkpt lat="54.448966" lon="-3.316031"><ele>439</ele><time>2022-03-28T13:13:26Z</time><name>PT1094</name></trkpt>
<trkpt lat="54.448968" lon="-3.316022"><ele>439</ele><time>2022-03-28T13:13:28Z</time><name>PT1095</name></trkpt>
<trkpt lat="54.448969" lon="-3.316010"><ele>440</ele><time>2022-03-28T13:13:28Z</time><name>PT1096</name></trkpt>
<trkpt lat="54.448970" lon="-3.316001"><ele>440</ele><time>2022-03-28T13:13:29Z</time><name>PT1097</name></trkpt>
<trkpt lat="54.448973" lon="-3.315990"><ele>440</ele><time>2022-03-28T13:13:31Z</time><name>PT1098</name></trkpt>
<trkpt lat="54.448975" lon="-3.315981"><ele>440</ele><time>2022-03-28T13:13:31Z</time><name>PT1099</name></trkpt>
<trkpt lat="54.448976" lon="-3.315971"><ele>441</ele><time>2022-03-28T13:13:32Z</time><name>PT1100</name></trkpt>
<trkpt lat="54.448977" lon="-3.315958"><ele>441</ele><time>2022-03-28T13:13:34Z</time><name>PT1101</name></trkpt>
<trkpt lat="54.448980" lon="-3.315947"><ele>441</ele><time>2022-03-28T13:13:34Z</time><name>PT1102</name></trkpt>
<trkpt lat="54.448981" lon="-3.315934"><ele>441</ele><time>2022-03-28T13:13:35Z</time><name>PT1103</name></trkpt>
<trkpt lat="54.448985" lon="-3.315925"><ele>441</ele><time>2022-03-28T13:13:37Z</time><name>PT1104</name></trkpt>
<trkpt lat="54.448988" lon="-3.315916"><ele>441</ele><time>2022-03-28T13:13:37Z</time><name>PT1105</name></trkpt>
<trkpt lat="54.448990" lon="-3.315909"><ele>441</ele><time>2022-03-28T13:13:38Z</time><name>PT1106</name></trkpt>
<trkpt lat="54.448993" lon="-3.315898"><ele>441</ele><time>2022-03-28T13:13:40Z</time><name>PT1107</name></trkpt>
<trkpt lat="54.448995" lon="-3.315888"><ele>442</ele><time>2022-03-28T13:13:40Z</time><name>PT1108</name></trkpt>
<trkpt lat="54.448999" lon="-3.315875"><ele>442</ele><time>2022-03-28T13:13:41Z</time><name>PT1109</name></trkpt>
<trkpt lat="54.449004" lon="-3.315869"><ele>442</ele><time>2022-03-28T13:13:43Z</time><name>PT1110</name></trkpt>
<trkpt lat="54.449007" lon="-3.315861"><ele>443</ele><time>2022-03-28T13:13:43Z</time><name>PT1111</name></trkpt>
<trkpt lat="54.449012" lon="-3.315853"><ele>443</ele><time>2022-03-28T13:13:44Z</time><name>PT1112</name></trkpt>
<trkpt lat="54.449014" lon="-3.315844"><ele>443</ele><time>2022-03-28T13:13:46Z</time><name>PT1113</name></trkpt>
<trkpt lat="54.449018" lon="-3.315832"><ele>443</ele><time>2022-03-28T13:13:46Z</time><name>PT1114</name></trkpt>
<trkpt lat="54.449020" lon="-3.315820"><ele>443</ele><time>2022-03-28T13:13:47Z</time><name>PT1115</name></trkpt>
<trkpt lat="54.449022" lon="-3.315808"><ele>443</ele><time>2022-03-28T13:13:49Z</time><name>PT1116</name></trkpt>
<trkpt lat="54.449025" lon="-3.315799"><ele>443</ele><time>2022-03-28T13:13:49Z</time><name>PT1117</name></trkpt>
<trkpt lat="54.449028" lon="-3.315786"><ele>443</ele><time>2022-03-28T13:13:50Z</time><name>PT1118</name></trkpt>
<trkpt lat="54.449030" lon="-3.315774"><ele>443</ele><time>2022-03-28T13:13:52Z</time><name>PT1119</name></trkpt>
<trkpt lat="54.449032" lon="-3.315763"><ele>444</ele><time>2022-03-28T13:13:52Z</time><name>PT1120</name></trkpt>
<trkpt lat="54.449033" lon="-3.315751"><ele>444</ele><time>2022-03-28T13:13:53Z</time><name>PT1121</name></trkpt>
<trkpt lat="54.449034" lon="-3.315741"><ele>444</ele><time>2022-03-28T13:13:55Z</time><name>PT1122</name></trkpt>
<trkpt lat="54.449035" lon="-3.315732"><ele>444</ele><time>2022-03-28T13:13:55Z</time><name>PT1123</name></trkpt>
<trkpt lat="54.449036" lon="-3.315724"><ele>445</ele><time>2022-03-28T13:13:56Z</time><name>PT1124</name></trkpt>
<trkpt lat="54.449038" lon="-3.315713"><ele>445</ele><time>2022-03-28T13:13:58Z</time><name>PT1125</name></trkpt>
<trkpt lat="54.449038" lon="-3.315702"><ele>445</ele><time>2022-03-28T13:13:58Z</time><name>PT1126</name></trkpt>
<trkpt lat="54.449038" lon="-3.315690"><ele>445</ele><time>2022-03-28T13:13:59Z</time><name>PT1127</name></trkpt>
<trkpt lat="54.449038" lon="-3.315683"><ele>445</ele><time>2022-03-28T13:14:01Z</time><name>PT1128</name></trkpt>
<trkpt lat="54.449039" lon="-3.315670"><ele>445</ele><time>2022-03-28T13:14:01Z</time><name>PT1129</name></trkpt>
<trkpt lat="54.449040" lon="-3.315659"><ele>446</ele><time>2022-03-28T13:14:02Z</time><name>PT1130</name></trkpt>
<trkpt lat="54.449041" lon="-3.315643"><ele>446</ele><time>2022-03-28T13:14:04Z</time><name>PT1131</name></trkpt>
<trkpt lat="54.449042" lon="-3.315635"><ele>447</ele><time>2022-03-28T13:14:04Z</time><name>PT1132</name></trkpt>
<trkpt lat="54.449042" lon="-3.315628"><ele>447</ele><time>2022-03-28T13:14:05Z</time><name>PT1133</name></trkpt>
<trkpt lat="54.449040" lon="-3.315618"><ele>447</ele><time>2022-03-28T13:14:07Z</time><name>PT1134</name></trkpt>
<trkpt lat="54.449040" lon="-3.315609"><ele>447</ele><time>2022-03-28T13:14:07Z</time><name>PT1135</name></trkpt>
<trkpt lat="54.449039" lon="-3.315600"><ele>447</ele><time>2022-03-28T13:14:08Z</time><name>PT1136</name></trkpt>
<trkpt lat="54.449039" lon="-3.315593"><ele>447</ele><time>2022-03-28T13:14:10Z</time><name>PT1137</name></trkpt>
<trkpt lat="54.449039" lon="-3.315584"><ele>448</ele><time>2022-03-28T13:14:10Z</time><name>PT1138</name></trkpt>
<trkpt lat="54.449037" lon="-3.315575"><ele>448</ele><time>2022-03-28T13:14:12Z</time><name>PT1139</name></trkpt>
<trkpt lat="54.449035" lon="-3.315565"><ele>448</ele><time>2022-03-28T13:14:13Z</time><name>PT1140</name></trkpt>
<trkpt lat="54.449035" lon="-3.315555"><ele>448</ele><time>2022-03-28T13:14:13Z</time><name>PT1141</name></trkpt>
<trkpt lat="54.449038" lon="-3.315546"><ele>448</ele><time>2022-03-28T13:14:14Z</time><name>PT1142</name></trkpt>
<trkpt lat="54.449040" lon="-3.315537"><ele>449</ele><time>2022-03-28T13:14:16Z</time><name>PT1143</name></trkpt>
<trkpt lat="54.449042" lon="-3.315528"><ele>449</ele><time>2022-03-28T13:14:16Z</time><name>PT1144</name></trkpt>
<trkpt lat="54.449044" lon="-3.315519"><ele>449</ele><time>2022-03-28T13:14:17Z</time><name>PT1145</name></trkpt>
<trkpt lat="54.449047" lon="-3.315507"><ele>449</ele><time>2022-03-28T13:14:19Z</time><name>PT1146</name></trkpt>
<trkpt lat="54.449050" lon="-3.315497"><ele>449</ele><time>2022-03-28T13:14:19Z</time><name>PT1147</name></trkpt>
<trkpt lat="54.449055" lon="-3.315488"><ele>449</ele><time>2022-03-28T13:14:20Z</time><name>PT1148</name></trkpt>
<trkpt lat="54.449059" lon="-3.315480"><ele>449</ele><time>2022-03-28T13:14:22Z</time><name>PT1149</name></trkpt>
<trkpt lat="54.449062" lon="-3.315472"><ele>449</ele><time>2022-03-28T13:14:22Z</time><name>PT1150</name></trkpt>
<trkpt lat="54.449065" lon="-3.315463"><ele>449</ele><time>2022-03-28T13:14:23Z</time><name>PT1151</name></trkpt>
<trkpt lat="54.449067" lon="-3.315458"><ele>449</ele><time>2022-03-28T13:14:25Z</time><name>PT1152</name></trkpt>
<trkpt lat="54.449069" lon="-3.315450"><ele>450</ele><time>2022-03-28T13:14:25Z</time><name>PT1153</name></trkpt>
<trkpt lat="54.449075" lon="-3.315446"><ele>450</ele><time>2022-03-28T13:14:26Z</time><name>PT1154</name></trkpt>
<trkpt lat="54.449082" lon="-3.315443"><ele>450</ele><time>2022-03-28T13:14:28Z</time><name>PT1155</name></trkpt>
<trkpt lat="54.449088" lon="-3.315441"><ele>450</ele><time>2022-03-28T13:14:28Z</time><name>PT1156</name></trkpt>
<trkpt lat="54.449094" lon="-3.315440"><ele>450</ele><time>2022-03-28T13:14:29Z</time><name>PT1157</name></trkpt>
<trkpt lat="54.449105" lon="-3.315441"><ele>450</ele><time>2022-03-28T13:14:31Z</time><name>PT1158</name></trkpt>
<trkpt lat="54.449110" lon="-3.315435"><ele>450</ele><time>2022-03-28T13:14:31Z</time><name>PT1159</name></trkpt>
<trkpt lat="54.449113" lon="-3.315429"><ele>450</ele><time>2022-03-28T13:14:32Z</time><name>PT1160</name></trkpt>
<trkpt lat="54.449119" lon="-3.315423"><ele>451</ele><time>2022-03-28T13:14:34Z</time><name>PT1161</name></trkpt>
<trkpt lat="54.449122" lon="-3.315419"><ele>451</ele><time>2022-03-28T13:14:34Z</time><name>PT1162</name></trkpt>
<trkpt lat="54.449124" lon="-3.315417"><ele>451</ele><time>2022-03-28T13:14:35Z</time><name>PT1163</name></trkpt>
<trkpt lat="54.449127" lon="-3.315413"><ele>451</ele><time>2022-03-28T13:14:37Z</time><name>PT1164</name></trkpt>
<trkpt lat="54.449131" lon="-3.315404"><ele>451</ele><time>2022-03-28T13:14:37Z</time><name>PT1165</name></trkpt>
<trkpt lat="54.449136" lon="-3.315398"><ele>451</ele><time>2022-03-28T13:14:38Z</time><name>PT1166</name></trkpt>
<trkpt lat="54.449138" lon="-3.315392"><ele>451</ele><time>2022-03-28T13:14:40Z</time><name>PT1167</name></trkpt>
<trkpt lat="54.449139" lon="-3.315384"><ele>451</ele><time>2022-03-28T13:14:40Z</time><name>PT1168</name></trkpt>
<trkpt lat="54.449142" lon="-3.315352"><ele>451</ele><time>2022-03-28T13:14:43Z</time><name>PT1169</name></trkpt>
<trkpt lat="54.449148" lon="-3.315313"><ele>452</ele><time>2022-03-28T13:14:47Z</time><name>PT1170</name></trkpt>
<trkpt lat="54.449171" lon="-3.315313"><ele>453</ele><time>2022-03-28T13:14:52Z</time><name>PT1171</name></trkpt>
<trkpt lat="54.449191" lon="-3.315302"><ele>453</ele><time>2022-03-28T13:14:55Z</time><name>PT1172</name></trkpt>
<trkpt lat="54.449197" lon="-3.315297"><ele>454</ele><time>2022-03-28T13:14:58Z</time><name>PT1173</name></trkpt>
<trkpt lat="54.449211" lon="-3.315294"><ele>454</ele><time>2022-03-28T13:15:01Z</time><name>PT1174</name></trkpt>
<trkpt lat="54.449226" lon="-3.315278"><ele>455</ele><time>2022-03-28T13:15:04Z</time><name>PT1175</name></trkpt>
<trkpt lat="54.449228" lon="-3.315265"><ele>455</ele><time>2022-03-28T13:15:07Z</time><name>PT1176</name></trkpt>
<trkpt lat="54.449230" lon="-3.315260"><ele>455</ele><time>2022-03-28T13:15:07Z</time><name>PT1177</name></trkpt>
<trkpt lat="54.449228" lon="-3.315240"><ele>455</ele><time>2022-03-28T13:15:13Z</time><name>PT1178</name></trkpt>
<trkpt lat="54.449232" lon="-3.315236"><ele>455</ele><time>2022-03-28T13:15:13Z</time><name>PT1179</name></trkpt>
<trkpt lat="54.449235" lon="-3.315231"><ele>456</ele><time>2022-03-28T13:15:14Z</time><name>PT1180</name></trkpt>
<trkpt lat="54.449234" lon="-3.315224"><ele>456</ele><time>2022-03-28T13:15:16Z</time><name>PT1181</name></trkpt>
<trkpt lat="54.449230" lon="-3.315216"><ele>456</ele><time>2022-03-28T13:15:16Z</time><name>PT1182</name></trkpt>
<trkpt lat="54.449230" lon="-3.315207"><ele>456</ele><time>2022-03-28T13:15:17Z</time><name>PT1183</name></trkpt>
<trkpt lat="54.449229" lon="-3.315205"><ele>456</ele><time>2022-03-28T13:15:19Z</time><name>PT1184</name></trkpt>
<trkpt lat="54.449232" lon="-3.315196"><ele>456</ele><time>2022-03-28T13:15:19Z</time><name>PT1185</name></trkpt>
<trkpt lat="54.449236" lon="-3.315191"><ele>456</ele><time>2022-03-28T13:15:20Z</time><name>PT1186</name></trkpt>
<trkpt lat="54.449240" lon="-3.315188"><ele>457</ele><time>2022-03-28T13:15:22Z</time><name>PT1187</name></trkpt>
<trkpt lat="54.449244" lon="-3.315186"><ele>457</ele><time>2022-03-28T13:15:22Z</time><name>PT1188</name></trkpt>
<trkpt lat="54.449252" lon="-3.315190"><ele>457</ele><time>2022-03-28T13:15:25Z</time><name>PT1189</name></trkpt>
<trkpt lat="54.449263" lon="-3.315192"><ele>457</ele><time>2022-03-28T13:15:25Z</time><name>PT1190</name></trkpt>
<trkpt lat="54.449270" lon="-3.315192"><ele>457</ele><time>2022-03-28T13:15:26Z</time><name>PT1191</name></trkpt>
<trkpt lat="54.449275" lon="-3.315182"><ele>457</ele><time>2022-03-28T13:15:28Z</time><name>PT1192</name></trkpt>
<trkpt lat="54.449279" lon="-3.315176"><ele>457</ele><time>2022-03-28T13:15:28Z</time><name>PT1193</name></trkpt>
<trkpt lat="54.449281" lon="-3.315171"><ele>457</ele><time>2022-03-28T13:15:29Z</time><name>PT1194</name></trkpt>
<trkpt lat="54.449285" lon="-3.315161"><ele>458</ele><time>2022-03-28T13:15:31Z</time><name>PT1195</name></trkpt>
<trkpt lat="54.449282" lon="-3.315159"><ele>457</ele><time>2022-03-28T13:15:32Z</time><name>PT1196</name></trkpt>
<trkpt lat="54.449286" lon="-3.315148"><ele>457</ele><time>2022-03-28T13:15:34Z</time><name>PT1197</name></trkpt>
<trkpt lat="54.449292" lon="-3.315133"><ele>457</ele><time>2022-03-28T13:15:34Z</time><name>PT1198</name></trkpt>
<trkpt lat="54.449293" lon="-3.315124"><ele>457</ele><time>2022-03-28T13:15:35Z</time><name>PT1199</name></trkpt>
<trkpt lat="54.449297" lon="-3.315114"><ele>458</ele><time>2022-03-28T13:15:37Z</time><name>PT1200</name></trkpt>
<trkpt lat="54.449305" lon="-3.315105"><ele>458</ele><time>2022-03-28T13:15:37Z</time><name>PT1201</name></trkpt>
<trkpt lat="54.449311" lon="-3.315100"><ele>458</ele><time>2022-03-28T13:15:38Z</time><name>PT1202</name></trkpt>
<trkpt lat="54.449315" lon="-3.315097"><ele>458</ele><time>2022-03-28T13:15:40Z</time><name>PT1203</name></trkpt>
<trkpt lat="54.449323" lon="-3.315092"><ele>458</ele><time>2022-03-28T13:15:40Z</time><name>PT1204</name></trkpt>
<trkpt lat="54.449329" lon="-3.315085"><ele>458</ele><time>2022-03-28T13:15:41Z</time><name>PT1205</name></trkpt>
<trkpt lat="54.449332" lon="-3.315077"><ele>458</ele><time>2022-03-28T13:15:43Z</time><name>PT1206</name></trkpt>
<trkpt lat="54.449334" lon="-3.315066"><ele>459</ele><time>2022-03-28T13:15:43Z</time><name>PT1207</name></trkpt>
<trkpt lat="54.449335" lon="-3.315054"><ele>458</ele><time>2022-03-28T13:15:44Z</time><name>PT1208</name></trkpt>
<trkpt lat="54.449335" lon="-3.315040"><ele>459</ele><time>2022-03-28T13:15:46Z</time><name>PT1209</name></trkpt>
<trkpt lat="54.449335" lon="-3.315031"><ele>459</ele><time>2022-03-28T13:15:46Z</time><name>PT1210</name></trkpt>
<trkpt lat="54.449336" lon="-3.315023"><ele>459</ele><time>2022-03-28T13:15:47Z</time><name>PT1211</name></trkpt>
<trkpt lat="54.449340" lon="-3.315015"><ele>459</ele><time>2022-03-28T13:15:49Z</time><name>PT1212</name></trkpt>
<trkpt lat="54.449344" lon="-3.315007"><ele>459</ele><time>2022-03-28T13:15:49Z</time><name>PT1213</name></trkpt>
<trkpt lat="54.449347" lon="-3.314998"><ele>460</ele><time>2022-03-28T13:15:50Z</time><name>PT1214</name></trkpt>
<trkpt lat="54.449352" lon="-3.314992"><ele>460</ele><time>2022-03-28T13:15:52Z</time><name>PT1215</name></trkpt>
<trkpt lat="54.449358" lon="-3.314984"><ele>460</ele><time>2022-03-28T13:15:52Z</time><name>PT1216</name></trkpt>
<trkpt lat="54.449362" lon="-3.314976"><ele>460</ele><time>2022-03-28T13:15:53Z</time><name>PT1217</name></trkpt>
<trkpt lat="54.449365" lon="-3.314968"><ele>460</ele><time>2022-03-28T13:15:55Z</time><name>PT1218</name></trkpt>
<trkpt lat="54.449369" lon="-3.314957"><ele>460</ele><time>2022-03-28T13:15:55Z</time><name>PT1219</name></trkpt>
<trkpt lat="54.449374" lon="-3.314952"><ele>460</ele><time>2022-03-28T13:15:56Z</time><name>PT1220</name></trkpt>
<trkpt lat="54.449380" lon="-3.314941"><ele>460</ele><time>2022-03-28T13:15:58Z</time><name>PT1221</name></trkpt>
<trkpt lat="54.449382" lon="-3.314926"><ele>461</ele><time>2022-03-28T13:15:58Z</time><name>PT1222</name></trkpt>
<trkpt lat="54.449384" lon="-3.314918"><ele>461</ele><time>2022-03-28T13:15:59Z</time><name>PT1223</name></trkpt>
<trkpt lat="54.449385" lon="-3.314907"><ele>462</ele><time>2022-03-28T13:16:01Z</time><name>PT1224</name></trkpt>
<trkpt lat="54.449387" lon="-3.314898"><ele>462</ele><time>2022-03-28T13:16:01Z</time><name>PT1225</name></trkpt>
<trkpt lat="54.449387" lon="-3.314890"><ele>462</ele><time>2022-03-28T13:16:02Z</time><name>PT1226</name></trkpt>
<trkpt lat="54.449389" lon="-3.314880"><ele>462</ele><time>2022-03-28T13:16:04Z</time><name>PT1227</name></trkpt>
<trkpt lat="54.449393" lon="-3.314871"><ele>463</ele><time>2022-03-28T13:16:04Z</time><name>PT1228</name></trkpt>
<trkpt lat="54.449398" lon="-3.314863"><ele>463</ele><time>2022-03-28T13:16:05Z</time><name>PT1229</name></trkpt>
<trkpt lat="54.449403" lon="-3.314857"><ele>463</ele><time>2022-03-28T13:16:07Z</time><name>PT1230</name></trkpt>
<trkpt lat="54.449408" lon="-3.314854"><ele>463</ele><time>2022-03-28T13:16:07Z</time><name>PT1231</name></trkpt>
<trkpt lat="54.449413" lon="-3.314849"><ele>463</ele><time>2022-03-28T13:16:08Z</time><name>PT1232</name></trkpt>
<trkpt lat="54.449417" lon="-3.314844"><ele>463</ele><time>2022-03-28T13:16:10Z</time><name>PT1233</name></trkpt>
<trkpt lat="54.449420" lon="-3.314840"><ele>463</ele><time>2022-03-28T13:16:13Z</time><name>PT1234</name></trkpt>
<trkpt lat="54.449424" lon="-3.314830"><ele>464</ele><time>2022-03-28T13:16:13Z</time><name>PT1235</name></trkpt>
<trkpt lat="54.449429" lon="-3.314826"><ele>464</ele><time>2022-03-28T13:16:14Z</time><name>PT1236</name></trkpt>
<trkpt lat="54.449439" lon="-3.314827"><ele>464</ele><time>2022-03-28T13:16:16Z</time><name>PT1237</name></trkpt>
<trkpt lat="54.449446" lon="-3.314825"><ele>464</ele><time>2022-03-28T13:16:16Z</time><name>PT1238</name></trkpt>
<trkpt lat="54.449451" lon="-3.314823"><ele>464</ele><time>2022-03-28T13:16:17Z</time><name>PT1239</name></trkpt>
<trkpt lat="54.449458" lon="-3.314820"><ele>464</ele><time>2022-03-28T13:16:19Z</time><name>PT1240</name></trkpt>
<trkpt lat="54.449463" lon="-3.314814"><ele>464</ele><time>2022-03-28T13:16:19Z</time><name>PT1241</name></trkpt>
<trkpt lat="54.449466" lon="-3.314808"><ele>464</ele><time>2022-03-28T13:16:20Z</time><name>PT1242</name></trkpt>
<trkpt lat="54.449469" lon="-3.314802"><ele>465</ele><time>2022-03-28T13:16:22Z</time><name>PT1243</name></trkpt>
<trkpt lat="54.449471" lon="-3.314794"><ele>465</ele><time>2022-03-28T13:16:22Z</time><name>PT1244</name></trkpt>
<trkpt lat="54.449471" lon="-3.314784"><ele>465</ele><time>2022-03-28T13:16:31Z</time><name>PT1245</name></trkpt>
<trkpt lat="54.449477" lon="-3.314770"><ele>466</ele><time>2022-03-28T13:16:32Z</time><name>PT1246</name></trkpt>
<trkpt lat="54.449480" lon="-3.314761"><ele>465</ele><time>2022-03-28T13:16:34Z</time><name>PT1247</name></trkpt>
<trkpt lat="54.449481" lon="-3.314750"><ele>466</ele><time>2022-03-28T13:16:34Z</time><name>PT1248</name></trkpt>
<trkpt lat="54.449482" lon="-3.314735"><ele>466</ele><time>2022-03-28T13:16:35Z</time><name>PT1249</name></trkpt>
<trkpt lat="54.449480" lon="-3.314722"><ele>466</ele><time>2022-03-28T13:16:37Z</time><name>PT1250</name></trkpt>
<trkpt lat="54.449481" lon="-3.314712"><ele>466</ele><time>2022-03-28T13:16:37Z</time><name>PT1251</name></trkpt>
<trkpt lat="54.449481" lon="-3.314704"><ele>466</ele><time>2022-03-28T13:16:38Z</time><name>PT1252</name></trkpt>
<trkpt lat="54.449481" lon="-3.314690"><ele>466</ele><time>2022-03-28T13:16:40Z</time><name>PT1253</name></trkpt>
<trkpt lat="54.449482" lon="-3.314677"><ele>467</ele><time>2022-03-28T13:16:40Z</time><name>PT1254</name></trkpt>
<trkpt lat="54.449484" lon="-3.314667"><ele>467</ele><time>2022-03-28T13:16:41Z</time><name>PT1255</name></trkpt>
<trkpt lat="54.449488" lon="-3.314656"><ele>467</ele><time>2022-03-28T13:16:43Z</time><name>PT1256</name></trkpt>
<trkpt lat="54.449490" lon="-3.314643"><ele>467</ele><time>2022-03-28T13:16:43Z</time><name>PT1257</name></trkpt>
<trkpt lat="54.449493" lon="-3.314631"><ele>467</ele><time>2022-03-28T13:16:44Z</time><name>PT1258</name></trkpt>
<trkpt lat="54.449494" lon="-3.314616"><ele>468</ele><time>2022-03-28T13:16:46Z</time><name>PT1259</name></trkpt>
<trkpt lat="54.449495" lon="-3.314605"><ele>468</ele><time>2022-03-28T13:16:46Z</time><name>PT1260</name></trkpt>
<trkpt lat="54.449497" lon="-3.314591"><ele>468</ele><time>2022-03-28T13:16:47Z</time><name>PT1261</name></trkpt>
<trkpt lat="54.449495" lon="-3.314578"><ele>468</ele><time>2022-03-28T13:16:49Z</time><name>PT1262</name></trkpt>
<trkpt lat="54.449494" lon="-3.314567"><ele>468</ele><time>2022-03-28T13:16:49Z</time><name>PT1263</name></trkpt>
<trkpt lat="54.449494" lon="-3.314552"><ele>469</ele><time>2022-03-28T13:16:50Z</time><name>PT1264</name></trkpt>
<trkpt lat="54.449492" lon="-3.314540"><ele>469</ele><time>2022-03-28T13:16:52Z</time><name>PT1265</name></trkpt>
<trkpt lat="54.449491" lon="-3.314528"><ele>470</ele><time>2022-03-28T13:16:52Z</time><name>PT1266</name></trkpt>
<trkpt lat="54.449490" lon="-3.314514"><ele>470</ele><time>2022-03-28T13:16:53Z</time><name>PT1267</name></trkpt>
<trkpt lat="54.449492" lon="-3.314501"><ele>471</ele><time>2022-03-28T13:16:55Z</time><name>PT1268</name></trkpt>
<trkpt lat="54.449493" lon="-3.314488"><ele>471</ele><time>2022-03-28T13:16:55Z</time><name>PT1269</name></trkpt>
<trkpt lat="54.449493" lon="-3.314477"><ele>471</ele><time>2022-03-28T13:16:56Z</time><name>PT1270</name></trkpt>
<trkpt lat="54.449494" lon="-3.314464"><ele>471</ele><time>2022-03-28T13:16:58Z</time><name>PT1271</name></trkpt>
<trkpt lat="54.449498" lon="-3.314453"><ele>471</ele><time>2022-03-28T13:16:58Z</time><name>PT1272</name></trkpt>
<trkpt lat="54.449500" lon="-3.314444"><ele>471</ele><time>2022-03-28T13:16:59Z</time><name>PT1273</name></trkpt>
<trkpt lat="54.449500" lon="-3.314435"><ele>471</ele><time>2022-03-28T13:17:01Z</time><name>PT1274</name></trkpt>
<trkpt lat="54.449500" lon="-3.314428"><ele>472</ele><time>2022-03-28T13:17:01Z</time><name>PT1275</name></trkpt>
<trkpt lat="54.449500" lon="-3.314418"><ele>472</ele><time>2022-03-28T13:17:02Z</time><name>PT1276</name></trkpt>
<trkpt lat="54.449500" lon="-3.314405"><ele>472</ele><time>2022-03-28T13:17:04Z</time><name>PT1277</name></trkpt>
<trkpt lat="54.449498" lon="-3.314393"><ele>472</ele><time>2022-03-28T13:17:04Z</time><name>PT1278</name></trkpt>
<trkpt lat="54.449498" lon="-3.314383"><ele>472</ele><time>2022-03-28T13:17:05Z</time><name>PT1279</name></trkpt>
<trkpt lat="54.449497" lon="-3.314374"><ele>472</ele><time>2022-03-28T13:17:07Z</time><name>PT1280</name></trkpt>
<trkpt lat="54.449497" lon="-3.314334"><ele>473</ele><time>2022-03-28T13:17:10Z</time><name>PT1281</name></trkpt>
<trkpt lat="54.449493" lon="-3.314308"><ele>474</ele><time>2022-03-28T13:17:13Z</time><name>PT1282</name></trkpt>
<trkpt lat="54.449488" lon="-3.314269"><ele>474</ele><time>2022-03-28T13:17:17Z</time><name>PT1283</name></trkpt>
<trkpt lat="54.449483" lon="-3.314243"><ele>474</ele><time>2022-03-28T13:17:20Z</time><name>PT1284</name></trkpt>
<trkpt lat="54.449486" lon="-3.314216"><ele>475</ele><time>2022-03-28T13:17:23Z</time><name>PT1285</name></trkpt>
<trkpt lat="54.449495" lon="-3.314194"><ele>475</ele><time>2022-03-28T13:17:26Z</time><name>PT1286</name></trkpt>
<trkpt lat="54.449489" lon="-3.314157"><ele>476</ele><time>2022-03-28T13:17:29Z</time><name>PT1287</name></trkpt>
<trkpt lat="54.449490" lon="-3.314115"><ele>476</ele><time>2022-03-28T13:17:34Z</time><name>PT1288</name></trkpt>
<trkpt lat="54.449511" lon="-3.314094"><ele>477</ele><time>2022-03-28T13:17:37Z</time><name>PT1289</name></trkpt>
<trkpt lat="54.449533" lon="-3.314106"><ele>476</ele><time>2022-03-28T13:17:40Z</time><name>PT1290</name></trkpt>
<trkpt lat="54.449554" lon="-3.314086"><ele>477</ele><time>2022-03-28T13:17:43Z</time><name>PT1291</name></trkpt>
<trkpt lat="54.449570" lon="-3.314069"><ele>477</ele><time>2022-03-28T13:17:46Z</time><name>PT1292</name></trkpt>
<trkpt lat="54.449590" lon="-3.314056"><ele>478</ele><time>2022-03-28T13:17:49Z</time><name>PT1293</name></trkpt>
<trkpt lat="54.449618" lon="-3.314034"><ele>478</ele><time>2022-03-28T13:17:53Z</time><name>PT1294</name></trkpt>
<trkpt lat="54.449640" lon="-3.314011"><ele>479</ele><time>2022-03-28T13:17:58Z</time><name>PT1295</name></trkpt>
<trkpt lat="54.449663" lon="-3.313999"><ele>481</ele><time>2022-03-28T13:18:01Z</time><name>PT1296</name></trkpt>
<trkpt lat="54.449676" lon="-3.313978"><ele>481</ele><time>2022-03-28T13:18:05Z</time><name>PT1297</name></trkpt>
<trkpt lat="54.449692" lon="-3.313970"><ele>482</ele><time>2022-03-28T13:18:08Z</time><name>PT1298</name></trkpt>
<trkpt lat="54.449704" lon="-3.313959"><ele>482</ele><time>2022-03-28T13:18:11Z</time><name>PT1299</name></trkpt>
<trkpt lat="54.449708" lon="-3.313954"><ele>482</ele><time>2022-03-28T13:18:13Z</time><name>PT1300</name></trkpt>
<trkpt lat="54.449711" lon="-3.313949"><ele>482</ele><time>2022-03-28T13:18:13Z</time><name>PT1301</name></trkpt>
<trkpt lat="54.449717" lon="-3.313945"><ele>482</ele><time>2022-03-28T13:18:14Z</time><name>PT1302</name></trkpt>
<trkpt lat="54.449720" lon="-3.313943"><ele>482</ele><time>2022-03-28T13:18:16Z</time><name>PT1303</name></trkpt>
<trkpt lat="54.449724" lon="-3.313940"><ele>482</ele><time>2022-03-28T13:18:16Z</time><name>PT1304</name></trkpt>
<trkpt lat="54.449727" lon="-3.313937"><ele>483</ele><time>2022-03-28T13:18:17Z</time><name>PT1305</name></trkpt>
<trkpt lat="54.449726" lon="-3.313931"><ele>483</ele><time>2022-03-28T13:18:28Z</time><name>PT1306</name></trkpt>
<trkpt lat="54.449730" lon="-3.313918"><ele>483</ele><time>2022-03-28T13:18:28Z</time><name>PT1307</name></trkpt>
<trkpt lat="54.449734" lon="-3.313906"><ele>483</ele><time>2022-03-28T13:18:29Z</time><name>PT1308</name></trkpt>
<trkpt lat="54.449737" lon="-3.313896"><ele>483</ele><time>2022-03-28T13:18:31Z</time><name>PT1309</name></trkpt>
<trkpt lat="54.449737" lon="-3.313888"><ele>483</ele><time>2022-03-28T13:18:31Z</time><name>PT1310</name></trkpt>
<trkpt lat="54.449738" lon="-3.313879"><ele>483</ele><time>2022-03-28T13:18:32Z</time><name>PT1311</name></trkpt>
<trkpt lat="54.449741" lon="-3.313872"><ele>484</ele><time>2022-03-28T13:18:34Z</time><name>PT1312</name></trkpt>
<trkpt lat="54.449744" lon="-3.313865"><ele>484</ele><time>2022-03-28T13:18:34Z</time><name>PT1313</name></trkpt>
<trkpt lat="54.449747" lon="-3.313859"><ele>483</ele><time>2022-03-28T13:18:35Z</time><name>PT1314</name></trkpt>
<trkpt lat="54.449749" lon="-3.313853"><ele>483</ele><time>2022-03-28T13:18:37Z</time><name>PT1315</name></trkpt>
<trkpt lat="54.449750" lon="-3.313845"><ele>483</ele><time>2022-03-28T13:18:37Z</time><name>PT1316</name></trkpt>
<trkpt lat="54.449755" lon="-3.313827"><ele>484</ele><time>2022-03-28T13:18:49Z</time><name>PT1317</name></trkpt>
<trkpt lat="54.449758" lon="-3.313809"><ele>485</ele><time>2022-03-28T13:18:49Z</time><name>PT1318</name></trkpt>
<trkpt lat="54.449759" lon="-3.313794"><ele>485</ele><time>2022-03-28T13:18:50Z</time><name>PT1319</name></trkpt>
<trkpt lat="54.449760" lon="-3.313779"><ele>486</ele><time>2022-03-28T13:18:52Z</time><name>PT1320</name></trkpt>
<trkpt lat="54.449765" lon="-3.313782"><ele>486</ele><time>2022-03-28T13:18:52Z</time><name>PT1321</name></trkpt>
<trkpt lat="54.449770" lon="-3.313781"><ele>487</ele><time>2022-03-28T13:18:53Z</time><name>PT1322</name></trkpt>
<trkpt lat="54.449771" lon="-3.313769"><ele>487</ele><time>2022-03-28T13:18:55Z</time><name>PT1323</name></trkpt>
<trkpt lat="54.449774" lon="-3.313766"><ele>488</ele><time>2022-03-28T13:18:55Z</time><name>PT1324</name></trkpt>
<trkpt lat="54.449777" lon="-3.313757"><ele>488</ele><time>2022-03-28T13:18:56Z</time><name>PT1325</name></trkpt>
<trkpt lat="54.449780" lon="-3.313750"><ele>489</ele><time>2022-03-28T13:18:58Z</time><name>PT1326</name></trkpt>
<trkpt lat="54.449780" lon="-3.313742"><ele>490</ele><time>2022-03-28T13:18:58Z</time><name>PT1327</name></trkpt>
<trkpt lat="54.449783" lon="-3.313734"><ele>490</ele><time>2022-03-28T13:18:59Z</time><name>PT1328</name></trkpt>
<trkpt lat="54.449786" lon="-3.313727"><ele>490</ele><time>2022-03-28T13:19:01Z</time><name>PT1329</name></trkpt>
<trkpt lat="54.449790" lon="-3.313717"><ele>491</ele><time>2022-03-28T13:19:01Z</time><name>PT1330</name></trkpt>
<trkpt lat="54.449791" lon="-3.313705"><ele>492</ele><time>2022-03-28T13:19:02Z</time><name>PT1331</name></trkpt>
<trkpt lat="54.449792" lon="-3.313695"><ele>492</ele><time>2022-03-28T13:19:04Z</time><name>PT1332</name></trkpt>
<trkpt lat="54.449792" lon="-3.313682"><ele>493</ele><time>2022-03-28T13:19:04Z</time><name>PT1333</name></trkpt>
<trkpt lat="54.449791" lon="-3.313669"><ele>493</ele><time>2022-03-28T13:19:05Z</time><name>PT1334</name></trkpt>
<trkpt lat="54.449790" lon="-3.313656"><ele>493</ele><time>2022-03-28T13:19:07Z</time><name>PT1335</name></trkpt>
<trkpt lat="54.449790" lon="-3.313643"><ele>494</ele><time>2022-03-28T13:19:07Z</time><name>PT1336</name></trkpt>
<trkpt lat="54.449792" lon="-3.313631"><ele>494</ele><time>2022-03-28T13:19:08Z</time><name>PT1337</name></trkpt>
<trkpt lat="54.449796" lon="-3.313621"><ele>494</ele><time>2022-03-28T13:19:10Z</time><name>PT1338</name></trkpt>
<trkpt lat="54.449802" lon="-3.313617"><ele>494</ele><time>2022-03-28T13:19:10Z</time><name>PT1339</name></trkpt>
<trkpt lat="54.449813" lon="-3.313613"><ele>494</ele><time>2022-03-28T13:19:11Z</time><name>PT1340</name></trkpt>
<trkpt lat="54.449819" lon="-3.313604"><ele>495</ele><time>2022-03-28T13:19:13Z</time><name>PT1341</name></trkpt>
<trkpt lat="54.449822" lon="-3.313586"><ele>495</ele><time>2022-03-28T13:19:13Z</time><name>PT1342</name></trkpt>
<trkpt lat="54.449826" lon="-3.313574"><ele>496</ele><time>2022-03-28T13:19:14Z</time><name>PT1343</name></trkpt>
<trkpt lat="54.449829" lon="-3.313565"><ele>496</ele><time>2022-03-28T13:19:16Z</time><name>PT1344</name></trkpt>
<trkpt lat="54.449833" lon="-3.313554"><ele>496</ele><time>2022-03-28T13:19:16Z</time><name>PT1345</name></trkpt>
<trkpt lat="54.449835" lon="-3.313539"><ele>496</ele><time>2022-03-28T13:19:17Z</time><name>PT1346</name></trkpt>
<trkpt lat="54.449837" lon="-3.313529"><ele>497</ele><time>2022-03-28T13:19:19Z</time><name>PT1347</name></trkpt>
<trkpt lat="54.449839" lon="-3.313515"><ele>497</ele><time>2022-03-28T13:19:19Z</time><name>PT1348</name></trkpt>
<trkpt lat="54.449842" lon="-3.313505"><ele>497</ele><time>2022-03-28T13:19:20Z</time><name>PT1349</name></trkpt>
<trkpt lat="54.449848" lon="-3.313499"><ele>498</ele><time>2022-03-28T13:19:22Z</time><name>PT1350</name></trkpt>
<trkpt lat="54.449855" lon="-3.313494"><ele>498</ele><time>2022-03-28T13:19:22Z</time><name>PT1351</name></trkpt>
<trkpt lat="54.449863" lon="-3.313490"><ele>498</ele><time>2022-03-28T13:19:23Z</time><name>PT1352</name></trkpt>
<trkpt lat="54.449870" lon="-3.313489"><ele>499</ele><time>2022-03-28T13:19:25Z</time><name>PT1353</name></trkpt>
<trkpt lat="54.449877" lon="-3.313482"><ele>499</ele><time>2022-03-28T13:19:25Z</time><name>PT1354</name></trkpt>
<trkpt lat="54.449884" lon="-3.313481"><ele>499</ele><time>2022-03-28T13:19:26Z</time><name>PT1355</name></trkpt>
<trkpt lat="54.449889" lon="-3.313480"><ele>500</ele><time>2022-03-28T13:19:28Z</time><name>PT1356</name></trkpt>
<trkpt lat="54.449893" lon="-3.313479"><ele>500</ele><time>2022-03-28T13:19:28Z</time><name>PT1357</name></trkpt>
<trkpt lat="54.449898" lon="-3.313479"><ele>500</ele><time>2022-03-28T13:19:29Z</time><name>PT1358</name></trkpt>
<trkpt lat="54.449904" lon="-3.313481"><ele>500</ele><time>2022-03-28T13:19:31Z</time><name>PT1359</name></trkpt>
<trkpt lat="54.449909" lon="-3.313482"><ele>501</ele><time>2022-03-28T13:19:31Z</time><name>PT1360</name></trkpt>
<trkpt lat="54.449913" lon="-3.313482"><ele>501</ele><time>2022-03-28T13:19:33Z</time><name>PT1361</name></trkpt>
<trkpt lat="54.449918" lon="-3.313481"><ele>502</ele><time>2022-03-28T13:19:34Z</time><name>PT1362</name></trkpt>
<trkpt lat="54.449922" lon="-3.313483"><ele>501</ele><time>2022-03-28T13:19:34Z</time><name>PT1363</name></trkpt>
<trkpt lat="54.449926" lon="-3.313481"><ele>502</ele><time>2022-03-28T13:19:35Z</time><name>PT1364</name></trkpt>
<trkpt lat="54.449931" lon="-3.313478"><ele>502</ele><time>2022-03-28T13:19:37Z</time><name>PT1365</name></trkpt>
<trkpt lat="54.449935" lon="-3.313474"><ele>502</ele><time>2022-03-28T13:19:37Z</time><name>PT1366</name></trkpt>
<trkpt lat="54.449941" lon="-3.313473"><ele>501</ele><time>2022-03-28T13:19:38Z</time><name>PT1367</name></trkpt>
<trkpt lat="54.449951" lon="-3.313456"><ele>502</ele><time>2022-03-28T13:19:50Z</time><name>PT1368</name></trkpt>
<trkpt lat="54.449963" lon="-3.313451"><ele>502</ele><time>2022-03-28T13:19:52Z</time><name>PT1369</name></trkpt>
<trkpt lat="54.449973" lon="-3.313449"><ele>502</ele><time>2022-03-28T13:19:52Z</time><name>PT1370</name></trkpt>
<trkpt lat="54.449985" lon="-3.313451"><ele>502</ele><time>2022-03-28T13:19:53Z</time><name>PT1371</name></trkpt>
<trkpt lat="54.449997" lon="-3.313456"><ele>502</ele><time>2022-03-28T13:19:55Z</time><name>PT1372</name></trkpt>
<trkpt lat="54.450007" lon="-3.313457"><ele>503</ele><time>2022-03-28T13:19:55Z</time><name>PT1373</name></trkpt>
<trkpt lat="54.450018" lon="-3.313457"><ele>502</ele><time>2022-03-28T13:19:56Z</time><name>PT1374</name></trkpt>
<trkpt lat="54.450025" lon="-3.313459"><ele>502</ele><time>2022-03-28T13:19:58Z</time><name>PT1375</name></trkpt>
<trkpt lat="54.450035" lon="-3.313461"><ele>503</ele><time>2022-03-28T13:19:58Z</time><name>PT1376</name></trkpt>
<trkpt lat="54.450045" lon="-3.313463"><ele>503</ele><time>2022-03-28T13:19:59Z</time><name>PT1377</name></trkpt>
<trkpt lat="54.450054" lon="-3.313465"><ele>503</ele><time>2022-03-28T13:20:01Z</time><name>PT1378</name></trkpt>
<trkpt lat="54.450059" lon="-3.313464"><ele>503</ele><time>2022-03-28T13:20:01Z</time><name>PT1379</name></trkpt>
<trkpt lat="54.450065" lon="-3.313461"><ele>503</ele><time>2022-03-28T13:20:02Z</time><name>PT1380</name></trkpt>
<trkpt lat="54.450069" lon="-3.313458"><ele>503</ele><time>2022-03-28T13:20:04Z</time><name>PT1381</name></trkpt>
<trkpt lat="54.450086" lon="-3.313455"><ele>503</ele><time>2022-03-28T13:20:20Z</time><name>PT1382</name></trkpt>
<trkpt lat="54.450097" lon="-3.313469"><ele>504</ele><time>2022-03-28T13:20:22Z</time><name>PT1383</name></trkpt>
<trkpt lat="54.450106" lon="-3.313474"><ele>504</ele><time>2022-03-28T13:20:22Z</time><name>PT1384</name></trkpt>
<trkpt lat="54.450117" lon="-3.313477"><ele>504</ele><time>2022-03-28T13:20:23Z</time><name>PT1385</name></trkpt>
<trkpt lat="54.450124" lon="-3.313480"><ele>504</ele><time>2022-03-28T13:20:25Z</time><name>PT1386</name></trkpt>
<trkpt lat="54.450134" lon="-3.313484"><ele>504</ele><time>2022-03-28T13:20:25Z</time><name>PT1387</name></trkpt>
<trkpt lat="54.450143" lon="-3.313485"><ele>504</ele><time>2022-03-28T13:20:26Z</time><name>PT1388</name></trkpt>
<trkpt lat="54.450149" lon="-3.313483"><ele>504</ele><time>2022-03-28T13:20:28Z</time><name>PT1389</name></trkpt>
<trkpt lat="54.450158" lon="-3.313486"><ele>505</ele><time>2022-03-28T13:20:28Z</time><name>PT1390</name></trkpt>
<trkpt lat="54.450167" lon="-3.313492"><ele>505</ele><time>2022-03-28T13:20:29Z</time><name>PT1391</name></trkpt>
<trkpt lat="54.450174" lon="-3.313497"><ele>505</ele><time>2022-03-28T13:20:31Z</time><name>PT1392</name></trkpt>
<trkpt lat="54.450185" lon="-3.313502"><ele>505</ele><time>2022-03-28T13:20:31Z</time><name>PT1393</name></trkpt>
<trkpt lat="54.450193" lon="-3.313506"><ele>505</ele><time>2022-03-28T13:20:32Z</time><name>PT1394</name></trkpt>
<trkpt lat="54.450203" lon="-3.313506"><ele>506</ele><time>2022-03-28T13:20:34Z</time><name>PT1395</name></trkpt>
<trkpt lat="54.450212" lon="-3.313506"><ele>505</ele><time>2022-03-28T13:20:34Z</time><name>PT1396</name></trkpt>
<trkpt lat="54.450222" lon="-3.313502"><ele>506</ele><time>2022-03-28T13:20:35Z</time><name>PT1397</name></trkpt>
<trkpt lat="54.450232" lon="-3.313503"><ele>506</ele><time>2022-03-28T13:20:37Z</time><name>PT1398</name></trkpt>
<trkpt lat="54.450241" lon="-3.313505"><ele>506</ele><time>2022-03-28T13:20:37Z</time><name>PT1399</name></trkpt>
<trkpt lat="54.450253" lon="-3.313507"><ele>506</ele><time>2022-03-28T13:20:38Z</time><name>PT1400</name></trkpt>
<trkpt lat="54.450262" lon="-3.313510"><ele>506</ele><time>2022-03-28T13:20:40Z</time><name>PT1401</name></trkpt>
<trkpt lat="54.450271" lon="-3.313510"><ele>506</ele><time>2022-03-28T13:20:40Z</time><name>PT1402</name></trkpt>
<trkpt lat="54.450279" lon="-3.313512"><ele>506</ele><time>2022-03-28T13:20:41Z</time><name>PT1403</name></trkpt>
<trkpt lat="54.450288" lon="-3.313517"><ele>506</ele><time>2022-03-28T13:20:43Z</time><name>PT1404</name></trkpt>
<trkpt lat="54.450297" lon="-3.313523"><ele>507</ele><time>2022-03-28T13:20:43Z</time><name>PT1405</name></trkpt>
<trkpt lat="54.450307" lon="-3.313527"><ele>507</ele><time>2022-03-28T13:20:44Z</time><name>PT1406</name></trkpt>
<trkpt lat="54.450316" lon="-3.313526"><ele>507</ele><time>2022-03-28T13:20:46Z</time><name>PT1407</name></trkpt>
<trkpt lat="54.450326" lon="-3.313525"><ele>507</ele><time>2022-03-28T13:20:46Z</time><name>PT1408</name></trkpt>
<trkpt lat="54.450334" lon="-3.313526"><ele>507</ele><time>2022-03-28T13:20:47Z</time><name>PT1409</name></trkpt>
<trkpt lat="54.450343" lon="-3.313528"><ele>507</ele><time>2022-03-28T13:20:49Z</time><name>PT1410</name></trkpt>
<trkpt lat="54.450354" lon="-3.313523"><ele>507</ele><time>2022-03-28T13:20:49Z</time><name>PT1411</name></trkpt>
<trkpt lat="54.450365" lon="-3.313520"><ele>507</ele><time>2022-03-28T13:20:50Z</time><name>PT1412</name></trkpt>
<trkpt lat="54.450378" lon="-3.313520"><ele>507</ele><time>2022-03-28T13:20:52Z</time><name>PT1413</name></trkpt>
<trkpt lat="54.450390" lon="-3.313520"><ele>507</ele><time>2022-03-28T13:20:52Z</time><name>PT1414</name></trkpt>
<trkpt lat="54.450401" lon="-3.313522"><ele>507</ele><time>2022-03-28T13:20:53Z</time><name>PT1415</name></trkpt>
<trkpt lat="54.450412" lon="-3.313525"><ele>507</ele><time>2022-03-28T13:20:55Z</time><name>PT1416</name></trkpt>
<trkpt lat="54.450424" lon="-3.313528"><ele>508</ele><time>2022-03-28T13:20:55Z</time><name>PT1417</name></trkpt>
<trkpt lat="54.450435" lon="-3.313531"><ele>508</ele><time>2022-03-28T13:20:56Z</time><name>PT1418</name></trkpt>
<trkpt lat="54.450447" lon="-3.313533"><ele>508</ele><time>2022-03-28T13:20:58Z</time><name>PT1419</name></trkpt>
<trkpt lat="54.450459" lon="-3.313534"><ele>508</ele><time>2022-03-28T13:20:58Z</time><name>PT1420</name></trkpt>
<trkpt lat="54.450473" lon="-3.313536"><ele>509</ele><time>2022-03-28T13:20:59Z</time><name>PT1421</name></trkpt>
<trkpt lat="54.450484" lon="-3.313533"><ele>508</ele><time>2022-03-28T13:21:01Z</time><name>PT1422</name></trkpt>
<trkpt lat="54.450495" lon="-3.313532"><ele>509</ele><time>2022-03-28T13:21:01Z</time><name>PT1423</name></trkpt>
<trkpt lat="54.450509" lon="-3.313533"><ele>509</ele><time>2022-03-28T13:21:02Z</time><name>PT1424</name></trkpt>
<trkpt lat="54.450519" lon="-3.313532"><ele>509</ele><time>2022-03-28T13:21:04Z</time><name>PT1425</name></trkpt>
<trkpt lat="54.450530" lon="-3.313531"><ele>509</ele><time>2022-03-28T13:21:04Z</time><name>PT1426</name></trkpt>
<trkpt lat="54.450540" lon="-3.313532"><ele>510</ele><time>2022-03-28T13:21:05Z</time><name>PT1427</name></trkpt>
<trkpt lat="54.450551" lon="-3.313530"><ele>510</ele><time>2022-03-28T13:21:07Z</time><name>PT1428</name></trkpt>
<trkpt lat="54.450561" lon="-3.313527"><ele>510</ele><time>2022-03-28T13:21:07Z</time><name>PT1429</name></trkpt>
<trkpt lat="54.450569" lon="-3.313524"><ele>510</ele><time>2022-03-28T13:21:08Z</time><name>PT1430</name></trkpt>
<trkpt lat="54.450580" lon="-3.313518"><ele>512</ele><time>2022-03-28T13:21:10Z</time><name>PT1431</name></trkpt>
<trkpt lat="54.450590" lon="-3.313504"><ele>511</ele><time>2022-03-28T13:21:10Z</time><name>PT1432</name></trkpt>
<trkpt lat="54.450598" lon="-3.313494"><ele>512</ele><time>2022-03-28T13:21:11Z</time><name>PT1433</name></trkpt>
<trkpt lat="54.450608" lon="-3.313489"><ele>512</ele><time>2022-03-28T13:21:13Z</time><name>PT1434</name></trkpt>
<trkpt lat="54.450616" lon="-3.313486"><ele>512</ele><time>2022-03-28T13:21:13Z</time><name>PT1435</name></trkpt>
<trkpt lat="54.450625" lon="-3.313482"><ele>512</ele><time>2022-03-28T13:21:14Z</time><name>PT1436</name></trkpt>
<trkpt lat="54.450635" lon="-3.313475"><ele>512</ele><time>2022-03-28T13:21:16Z</time><name>PT1437</name></trkpt>
<trkpt lat="54.450642" lon="-3.313469"><ele>513</ele><time>2022-03-28T13:21:16Z</time><name>PT1438</name></trkpt>
<trkpt lat="54.450650" lon="-3.313462"><ele>513</ele><time>2022-03-28T13:21:17Z</time><name>PT1439</name></trkpt>
<trkpt lat="54.450659" lon="-3.313456"><ele>512</ele><time>2022-03-28T13:21:19Z</time><name>PT1440</name></trkpt>
<trkpt lat="54.450670" lon="-3.313447"><ele>513</ele><time>2022-03-28T13:21:19Z</time><name>PT1441</name></trkpt>
<trkpt lat="54.450680" lon="-3.313437"><ele>513</ele><time>2022-03-28T13:21:20Z</time><name>PT1442</name></trkpt>
<trkpt lat="54.450689" lon="-3.313433"><ele>513</ele><time>2022-03-28T13:21:22Z</time><name>PT1443</name></trkpt>
<trkpt lat="54.450698" lon="-3.313432"><ele>513</ele><time>2022-03-28T13:21:22Z</time><name>PT1444</name></trkpt>
<trkpt lat="54.450705" lon="-3.313426"><ele>514</ele><time>2022-03-28T13:21:23Z</time><name>PT1445</name></trkpt>
<trkpt lat="54.450715" lon="-3.313422"><ele>515</ele><time>2022-03-28T13:21:25Z</time><name>PT1446</name></trkpt>
<trkpt lat="54.450723" lon="-3.313416"><ele>515</ele><time>2022-03-28T13:21:25Z</time><name>PT1447</name></trkpt>
<trkpt lat="54.450729" lon="-3.313414"><ele>514</ele><time>2022-03-28T13:21:26Z</time><name>PT1448</name></trkpt>
<trkpt lat="54.450737" lon="-3.313409"><ele>515</ele><time>2022-03-28T13:21:28Z</time><name>PT1449</name></trkpt>
<trkpt lat="54.450745" lon="-3.313403"><ele>515</ele><time>2022-03-28T13:21:28Z</time><name>PT1450</name></trkpt>
<trkpt lat="54.450754" lon="-3.313399"><ele>515</ele><time>2022-03-28T13:21:29Z</time><name>PT1451</name></trkpt>
<trkpt lat="54.450762" lon="-3.313395"><ele>515</ele><time>2022-03-28T13:21:31Z</time><name>PT1452</name></trkpt>
<trkpt lat="54.450772" lon="-3.313389"><ele>515</ele><time>2022-03-28T13:21:31Z</time><name>PT1453</name></trkpt>
<trkpt lat="54.450781" lon="-3.313383"><ele>516</ele><time>2022-03-28T13:21:32Z</time><name>PT1454</name></trkpt>
<trkpt lat="54.450792" lon="-3.313379"><ele>516</ele><time>2022-03-28T13:21:34Z</time><name>PT1455</name></trkpt>
<trkpt lat="54.450804" lon="-3.313376"><ele>517</ele><time>2022-03-28T13:21:34Z</time><name>PT1456</name></trkpt>
<trkpt lat="54.450814" lon="-3.313371"><ele>517</ele><time>2022-03-28T13:21:35Z</time><name>PT1457</name></trkpt>
<trkpt lat="54.450822" lon="-3.313368"><ele>517</ele><time>2022-03-28T13:21:37Z</time><name>PT1458</name></trkpt>
<trkpt lat="54.450830" lon="-3.313365"><ele>517</ele><time>2022-03-28T13:21:37Z</time><name>PT1459</name></trkpt>
<trkpt lat="54.450838" lon="-3.313361"><ele>518</ele><time>2022-03-28T13:21:38Z</time><name>PT1460</name></trkpt>
<trkpt lat="54.450844" lon="-3.313358"><ele>518</ele><time>2022-03-28T13:21:40Z</time><name>PT1461</name></trkpt>
<trkpt lat="54.450851" lon="-3.313359"><ele>518</ele><time>2022-03-28T13:21:40Z</time><name>PT1462</name></trkpt>
<trkpt lat="54.450858" lon="-3.313364"><ele>518</ele><time>2022-03-28T13:21:41Z</time><name>PT1463</name></trkpt>
<trkpt lat="54.450866" lon="-3.313364"><ele>518</ele><time>2022-03-28T13:21:43Z</time><name>PT1464</name></trkpt>
<trkpt lat="54.450872" lon="-3.313364"><ele>518</ele><time>2022-03-28T13:21:43Z</time><name>PT1465</name></trkpt>
<trkpt lat="54.450878" lon="-3.313364"><ele>518</ele><time>2022-03-28T13:21:44Z</time><name>PT1466</name></trkpt>
<trkpt lat="54.450882" lon="-3.313363"><ele>518</ele><time>2022-03-28T13:21:46Z</time><name>PT1467</name></trkpt>
<trkpt lat="54.450887" lon="-3.313364"><ele>518</ele><time>2022-03-28T13:21:46Z</time><name>PT1468</name></trkpt>
<trkpt lat="54.450893" lon="-3.313361"><ele>519</ele><time>2022-03-28T13:21:47Z</time><name>PT1469</name></trkpt>
<trkpt lat="54.450899" lon="-3.313363"><ele>519</ele><time>2022-03-28T13:21:49Z</time><name>PT1470</name></trkpt>
<trkpt lat="54.450906" lon="-3.313364"><ele>519</ele><time>2022-03-28T13:21:49Z</time><name>PT1471</name></trkpt>
<trkpt lat="54.450913" lon="-3.313362"><ele>520</ele><time>2022-03-28T13:21:50Z</time><name>PT1472</name></trkpt>
<trkpt lat="54.450917" lon="-3.313359"><ele>520</ele><time>2022-03-28T13:21:52Z</time><name>PT1473</name></trkpt>
<trkpt lat="54.450923" lon="-3.313354"><ele>520</ele><time>2022-03-28T13:21:52Z</time><name>PT1474</name></trkpt>
<trkpt lat="54.450930" lon="-3.313351"><ele>520</ele><time>2022-03-28T13:21:53Z</time><name>PT1475</name></trkpt>
<trkpt lat="54.450938" lon="-3.313345"><ele>521</ele><time>2022-03-28T13:21:55Z</time><name>PT1476</name></trkpt>
<trkpt lat="54.450943" lon="-3.313342"><ele>521</ele><time>2022-03-28T13:21:55Z</time><name>PT1477</name></trkpt>
<trkpt lat="54.450949" lon="-3.313339"><ele>522</ele><time>2022-03-28T13:21:56Z</time><name>PT1478</name></trkpt>
<trkpt lat="54.450954" lon="-3.313336"><ele>522</ele><time>2022-03-28T13:21:58Z</time><name>PT1479</name></trkpt>
<trkpt lat="54.450961" lon="-3.313333"><ele>522</ele><time>2022-03-28T13:21:58Z</time><name>PT1480</name></trkpt>
<trkpt lat="54.450967" lon="-3.313328"><ele>522</ele><time>2022-03-28T13:21:59Z</time><name>PT1481</name></trkpt>
<trkpt lat="54.450972" lon="-3.313326"><ele>523</ele><time>2022-03-28T13:22:01Z</time><name>PT1482</name></trkpt>
<trkpt lat="54.450978" lon="-3.313326"><ele>523</ele><time>2022-03-28T13:22:01Z</time><name>PT1483</name></trkpt>
<trkpt lat="54.450984" lon="-3.313326"><ele>523</ele><time>2022-03-28T13:22:02Z</time><name>PT1484</name></trkpt>
<trkpt lat="54.450990" lon="-3.313324"><ele>524</ele><time>2022-03-28T13:22:04Z</time><name>PT1485</name></trkpt>
<trkpt lat="54.450995" lon="-3.313322"><ele>524</ele><time>2022-03-28T13:22:04Z</time><name>PT1486</name></trkpt>
<trkpt lat="54.451003" lon="-3.313325"><ele>525</ele><time>2022-03-28T13:22:05Z</time><name>PT1487</name></trkpt>
<trkpt lat="54.451011" lon="-3.313326"><ele>525</ele><time>2022-03-28T13:22:07Z</time><name>PT1488</name></trkpt>
<trkpt lat="54.451016" lon="-3.313322"><ele>525</ele><time>2022-03-28T13:22:07Z</time><name>PT1489</name></trkpt>
<trkpt lat="54.451021" lon="-3.313316"><ele>525</ele><time>2022-03-28T13:22:08Z</time><name>PT1490</name></trkpt>
<trkpt lat="54.451026" lon="-3.313309"><ele>525</ele><time>2022-03-28T13:22:10Z</time><name>PT1491</name></trkpt>
<trkpt lat="54.451031" lon="-3.313299"><ele>525</ele><time>2022-03-28T13:22:10Z</time><name>PT1492</name></trkpt>
<trkpt lat="54.451032" lon="-3.313283"><ele>526</ele><time>2022-03-28T13:22:11Z</time><name>PT1493</name></trkpt>
<trkpt lat="54.451035" lon="-3.313269"><ele>526</ele><time>2022-03-28T13:22:13Z</time><name>PT1494</name></trkpt>
<trkpt lat="54.451039" lon="-3.313264"><ele>526</ele><time>2022-03-28T13:22:13Z</time><name>PT1495</name></trkpt>
<trkpt lat="54.451045" lon="-3.313253"><ele>526</ele><time>2022-03-28T13:22:14Z</time><name>PT1496</name></trkpt>
<trkpt lat="54.451051" lon="-3.313244"><ele>526</ele><time>2022-03-28T13:22:16Z</time><name>PT1497</name></trkpt>
<trkpt lat="54.451054" lon="-3.313234"><ele>526</ele><time>2022-03-28T13:22:16Z</time><name>PT1498</name></trkpt>
<trkpt lat="54.451059" lon="-3.313223"><ele>526</ele><time>2022-03-28T13:22:17Z</time><name>PT1499</name></trkpt>
<trkpt lat="54.451065" lon="-3.313214"><ele>526</ele><time>2022-03-28T13:22:19Z</time><name>PT1500</name></trkpt>
<trkpt lat="54.451073" lon="-3.313211"><ele>527</ele><time>2022-03-28T13:22:19Z</time><name>PT1501</name></trkpt>
<trkpt lat="54.451077" lon="-3.313204"><ele>527</ele><time>2022-03-28T13:22:20Z</time><name>PT1502</name></trkpt>
<trkpt lat="54.451083" lon="-3.313201"><ele>528</ele><time>2022-03-28T13:22:22Z</time><name>PT1503</name></trkpt>
<trkpt lat="54.451089" lon="-3.313197"><ele>528</ele><time>2022-03-28T13:22:22Z</time><name>PT1504</name></trkpt>
<trkpt lat="54.451095" lon="-3.313189"><ele>528</ele><time>2022-03-28T13:22:23Z</time><name>PT1505</name></trkpt>
<trkpt lat="54.451103" lon="-3.313183"><ele>528</ele><time>2022-03-28T13:22:25Z</time><name>PT1506</name></trkpt>
<trkpt lat="54.451111" lon="-3.313180"><ele>528</ele><time>2022-03-28T13:22:25Z</time><name>PT1507</name></trkpt>
<trkpt lat="54.451119" lon="-3.313176"><ele>528</ele><time>2022-03-28T13:22:26Z</time><name>PT1508</name></trkpt>
<trkpt lat="54.451126" lon="-3.313169"><ele>529</ele><time>2022-03-28T13:22:28Z</time><name>PT1509</name></trkpt>
<trkpt lat="54.451135" lon="-3.313166"><ele>529</ele><time>2022-03-28T13:22:28Z</time><name>PT1510</name></trkpt>
<trkpt lat="54.451144" lon="-3.313162"><ele>529</ele><time>2022-03-28T13:22:29Z</time><name>PT1511</name></trkpt>
<trkpt lat="54.451155" lon="-3.313157"><ele>530</ele><time>2022-03-28T13:22:31Z</time><name>PT1512</name></trkpt>
<trkpt lat="54.451165" lon="-3.313153"><ele>530</ele><time>2022-03-28T13:22:31Z</time><name>PT1513</name></trkpt>
<trkpt lat="54.451176" lon="-3.313149"><ele>531</ele><time>2022-03-28T13:22:32Z</time><name>PT1514</name></trkpt>
<trkpt lat="54.451185" lon="-3.313141"><ele>531</ele><time>2022-03-28T13:22:34Z</time><name>PT1515</name></trkpt>
<trkpt lat="54.451192" lon="-3.313134"><ele>531</ele><time>2022-03-28T13:22:34Z</time><name>PT1516</name></trkpt>
<trkpt lat="54.451201" lon="-3.313123"><ele>531</ele><time>2022-03-28T13:22:35Z</time><name>PT1517</name></trkpt>
<trkpt lat="54.451209" lon="-3.313113"><ele>531</ele><time>2022-03-28T13:22:37Z</time><name>PT1518</name></trkpt>
<trkpt lat="54.451214" lon="-3.313101"><ele>532</ele><time>2022-03-28T13:22:37Z</time><name>PT1519</name></trkpt>
<trkpt lat="54.451219" lon="-3.313088"><ele>532</ele><time>2022-03-28T13:22:38Z</time><name>PT1520</name></trkpt>
<trkpt lat="54.451221" lon="-3.313078"><ele>532</ele><time>2022-03-28T13:22:40Z</time><name>PT1521</name></trkpt>
<trkpt lat="54.451224" lon="-3.313066"><ele>532</ele><time>2022-03-28T13:22:40Z</time><name>PT1522</name></trkpt>
<trkpt lat="54.451226" lon="-3.313057"><ele>532</ele><time>2022-03-28T13:22:41Z</time><name>PT1523</name></trkpt>
<trkpt lat="54.451227" lon="-3.313045"><ele>532</ele><time>2022-03-28T13:22:43Z</time><name>PT1524</name></trkpt>
<trkpt lat="54.451230" lon="-3.313035"><ele>532</ele><time>2022-03-28T13:22:43Z</time><name>PT1525</name></trkpt>
<trkpt lat="54.451235" lon="-3.313025"><ele>532</ele><time>2022-03-28T13:22:44Z</time><name>PT1526</name></trkpt>
<trkpt lat="54.451240" lon="-3.313016"><ele>531</ele><time>2022-03-28T13:22:46Z</time><name>PT1527</name></trkpt>
<trkpt lat="54.451243" lon="-3.313006"><ele>531</ele><time>2022-03-28T13:22:46Z</time><name>PT1528</name></trkpt>
<trkpt lat="54.451246" lon="-3.312994"><ele>532</ele><time>2022-03-28T13:22:47Z</time><name>PT1529</name></trkpt>
<trkpt lat="54.451247" lon="-3.312982"><ele>532</ele><time>2022-03-28T13:22:49Z</time><name>PT1530</name></trkpt>
<trkpt lat="54.451249" lon="-3.312970"><ele>531</ele><time>2022-03-28T13:22:49Z</time><name>PT1531</name></trkpt>
<trkpt lat="54.451252" lon="-3.312962"><ele>532</ele><time>2022-03-28T13:22:50Z</time><name>PT1532</name></trkpt>
<trkpt lat="54.451255" lon="-3.312953"><ele>532</ele><time>2022-03-28T13:22:52Z</time><name>PT1533</name></trkpt>
<trkpt lat="54.451257" lon="-3.312941"><ele>532</ele><time>2022-03-28T13:22:52Z</time><name>PT1534</name></trkpt>
<trkpt lat="54.451262" lon="-3.312929"><ele>532</ele><time>2022-03-28T13:22:53Z</time><name>PT1535</name></trkpt>
<trkpt lat="54.451269" lon="-3.312918"><ele>532</ele><time>2022-03-28T13:22:55Z</time><name>PT1536</name></trkpt>
<trkpt lat="54.451273" lon="-3.312909"><ele>532</ele><time>2022-03-28T13:22:55Z</time><name>PT1537</name></trkpt>
<trkpt lat="54.451278" lon="-3.312897"><ele>533</ele><time>2022-03-28T13:22:56Z</time><name>PT1538</name></trkpt>
<trkpt lat="54.451285" lon="-3.312886"><ele>533</ele><time>2022-03-28T13:22:58Z</time><name>PT1539</name></trkpt>
<trkpt lat="54.451292" lon="-3.312879"><ele>533</ele><time>2022-03-28T13:22:58Z</time><name>PT1540</name></trkpt>
<trkpt lat="54.451298" lon="-3.312872"><ele>533</ele><time>2022-03-28T13:22:59Z</time><name>PT1541</name></trkpt>
<trkpt lat="54.451305" lon="-3.312863"><ele>533</ele><time>2022-03-28T13:23:01Z</time><name>PT1542</name></trkpt>
<trkpt lat="54.451311" lon="-3.312856"><ele>533</ele><time>2022-03-28T13:23:01Z</time><name>PT1543</name></trkpt>
<trkpt lat="54.451317" lon="-3.312851"><ele>534</ele><time>2022-03-28T13:23:02Z</time><name>PT1544</name></trkpt>
<trkpt lat="54.451323" lon="-3.312845"><ele>534</ele><time>2022-03-28T13:23:04Z</time><name>PT1545</name></trkpt>
<trkpt lat="54.451329" lon="-3.312842"><ele>534</ele><time>2022-03-28T13:23:04Z</time><name>PT1546</name></trkpt>
<trkpt lat="54.451337" lon="-3.312835"><ele>535</ele><time>2022-03-28T13:23:05Z</time><name>PT1547</name></trkpt>
<trkpt lat="54.451342" lon="-3.312830"><ele>535</ele><time>2022-03-28T13:23:07Z</time><name>PT1548</name></trkpt>
<trkpt lat="54.451349" lon="-3.312823"><ele>535</ele><time>2022-03-28T13:23:07Z</time><name>PT1549</name></trkpt>
<trkpt lat="54.451355" lon="-3.312816"><ele>535</ele><time>2022-03-28T13:23:08Z</time><name>PT1550</name></trkpt>
<trkpt lat="54.451361" lon="-3.312808"><ele>535</ele><time>2022-03-28T13:23:10Z</time><name>PT1551</name></trkpt>
<trkpt lat="54.451368" lon="-3.312801"><ele>535</ele><time>2022-03-28T13:23:10Z</time><name>PT1552</name></trkpt>
<trkpt lat="54.451375" lon="-3.312791"><ele>535</ele><time>2022-03-28T13:23:11Z</time><name>PT1553</name></trkpt>
<trkpt lat="54.451382" lon="-3.312782"><ele>536</ele><time>2022-03-28T13:23:13Z</time><name>PT1554</name></trkpt>
<trkpt lat="54.451387" lon="-3.312775"><ele>536</ele><time>2022-03-28T13:23:13Z</time><name>PT1555</name></trkpt>
<trkpt lat="54.451393" lon="-3.312766"><ele>536</ele><time>2022-03-28T13:23:14Z</time><name>PT1556</name></trkpt>
<trkpt lat="54.451398" lon="-3.312758"><ele>536</ele><time>2022-03-28T13:23:16Z</time><name>PT1557</name></trkpt>
<trkpt lat="54.451407" lon="-3.312748"><ele>536</ele><time>2022-03-28T13:23:16Z</time><name>PT1558</name></trkpt>
<trkpt lat="54.451414" lon="-3.312742"><ele>536</ele><time>2022-03-28T13:23:17Z</time><name>PT1559</name></trkpt>
<trkpt lat="54.451423" lon="-3.312735"><ele>537</ele><time>2022-03-28T13:23:19Z</time><name>PT1560</name></trkpt>
<trkpt lat="54.451431" lon="-3.312730"><ele>537</ele><time>2022-03-28T13:23:19Z</time><name>PT1561</name></trkpt>
<trkpt lat="54.451441" lon="-3.312727"><ele>537</ele><time>2022-03-28T13:23:20Z</time><name>PT1562</name></trkpt>
<trkpt lat="54.451450" lon="-3.312724"><ele>538</ele><time>2022-03-28T13:23:22Z</time><name>PT1563</name></trkpt>
<trkpt lat="54.451459" lon="-3.312725"><ele>538</ele><time>2022-03-28T13:23:22Z</time><name>PT1564</name></trkpt>
<trkpt lat="54.451467" lon="-3.312726"><ele>538</ele><time>2022-03-28T13:23:23Z</time><name>PT1565</name></trkpt>
<trkpt lat="54.451475" lon="-3.312728"><ele>538</ele><time>2022-03-28T13:23:25Z</time><name>PT1566</name></trkpt>
<trkpt lat="54.451480" lon="-3.312731"><ele>538</ele><time>2022-03-28T13:23:25Z</time><name>PT1567</name></trkpt>
<trkpt lat="54.451486" lon="-3.312731"><ele>539</ele><time>2022-03-28T13:23:26Z</time><name>PT1568</name></trkpt>
<trkpt lat="54.451491" lon="-3.312733"><ele>539</ele><time>2022-03-28T13:23:28Z</time><name>PT1569</name></trkpt>
<trkpt lat="54.451499" lon="-3.312739"><ele>539</ele><time>2022-03-28T13:23:28Z</time><name>PT1570</name></trkpt>
<trkpt lat="54.451506" lon="-3.312744"><ele>539</ele><time>2022-03-28T13:23:29Z</time><name>PT1571</name></trkpt>
<trkpt lat="54.451513" lon="-3.312744"><ele>539</ele><time>2022-03-28T13:23:31Z</time><name>PT1572</name></trkpt>
<trkpt lat="54.451519" lon="-3.312744"><ele>540</ele><time>2022-03-28T13:23:31Z</time><name>PT1573</name></trkpt>
<trkpt lat="54.451526" lon="-3.312743"><ele>540</ele><time>2022-03-28T13:23:32Z</time><name>PT1574</name></trkpt>
<trkpt lat="54.451533" lon="-3.312741"><ele>540</ele><time>2022-03-28T13:23:34Z</time><name>PT1575</name></trkpt>
<trkpt lat="54.451541" lon="-3.312740"><ele>540</ele><time>2022-03-28T13:23:34Z</time><name>PT1576</name></trkpt>
<trkpt lat="54.451547" lon="-3.312738"><ele>540</ele><time>2022-03-28T13:23:35Z</time><name>PT1577</name></trkpt>
<trkpt lat="54.451553" lon="-3.312733"><ele>540</ele><time>2022-03-28T13:23:37Z</time><name>PT1578</name></trkpt>
<trkpt lat="54.451559" lon="-3.312729"><ele>540</ele><time>2022-03-28T13:23:37Z</time><name>PT1579</name></trkpt>
<trkpt lat="54.451565" lon="-3.312723"><ele>540</ele><time>2022-03-28T13:23:38Z</time><name>PT1580</name></trkpt>
<trkpt lat="54.451568" lon="-3.312715"><ele>540</ele><time>2022-03-28T13:23:40Z</time><name>PT1581</name></trkpt>
<trkpt lat="54.451571" lon="-3.312702"><ele>540</ele><time>2022-03-28T13:23:40Z</time><name>PT1582</name></trkpt>
<trkpt lat="54.451574" lon="-3.312693"><ele>540</ele><time>2022-03-28T13:23:41Z</time><name>PT1583</name></trkpt>
<trkpt lat="54.451578" lon="-3.312684"><ele>541</ele><time>2022-03-28T13:23:43Z</time><name>PT1584</name></trkpt>
<trkpt lat="54.451580" lon="-3.312676"><ele>541</ele><time>2022-03-28T13:23:43Z</time><name>PT1585</name></trkpt>
<trkpt lat="54.451584" lon="-3.312667"><ele>541</ele><time>2022-03-28T13:23:44Z</time><name>PT1586</name></trkpt>
<trkpt lat="54.451588" lon="-3.312660"><ele>541</ele><time>2022-03-28T13:23:46Z</time><name>PT1587</name></trkpt>
<trkpt lat="54.451591" lon="-3.312651"><ele>541</ele><time>2022-03-28T13:23:46Z</time><name>PT1588</name></trkpt>
<trkpt lat="54.451595" lon="-3.312641"><ele>542</ele><time>2022-03-28T13:23:47Z</time><name>PT1589</name></trkpt>
<trkpt lat="54.451599" lon="-3.312630"><ele>542</ele><time>2022-03-28T13:23:49Z</time><name>PT1590</name></trkpt>
<trkpt lat="54.451600" lon="-3.312620"><ele>542</ele><time>2022-03-28T13:23:49Z</time><name>PT1591</name></trkpt>
<trkpt lat="54.451602" lon="-3.312609"><ele>543</ele><time>2022-03-28T13:23:50Z</time><name>PT1592</name></trkpt>
<trkpt lat="54.451605" lon="-3.312598"><ele>543</ele><time>2022-03-28T13:23:52Z</time><name>PT1593</name></trkpt>
<trkpt lat="54.451608" lon="-3.312588"><ele>543</ele><time>2022-03-28T13:23:52Z</time><name>PT1594</name></trkpt>
<trkpt lat="54.451613" lon="-3.312580"><ele>543</ele><time>2022-03-28T13:23:53Z</time><name>PT1595</name></trkpt>
<trkpt lat="54.451618" lon="-3.312573"><ele>543</ele><time>2022-03-28T13:23:55Z</time><name>PT1596</name></trkpt>
<trkpt lat="54.451624" lon="-3.312564"><ele>543</ele><time>2022-03-28T13:23:55Z</time><name>PT1597</name></trkpt>
<trkpt lat="54.451629" lon="-3.312557"><ele>543</ele><time>2022-03-28T13:23:56Z</time><name>PT1598</name></trkpt>
<trkpt lat="54.451635" lon="-3.312546"><ele>543</ele><time>2022-03-28T13:23:58Z</time><name>PT1599</name></trkpt>
<trkpt lat="54.451655" lon="-3.312519"><ele>544</ele><time>2022-03-28T13:24:01Z</time><name>PT1600</name></trkpt>
<trkpt lat="54.451684" lon="-3.312487"><ele>544</ele><time>2022-03-28T13:24:04Z</time><name>PT1601</name></trkpt>
<trkpt lat="54.451709" lon="-3.312470"><ele>544</ele><time>2022-03-28T13:24:08Z</time><name>PT1602</name></trkpt>
<trkpt lat="54.451724" lon="-3.312464"><ele>545</ele><time>2022-03-28T13:24:11Z</time><name>PT1603</name></trkpt>
<trkpt lat="54.451748" lon="-3.312445"><ele>546</ele><time>2022-03-28T13:24:16Z</time><name>PT1604</name></trkpt>
<trkpt lat="54.451768" lon="-3.312433"><ele>547</ele><time>2022-03-28T13:24:19Z</time><name>PT1605</name></trkpt>
<trkpt lat="54.451787" lon="-3.312429"><ele>547</ele><time>2022-03-28T13:24:22Z</time><name>PT1606</name></trkpt>
<trkpt lat="54.451797" lon="-3.312418"><ele>546</ele><time>2022-03-28T13:24:26Z</time><name>PT1607</name></trkpt>
<trkpt lat="54.451817" lon="-3.312388"><ele>546</ele><time>2022-03-28T13:24:31Z</time><name>PT1608</name></trkpt>
<trkpt lat="54.451830" lon="-3.312372"><ele>547</ele><time>2022-03-28T13:24:34Z</time><name>PT1609</name></trkpt>
<trkpt lat="54.451852" lon="-3.312362"><ele>547</ele><time>2022-03-28T13:24:37Z</time><name>PT1610</name></trkpt>
<trkpt lat="54.451881" lon="-3.312339"><ele>548</ele><time>2022-03-28T13:24:40Z</time><name>PT1611</name></trkpt>
<trkpt lat="54.451900" lon="-3.312336"><ele>548</ele><time>2022-03-28T13:24:43Z</time><name>PT1612</name></trkpt>
<trkpt lat="54.451918" lon="-3.312339"><ele>549</ele><time>2022-03-28T13:24:47Z</time><name>PT1613</name></trkpt>
<trkpt lat="54.451926" lon="-3.312354"><ele>549</ele><time>2022-03-28T13:24:50Z</time><name>PT1614</name></trkpt>
<trkpt lat="54.451932" lon="-3.312362"><ele>549</ele><time>2022-03-28T13:24:55Z</time><name>PT1615</name></trkpt>
<trkpt lat="54.451938" lon="-3.312363"><ele>550</ele><time>2022-03-28T13:24:58Z</time><name>PT1616</name></trkpt>
<trkpt lat="54.451960" lon="-3.312362"><ele>551</ele><time>2022-03-28T13:25:01Z</time><name>PT1617</name></trkpt>
<trkpt lat="54.451981" lon="-3.312350"><ele>551</ele><time>2022-03-28T13:25:04Z</time><name>PT1618</name></trkpt>
<trkpt lat="54.451993" lon="-3.312343"><ele>552</ele><time>2022-03-28T13:25:07Z</time><name>PT1619</name></trkpt>
<trkpt lat="54.451998" lon="-3.312342"><ele>552</ele><time>2022-03-28T13:25:08Z</time><name>PT1620</name></trkpt>
<trkpt lat="54.452003" lon="-3.312341"><ele>553</ele><time>2022-03-28T13:25:10Z</time><name>PT1621</name></trkpt>
<trkpt lat="54.452008" lon="-3.312341"><ele>553</ele><time>2022-03-28T13:25:10Z</time><name>PT1622</name></trkpt>
<trkpt lat="54.452012" lon="-3.312337"><ele>553</ele><time>2022-03-28T13:25:11Z</time><name>PT1623</name></trkpt>
<trkpt lat="54.452017" lon="-3.312335"><ele>553</ele><time>2022-03-28T13:25:13Z</time><name>PT1624</name></trkpt>
<trkpt lat="54.452023" lon="-3.312336"><ele>554</ele><time>2022-03-28T13:25:13Z</time><name>PT1625</name></trkpt>
<trkpt lat="54.452029" lon="-3.312331"><ele>553</ele><time>2022-03-28T13:25:14Z</time><name>PT1626</name></trkpt>
<trkpt lat="54.452035" lon="-3.312330"><ele>554</ele><time>2022-03-28T13:25:16Z</time><name>PT1627</name></trkpt>
<trkpt lat="54.452040" lon="-3.312330"><ele>554</ele><time>2022-03-28T13:25:16Z</time><name>PT1628</name></trkpt>
<trkpt lat="54.452045" lon="-3.312329"><ele>554</ele><time>2022-03-28T13:25:17Z</time><name>PT1629</name></trkpt>
<trkpt lat="54.452050" lon="-3.312326"><ele>554</ele><time>2022-03-28T13:25:19Z</time><name>PT1630</name></trkpt>
<trkpt lat="54.452056" lon="-3.312324"><ele>555</ele><time>2022-03-28T13:25:19Z</time><name>PT1631</name></trkpt>
<trkpt lat="54.452061" lon="-3.312318"><ele>555</ele><time>2022-03-28T13:25:20Z</time><name>PT1632</name></trkpt>
<trkpt lat="54.452065" lon="-3.312315"><ele>555</ele><time>2022-03-28T13:25:22Z</time><name>PT1633</name></trkpt>
<trkpt lat="54.452069" lon="-3.312314"><ele>554</ele><time>2022-03-28T13:25:22Z</time><name>PT1634</name></trkpt>
<trkpt lat="54.452074" lon="-3.312309"><ele>554</ele><time>2022-03-28T13:25:23Z</time><name>PT1635</name></trkpt>
<trkpt lat="54.452080" lon="-3.312303"><ele>555</ele><time>2022-03-28T13:25:25Z</time><name>PT1636</name></trkpt>
<trkpt lat="54.452086" lon="-3.312300"><ele>555</ele><time>2022-03-28T13:25:25Z</time><name>PT1637</name></trkpt>
<trkpt lat="54.452092" lon="-3.312295"><ele>555</ele><time>2022-03-28T13:25:26Z</time><name>PT1638</name></trkpt>
<trkpt lat="54.452097" lon="-3.312291"><ele>555</ele><time>2022-03-28T13:25:28Z</time><name>PT1639</name></trkpt>
<trkpt lat="54.452105" lon="-3.312287"><ele>555</ele><time>2022-03-28T13:25:28Z</time><name>PT1640</name></trkpt>
<trkpt lat="54.452114" lon="-3.312281"><ele>555</ele><time>2022-03-28T13:25:29Z</time><name>PT1641</name></trkpt>
<trkpt lat="54.452122" lon="-3.312274"><ele>555</ele><time>2022-03-28T13:25:31Z</time><name>PT1642</name></trkpt>
<trkpt lat="54.452130" lon="-3.312266"><ele>555</ele><time>2022-03-28T13:25:31Z</time><name>PT1643</name></trkpt>
<trkpt lat="54.452137" lon="-3.312259"><ele>555</ele><time>2022-03-28T13:25:32Z</time><name>PT1644</name></trkpt>
<trkpt lat="54.452143" lon="-3.312250"><ele>555</ele><time>2022-03-28T13:25:34Z</time><name>PT1645</name></trkpt>
<trkpt lat="54.452152" lon="-3.312245"><ele>555</ele><time>2022-03-28T13:25:34Z</time><name>PT1646</name></trkpt>
<trkpt lat="54.452158" lon="-3.312242"><ele>555</ele><time>2022-03-28T13:25:35Z</time><name>PT1647</name></trkpt>
<trkpt lat="54.452164" lon="-3.312239"><ele>555</ele><time>2022-03-28T13:25:37Z</time><name>PT1648</name></trkpt>
<trkpt lat="54.452172" lon="-3.312237"><ele>556</ele><time>2022-03-28T13:25:37Z</time><name>PT1649</name></trkpt>
<trkpt lat="54.452181" lon="-3.312235"><ele>556</ele><time>2022-03-28T13:25:38Z</time><name>PT1650</name></trkpt>
<trkpt lat="54.452188" lon="-3.312232"><ele>556</ele><time>2022-03-28T13:25:40Z</time><name>PT1651</name></trkpt>
<trkpt lat="54.452196" lon="-3.312231"><ele>556</ele><time>2022-03-28T13:25:40Z</time><name>PT1652</name></trkpt>
<trkpt lat="54.452202" lon="-3.312229"><ele>556</ele><time>2022-03-28T13:25:41Z</time><name>PT1653</name></trkpt>
<trkpt lat="54.452209" lon="-3.312226"><ele>556</ele><time>2022-03-28T13:25:43Z</time><name>PT1654</name></trkpt>
<trkpt lat="54.452216" lon="-3.312225"><ele>557</ele><time>2022-03-28T13:25:43Z</time><name>PT1655</name></trkpt>
<trkpt lat="54.452220" lon="-3.312223"><ele>557</ele><time>2022-03-28T13:25:44Z</time><name>PT1656</name></trkpt>
<trkpt lat="54.452227" lon="-3.312219"><ele>557</ele><time>2022-03-28T13:25:46Z</time><name>PT1657</name></trkpt>
<trkpt lat="54.452232" lon="-3.312217"><ele>557</ele><time>2022-03-28T13:25:46Z</time><name>PT1658</name></trkpt>
<trkpt lat="54.452239" lon="-3.312212"><ele>557</ele><time>2022-03-28T13:25:47Z</time><name>PT1659</name></trkpt>
<trkpt lat="54.452245" lon="-3.312207"><ele>557</ele><time>2022-03-28T13:25:49Z</time><name>PT1660</name></trkpt>
<trkpt lat="54.452250" lon="-3.312200"><ele>557</ele><time>2022-03-28T13:25:49Z</time><name>PT1661</name></trkpt>
<trkpt lat="54.452255" lon="-3.312193"><ele>558</ele><time>2022-03-28T13:25:50Z</time><name>PT1662</name></trkpt>
<trkpt lat="54.452262" lon="-3.312188"><ele>558</ele><time>2022-03-28T13:25:52Z</time><name>PT1663</name></trkpt>
<trkpt lat="54.452269" lon="-3.312184"><ele>559</ele><time>2022-03-28T13:25:52Z</time><name>PT1664</name></trkpt>
<trkpt lat="54.452273" lon="-3.312177"><ele>559</ele><time>2022-03-28T13:25:53Z</time><name>PT1665</name></trkpt>
<trkpt lat="54.452279" lon="-3.312170"><ele>559</ele><time>2022-03-28T13:25:55Z</time><name>PT1666</name></trkpt>
<trkpt lat="54.452286" lon="-3.312163"><ele>560</ele><time>2022-03-28T13:25:55Z</time><name>PT1667</name></trkpt>
<trkpt lat="54.452291" lon="-3.312156"><ele>560</ele><time>2022-03-28T13:25:56Z</time><name>PT1668</name></trkpt>
<trkpt lat="54.452294" lon="-3.312150"><ele>560</ele><time>2022-03-28T13:25:58Z</time><name>PT1669</name></trkpt>
<trkpt lat="54.452295" lon="-3.312147"><ele>560</ele><time>2022-03-28T13:25:58Z</time><name>PT1670</name></trkpt>
<trkpt lat="54.452298" lon="-3.312141"><ele>559</ele><time>2022-03-28T13:25:59Z</time><name>PT1671</name></trkpt>
<trkpt lat="54.452301" lon="-3.312138"><ele>559</ele><time>2022-03-28T13:26:01Z</time><name>PT1672</name></trkpt>
<trkpt lat="54.452308" lon="-3.312133"><ele>560</ele><time>2022-03-28T13:26:01Z</time><name>PT1673</name></trkpt>
<trkpt lat="54.452314" lon="-3.312129"><ele>560</ele><time>2022-03-28T13:26:02Z</time><name>PT1674</name></trkpt>
<trkpt lat="54.452321" lon="-3.312127"><ele>560</ele><time>2022-03-28T13:26:04Z</time><name>PT1675</name></trkpt>
<trkpt lat="54.452329" lon="-3.312126"><ele>560</ele><time>2022-03-28T13:26:04Z</time><name>PT1676</name></trkpt>
<trkpt lat="54.452342" lon="-3.312122"><ele>561</ele><time>2022-03-28T13:26:05Z</time><name>PT1677</name></trkpt>
<trkpt lat="54.452350" lon="-3.312114"><ele>562</ele><time>2022-03-28T13:26:07Z</time><name>PT1678</name></trkpt>
<trkpt lat="54.452357" lon="-3.312104"><ele>562</ele><time>2022-03-28T13:26:07Z</time><name>PT1679</name></trkpt>
<trkpt lat="54.452361" lon="-3.312089"><ele>562</ele><time>2022-03-28T13:26:08Z</time><name>PT1680</name></trkpt>
<trkpt lat="54.452366" lon="-3.312079"><ele>562</ele><time>2022-03-28T13:26:10Z</time><name>PT1681</name></trkpt>
<trkpt lat="54.452367" lon="-3.312070"><ele>562</ele><time>2022-03-28T13:26:10Z</time><name>PT1682</name></trkpt>
<trkpt lat="54.452365" lon="-3.312062"><ele>562</ele><time>2022-03-28T13:26:11Z</time><name>PT1683</name></trkpt>
<trkpt lat="54.452371" lon="-3.312052"><ele>562</ele><time>2022-03-28T13:26:13Z</time><name>PT1684</name></trkpt>
<trkpt lat="54.452376" lon="-3.312043"><ele>562</ele><time>2022-03-28T13:26:13Z</time><name>PT1685</name></trkpt>
<trkpt lat="54.452385" lon="-3.312037"><ele>562</ele><time>2022-03-28T13:26:14Z</time><name>PT1686</name></trkpt>
<trkpt lat="54.452395" lon="-3.312032"><ele>562</ele><time>2022-03-28T13:26:16Z</time><name>PT1687</name></trkpt>
<trkpt lat="54.452405" lon="-3.312028"><ele>562</ele><time>2022-03-28T13:26:16Z</time><name>PT1688</name></trkpt>
<trkpt lat="54.452413" lon="-3.312026"><ele>562</ele><time>2022-03-28T13:26:17Z</time><name>PT1689</name></trkpt>
<trkpt lat="54.452421" lon="-3.312023"><ele>562</ele><time>2022-03-28T13:26:19Z</time><name>PT1690</name></trkpt>
<trkpt lat="54.452429" lon="-3.312021"><ele>562</ele><time>2022-03-28T13:26:19Z</time><name>PT1691</name></trkpt>
<trkpt lat="54.452435" lon="-3.312017"><ele>562</ele><time>2022-03-28T13:26:20Z</time><name>PT1692</name></trkpt>
<trkpt lat="54.452441" lon="-3.312010"><ele>562</ele><time>2022-03-28T13:26:22Z</time><name>PT1693</name></trkpt>
<trkpt lat="54.452448" lon="-3.312001"><ele>563</ele><time>2022-03-28T13:26:22Z</time><name>PT1694</name></trkpt>
<trkpt lat="54.452454" lon="-3.311994"><ele>563</ele><time>2022-03-28T13:26:23Z</time><name>PT1695</name></trkpt>
<trkpt lat="54.452460" lon="-3.311985"><ele>563</ele><time>2022-03-28T13:26:25Z</time><name>PT1696</name></trkpt>
<trkpt lat="54.452466" lon="-3.311976"><ele>563</ele><time>2022-03-28T13:26:25Z</time><name>PT1697</name></trkpt>
<trkpt lat="54.452471" lon="-3.311970"><ele>563</ele><time>2022-03-28T13:26:26Z</time><name>PT1698</name></trkpt>
<trkpt lat="54.452478" lon="-3.311963"><ele>564</ele><time>2022-03-28T13:26:28Z</time><name>PT1699</name></trkpt>
<trkpt lat="54.452485" lon="-3.311957"><ele>563</ele><time>2022-03-28T13:26:28Z</time><name>PT1700</name></trkpt>
<trkpt lat="54.452492" lon="-3.311946"><ele>563</ele><time>2022-03-28T13:26:29Z</time><name>PT1701</name></trkpt>
<trkpt lat="54.452498" lon="-3.311939"><ele>564</ele><time>2022-03-28T13:26:31Z</time><name>PT1702</name></trkpt>
<trkpt lat="54.452503" lon="-3.311934"><ele>564</ele><time>2022-03-28T13:26:31Z</time><name>PT1703</name></trkpt>
<trkpt lat="54.452505" lon="-3.311927"><ele>564</ele><time>2022-03-28T13:26:32Z</time><name>PT1704</name></trkpt>
<trkpt lat="54.452507" lon="-3.311918"><ele>565</ele><time>2022-03-28T13:26:34Z</time><name>PT1705</name></trkpt>
<trkpt lat="54.452511" lon="-3.311908"><ele>565</ele><time>2022-03-28T13:26:34Z</time><name>PT1706</name></trkpt>
<trkpt lat="54.452515" lon="-3.311902"><ele>565</ele><time>2022-03-28T13:26:35Z</time><name>PT1707</name></trkpt>
<trkpt lat="54.452519" lon="-3.311896"><ele>565</ele><time>2022-03-28T13:26:37Z</time><name>PT1708</name></trkpt>
<trkpt lat="54.452525" lon="-3.311891"><ele>565</ele><time>2022-03-28T13:26:37Z</time><name>PT1709</name></trkpt>
<trkpt lat="54.452531" lon="-3.311884"><ele>566</ele><time>2022-03-28T13:26:38Z</time><name>PT1710</name></trkpt>
<trkpt lat="54.452535" lon="-3.311877"><ele>566</ele><time>2022-03-28T13:26:40Z</time><name>PT1711</name></trkpt>
<trkpt lat="54.452538" lon="-3.311870"><ele>566</ele><time>2022-03-28T13:26:40Z</time><name>PT1712</name></trkpt>
<trkpt lat="54.452542" lon="-3.311864"><ele>566</ele><time>2022-03-28T13:26:41Z</time><name>PT1713</name></trkpt>
<trkpt lat="54.452547" lon="-3.311862"><ele>566</ele><time>2022-03-28T13:26:43Z</time><name>PT1714</name></trkpt>
<trkpt lat="54.452551" lon="-3.311854"><ele>566</ele><time>2022-03-28T13:26:43Z</time><name>PT1715</name></trkpt>
<trkpt lat="54.452555" lon="-3.311846"><ele>567</ele><time>2022-03-28T13:26:44Z</time><name>PT1716</name></trkpt>
<trkpt lat="54.452559" lon="-3.311837"><ele>567</ele><time>2022-03-28T13:26:46Z</time><name>PT1717</name></trkpt>
<trkpt lat="54.452563" lon="-3.311825"><ele>567</ele><time>2022-03-28T13:26:46Z</time><name>PT1718</name></trkpt>
<trkpt lat="54.452564" lon="-3.311813"><ele>567</ele><time>2022-03-28T13:26:47Z</time><name>PT1719</name></trkpt>
<trkpt lat="54.452569" lon="-3.311800"><ele>568</ele><time>2022-03-28T13:26:49Z</time><name>PT1720</name></trkpt>
<trkpt lat="54.452573" lon="-3.311789"><ele>568</ele><time>2022-03-28T13:26:49Z</time><name>PT1721</name></trkpt>
<trkpt lat="54.452575" lon="-3.311776"><ele>568</ele><time>2022-03-28T13:26:50Z</time><name>PT1722</name></trkpt>
<trkpt lat="54.452576" lon="-3.311759"><ele>568</ele><time>2022-03-28T13:26:52Z</time><name>PT1723</name></trkpt>
<trkpt lat="54.452580" lon="-3.311750"><ele>568</ele><time>2022-03-28T13:26:52Z</time><name>PT1724</name></trkpt>
<trkpt lat="54.452586" lon="-3.311741"><ele>568</ele><time>2022-03-28T13:26:53Z</time><name>PT1725</name></trkpt>
<trkpt lat="54.452592" lon="-3.311734"><ele>568</ele><time>2022-03-28T13:26:55Z</time><name>PT1726</name></trkpt>
<trkpt lat="54.452599" lon="-3.311731"><ele>568</ele><time>2022-03-28T13:26:55Z</time><name>PT1727</name></trkpt>
<trkpt lat="54.452608" lon="-3.311729"><ele>568</ele><time>2022-03-28T13:26:56Z</time><name>PT1728</name></trkpt>
<trkpt lat="54.452616" lon="-3.311729"><ele>568</ele><time>2022-03-28T13:26:58Z</time><name>PT1729</name></trkpt>
<trkpt lat="54.452623" lon="-3.311726"><ele>568</ele><time>2022-03-28T13:26:58Z</time><name>PT1730</name></trkpt>
<trkpt lat="54.452629" lon="-3.311723"><ele>568</ele><time>2022-03-28T13:26:59Z</time><name>PT1731</name></trkpt>
<trkpt lat="54.452635" lon="-3.311716"><ele>568</ele><time>2022-03-28T13:27:01Z</time><name>PT1732</name></trkpt>
<trkpt lat="54.452643" lon="-3.311709"><ele>569</ele><time>2022-03-28T13:27:01Z</time><name>PT1733</name></trkpt>
<trkpt lat="54.452650" lon="-3.311702"><ele>569</ele><time>2022-03-28T13:27:02Z</time><name>PT1734</name></trkpt>
<trkpt lat="54.452657" lon="-3.311696"><ele>569</ele><time>2022-03-28T13:27:04Z</time><name>PT1735</name></trkpt>
<trkpt lat="54.452664" lon="-3.311690"><ele>569</ele><time>2022-03-28T13:27:04Z</time><name>PT1736</name></trkpt>
<trkpt lat="54.452669" lon="-3.311684"><ele>569</ele><time>2022-03-28T13:27:05Z</time><name>PT1737</name></trkpt>
<trkpt lat="54.452675" lon="-3.311681"><ele>569</ele><time>2022-03-28T13:27:07Z</time><name>PT1738</name></trkpt>
<trkpt lat="54.452680" lon="-3.311679"><ele>569</ele><time>2022-03-28T13:27:07Z</time><name>PT1739</name></trkpt>
<trkpt lat="54.452682" lon="-3.311673"><ele>569</ele><time>2022-03-28T13:27:10Z</time><name>PT1740</name></trkpt>
<trkpt lat="54.452691" lon="-3.311667"><ele>569</ele><time>2022-03-28T13:27:11Z</time><name>PT1741</name></trkpt>
<trkpt lat="54.452699" lon="-3.311661"><ele>569</ele><time>2022-03-28T13:27:13Z</time><name>PT1742</name></trkpt>
<trkpt lat="54.452706" lon="-3.311658"><ele>569</ele><time>2022-03-28T13:27:13Z</time><name>PT1743</name></trkpt>
<trkpt lat="54.452712" lon="-3.311656"><ele>569</ele><time>2022-03-28T13:27:14Z</time><name>PT1744</name></trkpt>
<trkpt lat="54.452718" lon="-3.311652"><ele>569</ele><time>2022-03-28T13:27:16Z</time><name>PT1745</name></trkpt>
<trkpt lat="54.452722" lon="-3.311648"><ele>569</ele><time>2022-03-28T13:27:16Z</time><name>PT1746</name></trkpt>
<trkpt lat="54.452728" lon="-3.311648"><ele>569</ele><time>2022-03-28T13:27:17Z</time><name>PT1747</name></trkpt>
<trkpt lat="54.452735" lon="-3.311647"><ele>570</ele><time>2022-03-28T13:27:19Z</time><name>PT1748</name></trkpt>
<trkpt lat="54.452741" lon="-3.311636"><ele>570</ele><time>2022-03-28T13:27:19Z</time><name>PT1749</name></trkpt>
<trkpt lat="54.452748" lon="-3.311633"><ele>570</ele><time>2022-03-28T13:27:20Z</time><name>PT1750</name></trkpt>
<trkpt lat="54.452756" lon="-3.311634"><ele>570</ele><time>2022-03-28T13:27:22Z</time><name>PT1751</name></trkpt>
<trkpt lat="54.452762" lon="-3.311631"><ele>570</ele><time>2022-03-28T13:27:22Z</time><name>PT1752</name></trkpt>
<trkpt lat="54.452768" lon="-3.311627"><ele>570</ele><time>2022-03-28T13:27:24Z</time><name>PT1753</name></trkpt>
<trkpt lat="54.452775" lon="-3.311622"><ele>570</ele><time>2022-03-28T13:27:25Z</time><name>PT1754</name></trkpt>
<trkpt lat="54.452783" lon="-3.311619"><ele>570</ele><time>2022-03-28T13:27:25Z</time><name>PT1755</name></trkpt>
<trkpt lat="54.452791" lon="-3.311614"><ele>570</ele><time>2022-03-28T13:27:26Z</time><name>PT1756</name></trkpt>
<trkpt lat="54.452800" lon="-3.311614"><ele>570</ele><time>2022-03-28T13:27:28Z</time><name>PT1757</name></trkpt>
<trkpt lat="54.452808" lon="-3.311616"><ele>570</ele><time>2022-03-28T13:27:28Z</time><name>PT1758</name></trkpt>
<trkpt lat="54.452817" lon="-3.311619"><ele>570</ele><time>2022-03-28T13:27:29Z</time><name>PT1759</name></trkpt>
<trkpt lat="54.452825" lon="-3.311619"><ele>571</ele><time>2022-03-28T13:27:31Z</time><name>PT1760</name></trkpt>
<trkpt lat="54.452832" lon="-3.311616"><ele>571</ele><time>2022-03-28T13:27:31Z</time><name>PT1761</name></trkpt>
<trkpt lat="54.452840" lon="-3.311612"><ele>570</ele><time>2022-03-28T13:27:32Z</time><name>PT1762</name></trkpt>
<trkpt lat="54.452848" lon="-3.311604"><ele>571</ele><time>2022-03-28T13:27:34Z</time><name>PT1763</name></trkpt>
<trkpt lat="54.452857" lon="-3.311601"><ele>571</ele><time>2022-03-28T13:27:34Z</time><name>PT1764</name></trkpt>
<trkpt lat="54.452866" lon="-3.311596"><ele>571</ele><time>2022-03-28T13:27:35Z</time><name>PT1765</name></trkpt>
<trkpt lat="54.452874" lon="-3.311598"><ele>571</ele><time>2022-03-28T13:27:37Z</time><name>PT1766</name></trkpt>
<trkpt lat="54.452881" lon="-3.311598"><ele>571</ele><time>2022-03-28T13:27:37Z</time><name>PT1767</name></trkpt>
<trkpt lat="54.452888" lon="-3.311599"><ele>572</ele><time>2022-03-28T13:27:38Z</time><name>PT1768</name></trkpt>
<trkpt lat="54.452896" lon="-3.311601"><ele>572</ele><time>2022-03-28T13:27:40Z</time><name>PT1769</name></trkpt>
<trkpt lat="54.452903" lon="-3.311601"><ele>572</ele><time>2022-03-28T13:27:40Z</time><name>PT1770</name></trkpt>
<trkpt lat="54.452910" lon="-3.311601"><ele>572</ele><time>2022-03-28T13:27:41Z</time><name>PT1771</name></trkpt>
<trkpt lat="54.452917" lon="-3.311600"><ele>572</ele><time>2022-03-28T13:27:43Z</time><name>PT1772</name></trkpt>
<trkpt lat="54.452929" lon="-3.311601"><ele>573</ele><time>2022-03-28T13:27:43Z</time><name>PT1773</name></trkpt>
<trkpt lat="54.452936" lon="-3.311600"><ele>574</ele><time>2022-03-28T13:27:44Z</time><name>PT1774</name></trkpt>
<trkpt lat="54.452942" lon="-3.311595"><ele>574</ele><time>2022-03-28T13:27:46Z</time><name>PT1775</name></trkpt>
<trkpt lat="54.452947" lon="-3.311591"><ele>573</ele><time>2022-03-28T13:27:46Z</time><name>PT1776</name></trkpt>
<trkpt lat="54.452953" lon="-3.311587"><ele>574</ele><time>2022-03-28T13:27:47Z</time><name>PT1777</name></trkpt>
<trkpt lat="54.452958" lon="-3.311580"><ele>574</ele><time>2022-03-28T13:27:49Z</time><name>PT1778</name></trkpt>
<trkpt lat="54.452964" lon="-3.311571"><ele>574</ele><time>2022-03-28T13:27:49Z</time><name>PT1779</name></trkpt>
<trkpt lat="54.452971" lon="-3.311566"><ele>574</ele><time>2022-03-28T13:27:50Z</time><name>PT1780</name></trkpt>
<trkpt lat="54.452976" lon="-3.311559"><ele>574</ele><time>2022-03-28T13:27:52Z</time><name>PT1781</name></trkpt>
<trkpt lat="54.452982" lon="-3.311555"><ele>575</ele><time>2022-03-28T13:27:52Z</time><name>PT1782</name></trkpt>
<trkpt lat="54.452987" lon="-3.311549"><ele>575</ele><time>2022-03-28T13:27:53Z</time><name>PT1783</name></trkpt>
<trkpt lat="54.452992" lon="-3.311546"><ele>575</ele><time>2022-03-28T13:27:55Z</time><name>PT1784</name></trkpt>
<trkpt lat="54.452997" lon="-3.311544"><ele>575</ele><time>2022-03-28T13:27:55Z</time><name>PT1785</name></trkpt>
<trkpt lat="54.453003" lon="-3.311540"><ele>575</ele><time>2022-03-28T13:27:56Z</time><name>PT1786</name></trkpt>
<trkpt lat="54.453009" lon="-3.311541"><ele>575</ele><time>2022-03-28T13:27:58Z</time><name>PT1787</name></trkpt>
<trkpt lat="54.453014" lon="-3.311543"><ele>576</ele><time>2022-03-28T13:27:58Z</time><name>PT1788</name></trkpt>
<trkpt lat="54.453018" lon="-3.311544"><ele>575</ele><time>2022-03-28T13:27:59Z</time><name>PT1789</name></trkpt>
<trkpt lat="54.453024" lon="-3.311538"><ele>576</ele><time>2022-03-28T13:28:19Z</time><name>PT1790</name></trkpt>
<trkpt lat="54.453043" lon="-3.311532"><ele>576</ele><time>2022-03-28T13:28:20Z</time><name>PT1791</name></trkpt>
<trkpt lat="54.453053" lon="-3.311530"><ele>576</ele><time>2022-03-28T13:28:22Z</time><name>PT1792</name></trkpt>
<trkpt lat="54.453062" lon="-3.311525"><ele>577</ele><time>2022-03-28T13:28:22Z</time><name>PT1793</name></trkpt>
<trkpt lat="54.453074" lon="-3.311535"><ele>578</ele><time>2022-03-28T13:28:23Z</time><name>PT1794</name></trkpt>
<trkpt lat="54.453082" lon="-3.311534"><ele>578</ele><time>2022-03-28T13:28:25Z</time><name>PT1795</name></trkpt>
<trkpt lat="54.453088" lon="-3.311527"><ele>578</ele><time>2022-03-28T13:28:25Z</time><name>PT1796</name></trkpt>
<trkpt lat="54.453093" lon="-3.311518"><ele>578</ele><time>2022-03-28T13:28:26Z</time><name>PT1797</name></trkpt>
<trkpt lat="54.453097" lon="-3.311506"><ele>579</ele><time>2022-03-28T13:28:28Z</time><name>PT1798</name></trkpt>
<trkpt lat="54.453100" lon="-3.311493"><ele>579</ele><time>2022-03-28T13:28:28Z</time><name>PT1799</name></trkpt>
<trkpt lat="54.453106" lon="-3.311483"><ele>579</ele><time>2022-03-28T13:28:29Z</time><name>PT1800</name></trkpt>
<trkpt lat="54.453112" lon="-3.311471"><ele>580</ele><time>2022-03-28T13:28:31Z</time><name>PT1801</name></trkpt>
<trkpt lat="54.453118" lon="-3.311460"><ele>580</ele><time>2022-03-28T13:28:31Z</time><name>PT1802</name></trkpt>
<trkpt lat="54.453123" lon="-3.311452"><ele>580</ele><time>2022-03-28T13:28:32Z</time><name>PT1803</name></trkpt>
<trkpt lat="54.453129" lon="-3.311447"><ele>580</ele><time>2022-03-28T13:28:34Z</time><name>PT1804</name></trkpt>
<trkpt lat="54.453137" lon="-3.311439"><ele>581</ele><time>2022-03-28T13:28:34Z</time><name>PT1805</name></trkpt>
<trkpt lat="54.453143" lon="-3.311430"><ele>581</ele><time>2022-03-28T13:28:35Z</time><name>PT1806</name></trkpt>
<trkpt lat="54.453151" lon="-3.311426"><ele>582</ele><time>2022-03-28T13:28:37Z</time><name>PT1807</name></trkpt>
<trkpt lat="54.453155" lon="-3.311420"><ele>582</ele><time>2022-03-28T13:28:37Z</time><name>PT1808</name></trkpt>
<trkpt lat="54.453164" lon="-3.311405"><ele>582</ele><time>2022-03-28T13:28:46Z</time><name>PT1809</name></trkpt>
<trkpt lat="54.453170" lon="-3.311396"><ele>582</ele><time>2022-03-28T13:28:46Z</time><name>PT1810</name></trkpt>
<trkpt lat="54.453177" lon="-3.311386"><ele>582</ele><time>2022-03-28T13:28:47Z</time><name>PT1811</name></trkpt>
<trkpt lat="54.453182" lon="-3.311381"><ele>582</ele><time>2022-03-28T13:28:49Z</time><name>PT1812</name></trkpt>
<trkpt lat="54.453187" lon="-3.311377"><ele>582</ele><time>2022-03-28T13:28:49Z</time><name>PT1813</name></trkpt>
<trkpt lat="54.453190" lon="-3.311370"><ele>582</ele><time>2022-03-28T13:28:50Z</time><name>PT1814</name></trkpt>
<trkpt lat="54.453193" lon="-3.311367"><ele>582</ele><time>2022-03-28T13:28:52Z</time><name>PT1815</name></trkpt>
<trkpt lat="54.453196" lon="-3.311363"><ele>582</ele><time>2022-03-28T13:28:52Z</time><name>PT1816</name></trkpt>
<trkpt lat="54.453198" lon="-3.311360"><ele>581</ele><time>2022-03-28T13:28:53Z</time><name>PT1817</name></trkpt>
<trkpt lat="54.453200" lon="-3.311358"><ele>581</ele><time>2022-03-28T13:28:55Z</time><name>PT1818</name></trkpt>
<trkpt lat="54.453200" lon="-3.311356"><ele>581</ele><time>2022-03-28T13:28:55Z</time><name>PT1819</name></trkpt>
<trkpt lat="54.453200" lon="-3.311356"><ele>581</ele><time>2022-03-28T13:28:56Z</time><name>PT1820</name></trkpt>
<trkpt lat="54.453199" lon="-3.311356"><ele>581</ele><time>2022-03-28T13:28:58Z</time><name>PT1821</name></trkpt>
<trkpt lat="54.453202" lon="-3.311355"><ele>581</ele><time>2022-03-28T13:28:59Z</time><name>PT1822</name></trkpt>
<trkpt lat="54.453205" lon="-3.311355"><ele>581</ele><time>2022-03-28T13:29:01Z</time><name>PT1823</name></trkpt>
<trkpt lat="54.453207" lon="-3.311360"><ele>581</ele><time>2022-03-28T13:29:01Z</time><name>PT1824</name></trkpt>
<trkpt lat="54.453223" lon="-3.311387"><ele>581</ele><time>2022-03-28T13:29:43Z</time><name>PT1825</name></trkpt>
<trkpt lat="54.453229" lon="-3.311387"><ele>581</ele><time>2022-03-28T13:29:46Z</time><name>PT1826</name></trkpt>
<trkpt lat="54.453235" lon="-3.311388"><ele>581</ele><time>2022-03-28T13:29:46Z</time><name>PT1827</name></trkpt>
<trkpt lat="54.453234" lon="-3.311385"><ele>580</ele><time>2022-03-28T13:29:47Z</time><name>PT1828</name></trkpt>
<trkpt lat="54.453233" lon="-3.311385"><ele>580</ele><time>2022-03-28T13:29:49Z</time><name>PT1829</name></trkpt>
<trkpt lat="54.453235" lon="-3.311386"><ele>580</ele><time>2022-03-28T13:29:56Z</time><name>PT1830</name></trkpt>
<trkpt lat="54.453237" lon="-3.311388"><ele>581</ele><time>2022-03-28T13:29:58Z</time><name>PT1831</name></trkpt>
<trkpt lat="54.453240" lon="-3.311391"><ele>581</ele><time>2022-03-28T13:30:16Z</time><name>PT1832</name></trkpt>
<trkpt lat="54.453240" lon="-3.311393"><ele>581</ele><time>2022-03-28T13:30:16Z</time><name>PT1833</name></trkpt>
<trkpt lat="54.453240" lon="-3.311395"><ele>581</ele><time>2022-03-28T13:30:17Z</time><name>PT1834</name></trkpt>
<trkpt lat="54.453241" lon="-3.311394"><ele>581</ele><time>2022-03-28T13:30:19Z</time><name>PT1835</name></trkpt>
<trkpt lat="54.453243" lon="-3.311394"><ele>581</ele><time>2022-03-28T13:30:19Z</time><name>PT1836</name></trkpt>
<trkpt lat="54.453246" lon="-3.311395"><ele>581</ele><time>2022-03-28T13:30:20Z</time><name>PT1837</name></trkpt>
<trkpt lat="54.453248" lon="-3.311395"><ele>581</ele><time>2022-03-28T13:30:22Z</time><name>PT1838</name></trkpt>
<trkpt lat="54.453249" lon="-3.311393"><ele>580</ele><time>2022-03-28T13:30:22Z</time><name>PT1839</name></trkpt>
<trkpt lat="54.453254" lon="-3.311392"><ele>580</ele><time>2022-03-28T13:31:08Z</time><name>PT1840</name></trkpt>
<trkpt lat="54.453253" lon="-3.311393"><ele>580</ele><time>2022-03-28T13:31:10Z</time><name>PT1841</name></trkpt>
<trkpt lat="54.453253" lon="-3.311394"><ele>580</ele><time>2022-03-28T13:31:10Z</time><name>PT1842</name></trkpt>
<trkpt lat="54.453253" lon="-3.311393"><ele>580</ele><time>2022-03-28T13:31:11Z</time><name>PT1843</name></trkpt>
<trkpt lat="54.453252" lon="-3.311394"><ele>580</ele><time>2022-03-28T13:31:13Z</time><name>PT1844</name></trkpt>
<trkpt lat="54.453249" lon="-3.311393"><ele>580</ele><time>2022-03-28T13:31:13Z</time><name>PT1845</name></trkpt>
<trkpt lat="54.453248" lon="-3.311392"><ele>580</ele><time>2022-03-28T13:31:14Z</time><name>PT1846</name></trkpt>
<trkpt lat="54.453249" lon="-3.311380"><ele>580</ele><time>2022-03-28T13:33:38Z</time><name>PT1847</name></trkpt>
<trkpt lat="54.453250" lon="-3.311380"><ele>580</ele><time>2022-03-28T13:33:43Z</time><name>PT1848</name></trkpt>
<trkpt lat="54.453249" lon="-3.311381"><ele>580</ele><time>2022-03-28T13:35:07Z</time><name>PT1849</name></trkpt>
<trkpt lat="54.453252" lon="-3.311384"><ele>580</ele><time>2022-03-28T13:35:08Z</time><name>PT1850</name></trkpt>
<trkpt lat="54.453257" lon="-3.311377"><ele>580</ele><time>2022-03-28T13:39:01Z</time><name>PT1851</name></trkpt>
<trkpt lat="54.453254" lon="-3.311368"><ele>580</ele><time>2022-03-28T13:39:52Z</time><name>PT1852</name></trkpt>
<trkpt lat="54.453251" lon="-3.311362"><ele>580</ele><time>2022-03-28T13:39:52Z</time><name>PT1853</name></trkpt>
<trkpt lat="54.453247" lon="-3.311361"><ele>580</ele><time>2022-03-28T13:39:53Z</time><name>PT1854</name></trkpt>
<trkpt lat="54.453247" lon="-3.311359"><ele>580</ele><time>2022-03-28T13:40:22Z</time><name>PT1855</name></trkpt>
<trkpt lat="54.453248" lon="-3.311362"><ele>580</ele><time>2022-03-28T13:40:22Z</time><name>PT1856</name></trkpt>
<trkpt lat="54.453252" lon="-3.311364"><ele>580</ele><time>2022-03-28T13:40:23Z</time><name>PT1857</name></trkpt>
<trkpt lat="54.453252" lon="-3.311366"><ele>580</ele><time>2022-03-28T13:40:25Z</time><name>PT1858</name></trkpt>
<trkpt lat="54.453252" lon="-3.311370"><ele>580</ele><time>2022-03-28T13:40:25Z</time><name>PT1859</name></trkpt>
<trkpt lat="54.453252" lon="-3.311371"><ele>580</ele><time>2022-03-28T13:40:26Z</time><name>PT1860</name></trkpt>
<trkpt lat="54.453252" lon="-3.311376"><ele>580</ele><time>2022-03-28T13:40:28Z</time><name>PT1861</name></trkpt>
<trkpt lat="54.453252" lon="-3.311396"><ele>580</ele><time>2022-03-28T13:40:29Z</time><name>PT1862</name></trkpt>
<trkpt lat="54.453254" lon="-3.311408"><ele>580</ele><time>2022-03-28T13:40:31Z</time><name>PT1863</name></trkpt>
<trkpt lat="54.453255" lon="-3.311424"><ele>580</ele><time>2022-03-28T13:40:31Z</time><name>PT1864</name></trkpt>
<trkpt lat="54.453258" lon="-3.311438"><ele>580</ele><time>2022-03-28T13:40:32Z</time><name>PT1865</name></trkpt>
<trkpt lat="54.453261" lon="-3.311454"><ele>580</ele><time>2022-03-28T13:40:34Z</time><name>PT1866</name></trkpt>
<trkpt lat="54.453266" lon="-3.311469"><ele>580</ele><time>2022-03-28T13:40:34Z</time><name>PT1867</name></trkpt>
<trkpt lat="54.453271" lon="-3.311479"><ele>580</ele><time>2022-03-28T13:40:35Z</time><name>PT1868</name></trkpt>
<trkpt lat="54.453276" lon="-3.311495"><ele>580</ele><time>2022-03-28T13:40:37Z</time><name>PT1869</name></trkpt>
<trkpt lat="54.453282" lon="-3.311508"><ele>579</ele><time>2022-03-28T13:40:37Z</time><name>PT1870</name></trkpt>
<trkpt lat="54.453288" lon="-3.311522"><ele>579</ele><time>2022-03-28T13:40:38Z</time><name>PT1871</name></trkpt>
<trkpt lat="54.453294" lon="-3.311532"><ele>579</ele><time>2022-03-28T13:40:40Z</time><name>PT1872</name></trkpt>
<trkpt lat="54.453298" lon="-3.311539"><ele>579</ele><time>2022-03-28T13:40:40Z</time><name>PT1873</name></trkpt>
<trkpt lat="54.453302" lon="-3.311548"><ele>580</ele><time>2022-03-28T13:40:41Z</time><name>PT1874</name></trkpt>
<trkpt lat="54.453304" lon="-3.311564"><ele>579</ele><time>2022-03-28T13:40:43Z</time><name>PT1875</name></trkpt>
<trkpt lat="54.453307" lon="-3.311580"><ele>579</ele><time>2022-03-28T13:40:43Z</time><name>PT1876</name></trkpt>
<trkpt lat="54.453312" lon="-3.311593"><ele>579</ele><time>2022-03-28T13:40:44Z</time><name>PT1877</name></trkpt>
<trkpt lat="54.453317" lon="-3.311605"><ele>579</ele><time>2022-03-28T13:40:46Z</time><name>PT1878</name></trkpt>
<trkpt lat="54.453322" lon="-3.311616"><ele>579</ele><time>2022-03-28T13:40:46Z</time><name>PT1879</name></trkpt>
<trkpt lat="54.453328" lon="-3.311626"><ele>579</ele><time>2022-03-28T13:40:47Z</time><name>PT1880</name></trkpt>
<trkpt lat="54.453335" lon="-3.311640"><ele>579</ele><time>2022-03-28T13:40:49Z</time><name>PT1881</name></trkpt>
<trkpt lat="54.453338" lon="-3.311657"><ele>578</ele><time>2022-03-28T13:40:49Z</time><name>PT1882</name></trkpt>
<trkpt lat="54.453339" lon="-3.311678"><ele>578</ele><time>2022-03-28T13:40:50Z</time><name>PT1883</name></trkpt>
<trkpt lat="54.453341" lon="-3.311697"><ele>578</ele><time>2022-03-28T13:40:52Z</time><name>PT1884</name></trkpt>
<trkpt lat="54.453342" lon="-3.311717"><ele>578</ele><time>2022-03-28T13:40:52Z</time><name>PT1885</name></trkpt>
<trkpt lat="54.453342" lon="-3.311737"><ele>578</ele><time>2022-03-28T13:40:53Z</time><name>PT1886</name></trkpt>
<trkpt lat="54.453340" lon="-3.311752"><ele>578</ele><time>2022-03-28T13:40:55Z</time><name>PT1887</name></trkpt>
<trkpt lat="54.453338" lon="-3.311772"><ele>578</ele><time>2022-03-28T13:40:55Z</time><name>PT1888</name></trkpt>
<trkpt lat="54.453336" lon="-3.311792"><ele>578</ele><time>2022-03-28T13:40:56Z</time><name>PT1889</name></trkpt>
<trkpt lat="54.453335" lon="-3.311810"><ele>578</ele><time>2022-03-28T13:40:58Z</time><name>PT1890</name></trkpt>
<trkpt lat="54.453334" lon="-3.311825"><ele>578</ele><time>2022-03-28T13:40:58Z</time><name>PT1891</name></trkpt>
<trkpt lat="54.453333" lon="-3.311840"><ele>578</ele><time>2022-03-28T13:40:59Z</time><name>PT1892</name></trkpt>
<trkpt lat="54.453333" lon="-3.311857"><ele>577</ele><time>2022-03-28T13:41:01Z</time><name>PT1893</name></trkpt>
<trkpt lat="54.453335" lon="-3.311872"><ele>577</ele><time>2022-03-28T13:41:01Z</time><name>PT1894</name></trkpt>
<trkpt lat="54.453341" lon="-3.311886"><ele>577</ele><time>2022-03-28T13:41:02Z</time><name>PT1895</name></trkpt>
<trkpt lat="54.453348" lon="-3.311894"><ele>577</ele><time>2022-03-28T13:41:04Z</time><name>PT1896</name></trkpt>
<trkpt lat="54.453357" lon="-3.311898"><ele>577</ele><time>2022-03-28T13:41:04Z</time><name>PT1897</name></trkpt>
<trkpt lat="54.453367" lon="-3.311899"><ele>577</ele><time>2022-03-28T13:41:05Z</time><name>PT1898</name></trkpt>
<trkpt lat="54.453377" lon="-3.311900"><ele>577</ele><time>2022-03-28T13:41:07Z</time><name>PT1899</name></trkpt>
<trkpt lat="54.453387" lon="-3.311899"><ele>577</ele><time>2022-03-28T13:41:07Z</time><name>PT1900</name></trkpt>
<trkpt lat="54.453399" lon="-3.311898"><ele>577</ele><time>2022-03-28T13:41:08Z</time><name>PT1901</name></trkpt>
<trkpt lat="54.453412" lon="-3.311900"><ele>577</ele><time>2022-03-28T13:41:10Z</time><name>PT1902</name></trkpt>
<trkpt lat="54.453422" lon="-3.311903"><ele>577</ele><time>2022-03-28T13:41:10Z</time><name>PT1903</name></trkpt>
<trkpt lat="54.453432" lon="-3.311909"><ele>577</ele><time>2022-03-28T13:41:11Z</time><name>PT1904</name></trkpt>
<trkpt lat="54.453441" lon="-3.311916"><ele>576</ele><time>2022-03-28T13:41:13Z</time><name>PT1905</name></trkpt>
<trkpt lat="54.453449" lon="-3.311922"><ele>576</ele><time>2022-03-28T13:41:13Z</time><name>PT1906</name></trkpt>
<trkpt lat="54.453459" lon="-3.311932"><ele>576</ele><time>2022-03-28T13:41:14Z</time><name>PT1907</name></trkpt>
<trkpt lat="54.453494" lon="-3.311980"><ele>576</ele><time>2022-03-28T13:41:19Z</time><name>PT1908</name></trkpt>
<trkpt lat="54.453520" lon="-3.312009"><ele>576</ele><time>2022-03-28T13:41:22Z</time><name>PT1909</name></trkpt>
<trkpt lat="54.453547" lon="-3.312031"><ele>576</ele><time>2022-03-28T13:41:25Z</time><name>PT1910</name></trkpt>
<trkpt lat="54.453584" lon="-3.312037"><ele>575</ele><time>2022-03-28T13:41:28Z</time><name>PT1911</name></trkpt>
<trkpt lat="54.453620" lon="-3.312014"><ele>575</ele><time>2022-03-28T13:41:32Z</time><name>PT1912</name></trkpt>
<trkpt lat="54.453661" lon="-3.312017"><ele>575</ele><time>2022-03-28T13:41:37Z</time><name>PT1913</name></trkpt>
<trkpt lat="54.453706" lon="-3.312020"><ele>575</ele><time>2022-03-28T13:41:40Z</time><name>PT1914</name></trkpt>
<trkpt lat="54.453736" lon="-3.312015"><ele>575</ele><time>2022-03-28T13:41:43Z</time><name>PT1915</name></trkpt>
<trkpt lat="54.453769" lon="-3.311998"><ele>575</ele><time>2022-03-28T13:41:47Z</time><name>PT1916</name></trkpt>
<trkpt lat="54.453794" lon="-3.311963"><ele>575</ele><time>2022-03-28T13:41:50Z</time><name>PT1917</name></trkpt>
<trkpt lat="54.453825" lon="-3.311924"><ele>576</ele><time>2022-03-28T13:41:55Z</time><name>PT1918</name></trkpt>
<trkpt lat="54.453863" lon="-3.311893"><ele>576</ele><time>2022-03-28T13:41:58Z</time><name>PT1919</name></trkpt>
<trkpt lat="54.453901" lon="-3.311852"><ele>576</ele><time>2022-03-28T13:42:02Z</time><name>PT1920</name></trkpt>
<trkpt lat="54.453944" lon="-3.311819"><ele>575</ele><time>2022-03-28T13:42:07Z</time><name>PT1921</name></trkpt>
<trkpt lat="54.453985" lon="-3.311803"><ele>576</ele><time>2022-03-28T13:42:10Z</time><name>PT1922</name></trkpt>
<trkpt lat="54.454030" lon="-3.311798"><ele>576</ele><time>2022-03-28T13:42:14Z</time><name>PT1923</name></trkpt>
<trkpt lat="54.454068" lon="-3.311818"><ele>575</ele><time>2022-03-28T13:42:17Z</time><name>PT1924</name></trkpt>
<trkpt lat="54.454111" lon="-3.311842"><ele>575</ele><time>2022-03-28T13:42:22Z</time><name>PT1925</name></trkpt>
<trkpt lat="54.454139" lon="-3.311848"><ele>574</ele><time>2022-03-28T13:42:25Z</time><name>PT1926</name></trkpt>
<trkpt lat="54.454172" lon="-3.311869"><ele>575</ele><time>2022-03-28T13:42:28Z</time><name>PT1927</name></trkpt>
<trkpt lat="54.454216" lon="-3.311893"><ele>574</ele><time>2022-03-28T13:42:31Z</time><name>PT1928</name></trkpt>
<trkpt lat="54.454259" lon="-3.311905"><ele>574</ele><time>2022-03-28T13:42:35Z</time><name>PT1929</name></trkpt>
<trkpt lat="54.454291" lon="-3.311903"><ele>575</ele><time>2022-03-28T13:42:38Z</time><name>PT1930</name></trkpt>
<trkpt lat="54.454338" lon="-3.311911"><ele>574</ele><time>2022-03-28T13:42:43Z</time><name>PT1931</name></trkpt>
<trkpt lat="54.454346" lon="-3.311906"><ele>574</ele><time>2022-03-28T13:42:43Z</time><name>PT1932</name></trkpt>
<trkpt lat="54.454354" lon="-3.311897"><ele>574</ele><time>2022-03-28T13:42:44Z</time><name>PT1933</name></trkpt>
<trkpt lat="54.454365" lon="-3.311888"><ele>574</ele><time>2022-03-28T13:42:46Z</time><name>PT1934</name></trkpt>
<trkpt lat="54.454377" lon="-3.311883"><ele>574</ele><time>2022-03-28T13:42:46Z</time><name>PT1935</name></trkpt>
<trkpt lat="54.454389" lon="-3.311879"><ele>574</ele><time>2022-03-28T13:42:47Z</time><name>PT1936</name></trkpt>
<trkpt lat="54.454398" lon="-3.311873"><ele>575</ele><time>2022-03-28T13:42:49Z</time><name>PT1937</name></trkpt>
<trkpt lat="54.454407" lon="-3.311867"><ele>575</ele><time>2022-03-28T13:42:49Z</time><name>PT1938</name></trkpt>
<trkpt lat="54.454417" lon="-3.311861"><ele>575</ele><time>2022-03-28T13:42:50Z</time><name>PT1939</name></trkpt>
<trkpt lat="54.454427" lon="-3.311858"><ele>575</ele><time>2022-03-28T13:42:52Z</time><name>PT1940</name></trkpt>
<trkpt lat="54.454435" lon="-3.311850"><ele>575</ele><time>2022-03-28T13:42:52Z</time><name>PT1941</name></trkpt>
<trkpt lat="54.454442" lon="-3.311843"><ele>575</ele><time>2022-03-28T13:42:53Z</time><name>PT1942</name></trkpt>
<trkpt lat="54.454452" lon="-3.311837"><ele>575</ele><time>2022-03-28T13:42:55Z</time><name>PT1943</name></trkpt>
<trkpt lat="54.454463" lon="-3.311831"><ele>575</ele><time>2022-03-28T13:42:55Z</time><name>PT1944</name></trkpt>
<trkpt lat="54.454473" lon="-3.311826"><ele>574</ele><time>2022-03-28T13:42:56Z</time><name>PT1945</name></trkpt>
<trkpt lat="54.454483" lon="-3.311818"><ele>575</ele><time>2022-03-28T13:42:58Z</time><name>PT1946</name></trkpt>
<trkpt lat="54.454492" lon="-3.311813"><ele>575</ele><time>2022-03-28T13:42:58Z</time><name>PT1947</name></trkpt>
<trkpt lat="54.454502" lon="-3.311809"><ele>574</ele><time>2022-03-28T13:42:59Z</time><name>PT1948</name></trkpt>
<trkpt lat="54.454512" lon="-3.311800"><ele>574</ele><time>2022-03-28T13:43:01Z</time><name>PT1949</name></trkpt>
<trkpt lat="54.454520" lon="-3.311792"><ele>574</ele><time>2022-03-28T13:43:01Z</time><name>PT1950</name></trkpt>
<trkpt lat="54.454529" lon="-3.311788"><ele>574</ele><time>2022-03-28T13:43:02Z</time><name>PT1951</name></trkpt>
<trkpt lat="54.454540" lon="-3.311781"><ele>574</ele><time>2022-03-28T13:43:04Z</time><name>PT1952</name></trkpt>
<trkpt lat="54.454550" lon="-3.311771"><ele>574</ele><time>2022-03-28T13:43:04Z</time><name>PT1953</name></trkpt>
<trkpt lat="54.454560" lon="-3.311760"><ele>574</ele><time>2022-03-28T13:43:05Z</time><name>PT1954</name></trkpt>
<trkpt lat="54.454570" lon="-3.311748"><ele>573</ele><time>2022-03-28T13:43:07Z</time><name>PT1955</name></trkpt>
<trkpt lat="54.454577" lon="-3.311735"><ele>573</ele><time>2022-03-28T13:43:07Z</time><name>PT1956</name></trkpt>
<trkpt lat="54.454583" lon="-3.311720"><ele>574</ele><time>2022-03-28T13:43:08Z</time><name>PT1957</name></trkpt>
<trkpt lat="54.454591" lon="-3.311702"><ele>574</ele><time>2022-03-28T13:43:10Z</time><name>PT1958</name></trkpt>
<trkpt lat="54.454597" lon="-3.311687"><ele>574</ele><time>2022-03-28T13:43:10Z</time><name>PT1959</name></trkpt>
<trkpt lat="54.454603" lon="-3.311675"><ele>575</ele><time>2022-03-28T13:43:11Z</time><name>PT1960</name></trkpt>
<trkpt lat="54.454609" lon="-3.311662"><ele>575</ele><time>2022-03-28T13:43:13Z</time><name>PT1961</name></trkpt>
<trkpt lat="54.454616" lon="-3.311648"><ele>575</ele><time>2022-03-28T13:43:13Z</time><name>PT1962</name></trkpt>
<trkpt lat="54.454624" lon="-3.311634"><ele>575</ele><time>2022-03-28T13:43:14Z</time><name>PT1963</name></trkpt>
<trkpt lat="54.454630" lon="-3.311620"><ele>575</ele><time>2022-03-28T13:43:16Z</time><name>PT1964</name></trkpt>
<trkpt lat="54.454636" lon="-3.311602"><ele>575</ele><time>2022-03-28T13:43:16Z</time><name>PT1965</name></trkpt>
<trkpt lat="54.454642" lon="-3.311587"><ele>575</ele><time>2022-03-28T13:43:17Z</time><name>PT1966</name></trkpt>
<trkpt lat="54.454649" lon="-3.311574"><ele>575</ele><time>2022-03-28T13:43:19Z</time><name>PT1967</name></trkpt>
<trkpt lat="54.454656" lon="-3.311556"><ele>575</ele><time>2022-03-28T13:43:19Z</time><name>PT1968</name></trkpt>
<trkpt lat="54.454664" lon="-3.311544"><ele>575</ele><time>2022-03-28T13:43:20Z</time><name>PT1969</name></trkpt>
<trkpt lat="54.454671" lon="-3.311533"><ele>576</ele><time>2022-03-28T13:43:22Z</time><name>PT1970</name></trkpt>
<trkpt lat="54.454680" lon="-3.311524"><ele>576</ele><time>2022-03-28T13:43:22Z</time><name>PT1971</name></trkpt>
<trkpt lat="54.454688" lon="-3.311515"><ele>576</ele><time>2022-03-28T13:43:23Z</time><name>PT1972</name></trkpt>
<trkpt lat="54.454697" lon="-3.311506"><ele>577</ele><time>2022-03-28T13:43:25Z</time><name>PT1973</name></trkpt>
<trkpt lat="54.454705" lon="-3.311497"><ele>577</ele><time>2022-03-28T13:43:25Z</time><name>PT1974</name></trkpt>
<trkpt lat="54.454715" lon="-3.311493"><ele>577</ele><time>2022-03-28T13:43:26Z</time><name>PT1975</name></trkpt>
<trkpt lat="54.454726" lon="-3.311488"><ele>577</ele><time>2022-03-28T13:43:28Z</time><name>PT1976</name></trkpt>
<trkpt lat="54.454734" lon="-3.311483"><ele>577</ele><time>2022-03-28T13:43:28Z</time><name>PT1977</name></trkpt>
<trkpt lat="54.454743" lon="-3.311481"><ele>577</ele><time>2022-03-28T13:43:29Z</time><name>PT1978</name></trkpt>
<trkpt lat="54.454755" lon="-3.311477"><ele>577</ele><time>2022-03-28T13:43:31Z</time><name>PT1979</name></trkpt>
<trkpt lat="54.454768" lon="-3.311471"><ele>577</ele><time>2022-03-28T13:43:31Z</time><name>PT1980</name></trkpt>
<trkpt lat="54.454778" lon="-3.311461"><ele>577</ele><time>2022-03-28T13:43:32Z</time><name>PT1981</name></trkpt>
<trkpt lat="54.454788" lon="-3.311448"><ele>577</ele><time>2022-03-28T13:43:34Z</time><name>PT1982</name></trkpt>
<trkpt lat="54.454797" lon="-3.311439"><ele>577</ele><time>2022-03-28T13:43:34Z</time><name>PT1983</name></trkpt>
<trkpt lat="54.454805" lon="-3.311431"><ele>577</ele><time>2022-03-28T13:43:35Z</time><name>PT1984</name></trkpt>
<trkpt lat="54.454814" lon="-3.311424"><ele>578</ele><time>2022-03-28T13:43:37Z</time><name>PT1985</name></trkpt>
<trkpt lat="54.454823" lon="-3.311416"><ele>578</ele><time>2022-03-28T13:43:37Z</time><name>PT1986</name></trkpt>
<trkpt lat="54.454832" lon="-3.311409"><ele>578</ele><time>2022-03-28T13:43:38Z</time><name>PT1987</name></trkpt>
<trkpt lat="54.454841" lon="-3.311401"><ele>578</ele><time>2022-03-28T13:43:40Z</time><name>PT1988</name></trkpt>
<trkpt lat="54.454848" lon="-3.311394"><ele>578</ele><time>2022-03-28T13:43:40Z</time><name>PT1989</name></trkpt>
<trkpt lat="54.454855" lon="-3.311380"><ele>578</ele><time>2022-03-28T13:43:41Z</time><name>PT1990</name></trkpt>
<trkpt lat="54.454860" lon="-3.311376"><ele>578</ele><time>2022-03-28T13:43:43Z</time><name>PT1991</name></trkpt>
<trkpt lat="54.454871" lon="-3.311379"><ele>578</ele><time>2022-03-28T13:43:43Z</time><name>PT1992</name></trkpt>
<trkpt lat="54.454879" lon="-3.311379"><ele>579</ele><time>2022-03-28T13:43:45Z</time><name>PT1993</name></trkpt>
<trkpt lat="54.454885" lon="-3.311379"><ele>579</ele><time>2022-03-28T13:43:46Z</time><name>PT1994</name></trkpt>
<trkpt lat="54.454888" lon="-3.311381"><ele>579</ele><time>2022-03-28T13:43:46Z</time><name>PT1995</name></trkpt>
<trkpt lat="54.454894" lon="-3.311384"><ele>579</ele><time>2022-03-28T13:43:47Z</time><name>PT1996</name></trkpt>
<trkpt lat="54.454903" lon="-3.311387"><ele>579</ele><time>2022-03-28T13:43:49Z</time><name>PT1997</name></trkpt>
<trkpt lat="54.454909" lon="-3.311393"><ele>579</ele><time>2022-03-28T13:43:49Z</time><name>PT1998</name></trkpt>
<trkpt lat="54.454917" lon="-3.311396"><ele>579</ele><time>2022-03-28T13:43:50Z</time><name>PT1999</name></trkpt>
<trkpt lat="54.454925" lon="-3.311397"><ele>579</ele><time>2022-03-28T13:43:52Z</time><name>PT2000</name></trkpt>
<trkpt lat="54.454934" lon="-3.311397"><ele>579</ele><time>2022-03-28T13:43:52Z</time><name>PT2001</name></trkpt>
<trkpt lat="54.454944" lon="-3.311397"><ele>579</ele><time>2022-03-28T13:43:53Z</time><name>PT2002</name></trkpt>
<trkpt lat="54.454953" lon="-3.311398"><ele>579</ele><time>2022-03-28T13:43:55Z</time><name>PT2003</name></trkpt>
<trkpt lat="54.454962" lon="-3.311404"><ele>579</ele><time>2022-03-28T13:43:55Z</time><name>PT2004</name></trkpt>
<trkpt lat="54.454971" lon="-3.311409"><ele>579</ele><time>2022-03-28T13:43:56Z</time><name>PT2005</name></trkpt>
<trkpt lat="54.454980" lon="-3.311415"><ele>579</ele><time>2022-03-28T13:43:58Z</time><name>PT2006</name></trkpt>
<trkpt lat="54.454991" lon="-3.311418"><ele>579</ele><time>2022-03-28T13:43:58Z</time><name>PT2007</name></trkpt>
<trkpt lat="54.455001" lon="-3.311425"><ele>579</ele><time>2022-03-28T13:44:00Z</time><name>PT2008</name></trkpt>
<trkpt lat="54.455010" lon="-3.311429"><ele>579</ele><time>2022-03-28T13:44:01Z</time><name>PT2009</name></trkpt>
<trkpt lat="54.455019" lon="-3.311434"><ele>579</ele><time>2022-03-28T13:44:01Z</time><name>PT2010</name></trkpt>
<trkpt lat="54.455029" lon="-3.311438"><ele>579</ele><time>2022-03-28T13:44:02Z</time><name>PT2011</name></trkpt>
<trkpt lat="54.455040" lon="-3.311442"><ele>579</ele><time>2022-03-28T13:44:04Z</time><name>PT2012</name></trkpt>
<trkpt lat="54.455048" lon="-3.311445"><ele>579</ele><time>2022-03-28T13:44:04Z</time><name>PT2013</name></trkpt>
<trkpt lat="54.455056" lon="-3.311447"><ele>579</ele><time>2022-03-28T13:44:05Z</time><name>PT2014</name></trkpt>
<trkpt lat="54.455068" lon="-3.311452"><ele>579</ele><time>2022-03-28T13:44:07Z</time><name>PT2015</name></trkpt>
<trkpt lat="54.455080" lon="-3.311457"><ele>579</ele><time>2022-03-28T13:44:07Z</time><name>PT2016</name></trkpt>
<trkpt lat="54.455090" lon="-3.311463"><ele>579</ele><time>2022-03-28T13:44:08Z</time><name>PT2017</name></trkpt>
<trkpt lat="54.455097" lon="-3.311470"><ele>579</ele><time>2022-03-28T13:44:10Z</time><name>PT2018</name></trkpt>
<trkpt lat="54.455103" lon="-3.311474"><ele>579</ele><time>2022-03-28T13:44:10Z</time><name>PT2019</name></trkpt>
<trkpt lat="54.455110" lon="-3.311475"><ele>579</ele><time>2022-03-28T13:44:11Z</time><name>PT2020</name></trkpt>
<trkpt lat="54.455118" lon="-3.311475"><ele>579</ele><time>2022-03-28T13:44:13Z</time><name>PT2021</name></trkpt>
<trkpt lat="54.455129" lon="-3.311474"><ele>580</ele><time>2022-03-28T13:44:13Z</time><name>PT2022</name></trkpt>
<trkpt lat="54.455139" lon="-3.311475"><ele>580</ele><time>2022-03-28T13:44:15Z</time><name>PT2023</name></trkpt>
<trkpt lat="54.455148" lon="-3.311478"><ele>580</ele><time>2022-03-28T13:44:16Z</time><name>PT2024</name></trkpt>
<trkpt lat="54.455155" lon="-3.311482"><ele>579</ele><time>2022-03-28T13:44:16Z</time><name>PT2025</name></trkpt>
<trkpt lat="54.455165" lon="-3.311482"><ele>579</ele><time>2022-03-28T13:44:17Z</time><name>PT2026</name></trkpt>
<trkpt lat="54.455172" lon="-3.311480"><ele>580</ele><time>2022-03-28T13:44:19Z</time><name>PT2027</name></trkpt>
<trkpt lat="54.455179" lon="-3.311475"><ele>580</ele><time>2022-03-28T13:44:19Z</time><name>PT2028</name></trkpt>
<trkpt lat="54.455188" lon="-3.311472"><ele>580</ele><time>2022-03-28T13:44:20Z</time><name>PT2029</name></trkpt>
<trkpt lat="54.455196" lon="-3.311465"><ele>580</ele><time>2022-03-28T13:44:22Z</time><name>PT2030</name></trkpt>
<trkpt lat="54.455205" lon="-3.311457"><ele>580</ele><time>2022-03-28T13:44:22Z</time><name>PT2031</name></trkpt>
<trkpt lat="54.455214" lon="-3.311449"><ele>580</ele><time>2022-03-28T13:44:23Z</time><name>PT2032</name></trkpt>
<trkpt lat="54.455220" lon="-3.311441"><ele>580</ele><time>2022-03-28T13:44:25Z</time><name>PT2033</name></trkpt>
<trkpt lat="54.455228" lon="-3.311435"><ele>579</ele><time>2022-03-28T13:44:25Z</time><name>PT2034</name></trkpt>
<trkpt lat="54.455235" lon="-3.311427"><ele>578</ele><time>2022-03-28T13:44:26Z</time><name>PT2035</name></trkpt>
<trkpt lat="54.455241" lon="-3.311415"><ele>578</ele><time>2022-03-28T13:44:28Z</time><name>PT2036</name></trkpt>
<trkpt lat="54.455247" lon="-3.311402"><ele>578</ele><time>2022-03-28T13:44:28Z</time><name>PT2037</name></trkpt>
<trkpt lat="54.455256" lon="-3.311393"><ele>578</ele><time>2022-03-28T13:44:29Z</time><name>PT2038</name></trkpt>
<trkpt lat="54.455267" lon="-3.311387"><ele>578</ele><time>2022-03-28T13:44:31Z</time><name>PT2039</name></trkpt>
<trkpt lat="54.455276" lon="-3.311385"><ele>578</ele><time>2022-03-28T13:44:31Z</time><name>PT2040</name></trkpt>
<trkpt lat="54.455286" lon="-3.311384"><ele>578</ele><time>2022-03-28T13:44:32Z</time><name>PT2041</name></trkpt>
<trkpt lat="54.455297" lon="-3.311383"><ele>578</ele><time>2022-03-28T13:44:34Z</time><name>PT2042</name></trkpt>
<trkpt lat="54.455306" lon="-3.311384"><ele>578</ele><time>2022-03-28T13:44:34Z</time><name>PT2043</name></trkpt>
<trkpt lat="54.455315" lon="-3.311387"><ele>578</ele><time>2022-03-28T13:44:35Z</time><name>PT2044</name></trkpt>
<trkpt lat="54.455323" lon="-3.311390"><ele>578</ele><time>2022-03-28T13:44:37Z</time><name>PT2045</name></trkpt>
<trkpt lat="54.455331" lon="-3.311392"><ele>578</ele><time>2022-03-28T13:44:37Z</time><name>PT2046</name></trkpt>
<trkpt lat="54.455338" lon="-3.311388"><ele>578</ele><time>2022-03-28T13:44:38Z</time><name>PT2047</name></trkpt>
<trkpt lat="54.455344" lon="-3.311380"><ele>578</ele><time>2022-03-28T13:44:40Z</time><name>PT2048</name></trkpt>
<trkpt lat="54.455351" lon="-3.311372"><ele>578</ele><time>2022-03-28T13:44:40Z</time><name>PT2049</name></trkpt>
<trkpt lat="54.455359" lon="-3.311364"><ele>578</ele><time>2022-03-28T13:44:41Z</time><name>PT2050</name></trkpt>
<trkpt lat="54.455384" lon="-3.311357"><ele>578</ele><time>2022-03-28T13:44:44Z</time><name>PT2051</name></trkpt>
<trkpt lat="54.455410" lon="-3.311352"><ele>578</ele><time>2022-03-28T13:44:47Z</time><name>PT2052</name></trkpt>
<trkpt lat="54.455443" lon="-3.311358"><ele>577</ele><time>2022-03-28T13:44:52Z</time><name>PT2053</name></trkpt>
<trkpt lat="54.455469" lon="-3.311354"><ele>576</ele><time>2022-03-28T13:44:55Z</time><name>PT2054</name></trkpt>
<trkpt lat="54.455499" lon="-3.311344"><ele>575</ele><time>2022-03-28T13:44:58Z</time><name>PT2055</name></trkpt>
<trkpt lat="54.455522" lon="-3.311335"><ele>574</ele><time>2022-03-28T13:45:01Z</time><name>PT2056</name></trkpt>
<trkpt lat="54.455547" lon="-3.311328"><ele>573</ele><time>2022-03-28T13:45:04Z</time><name>PT2057</name></trkpt>
<trkpt lat="54.455584" lon="-3.311329"><ele>572</ele><time>2022-03-28T13:45:08Z</time><name>PT2058</name></trkpt>
<trkpt lat="54.455615" lon="-3.311331"><ele>573</ele><time>2022-03-28T13:45:11Z</time><name>PT2059</name></trkpt>
<trkpt lat="54.455648" lon="-3.311348"><ele>572</ele><time>2022-03-28T13:45:16Z</time><name>PT2060</name></trkpt>
<trkpt lat="54.455675" lon="-3.311356"><ele>571</ele><time>2022-03-28T13:45:19Z</time><name>PT2061</name></trkpt>
<trkpt lat="54.455709" lon="-3.311374"><ele>571</ele><time>2022-03-28T13:45:22Z</time><name>PT2062</name></trkpt>
<trkpt lat="54.455732" lon="-3.311386"><ele>571</ele><time>2022-03-28T13:45:25Z</time><name>PT2063</name></trkpt>
<trkpt lat="54.455766" lon="-3.311396"><ele>570</ele><time>2022-03-28T13:45:29Z</time><name>PT2064</name></trkpt>
<trkpt lat="54.455792" lon="-3.311400"><ele>570</ele><time>2022-03-28T13:45:32Z</time><name>PT2065</name></trkpt>
<trkpt lat="54.455817" lon="-3.311401"><ele>569</ele><time>2022-03-28T13:45:35Z</time><name>PT2066</name></trkpt>
<trkpt lat="54.455835" lon="-3.311401"><ele>569</ele><time>2022-03-28T13:45:38Z</time><name>PT2067</name></trkpt>
<trkpt lat="54.455858" lon="-3.311384"><ele>568</ele><time>2022-03-28T13:45:41Z</time><name>PT2068</name></trkpt>
<trkpt lat="54.455891" lon="-3.311374"><ele>568</ele><time>2022-03-28T13:45:46Z</time><name>PT2069</name></trkpt>
<trkpt lat="54.455917" lon="-3.311380"><ele>568</ele><time>2022-03-28T13:45:49Z</time><name>PT2070</name></trkpt>
<trkpt lat="54.455940" lon="-3.311396"><ele>568</ele><time>2022-03-28T13:45:52Z</time><name>PT2071</name></trkpt>
<trkpt lat="54.455967" lon="-3.311428"><ele>567</ele><time>2022-03-28T13:45:55Z</time><name>PT2072</name></trkpt>
<trkpt lat="54.455993" lon="-3.311444"><ele>567</ele><time>2022-03-28T13:45:58Z</time><name>PT2073</name></trkpt>
<trkpt lat="54.456025" lon="-3.311467"><ele>567</ele><time>2022-03-28T13:46:02Z</time><name>PT2074</name></trkpt>
<trkpt lat="54.456057" lon="-3.311486"><ele>567</ele><time>2022-03-28T13:46:07Z</time><name>PT2075</name></trkpt>
<trkpt lat="54.456087" lon="-3.311505"><ele>566</ele><time>2022-03-28T13:46:10Z</time><name>PT2076</name></trkpt>
<trkpt lat="54.456122" lon="-3.311529"><ele>566</ele><time>2022-03-28T13:46:14Z</time><name>PT2077</name></trkpt>
<trkpt lat="54.456165" lon="-3.311537"><ele>566</ele><time>2022-03-28T13:46:19Z</time><name>PT2078</name></trkpt>
<trkpt lat="54.456206" lon="-3.311522"><ele>566</ele><time>2022-03-28T13:46:22Z</time><name>PT2079</name></trkpt>
<trkpt lat="54.456231" lon="-3.311506"><ele>566</ele><time>2022-03-28T13:46:25Z</time><name>PT2080</name></trkpt>
<trkpt lat="54.456258" lon="-3.311501"><ele>566</ele><time>2022-03-28T13:46:29Z</time><name>PT2081</name></trkpt>
<trkpt lat="54.456279" lon="-3.311506"><ele>565</ele><time>2022-03-28T13:46:32Z</time><name>PT2082</name></trkpt>
<trkpt lat="54.456303" lon="-3.311508"><ele>565</ele><time>2022-03-28T13:46:35Z</time><name>PT2083</name></trkpt>
<trkpt lat="54.456327" lon="-3.311509"><ele>564</ele><time>2022-03-28T13:46:38Z</time><name>PT2084</name></trkpt>
<trkpt lat="54.456349" lon="-3.311494"><ele>563</ele><time>2022-03-28T13:46:43Z</time><name>PT2085</name></trkpt>
<trkpt lat="54.456377" lon="-3.311496"><ele>562</ele><time>2022-03-28T13:46:46Z</time><name>PT2086</name></trkpt>
<trkpt lat="54.456405" lon="-3.311518"><ele>562</ele><time>2022-03-28T13:46:50Z</time><name>PT2087</name></trkpt>
<trkpt lat="54.456439" lon="-3.311531"><ele>561</ele><time>2022-03-28T13:46:55Z</time><name>PT2088</name></trkpt>
<trkpt lat="54.456464" lon="-3.311554"><ele>561</ele><time>2022-03-28T13:46:58Z</time><name>PT2089</name></trkpt>
<trkpt lat="54.456491" lon="-3.311572"><ele>560</ele><time>2022-03-28T13:47:01Z</time><name>PT2090</name></trkpt>
<trkpt lat="54.456507" lon="-3.311596"><ele>559</ele><time>2022-03-28T13:47:05Z</time><name>PT2091</name></trkpt>
<trkpt lat="54.456517" lon="-3.311627"><ele>558</ele><time>2022-03-28T13:47:10Z</time><name>PT2092</name></trkpt>
<trkpt lat="54.456524" lon="-3.311645"><ele>557</ele><time>2022-03-28T13:47:13Z</time><name>PT2093</name></trkpt>
<trkpt lat="54.456529" lon="-3.311661"><ele>557</ele><time>2022-03-28T13:47:16Z</time><name>PT2094</name></trkpt>
<trkpt lat="54.456532" lon="-3.311661"><ele>557</ele><time>2022-03-28T13:47:19Z</time><name>PT2095</name></trkpt>
<trkpt lat="54.456534" lon="-3.311673"><ele>556</ele><time>2022-03-28T13:47:22Z</time><name>PT2096</name></trkpt>
<trkpt lat="54.456546" lon="-3.311692"><ele>556</ele><time>2022-03-28T13:47:25Z</time><name>PT2097</name></trkpt>
<trkpt lat="54.456557" lon="-3.311693"><ele>556</ele><time>2022-03-28T13:47:28Z</time><name>PT2098</name></trkpt>
<trkpt lat="54.456577" lon="-3.311684"><ele>555</ele><time>2022-03-28T13:47:32Z</time><name>PT2099</name></trkpt>
<trkpt lat="54.456599" lon="-3.311688"><ele>555</ele><time>2022-03-28T13:47:37Z</time><name>PT2100</name></trkpt>
<trkpt lat="54.456608" lon="-3.311714"><ele>554</ele><time>2022-03-28T13:47:40Z</time><name>PT2101</name></trkpt>
<trkpt lat="54.456621" lon="-3.311730"><ele>553</ele><time>2022-03-28T13:47:44Z</time><name>PT2102</name></trkpt>
<trkpt lat="54.456633" lon="-3.311753"><ele>552</ele><time>2022-03-28T13:47:49Z</time><name>PT2103</name></trkpt>
<trkpt lat="54.456650" lon="-3.311769"><ele>551</ele><time>2022-03-28T13:47:52Z</time><name>PT2104</name></trkpt>
<trkpt lat="54.456668" lon="-3.311795"><ele>551</ele><time>2022-03-28T13:47:55Z</time><name>PT2105</name></trkpt>
<trkpt lat="54.456678" lon="-3.311826"><ele>550</ele><time>2022-03-28T13:47:59Z</time><name>PT2106</name></trkpt>
<trkpt lat="54.456684" lon="-3.311846"><ele>549</ele><time>2022-03-28T13:48:02Z</time><name>PT2107</name></trkpt>
<trkpt lat="54.456699" lon="-3.311873"><ele>548</ele><time>2022-03-28T13:48:07Z</time><name>PT2108</name></trkpt>
<trkpt lat="54.456700" lon="-3.311878"><ele>548</ele><time>2022-03-28T13:48:10Z</time><name>PT2109</name></trkpt>
<trkpt lat="54.456701" lon="-3.311878"><ele>548</ele><time>2022-03-28T13:48:10Z</time><name>PT2110</name></trkpt>
<trkpt lat="54.456702" lon="-3.311878"><ele>548</ele><time>2022-03-28T13:48:11Z</time><name>PT2111</name></trkpt>
<trkpt lat="54.456705" lon="-3.311888"><ele>548</ele><time>2022-03-28T13:48:16Z</time><name>PT2112</name></trkpt>
<trkpt lat="54.456706" lon="-3.311906"><ele>548</ele><time>2022-03-28T13:48:17Z</time><name>PT2113</name></trkpt>
<trkpt lat="54.456707" lon="-3.311917"><ele>548</ele><time>2022-03-28T13:48:19Z</time><name>PT2114</name></trkpt>
<trkpt lat="54.456708" lon="-3.311924"><ele>548</ele><time>2022-03-28T13:48:19Z</time><name>PT2115</name></trkpt>
<trkpt lat="54.456707" lon="-3.311942"><ele>547</ele><time>2022-03-28T13:48:20Z</time><name>PT2116</name></trkpt>
<trkpt lat="54.456707" lon="-3.311955"><ele>547</ele><time>2022-03-28T13:48:22Z</time><name>PT2117</name></trkpt>
<trkpt lat="54.456701" lon="-3.311965"><ele>547</ele><time>2022-03-28T13:48:22Z</time><name>PT2118</name></trkpt>
<trkpt lat="54.456701" lon="-3.311972"><ele>547</ele><time>2022-03-28T13:48:23Z</time><name>PT2119</name></trkpt>
<trkpt lat="54.456699" lon="-3.311981"><ele>546</ele><time>2022-03-28T13:48:25Z</time><name>PT2120</name></trkpt>
<trkpt lat="54.456702" lon="-3.311992"><ele>545</ele><time>2022-03-28T13:48:25Z</time><name>PT2121</name></trkpt>
<trkpt lat="54.456704" lon="-3.312003"><ele>545</ele><time>2022-03-28T13:48:26Z</time><name>PT2122</name></trkpt>
<trkpt lat="54.456707" lon="-3.312011"><ele>545</ele><time>2022-03-28T13:48:28Z</time><name>PT2123</name></trkpt>
<trkpt lat="54.456712" lon="-3.312022"><ele>546</ele><time>2022-03-28T13:48:28Z</time><name>PT2124</name></trkpt>
<trkpt lat="54.456719" lon="-3.312034"><ele>545</ele><time>2022-03-28T13:48:29Z</time><name>PT2125</name></trkpt>
<trkpt lat="54.456726" lon="-3.312048"><ele>545</ele><time>2022-03-28T13:48:31Z</time><name>PT2126</name></trkpt>
<trkpt lat="54.456732" lon="-3.312058"><ele>545</ele><time>2022-03-28T13:48:31Z</time><name>PT2127</name></trkpt>
<trkpt lat="54.456735" lon="-3.312068"><ele>545</ele><time>2022-03-28T13:48:32Z</time><name>PT2128</name></trkpt>
<trkpt lat="54.456737" lon="-3.312077"><ele>545</ele><time>2022-03-28T13:48:34Z</time><name>PT2129</name></trkpt>
<trkpt lat="54.456739" lon="-3.312082"><ele>544</ele><time>2022-03-28T13:48:34Z</time><name>PT2130</name></trkpt>
<trkpt lat="54.456746" lon="-3.312091"><ele>544</ele><time>2022-03-28T13:48:35Z</time><name>PT2131</name></trkpt>
<trkpt lat="54.456751" lon="-3.312100"><ele>544</ele><time>2022-03-28T13:48:37Z</time><name>PT2132</name></trkpt>
<trkpt lat="54.456755" lon="-3.312107"><ele>544</ele><time>2022-03-28T13:48:37Z</time><name>PT2133</name></trkpt>
<trkpt lat="54.456762" lon="-3.312116"><ele>544</ele><time>2022-03-28T13:48:38Z</time><name>PT2134</name></trkpt>
<trkpt lat="54.456765" lon="-3.312123"><ele>544</ele><time>2022-03-28T13:48:40Z</time><name>PT2135</name></trkpt>
<trkpt lat="54.456771" lon="-3.312131"><ele>543</ele><time>2022-03-28T13:48:40Z</time><name>PT2136</name></trkpt>
<trkpt lat="54.456779" lon="-3.312137"><ele>543</ele><time>2022-03-28T13:48:41Z</time><name>PT2137</name></trkpt>
<trkpt lat="54.456785" lon="-3.312143"><ele>543</ele><time>2022-03-28T13:48:43Z</time><name>PT2138</name></trkpt>
<trkpt lat="54.456789" lon="-3.312149"><ele>543</ele><time>2022-03-28T13:48:43Z</time><name>PT2139</name></trkpt>
<trkpt lat="54.456795" lon="-3.312156"><ele>542</ele><time>2022-03-28T13:48:44Z</time><name>PT2140</name></trkpt>
<trkpt lat="54.456800" lon="-3.312160"><ele>542</ele><time>2022-03-28T13:48:46Z</time><name>PT2141</name></trkpt>
<trkpt lat="54.456806" lon="-3.312164"><ele>542</ele><time>2022-03-28T13:48:46Z</time><name>PT2142</name></trkpt>
<trkpt lat="54.456812" lon="-3.312166"><ele>542</ele><time>2022-03-28T13:48:47Z</time><name>PT2143</name></trkpt>
<trkpt lat="54.456819" lon="-3.312167"><ele>542</ele><time>2022-03-28T13:48:49Z</time><name>PT2144</name></trkpt>
<trkpt lat="54.456824" lon="-3.312170"><ele>541</ele><time>2022-03-28T13:48:49Z</time><name>PT2145</name></trkpt>
<trkpt lat="54.456830" lon="-3.312175"><ele>541</ele><time>2022-03-28T13:48:50Z</time><name>PT2146</name></trkpt>
<trkpt lat="54.456837" lon="-3.312182"><ele>541</ele><time>2022-03-28T13:48:52Z</time><name>PT2147</name></trkpt>
<trkpt lat="54.456845" lon="-3.312192"><ele>541</ele><time>2022-03-28T13:48:52Z</time><name>PT2148</name></trkpt>
<trkpt lat="54.456852" lon="-3.312200"><ele>540</ele><time>2022-03-28T13:48:53Z</time><name>PT2149</name></trkpt>
<trkpt lat="54.456860" lon="-3.312205"><ele>540</ele><time>2022-03-28T13:48:55Z</time><name>PT2150</name></trkpt>
<trkpt lat="54.456868" lon="-3.312212"><ele>540</ele><time>2022-03-28T13:48:55Z</time><name>PT2151</name></trkpt>
<trkpt lat="54.456874" lon="-3.312222"><ele>539</ele><time>2022-03-28T13:48:56Z</time><name>PT2152</name></trkpt>
<trkpt lat="54.456878" lon="-3.312230"><ele>539</ele><time>2022-03-28T13:48:58Z</time><name>PT2153</name></trkpt>
<trkpt lat="54.456881" lon="-3.312238"><ele>539</ele><time>2022-03-28T13:48:58Z</time><name>PT2154</name></trkpt>
<trkpt lat="54.456881" lon="-3.312244"><ele>538</ele><time>2022-03-28T13:48:59Z</time><name>PT2155</name></trkpt>
<trkpt lat="54.456885" lon="-3.312250"><ele>538</ele><time>2022-03-28T13:49:01Z</time><name>PT2156</name></trkpt>
<trkpt lat="54.456890" lon="-3.312255"><ele>538</ele><time>2022-03-28T13:49:01Z</time><name>PT2157</name></trkpt>
<trkpt lat="54.456894" lon="-3.312261"><ele>538</ele><time>2022-03-28T13:49:02Z</time><name>PT2158</name></trkpt>
<trkpt lat="54.456901" lon="-3.312269"><ele>538</ele><time>2022-03-28T13:49:04Z</time><name>PT2159</name></trkpt>
<trkpt lat="54.456906" lon="-3.312280"><ele>538</ele><time>2022-03-28T13:49:04Z</time><name>PT2160</name></trkpt>
<trkpt lat="54.456910" lon="-3.312291"><ele>538</ele><time>2022-03-28T13:49:05Z</time><name>PT2161</name></trkpt>
<trkpt lat="54.456913" lon="-3.312299"><ele>538</ele><time>2022-03-28T13:49:07Z</time><name>PT2162</name></trkpt>
<trkpt lat="54.456917" lon="-3.312306"><ele>537</ele><time>2022-03-28T13:49:07Z</time><name>PT2163</name></trkpt>
<trkpt lat="54.456926" lon="-3.312311"><ele>537</ele><time>2022-03-28T13:49:08Z</time><name>PT2164</name></trkpt>
<trkpt lat="54.456934" lon="-3.312319"><ele>537</ele><time>2022-03-28T13:49:10Z</time><name>PT2165</name></trkpt>
<trkpt lat="54.456940" lon="-3.312326"><ele>537</ele><time>2022-03-28T13:49:10Z</time><name>PT2166</name></trkpt>
<trkpt lat="54.456950" lon="-3.312334"><ele>537</ele><time>2022-03-28T13:49:11Z</time><name>PT2167</name></trkpt>
<trkpt lat="54.456962" lon="-3.312341"><ele>537</ele><time>2022-03-28T13:49:13Z</time><name>PT2168</name></trkpt>
<trkpt lat="54.456970" lon="-3.312344"><ele>537</ele><time>2022-03-28T13:49:13Z</time><name>PT2169</name></trkpt>
<trkpt lat="54.456980" lon="-3.312347"><ele>537</ele><time>2022-03-28T13:49:14Z</time><name>PT2170</name></trkpt>
<trkpt lat="54.456990" lon="-3.312351"><ele>537</ele><time>2022-03-28T13:49:16Z</time><name>PT2171</name></trkpt>
<trkpt lat="54.457000" lon="-3.312354"><ele>537</ele><time>2022-03-28T13:49:16Z</time><name>PT2172</name></trkpt>
<trkpt lat="54.457009" lon="-3.312360"><ele>537</ele><time>2022-03-28T13:49:17Z</time><name>PT2173</name></trkpt>
<trkpt lat="54.457018" lon="-3.312363"><ele>537</ele><time>2022-03-28T13:49:19Z</time><name>PT2174</name></trkpt>
<trkpt lat="54.457026" lon="-3.312365"><ele>537</ele><time>2022-03-28T13:49:19Z</time><name>PT2175</name></trkpt>
<trkpt lat="54.457034" lon="-3.312367"><ele>537</ele><time>2022-03-28T13:49:20Z</time><name>PT2176</name></trkpt>
<trkpt lat="54.457040" lon="-3.312365"><ele>536</ele><time>2022-03-28T13:49:22Z</time><name>PT2177</name></trkpt>
<trkpt lat="54.457048" lon="-3.312364"><ele>536</ele><time>2022-03-28T13:49:22Z</time><name>PT2178</name></trkpt>
<trkpt lat="54.457056" lon="-3.312363"><ele>536</ele><time>2022-03-28T13:49:23Z</time><name>PT2179</name></trkpt>
<trkpt lat="54.457064" lon="-3.312367"><ele>536</ele><time>2022-03-28T13:49:25Z</time><name>PT2180</name></trkpt>
<trkpt lat="54.457072" lon="-3.312373"><ele>536</ele><time>2022-03-28T13:49:25Z</time><name>PT2181</name></trkpt>
<trkpt lat="54.457079" lon="-3.312378"><ele>536</ele><time>2022-03-28T13:49:26Z</time><name>PT2182</name></trkpt>
<trkpt lat="54.457087" lon="-3.312383"><ele>536</ele><time>2022-03-28T13:49:28Z</time><name>PT2183</name></trkpt>
<trkpt lat="54.457093" lon="-3.312389"><ele>536</ele><time>2022-03-28T13:49:28Z</time><name>PT2184</name></trkpt>
<trkpt lat="54.457097" lon="-3.312397"><ele>536</ele><time>2022-03-28T13:49:29Z</time><name>PT2185</name></trkpt>
<trkpt lat="54.457100" lon="-3.312405"><ele>536</ele><time>2022-03-28T13:49:31Z</time><name>PT2186</name></trkpt>
<trkpt lat="54.457104" lon="-3.312413"><ele>535</ele><time>2022-03-28T13:49:31Z</time><name>PT2187</name></trkpt>
<trkpt lat="54.457108" lon="-3.312420"><ele>535</ele><time>2022-03-28T13:49:32Z</time><name>PT2188</name></trkpt>
<trkpt lat="54.457113" lon="-3.312427"><ele>535</ele><time>2022-03-28T13:49:34Z</time><name>PT2189</name></trkpt>
<trkpt lat="54.457118" lon="-3.312434"><ele>535</ele><time>2022-03-28T13:49:34Z</time><name>PT2190</name></trkpt>
<trkpt lat="54.457121" lon="-3.312439"><ele>534</ele><time>2022-03-28T13:49:35Z</time><name>PT2191</name></trkpt>
<trkpt lat="54.457125" lon="-3.312445"><ele>534</ele><time>2022-03-28T13:49:37Z</time><name>PT2192</name></trkpt>
<trkpt lat="54.457130" lon="-3.312453"><ele>534</ele><time>2022-03-28T13:49:37Z</time><name>PT2193</name></trkpt>
<trkpt lat="54.457136" lon="-3.312462"><ele>533</ele><time>2022-03-28T13:49:38Z</time><name>PT2194</name></trkpt>
<trkpt lat="54.457141" lon="-3.312476"><ele>533</ele><time>2022-03-28T13:49:40Z</time><name>PT2195</name></trkpt>
<trkpt lat="54.457146" lon="-3.312489"><ele>533</ele><time>2022-03-28T13:49:40Z</time><name>PT2196</name></trkpt>
<trkpt lat="54.457151" lon="-3.312500"><ele>532</ele><time>2022-03-28T13:49:41Z</time><name>PT2197</name></trkpt>
<trkpt lat="54.457155" lon="-3.312512"><ele>532</ele><time>2022-03-28T13:49:43Z</time><name>PT2198</name></trkpt>
<trkpt lat="54.457161" lon="-3.312522"><ele>532</ele><time>2022-03-28T13:49:43Z</time><name>PT2199</name></trkpt>
<trkpt lat="54.457165" lon="-3.312532"><ele>532</ele><time>2022-03-28T13:49:44Z</time><name>PT2200</name></trkpt>
<trkpt lat="54.457168" lon="-3.312542"><ele>532</ele><time>2022-03-28T13:49:46Z</time><name>PT2201</name></trkpt>
<trkpt lat="54.457170" lon="-3.312553"><ele>532</ele><time>2022-03-28T13:49:46Z</time><name>PT2202</name></trkpt>
<trkpt lat="54.457173" lon="-3.312561"><ele>532</ele><time>2022-03-28T13:49:47Z</time><name>PT2203</name></trkpt>
<trkpt lat="54.457179" lon="-3.312568"><ele>532</ele><time>2022-03-28T13:49:49Z</time><name>PT2204</name></trkpt>
<trkpt lat="54.457186" lon="-3.312577"><ele>532</ele><time>2022-03-28T13:49:49Z</time><name>PT2205</name></trkpt>
<trkpt lat="54.457191" lon="-3.312588"><ele>531</ele><time>2022-03-28T13:49:50Z</time><name>PT2206</name></trkpt>
<trkpt lat="54.457195" lon="-3.312597"><ele>531</ele><time>2022-03-28T13:49:52Z</time><name>PT2207</name></trkpt>
<trkpt lat="54.457202" lon="-3.312603"><ele>531</ele><time>2022-03-28T13:49:52Z</time><name>PT2208</name></trkpt>
<trkpt lat="54.457208" lon="-3.312611"><ele>531</ele><time>2022-03-28T13:49:53Z</time><name>PT2209</name></trkpt>
<trkpt lat="54.457213" lon="-3.312617"><ele>530</ele><time>2022-03-28T13:49:55Z</time><name>PT2210</name></trkpt>
<trkpt lat="54.457218" lon="-3.312622"><ele>530</ele><time>2022-03-28T13:49:55Z</time><name>PT2211</name></trkpt>
<trkpt lat="54.457225" lon="-3.312626"><ele>529</ele><time>2022-03-28T13:49:56Z</time><name>PT2212</name></trkpt>
<trkpt lat="54.457232" lon="-3.312627"><ele>529</ele><time>2022-03-28T13:49:58Z</time><name>PT2213</name></trkpt>
<trkpt lat="54.457238" lon="-3.312628"><ele>529</ele><time>2022-03-28T13:49:58Z</time><name>PT2214</name></trkpt>
<trkpt lat="54.457245" lon="-3.312627"><ele>529</ele><time>2022-03-28T13:49:59Z</time><name>PT2215</name></trkpt>
<trkpt lat="54.457251" lon="-3.312628"><ele>528</ele><time>2022-03-28T13:50:01Z</time><name>PT2216</name></trkpt>
<trkpt lat="54.457255" lon="-3.312633"><ele>528</ele><time>2022-03-28T13:50:01Z</time><name>PT2217</name></trkpt>
<trkpt lat="54.457259" lon="-3.312641"><ele>528</ele><time>2022-03-28T13:50:02Z</time><name>PT2218</name></trkpt>
<trkpt lat="54.457261" lon="-3.312648"><ele>528</ele><time>2022-03-28T13:50:04Z</time><name>PT2219</name></trkpt>
<trkpt lat="54.457261" lon="-3.312657"><ele>528</ele><time>2022-03-28T13:50:04Z</time><name>PT2220</name></trkpt>
<trkpt lat="54.457265" lon="-3.312666"><ele>528</ele><time>2022-03-28T13:50:05Z</time><name>PT2221</name></trkpt>
<trkpt lat="54.457266" lon="-3.312673"><ele>528</ele><time>2022-03-28T13:50:07Z</time><name>PT2222</name></trkpt>
<trkpt lat="54.457265" lon="-3.312678"><ele>528</ele><time>2022-03-28T13:50:07Z</time><name>PT2223</name></trkpt>
<trkpt lat="54.457267" lon="-3.312681"><ele>527</ele><time>2022-03-28T13:50:08Z</time><name>PT2224</name></trkpt>
<trkpt lat="54.457274" lon="-3.312685"><ele>527</ele><time>2022-03-28T13:50:10Z</time><name>PT2225</name></trkpt>
<trkpt lat="54.457301" lon="-3.312696"><ele>526</ele><time>2022-03-28T13:50:13Z</time><name>PT2226</name></trkpt>
<trkpt lat="54.457319" lon="-3.312718"><ele>525</ele><time>2022-03-28T13:50:17Z</time><name>PT2227</name></trkpt>
<trkpt lat="54.457333" lon="-3.312740"><ele>524</ele><time>2022-03-28T13:50:20Z</time><name>PT2228</name></trkpt>
<trkpt lat="54.457352" lon="-3.312768"><ele>524</ele><time>2022-03-28T13:50:25Z</time><name>PT2229</name></trkpt>
<trkpt lat="54.457366" lon="-3.312781"><ele>523</ele><time>2022-03-28T13:50:28Z</time><name>PT2230</name></trkpt>
<trkpt lat="54.457386" lon="-3.312798"><ele>523</ele><time>2022-03-28T13:50:31Z</time><name>PT2231</name></trkpt>
<trkpt lat="54.457387" lon="-3.312828"><ele>522</ele><time>2022-03-28T13:50:35Z</time><name>PT2232</name></trkpt>
<trkpt lat="54.457404" lon="-3.312838"><ele>522</ele><time>2022-03-28T13:50:38Z</time><name>PT2233</name></trkpt>
<trkpt lat="54.457420" lon="-3.312849"><ele>521</ele><time>2022-03-28T13:50:41Z</time><name>PT2234</name></trkpt>
<trkpt lat="54.457428" lon="-3.312884"><ele>519</ele><time>2022-03-28T13:50:46Z</time><name>PT2235</name></trkpt>
<trkpt lat="54.457456" lon="-3.312915"><ele>518</ele><time>2022-03-28T13:50:49Z</time><name>PT2236</name></trkpt>
<trkpt lat="54.457483" lon="-3.312952"><ele>517</ele><time>2022-03-28T13:50:53Z</time><name>PT2237</name></trkpt>
<trkpt lat="54.457501" lon="-3.312983"><ele>517</ele><time>2022-03-28T13:50:56Z</time><name>PT2238</name></trkpt>
<trkpt lat="54.457525" lon="-3.313007"><ele>515</ele><time>2022-03-28T13:50:59Z</time><name>PT2239</name></trkpt>
<trkpt lat="54.457552" lon="-3.313004"><ele>514</ele><time>2022-03-28T13:51:02Z</time><name>PT2240</name></trkpt>
<trkpt lat="54.457596" lon="-3.312991"><ele>514</ele><time>2022-03-28T13:51:07Z</time><name>PT2241</name></trkpt>
<trkpt lat="54.457624" lon="-3.312977"><ele>513</ele><time>2022-03-28T13:51:10Z</time><name>PT2242</name></trkpt>
<trkpt lat="54.457660" lon="-3.312979"><ele>512</ele><time>2022-03-28T13:51:13Z</time><name>PT2243</name></trkpt>
<trkpt lat="54.457676" lon="-3.312971"><ele>512</ele><time>2022-03-28T13:51:16Z</time><name>PT2244</name></trkpt>
<trkpt lat="54.457683" lon="-3.312970"><ele>512</ele><time>2022-03-28T13:51:16Z</time><name>PT2245</name></trkpt>
<trkpt lat="54.457692" lon="-3.312970"><ele>513</ele><time>2022-03-28T13:51:17Z</time><name>PT2246</name></trkpt>
<trkpt lat="54.457705" lon="-3.312967"><ele>512</ele><time>2022-03-28T13:51:19Z</time><name>PT2247</name></trkpt>
<trkpt lat="54.457719" lon="-3.312965"><ele>513</ele><time>2022-03-28T13:51:19Z</time><name>PT2248</name></trkpt>
<trkpt lat="54.457728" lon="-3.312962"><ele>513</ele><time>2022-03-28T13:51:20Z</time><name>PT2249</name></trkpt>
<trkpt lat="54.457737" lon="-3.312964"><ele>513</ele><time>2022-03-28T13:51:22Z</time><name>PT2250</name></trkpt>
<trkpt lat="54.457746" lon="-3.312961"><ele>513</ele><time>2022-03-28T13:51:22Z</time><name>PT2251</name></trkpt>
<trkpt lat="54.457754" lon="-3.312959"><ele>512</ele><time>2022-03-28T13:51:23Z</time><name>PT2252</name></trkpt>
<trkpt lat="54.457763" lon="-3.312958"><ele>512</ele><time>2022-03-28T13:51:25Z</time><name>PT2253</name></trkpt>
<trkpt lat="54.457771" lon="-3.312963"><ele>512</ele><time>2022-03-28T13:51:25Z</time><name>PT2254</name></trkpt>
<trkpt lat="54.457778" lon="-3.312969"><ele>511</ele><time>2022-03-28T13:51:26Z</time><name>PT2255</name></trkpt>
<trkpt lat="54.457786" lon="-3.312973"><ele>511</ele><time>2022-03-28T13:51:28Z</time><name>PT2256</name></trkpt>
<trkpt lat="54.457796" lon="-3.312975"><ele>511</ele><time>2022-03-28T13:51:28Z</time><name>PT2257</name></trkpt>
<trkpt lat="54.457806" lon="-3.312973"><ele>511</ele><time>2022-03-28T13:51:29Z</time><name>PT2258</name></trkpt>
<trkpt lat="54.457816" lon="-3.312970"><ele>511</ele><time>2022-03-28T13:51:31Z</time><name>PT2259</name></trkpt>
<trkpt lat="54.457826" lon="-3.312965"><ele>511</ele><time>2022-03-28T13:51:31Z</time><name>PT2260</name></trkpt>
<trkpt lat="54.457834" lon="-3.312963"><ele>511</ele><time>2022-03-28T13:51:32Z</time><name>PT2261</name></trkpt>
<trkpt lat="54.457842" lon="-3.312965"><ele>510</ele><time>2022-03-28T13:51:34Z</time><name>PT2262</name></trkpt>
<trkpt lat="54.457853" lon="-3.312967"><ele>510</ele><time>2022-03-28T13:51:34Z</time><name>PT2263</name></trkpt>
<trkpt lat="54.457865" lon="-3.312968"><ele>510</ele><time>2022-03-28T13:51:35Z</time><name>PT2264</name></trkpt>
<trkpt lat="54.457877" lon="-3.312967"><ele>510</ele><time>2022-03-28T13:51:37Z</time><name>PT2265</name></trkpt>
<trkpt lat="54.457888" lon="-3.312968"><ele>510</ele><time>2022-03-28T13:51:37Z</time><name>PT2266</name></trkpt>
<trkpt lat="54.457897" lon="-3.312971"><ele>510</ele><time>2022-03-28T13:51:38Z</time><name>PT2267</name></trkpt>
<trkpt lat="54.457905" lon="-3.312973"><ele>510</ele><time>2022-03-28T13:51:40Z</time><name>PT2268</name></trkpt>
<trkpt lat="54.457916" lon="-3.312975"><ele>510</ele><time>2022-03-28T13:51:40Z</time><name>PT2269</name></trkpt>
<trkpt lat="54.457926" lon="-3.312974"><ele>510</ele><time>2022-03-28T13:51:41Z</time><name>PT2270</name></trkpt>
<trkpt lat="54.457934" lon="-3.312978"><ele>510</ele><time>2022-03-28T13:51:43Z</time><name>PT2271</name></trkpt>
<trkpt lat="54.457944" lon="-3.312978"><ele>510</ele><time>2022-03-28T13:51:43Z</time><name>PT2272</name></trkpt>
<trkpt lat="54.457955" lon="-3.312979"><ele>510</ele><time>2022-03-28T13:51:44Z</time><name>PT2273</name></trkpt>
<trkpt lat="54.457965" lon="-3.312982"><ele>509</ele><time>2022-03-28T13:51:46Z</time><name>PT2274</name></trkpt>
<trkpt lat="54.457977" lon="-3.312985"><ele>509</ele><time>2022-03-28T13:51:46Z</time><name>PT2275</name></trkpt>
<trkpt lat="54.457987" lon="-3.312990"><ele>509</ele><time>2022-03-28T13:51:47Z</time><name>PT2276</name></trkpt>
<trkpt lat="54.457999" lon="-3.312993"><ele>509</ele><time>2022-03-28T13:51:49Z</time><name>PT2277</name></trkpt>
<trkpt lat="54.458011" lon="-3.312992"><ele>509</ele><time>2022-03-28T13:51:49Z</time><name>PT2278</name></trkpt>
<trkpt lat="54.458023" lon="-3.312993"><ele>509</ele><time>2022-03-28T13:51:50Z</time><name>PT2279</name></trkpt>
<trkpt lat="54.458033" lon="-3.312992"><ele>509</ele><time>2022-03-28T13:51:52Z</time><name>PT2280</name></trkpt>
<trkpt lat="54.458042" lon="-3.312992"><ele>509</ele><time>2022-03-28T13:51:52Z</time><name>PT2281</name></trkpt>
<trkpt lat="54.458051" lon="-3.312996"><ele>509</ele><time>2022-03-28T13:51:53Z</time><name>PT2282</name></trkpt>
<trkpt lat="54.458061" lon="-3.313004"><ele>509</ele><time>2022-03-28T13:51:55Z</time><name>PT2283</name></trkpt>
<trkpt lat="54.458067" lon="-3.313012"><ele>508</ele><time>2022-03-28T13:51:55Z</time><name>PT2284</name></trkpt>
<trkpt lat="54.458072" lon="-3.313020"><ele>508</ele><time>2022-03-28T13:51:56Z</time><name>PT2285</name></trkpt>
<trkpt lat="54.458079" lon="-3.313029"><ele>508</ele><time>2022-03-28T13:51:58Z</time><name>PT2286</name></trkpt>
<trkpt lat="54.458087" lon="-3.313039"><ele>508</ele><time>2022-03-28T13:51:58Z</time><name>PT2287</name></trkpt>
<trkpt lat="54.458094" lon="-3.313048"><ele>508</ele><time>2022-03-28T13:51:59Z</time><name>PT2288</name></trkpt>
<trkpt lat="54.458098" lon="-3.313048"><ele>508</ele><time>2022-03-28T13:52:01Z</time><name>PT2289</name></trkpt>
<trkpt lat="54.458112" lon="-3.313050"><ele>508</ele><time>2022-03-28T13:52:01Z</time><name>PT2290</name></trkpt>
<trkpt lat="54.458123" lon="-3.313057"><ele>508</ele><time>2022-03-28T13:52:02Z</time><name>PT2291</name></trkpt>
<trkpt lat="54.458135" lon="-3.313063"><ele>508</ele><time>2022-03-28T13:52:04Z</time><name>PT2292</name></trkpt>
<trkpt lat="54.458149" lon="-3.313068"><ele>507</ele><time>2022-03-28T13:52:04Z</time><name>PT2293</name></trkpt>
<trkpt lat="54.458159" lon="-3.313072"><ele>508</ele><time>2022-03-28T13:52:05Z</time><name>PT2294</name></trkpt>
<trkpt lat="54.458168" lon="-3.313076"><ele>508</ele><time>2022-03-28T13:52:07Z</time><name>PT2295</name></trkpt>
<trkpt lat="54.458180" lon="-3.313078"><ele>507</ele><time>2022-03-28T13:52:07Z</time><name>PT2296</name></trkpt>
<trkpt lat="54.458193" lon="-3.313078"><ele>508</ele><time>2022-03-28T13:52:08Z</time><name>PT2297</name></trkpt>
<trkpt lat="54.458203" lon="-3.313080"><ele>509</ele><time>2022-03-28T13:52:10Z</time><name>PT2298</name></trkpt>
<trkpt lat="54.458213" lon="-3.313082"><ele>508</ele><time>2022-03-28T13:52:10Z</time><name>PT2299</name></trkpt>
<trkpt lat="54.458220" lon="-3.313084"><ele>508</ele><time>2022-03-28T13:52:11Z</time><name>PT2300</name></trkpt>
<trkpt lat="54.458228" lon="-3.313086"><ele>508</ele><time>2022-03-28T13:52:13Z</time><name>PT2301</name></trkpt>
<trkpt lat="54.458237" lon="-3.313089"><ele>508</ele><time>2022-03-28T13:52:13Z</time><name>PT2302</name></trkpt>
<trkpt lat="54.458246" lon="-3.313095"><ele>508</ele><time>2022-03-28T13:52:14Z</time><name>PT2303</name></trkpt>
<trkpt lat="54.458256" lon="-3.313101"><ele>508</ele><time>2022-03-28T13:52:16Z</time><name>PT2304</name></trkpt>
<trkpt lat="54.458265" lon="-3.313104"><ele>508</ele><time>2022-03-28T13:52:16Z</time><name>PT2305</name></trkpt>
<trkpt lat="54.458273" lon="-3.313108"><ele>508</ele><time>2022-03-28T13:52:17Z</time><name>PT2306</name></trkpt>
<trkpt lat="54.458284" lon="-3.313114"><ele>508</ele><time>2022-03-28T13:52:19Z</time><name>PT2307</name></trkpt>
<trkpt lat="54.458292" lon="-3.313117"><ele>508</ele><time>2022-03-28T13:52:19Z</time><name>PT2308</name></trkpt>
<trkpt lat="54.458300" lon="-3.313119"><ele>508</ele><time>2022-03-28T13:52:20Z</time><name>PT2309</name></trkpt>
<trkpt lat="54.458308" lon="-3.313118"><ele>508</ele><time>2022-03-28T13:52:22Z</time><name>PT2310</name></trkpt>
<trkpt lat="54.458315" lon="-3.313122"><ele>509</ele><time>2022-03-28T13:52:22Z</time><name>PT2311</name></trkpt>
<trkpt lat="54.458324" lon="-3.313126"><ele>509</ele><time>2022-03-28T13:52:23Z</time><name>PT2312</name></trkpt>
<trkpt lat="54.458333" lon="-3.313130"><ele>509</ele><time>2022-03-28T13:52:25Z</time><name>PT2313</name></trkpt>
<trkpt lat="54.458344" lon="-3.313133"><ele>510</ele><time>2022-03-28T13:52:25Z</time><name>PT2314</name></trkpt>
<trkpt lat="54.458352" lon="-3.313131"><ele>510</ele><time>2022-03-28T13:52:26Z</time><name>PT2315</name></trkpt>
<trkpt lat="54.458361" lon="-3.313134"><ele>510</ele><time>2022-03-28T13:52:28Z</time><name>PT2316</name></trkpt>
<trkpt lat="54.458370" lon="-3.313139"><ele>510</ele><time>2022-03-28T13:52:28Z</time><name>PT2317</name></trkpt>
<trkpt lat="54.458379" lon="-3.313142"><ele>510</ele><time>2022-03-28T13:52:29Z</time><name>PT2318</name></trkpt>
<trkpt lat="54.458385" lon="-3.313148"><ele>510</ele><time>2022-03-28T13:52:31Z</time><name>PT2319</name></trkpt>
<trkpt lat="54.458392" lon="-3.313151"><ele>510</ele><time>2022-03-28T13:52:31Z</time><name>PT2320</name></trkpt>
<trkpt lat="54.458399" lon="-3.313156"><ele>510</ele><time>2022-03-28T13:52:32Z</time><name>PT2321</name></trkpt>
<trkpt lat="54.458408" lon="-3.313161"><ele>510</ele><time>2022-03-28T13:52:34Z</time><name>PT2322</name></trkpt>
<trkpt lat="54.458417" lon="-3.313165"><ele>510</ele><time>2022-03-28T13:52:34Z</time><name>PT2323</name></trkpt>
<trkpt lat="54.458426" lon="-3.313168"><ele>510</ele><time>2022-03-28T13:52:36Z</time><name>PT2324</name></trkpt>
<trkpt lat="54.458436" lon="-3.313173"><ele>510</ele><time>2022-03-28T13:52:37Z</time><name>PT2325</name></trkpt>
<trkpt lat="54.458447" lon="-3.313180"><ele>510</ele><time>2022-03-28T13:52:37Z</time><name>PT2326</name></trkpt>
<trkpt lat="54.458461" lon="-3.313186"><ele>510</ele><time>2022-03-28T13:52:38Z</time><name>PT2327</name></trkpt>
<trkpt lat="54.458473" lon="-3.313198"><ele>510</ele><time>2022-03-28T13:52:40Z</time><name>PT2328</name></trkpt>
<trkpt lat="54.458482" lon="-3.313206"><ele>510</ele><time>2022-03-28T13:52:40Z</time><name>PT2329</name></trkpt>
<trkpt lat="54.458493" lon="-3.313212"><ele>510</ele><time>2022-03-28T13:52:41Z</time><name>PT2330</name></trkpt>
<trkpt lat="54.458499" lon="-3.313219"><ele>509</ele><time>2022-03-28T13:52:43Z</time><name>PT2331</name></trkpt>
<trkpt lat="54.458510" lon="-3.313225"><ele>510</ele><time>2022-03-28T13:52:43Z</time><name>PT2332</name></trkpt>
<trkpt lat="54.458522" lon="-3.313231"><ele>510</ele><time>2022-03-28T13:52:44Z</time><name>PT2333</name></trkpt>
<trkpt lat="54.458538" lon="-3.313238"><ele>510</ele><time>2022-03-28T13:52:46Z</time><name>PT2334</name></trkpt>
<trkpt lat="54.458552" lon="-3.313244"><ele>510</ele><time>2022-03-28T13:52:46Z</time><name>PT2335</name></trkpt>
<trkpt lat="54.458564" lon="-3.313250"><ele>510</ele><time>2022-03-28T13:52:47Z</time><name>PT2336</name></trkpt>
<trkpt lat="54.458574" lon="-3.313253"><ele>510</ele><time>2022-03-28T13:52:49Z</time><name>PT2337</name></trkpt>
<trkpt lat="54.458584" lon="-3.313259"><ele>510</ele><time>2022-03-28T13:52:49Z</time><name>PT2338</name></trkpt>
<trkpt lat="54.458595" lon="-3.313265"><ele>510</ele><time>2022-03-28T13:52:50Z</time><name>PT2339</name></trkpt>
<trkpt lat="54.458605" lon="-3.313269"><ele>510</ele><time>2022-03-28T13:52:52Z</time><name>PT2340</name></trkpt>
<trkpt lat="54.458614" lon="-3.313272"><ele>509</ele><time>2022-03-28T13:52:52Z</time><name>PT2341</name></trkpt>
<trkpt lat="54.458622" lon="-3.313274"><ele>509</ele><time>2022-03-28T13:52:53Z</time><name>PT2342</name></trkpt>
<trkpt lat="54.458632" lon="-3.313279"><ele>509</ele><time>2022-03-28T13:52:55Z</time><name>PT2343</name></trkpt>
<trkpt lat="54.458640" lon="-3.313285"><ele>508</ele><time>2022-03-28T13:52:55Z</time><name>PT2344</name></trkpt>
<trkpt lat="54.458647" lon="-3.313293"><ele>508</ele><time>2022-03-28T13:52:56Z</time><name>PT2345</name></trkpt>
<trkpt lat="54.458653" lon="-3.313305"><ele>508</ele><time>2022-03-28T13:52:58Z</time><name>PT2346</name></trkpt>
<trkpt lat="54.458659" lon="-3.313313"><ele>508</ele><time>2022-03-28T13:52:58Z</time><name>PT2347</name></trkpt>
<trkpt lat="54.458663" lon="-3.313315"><ele>508</ele><time>2022-03-28T13:52:59Z</time><name>PT2348</name></trkpt>
<trkpt lat="54.458669" lon="-3.313313"><ele>508</ele><time>2022-03-28T13:53:01Z</time><name>PT2349</name></trkpt>
<trkpt lat="54.458674" lon="-3.313312"><ele>508</ele><time>2022-03-28T13:53:01Z</time><name>PT2350</name></trkpt>
<trkpt lat="54.458682" lon="-3.313308"><ele>508</ele><time>2022-03-28T13:53:02Z</time><name>PT2351</name></trkpt>
<trkpt lat="54.458688" lon="-3.313305"><ele>508</ele><time>2022-03-28T13:53:04Z</time><name>PT2352</name></trkpt>
<trkpt lat="54.458696" lon="-3.313304"><ele>508</ele><time>2022-03-28T13:53:04Z</time><name>PT2353</name></trkpt>
<trkpt lat="54.458704" lon="-3.313307"><ele>508</ele><time>2022-03-28T13:53:05Z</time><name>PT2354</name></trkpt>
<trkpt lat="54.458713" lon="-3.313309"><ele>508</ele><time>2022-03-28T13:53:07Z</time><name>PT2355</name></trkpt>
<trkpt lat="54.458723" lon="-3.313307"><ele>507</ele><time>2022-03-28T13:53:07Z</time><name>PT2356</name></trkpt>
<trkpt lat="54.458730" lon="-3.313305"><ele>507</ele><time>2022-03-28T13:53:08Z</time><name>PT2357</name></trkpt>
<trkpt lat="54.458738" lon="-3.313301"><ele>507</ele><time>2022-03-28T13:53:10Z</time><name>PT2358</name></trkpt>
<trkpt lat="54.458747" lon="-3.313299"><ele>507</ele><time>2022-03-28T13:53:10Z</time><name>PT2359</name></trkpt>
<trkpt lat="54.458758" lon="-3.313296"><ele>507</ele><time>2022-03-28T13:53:11Z</time><name>PT2360</name></trkpt>
<trkpt lat="54.458768" lon="-3.313295"><ele>506</ele><time>2022-03-28T13:53:13Z</time><name>PT2361</name></trkpt>
<trkpt lat="54.458778" lon="-3.313292"><ele>506</ele><time>2022-03-28T13:53:13Z</time><name>PT2362</name></trkpt>
<trkpt lat="54.458788" lon="-3.313289"><ele>506</ele><time>2022-03-28T13:53:14Z</time><name>PT2363</name></trkpt>
<trkpt lat="54.458797" lon="-3.313286"><ele>506</ele><time>2022-03-28T13:53:16Z</time><name>PT2364</name></trkpt>
<trkpt lat="54.458807" lon="-3.313287"><ele>506</ele><time>2022-03-28T13:53:16Z</time><name>PT2365</name></trkpt>
<trkpt lat="54.458818" lon="-3.313290"><ele>506</ele><time>2022-03-28T13:53:17Z</time><name>PT2366</name></trkpt>
<trkpt lat="54.458827" lon="-3.313289"><ele>506</ele><time>2022-03-28T13:53:19Z</time><name>PT2367</name></trkpt>
<trkpt lat="54.458835" lon="-3.313288"><ele>506</ele><time>2022-03-28T13:53:19Z</time><name>PT2368</name></trkpt>
<trkpt lat="54.458846" lon="-3.313288"><ele>506</ele><time>2022-03-28T13:53:20Z</time><name>PT2369</name></trkpt>
<trkpt lat="54.458857" lon="-3.313287"><ele>505</ele><time>2022-03-28T13:53:22Z</time><name>PT2370</name></trkpt>
<trkpt lat="54.458868" lon="-3.313287"><ele>505</ele><time>2022-03-28T13:53:22Z</time><name>PT2371</name></trkpt>
<trkpt lat="54.458876" lon="-3.313284"><ele>505</ele><time>2022-03-28T13:53:23Z</time><name>PT2372</name></trkpt>
<trkpt lat="54.458884" lon="-3.313280"><ele>505</ele><time>2022-03-28T13:53:25Z</time><name>PT2373</name></trkpt>
<trkpt lat="54.458895" lon="-3.313282"><ele>505</ele><time>2022-03-28T13:53:25Z</time><name>PT2374</name></trkpt>
<trkpt lat="54.458906" lon="-3.313285"><ele>504</ele><time>2022-03-28T13:53:26Z</time><name>PT2375</name></trkpt>
<trkpt lat="54.458917" lon="-3.313288"><ele>504</ele><time>2022-03-28T13:53:28Z</time><name>PT2376</name></trkpt>
<trkpt lat="54.458928" lon="-3.313287"><ele>505</ele><time>2022-03-28T13:53:28Z</time><name>PT2377</name></trkpt>
<trkpt lat="54.458938" lon="-3.313288"><ele>505</ele><time>2022-03-28T13:53:29Z</time><name>PT2378</name></trkpt>
<trkpt lat="54.458947" lon="-3.313291"><ele>505</ele><time>2022-03-28T13:53:31Z</time><name>PT2379</name></trkpt>
<trkpt lat="54.458958" lon="-3.313293"><ele>505</ele><time>2022-03-28T13:53:31Z</time><name>PT2380</name></trkpt>
<trkpt lat="54.458967" lon="-3.313297"><ele>505</ele><time>2022-03-28T13:53:32Z</time><name>PT2381</name></trkpt>
<trkpt lat="54.458975" lon="-3.313297"><ele>505</ele><time>2022-03-28T13:53:34Z</time><name>PT2382</name></trkpt>
<trkpt lat="54.458981" lon="-3.313301"><ele>504</ele><time>2022-03-28T13:53:34Z</time><name>PT2383</name></trkpt>
<trkpt lat="54.458989" lon="-3.313303"><ele>504</ele><time>2022-03-28T13:53:35Z</time><name>PT2384</name></trkpt>
<trkpt lat="54.458998" lon="-3.313302"><ele>504</ele><time>2022-03-28T13:53:37Z</time><name>PT2385</name></trkpt>
<trkpt lat="54.459006" lon="-3.313306"><ele>504</ele><time>2022-03-28T13:53:37Z</time><name>PT2386</name></trkpt>
<trkpt lat="54.459014" lon="-3.313308"><ele>504</ele><time>2022-03-28T13:53:38Z</time><name>PT2387</name></trkpt>
<trkpt lat="54.459022" lon="-3.313312"><ele>504</ele><time>2022-03-28T13:53:40Z</time><name>PT2388</name></trkpt>
<trkpt lat="54.459032" lon="-3.313316"><ele>504</ele><time>2022-03-28T13:53:40Z</time><name>PT2389</name></trkpt>
<trkpt lat="54.459040" lon="-3.313320"><ele>503</ele><time>2022-03-28T13:53:41Z</time><name>PT2390</name></trkpt>
<trkpt lat="54.459050" lon="-3.313325"><ele>503</ele><time>2022-03-28T13:53:43Z</time><name>PT2391</name></trkpt>
<trkpt lat="54.459061" lon="-3.313330"><ele>503</ele><time>2022-03-28T13:53:43Z</time><name>PT2392</name></trkpt>
<trkpt lat="54.459070" lon="-3.313336"><ele>503</ele><time>2022-03-28T13:53:44Z</time><name>PT2393</name></trkpt>
<trkpt lat="54.459078" lon="-3.313341"><ele>502</ele><time>2022-03-28T13:53:46Z</time><name>PT2394</name></trkpt>
<trkpt lat="54.459087" lon="-3.313346"><ele>502</ele><time>2022-03-28T13:53:46Z</time><name>PT2395</name></trkpt>
<trkpt lat="54.459095" lon="-3.313353"><ele>502</ele><time>2022-03-28T13:53:47Z</time><name>PT2396</name></trkpt>
<trkpt lat="54.459103" lon="-3.313362"><ele>502</ele><time>2022-03-28T13:53:49Z</time><name>PT2397</name></trkpt>
<trkpt lat="54.459112" lon="-3.313369"><ele>502</ele><time>2022-03-28T13:53:49Z</time><name>PT2398</name></trkpt>
<trkpt lat="54.459121" lon="-3.313378"><ele>502</ele><time>2022-03-28T13:53:50Z</time><name>PT2399</name></trkpt>
<trkpt lat="54.459157" lon="-3.313413"><ele>501</ele><time>2022-03-28T13:53:55Z</time><name>PT2400</name></trkpt>
<trkpt lat="54.459183" lon="-3.313440"><ele>500</ele><time>2022-03-28T13:53:58Z</time><name>PT2401</name></trkpt>
<trkpt lat="54.459210" lon="-3.313459"><ele>499</ele><time>2022-03-28T13:54:01Z</time><name>PT2402</name></trkpt>
<trkpt lat="54.459248" lon="-3.313489"><ele>498</ele><time>2022-03-28T13:54:04Z</time><name>PT2403</name></trkpt>
<trkpt lat="54.459278" lon="-3.313512"><ele>498</ele><time>2022-03-28T13:54:07Z</time><name>PT2404</name></trkpt>
<trkpt lat="54.459312" lon="-3.313534"><ele>499</ele><time>2022-03-28T13:54:11Z</time><name>PT2405</name></trkpt>
<trkpt lat="54.459339" lon="-3.313541"><ele>498</ele><time>2022-03-28T13:54:14Z</time><name>PT2406</name></trkpt>
<trkpt lat="54.459361" lon="-3.313555"><ele>498</ele><time>2022-03-28T13:54:17Z</time><name>PT2407</name></trkpt>
<trkpt lat="54.459398" lon="-3.313575"><ele>498</ele><time>2022-03-28T13:54:22Z</time><name>PT2408</name></trkpt>
<trkpt lat="54.459420" lon="-3.313600"><ele>498</ele><time>2022-03-28T13:54:25Z</time><name>PT2409</name></trkpt>
<trkpt lat="54.459438" lon="-3.313619"><ele>496</ele><time>2022-03-28T13:54:28Z</time><name>PT2410</name></trkpt>
<trkpt lat="54.459460" lon="-3.313639"><ele>496</ele><time>2022-03-28T13:54:31Z</time><name>PT2411</name></trkpt>
<trkpt lat="54.459475" lon="-3.313648"><ele>495</ele><time>2022-03-28T13:54:34Z</time><name>PT2412</name></trkpt>
<trkpt lat="54.459495" lon="-3.313659"><ele>494</ele><time>2022-03-28T13:54:37Z</time><name>PT2413</name></trkpt>
<trkpt lat="54.459514" lon="-3.313686"><ele>493</ele><time>2022-03-28T13:54:41Z</time><name>PT2414</name></trkpt>
<trkpt lat="54.459531" lon="-3.313707"><ele>492</ele><time>2022-03-28T13:54:44Z</time><name>PT2415</name></trkpt>
<trkpt lat="54.459557" lon="-3.313730"><ele>492</ele><time>2022-03-28T13:54:49Z</time><name>PT2416</name></trkpt>
<trkpt lat="54.459573" lon="-3.313744"><ele>491</ele><time>2022-03-28T13:54:52Z</time><name>PT2417</name></trkpt>
<trkpt lat="54.459587" lon="-3.313756"><ele>490</ele><time>2022-03-28T13:54:55Z</time><name>PT2418</name></trkpt>
<trkpt lat="54.459590" lon="-3.313761"><ele>490</ele><time>2022-03-28T13:54:56Z</time><name>PT2419</name></trkpt>
<trkpt lat="54.459595" lon="-3.313761"><ele>490</ele><time>2022-03-28T13:54:58Z</time><name>PT2420</name></trkpt>
<trkpt lat="54.459599" lon="-3.313758"><ele>490</ele><time>2022-03-28T13:54:58Z</time><name>PT2421</name></trkpt>
<trkpt lat="54.459604" lon="-3.313757"><ele>490</ele><time>2022-03-28T13:54:59Z</time><name>PT2422</name></trkpt>
<trkpt lat="54.459609" lon="-3.313757"><ele>490</ele><time>2022-03-28T13:55:01Z</time><name>PT2423</name></trkpt>
<trkpt lat="54.459613" lon="-3.313759"><ele>490</ele><time>2022-03-28T13:55:01Z</time><name>PT2424</name></trkpt>
<trkpt lat="54.459618" lon="-3.313763"><ele>489</ele><time>2022-03-28T13:55:02Z</time><name>PT2425</name></trkpt>
<trkpt lat="54.459621" lon="-3.313767"><ele>489</ele><time>2022-03-28T13:55:04Z</time><name>PT2426</name></trkpt>
<trkpt lat="54.459622" lon="-3.313770"><ele>489</ele><time>2022-03-28T13:55:04Z</time><name>PT2427</name></trkpt>
<trkpt lat="54.459627" lon="-3.313776"><ele>489</ele><time>2022-03-28T13:55:05Z</time><name>PT2428</name></trkpt>
<trkpt lat="54.459632" lon="-3.313775"><ele>490</ele><time>2022-03-28T13:55:07Z</time><name>PT2429</name></trkpt>
<trkpt lat="54.459634" lon="-3.313776"><ele>490</ele><time>2022-03-28T13:55:07Z</time><name>PT2430</name></trkpt>
<trkpt lat="54.459639" lon="-3.313776"><ele>490</ele><time>2022-03-28T13:55:08Z</time><name>PT2431</name></trkpt>
<trkpt lat="54.459641" lon="-3.313777"><ele>490</ele><time>2022-03-28T13:55:10Z</time><name>PT2432</name></trkpt>
<trkpt lat="54.459643" lon="-3.313784"><ele>490</ele><time>2022-03-28T13:55:10Z</time><name>PT2433</name></trkpt>
<trkpt lat="54.459646" lon="-3.313786"><ele>489</ele><time>2022-03-28T13:55:11Z</time><name>PT2434</name></trkpt>
<trkpt lat="54.459649" lon="-3.313787"><ele>489</ele><time>2022-03-28T13:55:13Z</time><name>PT2435</name></trkpt>
<trkpt lat="54.459654" lon="-3.313790"><ele>489</ele><time>2022-03-28T13:55:13Z</time><name>PT2436</name></trkpt>
<trkpt lat="54.459658" lon="-3.313795"><ele>488</ele><time>2022-03-28T13:55:14Z</time><name>PT2437</name></trkpt>
<trkpt lat="54.459663" lon="-3.313798"><ele>488</ele><time>2022-03-28T13:55:16Z</time><name>PT2438</name></trkpt>
<trkpt lat="54.459667" lon="-3.313798"><ele>488</ele><time>2022-03-28T13:55:16Z</time><name>PT2439</name></trkpt>
<trkpt lat="54.459671" lon="-3.313806"><ele>488</ele><time>2022-03-28T13:55:17Z</time><name>PT2440</name></trkpt>
<trkpt lat="54.459678" lon="-3.313816"><ele>488</ele><time>2022-03-28T13:55:19Z</time><name>PT2441</name></trkpt>
<trkpt lat="54.459683" lon="-3.313825"><ele>488</ele><time>2022-03-28T13:55:19Z</time><name>PT2442</name></trkpt>
<trkpt lat="54.459687" lon="-3.313835"><ele>487</ele><time>2022-03-28T13:55:20Z</time><name>PT2443</name></trkpt>
<trkpt lat="54.459694" lon="-3.313844"><ele>487</ele><time>2022-03-28T13:55:22Z</time><name>PT2444</name></trkpt>
<trkpt lat="54.459702" lon="-3.313855"><ele>486</ele><time>2022-03-28T13:55:22Z</time><name>PT2445</name></trkpt>
<trkpt lat="54.459709" lon="-3.313863"><ele>486</ele><time>2022-03-28T13:55:23Z</time><name>PT2446</name></trkpt>
<trkpt lat="54.459716" lon="-3.313872"><ele>486</ele><time>2022-03-28T13:55:25Z</time><name>PT2447</name></trkpt>
<trkpt lat="54.459722" lon="-3.313877"><ele>486</ele><time>2022-03-28T13:55:25Z</time><name>PT2448</name></trkpt>
<trkpt lat="54.459730" lon="-3.313883"><ele>486</ele><time>2022-03-28T13:55:26Z</time><name>PT2449</name></trkpt>
<trkpt lat="54.459741" lon="-3.313890"><ele>485</ele><time>2022-03-28T13:55:28Z</time><name>PT2450</name></trkpt>
<trkpt lat="54.459745" lon="-3.313897"><ele>484</ele><time>2022-03-28T13:55:28Z</time><name>PT2451</name></trkpt>
<trkpt lat="54.459754" lon="-3.313903"><ele>484</ele><time>2022-03-28T13:55:29Z</time><name>PT2452</name></trkpt>
<trkpt lat="54.459760" lon="-3.313909"><ele>484</ele><time>2022-03-28T13:55:31Z</time><name>PT2453</name></trkpt>
<trkpt lat="54.459769" lon="-3.313915"><ele>484</ele><time>2022-03-28T13:55:31Z</time><name>PT2454</name></trkpt>
<trkpt lat="54.459776" lon="-3.313922"><ele>484</ele><time>2022-03-28T13:55:32Z</time><name>PT2455</name></trkpt>
<trkpt lat="54.459786" lon="-3.313931"><ele>485</ele><time>2022-03-28T13:55:34Z</time><name>PT2456</name></trkpt>
<trkpt lat="54.459795" lon="-3.313937"><ele>485</ele><time>2022-03-28T13:55:34Z</time><name>PT2457</name></trkpt>
<trkpt lat="54.459801" lon="-3.313947"><ele>485</ele><time>2022-03-28T13:55:35Z</time><name>PT2458</name></trkpt>
<trkpt lat="54.459806" lon="-3.313963"><ele>484</ele><time>2022-03-28T13:55:37Z</time><name>PT2459</name></trkpt>
<trkpt lat="54.459813" lon="-3.313978"><ele>484</ele><time>2022-03-28T13:55:37Z</time><name>PT2460</name></trkpt>
<trkpt lat="54.459819" lon="-3.313993"><ele>484</ele><time>2022-03-28T13:55:38Z</time><name>PT2461</name></trkpt>
<trkpt lat="54.459825" lon="-3.314007"><ele>484</ele><time>2022-03-28T13:55:40Z</time><name>PT2462</name></trkpt>
<trkpt lat="54.459831" lon="-3.314020"><ele>484</ele><time>2022-03-28T13:55:40Z</time><name>PT2463</name></trkpt>
<trkpt lat="54.459839" lon="-3.314033"><ele>483</ele><time>2022-03-28T13:55:41Z</time><name>PT2464</name></trkpt>
<trkpt lat="54.459847" lon="-3.314046"><ele>483</ele><time>2022-03-28T13:55:43Z</time><name>PT2465</name></trkpt>
<trkpt lat="54.459855" lon="-3.314057"><ele>483</ele><time>2022-03-28T13:55:43Z</time><name>PT2466</name></trkpt>
<trkpt lat="54.459863" lon="-3.314066"><ele>484</ele><time>2022-03-28T13:55:44Z</time><name>PT2467</name></trkpt>
<trkpt lat="54.459872" lon="-3.314074"><ele>483</ele><time>2022-03-28T13:55:46Z</time><name>PT2468</name></trkpt>
<trkpt lat="54.459882" lon="-3.314084"><ele>483</ele><time>2022-03-28T13:55:46Z</time><name>PT2469</name></trkpt>
<trkpt lat="54.459890" lon="-3.314096"><ele>482</ele><time>2022-03-28T13:55:47Z</time><name>PT2470</name></trkpt>
<trkpt lat="54.459899" lon="-3.314107"><ele>483</ele><time>2022-03-28T13:55:49Z</time><name>PT2471</name></trkpt>
<trkpt lat="54.459907" lon="-3.314118"><ele>483</ele><time>2022-03-28T13:55:49Z</time><name>PT2472</name></trkpt>
<trkpt lat="54.459915" lon="-3.314129"><ele>483</ele><time>2022-03-28T13:55:50Z</time><name>PT2473</name></trkpt>
<trkpt lat="54.459925" lon="-3.314142"><ele>483</ele><time>2022-03-28T13:55:52Z</time><name>PT2474</name></trkpt>
<trkpt lat="54.459930" lon="-3.314155"><ele>482</ele><time>2022-03-28T13:55:52Z</time><name>PT2475</name></trkpt>
<trkpt lat="54.459935" lon="-3.314165"><ele>482</ele><time>2022-03-28T13:55:53Z</time><name>PT2476</name></trkpt>
<trkpt lat="54.459943" lon="-3.314175"><ele>482</ele><time>2022-03-28T13:55:55Z</time><name>PT2477</name></trkpt>
<trkpt lat="54.459950" lon="-3.314189"><ele>482</ele><time>2022-03-28T13:55:55Z</time><name>PT2478</name></trkpt>
<trkpt lat="54.459957" lon="-3.314201"><ele>482</ele><time>2022-03-28T13:55:56Z</time><name>PT2479</name></trkpt>
<trkpt lat="54.459966" lon="-3.314212"><ele>481</ele><time>2022-03-28T13:55:58Z</time><name>PT2480</name></trkpt>
<trkpt lat="54.459974" lon="-3.314225"><ele>481</ele><time>2022-03-28T13:55:58Z</time><name>PT2481</name></trkpt>
<trkpt lat="54.459980" lon="-3.314234"><ele>481</ele><time>2022-03-28T13:55:59Z</time><name>PT2482</name></trkpt>
<trkpt lat="54.459987" lon="-3.314244"><ele>481</ele><time>2022-03-28T13:56:01Z</time><name>PT2483</name></trkpt>
<trkpt lat="54.459997" lon="-3.314252"><ele>482</ele><time>2022-03-28T13:56:01Z</time><name>PT2484</name></trkpt>
<trkpt lat="54.460006" lon="-3.314265"><ele>481</ele><time>2022-03-28T13:56:02Z</time><name>PT2485</name></trkpt>
<trkpt lat="54.460013" lon="-3.314276"><ele>481</ele><time>2022-03-28T13:56:04Z</time><name>PT2486</name></trkpt>
<trkpt lat="54.460022" lon="-3.314287"><ele>481</ele><time>2022-03-28T13:56:04Z</time><name>PT2487</name></trkpt>
<trkpt lat="54.460031" lon="-3.314299"><ele>481</ele><time>2022-03-28T13:56:05Z</time><name>PT2488</name></trkpt>
<trkpt lat="54.460039" lon="-3.314311"><ele>480</ele><time>2022-03-28T13:56:07Z</time><name>PT2489</name></trkpt>
<trkpt lat="54.460045" lon="-3.314323"><ele>480</ele><time>2022-03-28T13:56:07Z</time><name>PT2490</name></trkpt>
<trkpt lat="54.460053" lon="-3.314335"><ele>480</ele><time>2022-03-28T13:56:08Z</time><name>PT2491</name></trkpt>
<trkpt lat="54.460060" lon="-3.314345"><ele>480</ele><time>2022-03-28T13:56:10Z</time><name>PT2492</name></trkpt>
<trkpt lat="54.460068" lon="-3.314357"><ele>480</ele><time>2022-03-28T13:56:10Z</time><name>PT2493</name></trkpt>
<trkpt lat="54.460074" lon="-3.314368"><ele>480</ele><time>2022-03-28T13:56:11Z</time><name>PT2494</name></trkpt>
<trkpt lat="54.460082" lon="-3.314382"><ele>480</ele><time>2022-03-28T13:56:13Z</time><name>PT2495</name></trkpt>
<trkpt lat="54.460089" lon="-3.314395"><ele>480</ele><time>2022-03-28T13:56:13Z</time><name>PT2496</name></trkpt>
<trkpt lat="54.460096" lon="-3.314406"><ele>480</ele><time>2022-03-28T13:56:14Z</time><name>PT2497</name></trkpt>
<trkpt lat="54.460105" lon="-3.314419"><ele>480</ele><time>2022-03-28T13:56:16Z</time><name>PT2498</name></trkpt>
<trkpt lat="54.460114" lon="-3.314434"><ele>480</ele><time>2022-03-28T13:56:16Z</time><name>PT2499</name></trkpt>
<trkpt lat="54.460123" lon="-3.314449"><ele>480</ele><time>2022-03-28T13:56:17Z</time><name>PT2500</name></trkpt>
<trkpt lat="54.460129" lon="-3.314462"><ele>480</ele><time>2022-03-28T13:56:19Z</time><name>PT2501</name></trkpt>
<trkpt lat="54.460137" lon="-3.314473"><ele>479</ele><time>2022-03-28T13:56:19Z</time><name>PT2502</name></trkpt>
<trkpt lat="54.460145" lon="-3.314486"><ele>479</ele><time>2022-03-28T13:56:20Z</time><name>PT2503</name></trkpt>
<trkpt lat="54.460152" lon="-3.314500"><ele>479</ele><time>2022-03-28T13:56:22Z</time><name>PT2504</name></trkpt>
<trkpt lat="54.460159" lon="-3.314511"><ele>479</ele><time>2022-03-28T13:56:22Z</time><name>PT2505</name></trkpt>
<trkpt lat="54.460165" lon="-3.314523"><ele>479</ele><time>2022-03-28T13:56:23Z</time><name>PT2506</name></trkpt>
<trkpt lat="54.460171" lon="-3.314536"><ele>479</ele><time>2022-03-28T13:56:25Z</time><name>PT2507</name></trkpt>
<trkpt lat="54.460177" lon="-3.314548"><ele>479</ele><time>2022-03-28T13:56:25Z</time><name>PT2508</name></trkpt>
<trkpt lat="54.460182" lon="-3.314560"><ele>479</ele><time>2022-03-28T13:56:26Z</time><name>PT2509</name></trkpt>
<trkpt lat="54.460186" lon="-3.314573"><ele>479</ele><time>2022-03-28T13:56:28Z</time><name>PT2510</name></trkpt>
<trkpt lat="54.460189" lon="-3.314584"><ele>479</ele><time>2022-03-28T13:56:28Z</time><name>PT2511</name></trkpt>
<trkpt lat="54.460190" lon="-3.314599"><ele>478</ele><time>2022-03-28T13:56:29Z</time><name>PT2512</name></trkpt>
<trkpt lat="54.460189" lon="-3.314616"><ele>478</ele><time>2022-03-28T13:56:31Z</time><name>PT2513</name></trkpt>
<trkpt lat="54.460187" lon="-3.314634"><ele>478</ele><time>2022-03-28T13:56:31Z</time><name>PT2514</name></trkpt>
<trkpt lat="54.460186" lon="-3.314651"><ele>478</ele><time>2022-03-28T13:56:32Z</time><name>PT2515</name></trkpt>
<trkpt lat="54.460186" lon="-3.314668"><ele>478</ele><time>2022-03-28T13:56:34Z</time><name>PT2516</name></trkpt>
<trkpt lat="54.460186" lon="-3.314686"><ele>477</ele><time>2022-03-28T13:56:34Z</time><name>PT2517</name></trkpt>
<trkpt lat="54.460185" lon="-3.314700"><ele>477</ele><time>2022-03-28T13:56:35Z</time><name>PT2518</name></trkpt>
<trkpt lat="54.460183" lon="-3.314717"><ele>476</ele><time>2022-03-28T13:56:37Z</time><name>PT2519</name></trkpt>
<trkpt lat="54.460179" lon="-3.314733"><ele>476</ele><time>2022-03-28T13:56:37Z</time><name>PT2520</name></trkpt>
<trkpt lat="54.460175" lon="-3.314745"><ele>476</ele><time>2022-03-28T13:56:38Z</time><name>PT2521</name></trkpt>
<trkpt lat="54.460173" lon="-3.314757"><ele>476</ele><time>2022-03-28T13:56:40Z</time><name>PT2522</name></trkpt>
<trkpt lat="54.460172" lon="-3.314771"><ele>476</ele><time>2022-03-28T13:56:40Z</time><name>PT2523</name></trkpt>
<trkpt lat="54.460168" lon="-3.314778"><ele>475</ele><time>2022-03-28T13:56:41Z</time><name>PT2524</name></trkpt>
<trkpt lat="54.460168" lon="-3.314788"><ele>476</ele><time>2022-03-28T13:56:43Z</time><name>PT2525</name></trkpt>
<trkpt lat="54.460166" lon="-3.314796"><ele>476</ele><time>2022-03-28T13:56:43Z</time><name>PT2526</name></trkpt>
<trkpt lat="54.460165" lon="-3.314802"><ele>475</ele><time>2022-03-28T13:56:44Z</time><name>PT2527</name></trkpt>
<trkpt lat="54.460164" lon="-3.314816"><ele>475</ele><time>2022-03-28T13:56:46Z</time><name>PT2528</name></trkpt>
<trkpt lat="54.460164" lon="-3.314826"><ele>474</ele><time>2022-03-28T13:56:46Z</time><name>PT2529</name></trkpt>
<trkpt lat="54.460161" lon="-3.314839"><ele>474</ele><time>2022-03-28T13:56:47Z</time><name>PT2530</name></trkpt>
<trkpt lat="54.460158" lon="-3.314856"><ele>474</ele><time>2022-03-28T13:56:49Z</time><name>PT2531</name></trkpt>
<trkpt lat="54.460157" lon="-3.314872"><ele>474</ele><time>2022-03-28T13:56:49Z</time><name>PT2532</name></trkpt>
<trkpt lat="54.460156" lon="-3.314890"><ele>474</ele><time>2022-03-28T13:56:50Z</time><name>PT2533</name></trkpt>
<trkpt lat="54.460153" lon="-3.314901"><ele>474</ele><time>2022-03-28T13:56:52Z</time><name>PT2534</name></trkpt>
<trkpt lat="54.460153" lon="-3.314909"><ele>474</ele><time>2022-03-28T13:56:52Z</time><name>PT2535</name></trkpt>
<trkpt lat="54.460151" lon="-3.314918"><ele>474</ele><time>2022-03-28T13:56:53Z</time><name>PT2536</name></trkpt>
<trkpt lat="54.460147" lon="-3.314932"><ele>474</ele><time>2022-03-28T13:56:55Z</time><name>PT2537</name></trkpt>
<trkpt lat="54.460146" lon="-3.314945"><ele>474</ele><time>2022-03-28T13:56:55Z</time><name>PT2538</name></trkpt>
<trkpt lat="54.460144" lon="-3.314961"><ele>474</ele><time>2022-03-28T13:56:56Z</time><name>PT2539</name></trkpt>
<trkpt lat="54.460140" lon="-3.314975"><ele>474</ele><time>2022-03-28T13:56:58Z</time><name>PT2540</name></trkpt>
<trkpt lat="54.460134" lon="-3.314986"><ele>474</ele><time>2022-03-28T13:56:58Z</time><name>PT2541</name></trkpt>
<trkpt lat="54.460130" lon="-3.314996"><ele>473</ele><time>2022-03-28T13:56:59Z</time><name>PT2542</name></trkpt>
<trkpt lat="54.460128" lon="-3.315009"><ele>473</ele><time>2022-03-28T13:57:01Z</time><name>PT2543</name></trkpt>
<trkpt lat="54.460124" lon="-3.315023"><ele>473</ele><time>2022-03-28T13:57:01Z</time><name>PT2544</name></trkpt>
<trkpt lat="54.460121" lon="-3.315035"><ele>473</ele><time>2022-03-28T13:57:02Z</time><name>PT2545</name></trkpt>
<trkpt lat="54.460115" lon="-3.315047"><ele>473</ele><time>2022-03-28T13:57:04Z</time><name>PT2546</name></trkpt>
<trkpt lat="54.460109" lon="-3.315057"><ele>472</ele><time>2022-03-28T13:57:04Z</time><name>PT2547</name></trkpt>
<trkpt lat="54.460101" lon="-3.315068"><ele>472</ele><time>2022-03-28T13:57:05Z</time><name>PT2548</name></trkpt>
<trkpt lat="54.460092" lon="-3.315075"><ele>471</ele><time>2022-03-28T13:57:07Z</time><name>PT2549</name></trkpt>
<trkpt lat="54.460086" lon="-3.315085"><ele>471</ele><time>2022-03-28T13:57:07Z</time><name>PT2550</name></trkpt>
<trkpt lat="54.460080" lon="-3.315096"><ele>471</ele><time>2022-03-28T13:57:08Z</time><name>PT2551</name></trkpt>
<trkpt lat="54.460071" lon="-3.315105"><ele>470</ele><time>2022-03-28T13:57:10Z</time><name>PT2552</name></trkpt>
<trkpt lat="54.460064" lon="-3.315113"><ele>470</ele><time>2022-03-28T13:57:10Z</time><name>PT2553</name></trkpt>
<trkpt lat="54.460058" lon="-3.315121"><ele>470</ele><time>2022-03-28T13:57:11Z</time><name>PT2554</name></trkpt>
<trkpt lat="54.460050" lon="-3.315130"><ele>470</ele><time>2022-03-28T13:57:13Z</time><name>PT2555</name></trkpt>
<trkpt lat="54.460042" lon="-3.315139"><ele>470</ele><time>2022-03-28T13:57:13Z</time><name>PT2556</name></trkpt>
<trkpt lat="54.460033" lon="-3.315148"><ele>470</ele><time>2022-03-28T13:57:14Z</time><name>PT2557</name></trkpt>
<trkpt lat="54.460025" lon="-3.315155"><ele>470</ele><time>2022-03-28T13:57:16Z</time><name>PT2558</name></trkpt>
<trkpt lat="54.460017" lon="-3.315163"><ele>470</ele><time>2022-03-28T13:57:16Z</time><name>PT2559</name></trkpt>
<trkpt lat="54.460008" lon="-3.315168"><ele>470</ele><time>2022-03-28T13:57:17Z</time><name>PT2560</name></trkpt>
<trkpt lat="54.460001" lon="-3.315173"><ele>469</ele><time>2022-03-28T13:57:19Z</time><name>PT2561</name></trkpt>
<trkpt lat="54.459997" lon="-3.315179"><ele>469</ele><time>2022-03-28T13:57:19Z</time><name>PT2562</name></trkpt>
<trkpt lat="54.459990" lon="-3.315188"><ele>469</ele><time>2022-03-28T13:57:20Z</time><name>PT2563</name></trkpt>
<trkpt lat="54.459985" lon="-3.315200"><ele>469</ele><time>2022-03-28T13:57:22Z</time><name>PT2564</name></trkpt>
<trkpt lat="54.459978" lon="-3.315211"><ele>468</ele><time>2022-03-28T13:57:22Z</time><name>PT2565</name></trkpt>
<trkpt lat="54.459973" lon="-3.315225"><ele>469</ele><time>2022-03-28T13:57:23Z</time><name>PT2566</name></trkpt>
<trkpt lat="54.459969" lon="-3.315233"><ele>468</ele><time>2022-03-28T13:57:25Z</time><name>PT2567</name></trkpt>
<trkpt lat="54.459962" lon="-3.315244"><ele>468</ele><time>2022-03-28T13:57:25Z</time><name>PT2568</name></trkpt>
<trkpt lat="54.459956" lon="-3.315254"><ele>468</ele><time>2022-03-28T13:57:26Z</time><name>PT2569</name></trkpt>
<trkpt lat="54.459949" lon="-3.315268"><ele>468</ele><time>2022-03-28T13:57:28Z</time><name>PT2570</name></trkpt>
<trkpt lat="54.459940" lon="-3.315281"><ele>468</ele><time>2022-03-28T13:57:28Z</time><name>PT2571</name></trkpt>
<trkpt lat="54.459932" lon="-3.315287"><ele>468</ele><time>2022-03-28T13:57:29Z</time><name>PT2572</name></trkpt>
<trkpt lat="54.459924" lon="-3.315296"><ele>468</ele><time>2022-03-28T13:57:31Z</time><name>PT2573</name></trkpt>
<trkpt lat="54.459915" lon="-3.315306"><ele>468</ele><time>2022-03-28T13:57:31Z</time><name>PT2574</name></trkpt>
<trkpt lat="54.459908" lon="-3.315312"><ele>467</ele><time>2022-03-28T13:57:32Z</time><name>PT2575</name></trkpt>
<trkpt lat="54.459901" lon="-3.315320"><ele>467</ele><time>2022-03-28T13:57:34Z</time><name>PT2576</name></trkpt>
<trkpt lat="54.459892" lon="-3.315327"><ele>467</ele><time>2022-03-28T13:57:34Z</time><name>PT2577</name></trkpt>
<trkpt lat="54.459884" lon="-3.315334"><ele>467</ele><time>2022-03-28T13:57:35Z</time><name>PT2578</name></trkpt>
<trkpt lat="54.459876" lon="-3.315339"><ele>467</ele><time>2022-03-28T13:57:37Z</time><name>PT2579</name></trkpt>
<trkpt lat="54.459867" lon="-3.315343"><ele>467</ele><time>2022-03-28T13:57:37Z</time><name>PT2580</name></trkpt>
<trkpt lat="54.459859" lon="-3.315347"><ele>467</ele><time>2022-03-28T13:57:38Z</time><name>PT2581</name></trkpt>
<trkpt lat="54.459853" lon="-3.315354"><ele>467</ele><time>2022-03-28T13:57:40Z</time><name>PT2582</name></trkpt>
<trkpt lat="54.459844" lon="-3.315360"><ele>466</ele><time>2022-03-28T13:57:40Z</time><name>PT2583</name></trkpt>
<trkpt lat="54.459834" lon="-3.315364"><ele>466</ele><time>2022-03-28T13:57:41Z</time><name>PT2584</name></trkpt>
<trkpt lat="54.459826" lon="-3.315371"><ele>466</ele><time>2022-03-28T13:57:43Z</time><name>PT2585</name></trkpt>
<trkpt lat="54.459820" lon="-3.315377"><ele>466</ele><time>2022-03-28T13:57:43Z</time><name>PT2586</name></trkpt>
<trkpt lat="54.459814" lon="-3.315379"><ele>466</ele><time>2022-03-28T13:57:44Z</time><name>PT2587</name></trkpt>
<trkpt lat="54.459806" lon="-3.315381"><ele>466</ele><time>2022-03-28T13:57:46Z</time><name>PT2588</name></trkpt>
<trkpt lat="54.459798" lon="-3.315385"><ele>466</ele><time>2022-03-28T13:57:46Z</time><name>PT2589</name></trkpt>
<trkpt lat="54.459790" lon="-3.315388"><ele>466</ele><time>2022-03-28T13:57:47Z</time><name>PT2590</name></trkpt>
<trkpt lat="54.459779" lon="-3.315388"><ele>466</ele><time>2022-03-28T13:57:49Z</time><name>PT2591</name></trkpt>
<trkpt lat="54.459771" lon="-3.315388"><ele>466</ele><time>2022-03-28T13:57:49Z</time><name>PT2592</name></trkpt>
<trkpt lat="54.459755" lon="-3.315403"><ele>465</ele><time>2022-03-28T13:57:50Z</time><name>PT2593</name></trkpt>
<trkpt lat="54.459745" lon="-3.315411"><ele>465</ele><time>2022-03-28T13:57:52Z</time><name>PT2594</name></trkpt>
<trkpt lat="54.459738" lon="-3.315419"><ele>465</ele><time>2022-03-28T13:57:52Z</time><name>PT2595</name></trkpt>
<trkpt lat="54.459731" lon="-3.315427"><ele>465</ele><time>2022-03-28T13:57:53Z</time><name>PT2596</name></trkpt>
<trkpt lat="54.459723" lon="-3.315433"><ele>464</ele><time>2022-03-28T13:57:55Z</time><name>PT2597</name></trkpt>
<trkpt lat="54.459716" lon="-3.315438"><ele>464</ele><time>2022-03-28T13:57:55Z</time><name>PT2598</name></trkpt>
<trkpt lat="54.459708" lon="-3.315440"><ele>464</ele><time>2022-03-28T13:57:56Z</time><name>PT2599</name></trkpt>
<trkpt lat="54.459695" lon="-3.315435"><ele>463</ele><time>2022-03-28T13:57:58Z</time><name>PT2600</name></trkpt>
<trkpt lat="54.459685" lon="-3.315434"><ele>463</ele><time>2022-03-28T13:57:58Z</time><name>PT2601</name></trkpt>
<trkpt lat="54.459681" lon="-3.315436"><ele>463</ele><time>2022-03-28T13:57:59Z</time><name>PT2602</name></trkpt>
<trkpt lat="54.459680" lon="-3.315438"><ele>464</ele><time>2022-03-28T13:58:01Z</time><name>PT2603</name></trkpt>
<trkpt lat="54.459677" lon="-3.315436"><ele>463</ele><time>2022-03-28T13:58:01Z</time><name>PT2604</name></trkpt>
<trkpt lat="54.459677" lon="-3.315434"><ele>463</ele><time>2022-03-28T13:58:02Z</time><name>PT2605</name></trkpt>
<trkpt lat="54.459677" lon="-3.315437"><ele>463</ele><time>2022-03-28T13:58:04Z</time><name>PT2606</name></trkpt>
<trkpt lat="54.459674" lon="-3.315441"><ele>463</ele><time>2022-03-28T13:58:04Z</time><name>PT2607</name></trkpt>
<trkpt lat="54.459671" lon="-3.315444"><ele>463</ele><time>2022-03-28T13:58:05Z</time><name>PT2608</name></trkpt>
<trkpt lat="54.459663" lon="-3.315446"><ele>463</ele><time>2022-03-28T13:58:07Z</time><name>PT2609</name></trkpt>
<trkpt lat="54.459657" lon="-3.315447"><ele>463</ele><time>2022-03-28T13:58:07Z</time><name>PT2610</name></trkpt>
<trkpt lat="54.459651" lon="-3.315448"><ele>462</ele><time>2022-03-28T13:58:08Z</time><name>PT2611</name></trkpt>
<trkpt lat="54.459646" lon="-3.315448"><ele>462</ele><time>2022-03-28T13:58:10Z</time><name>PT2612</name></trkpt>
<trkpt lat="54.459638" lon="-3.315445"><ele>462</ele><time>2022-03-28T13:58:10Z</time><name>PT2613</name></trkpt>
<trkpt lat="54.459629" lon="-3.315445"><ele>461</ele><time>2022-03-28T13:58:11Z</time><name>PT2614</name></trkpt>
<trkpt lat="54.459623" lon="-3.315453"><ele>461</ele><time>2022-03-28T13:58:13Z</time><name>PT2615</name></trkpt>
<trkpt lat="54.459617" lon="-3.315462"><ele>461</ele><time>2022-03-28T13:58:13Z</time><name>PT2616</name></trkpt>
<trkpt lat="54.459608" lon="-3.315467"><ele>460</ele><time>2022-03-28T13:58:14Z</time><name>PT2617</name></trkpt>
<trkpt lat="54.459603" lon="-3.315475"><ele>461</ele><time>2022-03-28T13:58:16Z</time><name>PT2618</name></trkpt>
<trkpt lat="54.459597" lon="-3.315488"><ele>460</ele><time>2022-03-28T13:58:16Z</time><name>PT2619</name></trkpt>
<trkpt lat="54.459593" lon="-3.315501"><ele>460</ele><time>2022-03-28T13:58:17Z</time><name>PT2620</name></trkpt>
<trkpt lat="54.459591" lon="-3.315517"><ele>461</ele><time>2022-03-28T13:58:19Z</time><name>PT2621</name></trkpt>
<trkpt lat="54.459588" lon="-3.315530"><ele>461</ele><time>2022-03-28T13:58:19Z</time><name>PT2622</name></trkpt>
<trkpt lat="54.459584" lon="-3.315542"><ele>461</ele><time>2022-03-28T13:58:20Z</time><name>PT2623</name></trkpt>
<trkpt lat="54.459581" lon="-3.315553"><ele>460</ele><time>2022-03-28T13:58:22Z</time><name>PT2624</name></trkpt>
<trkpt lat="54.459581" lon="-3.315565"><ele>460</ele><time>2022-03-28T13:58:22Z</time><name>PT2625</name></trkpt>
<trkpt lat="54.459576" lon="-3.315579"><ele>460</ele><time>2022-03-28T13:58:23Z</time><name>PT2626</name></trkpt>
<trkpt lat="54.459572" lon="-3.315588"><ele>460</ele><time>2022-03-28T13:58:25Z</time><name>PT2627</name></trkpt>
<trkpt lat="54.459566" lon="-3.315597"><ele>460</ele><time>2022-03-28T13:58:25Z</time><name>PT2628</name></trkpt>
<trkpt lat="54.459560" lon="-3.315604"><ele>459</ele><time>2022-03-28T13:58:26Z</time><name>PT2629</name></trkpt>
<trkpt lat="54.459555" lon="-3.315613"><ele>459</ele><time>2022-03-28T13:58:28Z</time><name>PT2630</name></trkpt>
<trkpt lat="54.459552" lon="-3.315623"><ele>459</ele><time>2022-03-28T13:58:28Z</time><name>PT2631</name></trkpt>
<trkpt lat="54.459551" lon="-3.315639"><ele>459</ele><time>2022-03-28T13:58:29Z</time><name>PT2632</name></trkpt>
<trkpt lat="54.459550" lon="-3.315658"><ele>459</ele><time>2022-03-28T13:58:31Z</time><name>PT2633</name></trkpt>
<trkpt lat="54.459550" lon="-3.315671"><ele>458</ele><time>2022-03-28T13:58:31Z</time><name>PT2634</name></trkpt>
<trkpt lat="54.459551" lon="-3.315689"><ele>458</ele><time>2022-03-28T13:58:32Z</time><name>PT2635</name></trkpt>
<trkpt lat="54.459553" lon="-3.315705"><ele>458</ele><time>2022-03-28T13:58:34Z</time><name>PT2636</name></trkpt>
<trkpt lat="54.459554" lon="-3.315721"><ele>457</ele><time>2022-03-28T13:58:34Z</time><name>PT2637</name></trkpt>
<trkpt lat="54.459554" lon="-3.315737"><ele>457</ele><time>2022-03-28T13:58:35Z</time><name>PT2638</name></trkpt>
<trkpt lat="54.459554" lon="-3.315752"><ele>456</ele><time>2022-03-28T13:58:37Z</time><name>PT2639</name></trkpt>
<trkpt lat="54.459554" lon="-3.315768"><ele>456</ele><time>2022-03-28T13:58:37Z</time><name>PT2640</name></trkpt>
<trkpt lat="54.459556" lon="-3.315782"><ele>456</ele><time>2022-03-28T13:58:38Z</time><name>PT2641</name></trkpt>
<trkpt lat="54.459557" lon="-3.315794"><ele>455</ele><time>2022-03-28T13:58:40Z</time><name>PT2642</name></trkpt>
<trkpt lat="54.459558" lon="-3.315807"><ele>455</ele><time>2022-03-28T13:58:40Z</time><name>PT2643</name></trkpt>
<trkpt lat="54.459559" lon="-3.315821"><ele>454</ele><time>2022-03-28T13:58:41Z</time><name>PT2644</name></trkpt>
<trkpt lat="54.459561" lon="-3.315832"><ele>454</ele><time>2022-03-28T13:58:43Z</time><name>PT2645</name></trkpt>
<trkpt lat="54.459563" lon="-3.315842"><ele>454</ele><time>2022-03-28T13:58:43Z</time><name>PT2646</name></trkpt>
<trkpt lat="54.459566" lon="-3.315853"><ele>454</ele><time>2022-03-28T13:58:44Z</time><name>PT2647</name></trkpt>
<trkpt lat="54.459569" lon="-3.315864"><ele>453</ele><time>2022-03-28T13:58:46Z</time><name>PT2648</name></trkpt>
<trkpt lat="54.459570" lon="-3.315874"><ele>453</ele><time>2022-03-28T13:58:46Z</time><name>PT2649</name></trkpt>
<trkpt lat="54.459571" lon="-3.315881"><ele>452</ele><time>2022-03-28T13:58:47Z</time><name>PT2650</name></trkpt>
<trkpt lat="54.459572" lon="-3.315895"><ele>452</ele><time>2022-03-28T13:58:49Z</time><name>PT2651</name></trkpt>
<trkpt lat="54.459571" lon="-3.315909"><ele>452</ele><time>2022-03-28T13:58:49Z</time><name>PT2652</name></trkpt>
<trkpt lat="54.459571" lon="-3.315919"><ele>452</ele><time>2022-03-28T13:58:50Z</time><name>PT2653</name></trkpt>
<trkpt lat="54.459572" lon="-3.315927"><ele>452</ele><time>2022-03-28T13:58:52Z</time><name>PT2654</name></trkpt>
<trkpt lat="54.459572" lon="-3.315946"><ele>452</ele><time>2022-03-28T13:58:52Z</time><name>PT2655</name></trkpt>
<trkpt lat="54.459571" lon="-3.315952"><ele>452</ele><time>2022-03-28T13:58:53Z</time><name>PT2656</name></trkpt>
<trkpt lat="54.459572" lon="-3.315954"><ele>453</ele><time>2022-03-28T13:58:55Z</time><name>PT2657</name></trkpt>
<trkpt lat="54.459572" lon="-3.315960"><ele>453</ele><time>2022-03-28T13:58:55Z</time><name>PT2658</name></trkpt>
<trkpt lat="54.459573" lon="-3.315967"><ele>453</ele><time>2022-03-28T13:58:56Z</time><name>PT2659</name></trkpt>
<trkpt lat="54.459573" lon="-3.315969"><ele>453</ele><time>2022-03-28T13:58:58Z</time><name>PT2660</name></trkpt>
<trkpt lat="54.459573" lon="-3.315968"><ele>453</ele><time>2022-03-28T13:58:58Z</time><name>PT2661</name></trkpt>
<trkpt lat="54.459572" lon="-3.315969"><ele>453</ele><time>2022-03-28T13:58:59Z</time><name>PT2662</name></trkpt>
<trkpt lat="54.459576" lon="-3.315968"><ele>453</ele><time>2022-03-28T13:59:02Z</time><name>PT2663</name></trkpt>
<trkpt lat="54.459576" lon="-3.315967"><ele>453</ele><time>2022-03-28T13:59:04Z</time><name>PT2664</name></trkpt>
<trkpt lat="54.459575" lon="-3.315968"><ele>453</ele><time>2022-03-28T13:59:04Z</time><name>PT2665</name></trkpt>
<trkpt lat="54.459572" lon="-3.315969"><ele>452</ele><time>2022-03-28T13:59:05Z</time><name>PT2666</name></trkpt>
<trkpt lat="54.459565" lon="-3.315970"><ele>452</ele><time>2022-03-28T13:59:07Z</time><name>PT2667</name></trkpt>
<trkpt lat="54.459559" lon="-3.315973"><ele>452</ele><time>2022-03-28T13:59:07Z</time><name>PT2668</name></trkpt>
<trkpt lat="54.459554" lon="-3.315975"><ele>452</ele><time>2022-03-28T13:59:08Z</time><name>PT2669</name></trkpt>
<trkpt lat="54.459552" lon="-3.315980"><ele>452</ele><time>2022-03-28T13:59:10Z</time><name>PT2670</name></trkpt>
<trkpt lat="54.459549" lon="-3.315988"><ele>452</ele><time>2022-03-28T13:59:10Z</time><name>PT2671</name></trkpt>
<trkpt lat="54.459547" lon="-3.315993"><ele>452</ele><time>2022-03-28T13:59:11Z</time><name>PT2672</name></trkpt>
<trkpt lat="54.459544" lon="-3.316002"><ele>452</ele><time>2022-03-28T13:59:13Z</time><name>PT2673</name></trkpt>
<trkpt lat="54.459537" lon="-3.316008"><ele>452</ele><time>2022-03-28T13:59:13Z</time><name>PT2674</name></trkpt>
<trkpt lat="54.459534" lon="-3.316013"><ele>452</ele><time>2022-03-28T13:59:14Z</time><name>PT2675</name></trkpt>
<trkpt lat="54.459527" lon="-3.316016"><ele>452</ele><time>2022-03-28T13:59:16Z</time><name>PT2676</name></trkpt>
<trkpt lat="54.459518" lon="-3.316013"><ele>452</ele><time>2022-03-28T13:59:16Z</time><name>PT2677</name></trkpt>
<trkpt lat="54.459509" lon="-3.316004"><ele>452</ele><time>2022-03-28T13:59:17Z</time><name>PT2678</name></trkpt>
<trkpt lat="54.459500" lon="-3.315993"><ele>452</ele><time>2022-03-28T13:59:19Z</time><name>PT2679</name></trkpt>
<trkpt lat="54.459494" lon="-3.315985"><ele>451</ele><time>2022-03-28T13:59:19Z</time><name>PT2680</name></trkpt>
<trkpt lat="54.459487" lon="-3.315976"><ele>452</ele><time>2022-03-28T13:59:20Z</time><name>PT2681</name></trkpt>
<trkpt lat="54.459480" lon="-3.315970"><ele>451</ele><time>2022-03-28T13:59:22Z</time><name>PT2682</name></trkpt>
<trkpt lat="54.459474" lon="-3.315962"><ele>451</ele><time>2022-03-28T13:59:22Z</time><name>PT2683</name></trkpt>
<trkpt lat="54.459465" lon="-3.315948"><ele>451</ele><time>2022-03-28T13:59:23Z</time><name>PT2684</name></trkpt>
<trkpt lat="54.459458" lon="-3.315939"><ele>451</ele><time>2022-03-28T13:59:25Z</time><name>PT2685</name></trkpt>
<trkpt lat="54.459446" lon="-3.315929"><ele>451</ele><time>2022-03-28T13:59:25Z</time><name>PT2686</name></trkpt>
<trkpt lat="54.459437" lon="-3.315919"><ele>451</ele><time>2022-03-28T13:59:26Z</time><name>PT2687</name></trkpt>
<trkpt lat="54.459428" lon="-3.315910"><ele>451</ele><time>2022-03-28T13:59:28Z</time><name>PT2688</name></trkpt>
<trkpt lat="54.459417" lon="-3.315903"><ele>450</ele><time>2022-03-28T13:59:28Z</time><name>PT2689</name></trkpt>
<trkpt lat="54.459410" lon="-3.315898"><ele>450</ele><time>2022-03-28T13:59:29Z</time><name>PT2690</name></trkpt>
<trkpt lat="54.459400" lon="-3.315891"><ele>451</ele><time>2022-03-28T13:59:31Z</time><name>PT2691</name></trkpt>
<trkpt lat="54.459392" lon="-3.315885"><ele>451</ele><time>2022-03-28T13:59:31Z</time><name>PT2692</name></trkpt>
<trkpt lat="54.459384" lon="-3.315876"><ele>451</ele><time>2022-03-28T13:59:32Z</time><name>PT2693</name></trkpt>
<trkpt lat="54.459377" lon="-3.315872"><ele>451</ele><time>2022-03-28T13:59:34Z</time><name>PT2694</name></trkpt>
<trkpt lat="54.459372" lon="-3.315866"><ele>451</ele><time>2022-03-28T13:59:34Z</time><name>PT2695</name></trkpt>
<trkpt lat="54.459366" lon="-3.315858"><ele>451</ele><time>2022-03-28T13:59:35Z</time><name>PT2696</name></trkpt>
<trkpt lat="54.459363" lon="-3.315855"><ele>451</ele><time>2022-03-28T13:59:37Z</time><name>PT2697</name></trkpt>
<trkpt lat="54.459358" lon="-3.315850"><ele>450</ele><time>2022-03-28T13:59:37Z</time><name>PT2698</name></trkpt>
<trkpt lat="54.459353" lon="-3.315847"><ele>450</ele><time>2022-03-28T13:59:38Z</time><name>PT2699</name></trkpt>
<trkpt lat="54.459346" lon="-3.315844"><ele>450</ele><time>2022-03-28T13:59:40Z</time><name>PT2700</name></trkpt>
<trkpt lat="54.459341" lon="-3.315842"><ele>450</ele><time>2022-03-28T13:59:40Z</time><name>PT2701</name></trkpt>
<trkpt lat="54.459335" lon="-3.315842"><ele>450</ele><time>2022-03-28T13:59:41Z</time><name>PT2702</name></trkpt>
<trkpt lat="54.459332" lon="-3.315840"><ele>450</ele><time>2022-03-28T13:59:43Z</time><name>PT2703</name></trkpt>
<trkpt lat="54.459329" lon="-3.315839"><ele>450</ele><time>2022-03-28T13:59:43Z</time><name>PT2704</name></trkpt>
<trkpt lat="54.459325" lon="-3.315839"><ele>450</ele><time>2022-03-28T13:59:44Z</time><name>PT2705</name></trkpt>
<trkpt lat="54.459321" lon="-3.315839"><ele>450</ele><time>2022-03-28T13:59:46Z</time><name>PT2706</name></trkpt>
<trkpt lat="54.459320" lon="-3.315840"><ele>450</ele><time>2022-03-28T13:59:46Z</time><name>PT2707</name></trkpt>
<trkpt lat="54.459318" lon="-3.315843"><ele>450</ele><time>2022-03-28T13:59:47Z</time><name>PT2708</name></trkpt>
<trkpt lat="54.459315" lon="-3.315841"><ele>450</ele><time>2022-03-28T13:59:49Z</time><name>PT2709</name></trkpt>
<trkpt lat="54.459307" lon="-3.315839"><ele>450</ele><time>2022-03-28T13:59:49Z</time><name>PT2710</name></trkpt>
<trkpt lat="54.459300" lon="-3.315837"><ele>450</ele><time>2022-03-28T13:59:50Z</time><name>PT2711</name></trkpt>
<trkpt lat="54.459293" lon="-3.315831"><ele>450</ele><time>2022-03-28T13:59:52Z</time><name>PT2712</name></trkpt>
<trkpt lat="54.459287" lon="-3.315833"><ele>449</ele><time>2022-03-28T13:59:52Z</time><name>PT2713</name></trkpt>
<trkpt lat="54.459280" lon="-3.315844"><ele>449</ele><time>2022-03-28T13:59:53Z</time><name>PT2714</name></trkpt>
<trkpt lat="54.459275" lon="-3.315852"><ele>449</ele><time>2022-03-28T13:59:55Z</time><name>PT2715</name></trkpt>
<trkpt lat="54.459271" lon="-3.315863"><ele>449</ele><time>2022-03-28T13:59:55Z</time><name>PT2716</name></trkpt>
<trkpt lat="54.459264" lon="-3.315875"><ele>449</ele><time>2022-03-28T13:59:57Z</time><name>PT2717</name></trkpt>
<trkpt lat="54.459256" lon="-3.315881"><ele>448</ele><time>2022-03-28T13:59:58Z</time><name>PT2718</name></trkpt>
<trkpt lat="54.459246" lon="-3.315881"><ele>448</ele><time>2022-03-28T13:59:58Z</time><name>PT2719</name></trkpt>
<trkpt lat="54.459237" lon="-3.315882"><ele>448</ele><time>2022-03-28T13:59:59Z</time><name>PT2720</name></trkpt>
<trkpt lat="54.459227" lon="-3.315885"><ele>448</ele><time>2022-03-28T14:00:01Z</time><name>PT2721</name></trkpt>
<trkpt lat="54.459217" lon="-3.315888"><ele>448</ele><time>2022-03-28T14:00:01Z</time><name>PT2722</name></trkpt>
<trkpt lat="54.459210" lon="-3.315889"><ele>448</ele><time>2022-03-28T14:00:02Z</time><name>PT2723</name></trkpt>
<trkpt lat="54.459203" lon="-3.315884"><ele>447</ele><time>2022-03-28T14:00:04Z</time><name>PT2724</name></trkpt>
<trkpt lat="54.459196" lon="-3.315874"><ele>447</ele><time>2022-03-28T14:00:04Z</time><name>PT2725</name></trkpt>
<trkpt lat="54.459186" lon="-3.315871"><ele>446</ele><time>2022-03-28T14:00:05Z</time><name>PT2726</name></trkpt>
<trkpt lat="54.459178" lon="-3.315872"><ele>447</ele><time>2022-03-28T14:00:07Z</time><name>PT2727</name></trkpt>
<trkpt lat="54.459172" lon="-3.315872"><ele>447</ele><time>2022-03-28T14:00:07Z</time><name>PT2728</name></trkpt>
<trkpt lat="54.459167" lon="-3.315872"><ele>446</ele><time>2022-03-28T14:00:08Z</time><name>PT2729</name></trkpt>
<trkpt lat="54.459162" lon="-3.315878"><ele>446</ele><time>2022-03-28T14:00:10Z</time><name>PT2730</name></trkpt>
<trkpt lat="54.459155" lon="-3.315880"><ele>446</ele><time>2022-03-28T14:00:10Z</time><name>PT2731</name></trkpt>
<trkpt lat="54.459146" lon="-3.315877"><ele>446</ele><time>2022-03-28T14:00:12Z</time><name>PT2732</name></trkpt>
<trkpt lat="54.459143" lon="-3.315868"><ele>446</ele><time>2022-03-28T14:00:13Z</time><name>PT2733</name></trkpt>
<trkpt lat="54.459140" lon="-3.315858"><ele>446</ele><time>2022-03-28T14:00:13Z</time><name>PT2734</name></trkpt>
<trkpt lat="54.459137" lon="-3.315850"><ele>446</ele><time>2022-03-28T14:00:14Z</time><name>PT2735</name></trkpt>
<trkpt lat="54.459133" lon="-3.315844"><ele>446</ele><time>2022-03-28T14:00:16Z</time><name>PT2736</name></trkpt>
<trkpt lat="54.459128" lon="-3.315834"><ele>446</ele><time>2022-03-28T14:00:16Z</time><name>PT2737</name></trkpt>
<trkpt lat="54.459124" lon="-3.315827"><ele>445</ele><time>2022-03-28T14:00:17Z</time><name>PT2738</name></trkpt>
<trkpt lat="54.459119" lon="-3.315828"><ele>446</ele><time>2022-03-28T14:00:19Z</time><name>PT2739</name></trkpt>
<trkpt lat="54.459115" lon="-3.315821"><ele>446</ele><time>2022-03-28T14:00:19Z</time><name>PT2740</name></trkpt>
<trkpt lat="54.459105" lon="-3.315812"><ele>446</ele><time>2022-03-28T14:00:20Z</time><name>PT2741</name></trkpt>
<trkpt lat="54.459097" lon="-3.315806"><ele>445</ele><time>2022-03-28T14:00:22Z</time><name>PT2742</name></trkpt>
<trkpt lat="54.459088" lon="-3.315800"><ele>445</ele><time>2022-03-28T14:00:22Z</time><name>PT2743</name></trkpt>
<trkpt lat="54.459080" lon="-3.315794"><ele>446</ele><time>2022-03-28T14:00:23Z</time><name>PT2744</name></trkpt>
<trkpt lat="54.459069" lon="-3.315787"><ele>446</ele><time>2022-03-28T14:00:25Z</time><name>PT2745</name></trkpt>
<trkpt lat="54.459059" lon="-3.315786"><ele>446</ele><time>2022-03-28T14:00:25Z</time><name>PT2746</name></trkpt>
<trkpt lat="54.459049" lon="-3.315784"><ele>446</ele><time>2022-03-28T14:00:26Z</time><name>PT2747</name></trkpt>
<trkpt lat="54.459041" lon="-3.315782"><ele>446</ele><time>2022-03-28T14:00:28Z</time><name>PT2748</name></trkpt>
<trkpt lat="54.459032" lon="-3.315781"><ele>446</ele><time>2022-03-28T14:00:28Z</time><name>PT2749</name></trkpt>
<trkpt lat="54.459025" lon="-3.315783"><ele>446</ele><time>2022-03-28T14:00:29Z</time><name>PT2750</name></trkpt>
<trkpt lat="54.459016" lon="-3.315783"><ele>445</ele><time>2022-03-28T14:00:31Z</time><name>PT2751</name></trkpt>
<trkpt lat="54.459007" lon="-3.315782"><ele>446</ele><time>2022-03-28T14:00:31Z</time><name>PT2752</name></trkpt>
<trkpt lat="54.459000" lon="-3.315780"><ele>446</ele><time>2022-03-28T14:00:32Z</time><name>PT2753</name></trkpt>
<trkpt lat="54.458992" lon="-3.315782"><ele>446</ele><time>2022-03-28T14:00:34Z</time><name>PT2754</name></trkpt>
<trkpt lat="54.458985" lon="-3.315780"><ele>446</ele><time>2022-03-28T14:00:34Z</time><name>PT2755</name></trkpt>
<trkpt lat="54.458978" lon="-3.315777"><ele>446</ele><time>2022-03-28T14:00:35Z</time><name>PT2756</name></trkpt>
<trkpt lat="54.458969" lon="-3.315771"><ele>446</ele><time>2022-03-28T14:00:37Z</time><name>PT2757</name></trkpt>
<trkpt lat="54.458962" lon="-3.315763"><ele>446</ele><time>2022-03-28T14:00:37Z</time><name>PT2758</name></trkpt>
<trkpt lat="54.458951" lon="-3.315761"><ele>447</ele><time>2022-03-28T14:00:38Z</time><name>PT2759</name></trkpt>
<trkpt lat="54.458944" lon="-3.315759"><ele>447</ele><time>2022-03-28T14:00:40Z</time><name>PT2760</name></trkpt>
<trkpt lat="54.458935" lon="-3.315755"><ele>446</ele><time>2022-03-28T14:00:40Z</time><name>PT2761</name></trkpt>
<trkpt lat="54.458927" lon="-3.315756"><ele>446</ele><time>2022-03-28T14:00:41Z</time><name>PT2762</name></trkpt>
<trkpt lat="54.458917" lon="-3.315757"><ele>446</ele><time>2022-03-28T14:00:43Z</time><name>PT2763</name></trkpt>
<trkpt lat="54.458911" lon="-3.315756"><ele>446</ele><time>2022-03-28T14:00:43Z</time><name>PT2764</name></trkpt>
<trkpt lat="54.458902" lon="-3.315756"><ele>446</ele><time>2022-03-28T14:00:44Z</time><name>PT2765</name></trkpt>
<trkpt lat="54.458895" lon="-3.315753"><ele>446</ele><time>2022-03-28T14:00:46Z</time><name>PT2766</name></trkpt>
<trkpt lat="54.458889" lon="-3.315751"><ele>445</ele><time>2022-03-28T14:00:46Z</time><name>PT2767</name></trkpt>
<trkpt lat="54.458879" lon="-3.315753"><ele>445</ele><time>2022-03-28T14:00:47Z</time><name>PT2768</name></trkpt>
<trkpt lat="54.458872" lon="-3.315753"><ele>445</ele><time>2022-03-28T14:00:49Z</time><name>PT2769</name></trkpt>
<trkpt lat="54.458863" lon="-3.315756"><ele>445</ele><time>2022-03-28T14:00:49Z</time><name>PT2770</name></trkpt>
<trkpt lat="54.458856" lon="-3.315761"><ele>445</ele><time>2022-03-28T14:00:50Z</time><name>PT2771</name></trkpt>
<trkpt lat="54.458848" lon="-3.315766"><ele>444</ele><time>2022-03-28T14:00:52Z</time><name>PT2772</name></trkpt>
<trkpt lat="54.458839" lon="-3.315769"><ele>444</ele><time>2022-03-28T14:00:52Z</time><name>PT2773</name></trkpt>
<trkpt lat="54.458829" lon="-3.315770"><ele>445</ele><time>2022-03-28T14:00:53Z</time><name>PT2774</name></trkpt>
<trkpt lat="54.458820" lon="-3.315772"><ele>444</ele><time>2022-03-28T14:00:55Z</time><name>PT2775</name></trkpt>
<trkpt lat="54.458812" lon="-3.315777"><ele>444</ele><time>2022-03-28T14:00:55Z</time><name>PT2776</name></trkpt>
<trkpt lat="54.458803" lon="-3.315781"><ele>444</ele><time>2022-03-28T14:00:56Z</time><name>PT2777</name></trkpt>
<trkpt lat="54.458793" lon="-3.315783"><ele>443</ele><time>2022-03-28T14:00:58Z</time><name>PT2778</name></trkpt>
<trkpt lat="54.458785" lon="-3.315785"><ele>443</ele><time>2022-03-28T14:00:58Z</time><name>PT2779</name></trkpt>
<trkpt lat="54.458776" lon="-3.315792"><ele>443</ele><time>2022-03-28T14:00:59Z</time><name>PT2780</name></trkpt>
<trkpt lat="54.458768" lon="-3.315798"><ele>443</ele><time>2022-03-28T14:01:01Z</time><name>PT2781</name></trkpt>
<trkpt lat="54.458762" lon="-3.315803"><ele>443</ele><time>2022-03-28T14:01:01Z</time><name>PT2782</name></trkpt>
<trkpt lat="54.458755" lon="-3.315811"><ele>443</ele><time>2022-03-28T14:01:02Z</time><name>PT2783</name></trkpt>
<trkpt lat="54.458747" lon="-3.315819"><ele>442</ele><time>2022-03-28T14:01:04Z</time><name>PT2784</name></trkpt>
<trkpt lat="54.458740" lon="-3.315824"><ele>442</ele><time>2022-03-28T14:01:04Z</time><name>PT2785</name></trkpt>
<trkpt lat="54.458734" lon="-3.315831"><ele>442</ele><time>2022-03-28T14:01:05Z</time><name>PT2786</name></trkpt>
<trkpt lat="54.458728" lon="-3.315840"><ele>441</ele><time>2022-03-28T14:01:07Z</time><name>PT2787</name></trkpt>
<trkpt lat="54.458720" lon="-3.315846"><ele>441</ele><time>2022-03-28T14:01:07Z</time><name>PT2788</name></trkpt>
<trkpt lat="54.458710" lon="-3.315849"><ele>441</ele><time>2022-03-28T14:01:08Z</time><name>PT2789</name></trkpt>
<trkpt lat="54.458701" lon="-3.315852"><ele>441</ele><time>2022-03-28T14:01:10Z</time><name>PT2790</name></trkpt>
<trkpt lat="54.458691" lon="-3.315857"><ele>441</ele><time>2022-03-28T14:01:10Z</time><name>PT2791</name></trkpt>
<trkpt lat="54.458682" lon="-3.315863"><ele>441</ele><time>2022-03-28T14:01:11Z</time><name>PT2792</name></trkpt>
<trkpt lat="54.458673" lon="-3.315869"><ele>440</ele><time>2022-03-28T14:01:13Z</time><name>PT2793</name></trkpt>
<trkpt lat="54.458667" lon="-3.315875"><ele>440</ele><time>2022-03-28T14:01:13Z</time><name>PT2794</name></trkpt>
<trkpt lat="54.458658" lon="-3.315882"><ele>440</ele><time>2022-03-28T14:01:14Z</time><name>PT2795</name></trkpt>
<trkpt lat="54.458648" lon="-3.315886"><ele>440</ele><time>2022-03-28T14:01:16Z</time><name>PT2796</name></trkpt>
<trkpt lat="54.458639" lon="-3.315886"><ele>440</ele><time>2022-03-28T14:01:16Z</time><name>PT2797</name></trkpt>
<trkpt lat="54.458630" lon="-3.315885"><ele>440</ele><time>2022-03-28T14:01:17Z</time><name>PT2798</name></trkpt>
<trkpt lat="54.458620" lon="-3.315877"><ele>440</ele><time>2022-03-28T14:01:19Z</time><name>PT2799</name></trkpt>
<trkpt lat="54.458612" lon="-3.315869"><ele>440</ele><time>2022-03-28T14:01:19Z</time><name>PT2800</name></trkpt>
<trkpt lat="54.458605" lon="-3.315866"><ele>440</ele><time>2022-03-28T14:01:20Z</time><name>PT2801</name></trkpt>
<trkpt lat="54.458595" lon="-3.315862"><ele>440</ele><time>2022-03-28T14:01:22Z</time><name>PT2802</name></trkpt>
<trkpt lat="54.458587" lon="-3.315858"><ele>440</ele><time>2022-03-28T14:01:22Z</time><name>PT2803</name></trkpt>
<trkpt lat="54.458577" lon="-3.315857"><ele>440</ele><time>2022-03-28T14:01:23Z</time><name>PT2804</name></trkpt>
<trkpt lat="54.458569" lon="-3.315855"><ele>439</ele><time>2022-03-28T14:01:25Z</time><name>PT2805</name></trkpt>
<trkpt lat="54.458561" lon="-3.315855"><ele>439</ele><time>2022-03-28T14:01:25Z</time><name>PT2806</name></trkpt>
<trkpt lat="54.458555" lon="-3.315858"><ele>438</ele><time>2022-03-28T14:01:26Z</time><name>PT2807</name></trkpt>
<trkpt lat="54.458550" lon="-3.315863"><ele>438</ele><time>2022-03-28T14:01:28Z</time><name>PT2808</name></trkpt>
<trkpt lat="54.458543" lon="-3.315870"><ele>438</ele><time>2022-03-28T14:01:28Z</time><name>PT2809</name></trkpt>
<trkpt lat="54.458534" lon="-3.315880"><ele>438</ele><time>2022-03-28T14:01:29Z</time><name>PT2810</name></trkpt>
<trkpt lat="54.458526" lon="-3.315887"><ele>437</ele><time>2022-03-28T14:01:31Z</time><name>PT2811</name></trkpt>
<trkpt lat="54.458519" lon="-3.315895"><ele>437</ele><time>2022-03-28T14:01:31Z</time><name>PT2812</name></trkpt>
<trkpt lat="54.458511" lon="-3.315909"><ele>437</ele><time>2022-03-28T14:01:32Z</time><name>PT2813</name></trkpt>
<trkpt lat="54.458504" lon="-3.315921"><ele>437</ele><time>2022-03-28T14:01:34Z</time><name>PT2814</name></trkpt>
<trkpt lat="54.458497" lon="-3.315934"><ele>437</ele><time>2022-03-28T14:01:34Z</time><name>PT2815</name></trkpt>
<trkpt lat="54.458490" lon="-3.315946"><ele>437</ele><time>2022-03-28T14:01:35Z</time><name>PT2816</name></trkpt>
<trkpt lat="54.458485" lon="-3.315954"><ele>437</ele><time>2022-03-28T14:01:37Z</time><name>PT2817</name></trkpt>
<trkpt lat="54.458479" lon="-3.315961"><ele>437</ele><time>2022-03-28T14:01:37Z</time><name>PT2818</name></trkpt>
<trkpt lat="54.458472" lon="-3.315968"><ele>437</ele><time>2022-03-28T14:01:38Z</time><name>PT2819</name></trkpt>
<trkpt lat="54.458464" lon="-3.315976"><ele>436</ele><time>2022-03-28T14:01:40Z</time><name>PT2820</name></trkpt>
<trkpt lat="54.458458" lon="-3.315983"><ele>435</ele><time>2022-03-28T14:01:40Z</time><name>PT2821</name></trkpt>
<trkpt lat="54.458452" lon="-3.315989"><ele>435</ele><time>2022-03-28T14:01:41Z</time><name>PT2822</name></trkpt>
<trkpt lat="54.458446" lon="-3.315998"><ele>435</ele><time>2022-03-28T14:01:43Z</time><name>PT2823</name></trkpt>
<trkpt lat="54.458440" lon="-3.316007"><ele>435</ele><time>2022-03-28T14:01:43Z</time><name>PT2824</name></trkpt>
<trkpt lat="54.458434" lon="-3.316018"><ele>435</ele><time>2022-03-28T14:01:44Z</time><name>PT2825</name></trkpt>
<trkpt lat="54.458417" lon="-3.316048"><ele>434</ele><time>2022-03-28T14:01:47Z</time><name>PT2826</name></trkpt>
<trkpt lat="54.458395" lon="-3.316079"><ele>433</ele><time>2022-03-28T14:01:52Z</time><name>PT2827</name></trkpt>
<trkpt lat="54.458384" lon="-3.316113"><ele>433</ele><time>2022-03-28T14:01:55Z</time><name>PT2828</name></trkpt>
<trkpt lat="54.458369" lon="-3.316139"><ele>432</ele><time>2022-03-28T14:01:58Z</time><name>PT2829</name></trkpt>
<trkpt lat="54.458360" lon="-3.316148"><ele>432</ele><time>2022-03-28T14:02:01Z</time><name>PT2830</name></trkpt>
<trkpt lat="54.458337" lon="-3.316175"><ele>432</ele><time>2022-03-28T14:02:04Z</time><name>PT2831</name></trkpt>
<trkpt lat="54.458323" lon="-3.316185"><ele>431</ele><time>2022-03-28T14:02:07Z</time><name>PT2832</name></trkpt>
<trkpt lat="54.458313" lon="-3.316189"><ele>431</ele><time>2022-03-28T14:02:11Z</time><name>PT2833</name></trkpt>
<trkpt lat="54.458312" lon="-3.316189"><ele>431</ele><time>2022-03-28T14:02:16Z</time><name>PT2834</name></trkpt>
<trkpt lat="54.458307" lon="-3.316229"><ele>430</ele><time>2022-03-28T14:02:19Z</time><name>PT2835</name></trkpt>
<trkpt lat="54.458287" lon="-3.316267"><ele>429</ele><time>2022-03-28T14:02:22Z</time><name>PT2836</name></trkpt>
<trkpt lat="54.458260" lon="-3.316300"><ele>428</ele><time>2022-03-28T14:02:25Z</time><name>PT2837</name></trkpt>
<trkpt lat="54.458225" lon="-3.316323"><ele>427</ele><time>2022-03-28T14:02:28Z</time><name>PT2838</name></trkpt>
<trkpt lat="54.458194" lon="-3.316313"><ele>427</ele><time>2022-03-28T14:02:32Z</time><name>PT2839</name></trkpt>
<trkpt lat="54.458157" lon="-3.316305"><ele>426</ele><time>2022-03-28T14:02:37Z</time><name>PT2840</name></trkpt>
<trkpt lat="54.458127" lon="-3.316295"><ele>426</ele><time>2022-03-28T14:02:40Z</time><name>PT2841</name></trkpt>
<trkpt lat="54.458099" lon="-3.316287"><ele>424</ele><time>2022-03-28T14:02:43Z</time><name>PT2842</name></trkpt>
<trkpt lat="54.458078" lon="-3.316303"><ele>424</ele><time>2022-03-28T14:02:46Z</time><name>PT2843</name></trkpt>
<trkpt lat="54.458056" lon="-3.316342"><ele>423</ele><time>2022-03-28T14:02:49Z</time><name>PT2844</name></trkpt>
<trkpt lat="54.458030" lon="-3.316343"><ele>423</ele><time>2022-03-28T14:02:52Z</time><name>PT2845</name></trkpt>
<trkpt lat="54.457993" lon="-3.316347"><ele>422</ele><time>2022-03-28T14:02:56Z</time><name>PT2846</name></trkpt>
<trkpt lat="54.457962" lon="-3.316384"><ele>424</ele><time>2022-03-28T14:02:59Z</time><name>PT2847</name></trkpt>
<trkpt lat="54.457926" lon="-3.316410"><ele>423</ele><time>2022-03-28T14:03:04Z</time><name>PT2848</name></trkpt>
<trkpt lat="54.457888" lon="-3.316419"><ele>423</ele><time>2022-03-28T14:03:07Z</time><name>PT2849</name></trkpt>
<trkpt lat="54.457850" lon="-3.316415"><ele>422</ele><time>2022-03-28T14:03:11Z</time><name>PT2850</name></trkpt>
<trkpt lat="54.457826" lon="-3.316403"><ele>421</ele><time>2022-03-28T14:03:16Z</time><name>PT2851</name></trkpt>
<trkpt lat="54.457821" lon="-3.316403"><ele>421</ele><time>2022-03-28T14:03:19Z</time><name>PT2852</name></trkpt>
<trkpt lat="54.457811" lon="-3.316391"><ele>421</ele><time>2022-03-28T14:03:29Z</time><name>PT2853</name></trkpt>
<trkpt lat="54.457791" lon="-3.316400"><ele>420</ele><time>2022-03-28T14:03:34Z</time><name>PT2854</name></trkpt>
<trkpt lat="54.457790" lon="-3.316392"><ele>420</ele><time>2022-03-28T14:03:37Z</time><name>PT2855</name></trkpt>
<trkpt lat="54.457793" lon="-3.316380"><ele>420</ele><time>2022-03-28T14:03:38Z</time><name>PT2856</name></trkpt>
<trkpt lat="54.457794" lon="-3.316374"><ele>420</ele><time>2022-03-28T14:03:40Z</time><name>PT2857</name></trkpt>
<trkpt lat="54.457788" lon="-3.316365"><ele>420</ele><time>2022-03-28T14:03:40Z</time><name>PT2858</name></trkpt>
<trkpt lat="54.457783" lon="-3.316359"><ele>419</ele><time>2022-03-28T14:03:41Z</time><name>PT2859</name></trkpt>
<trkpt lat="54.457775" lon="-3.316350"><ele>419</ele><time>2022-03-28T14:03:43Z</time><name>PT2860</name></trkpt>
<trkpt lat="54.457769" lon="-3.316341"><ele>420</ele><time>2022-03-28T14:03:43Z</time><name>PT2861</name></trkpt>
<trkpt lat="54.457764" lon="-3.316331"><ele>419</ele><time>2022-03-28T14:03:44Z</time><name>PT2862</name></trkpt>
<trkpt lat="54.457757" lon="-3.316326"><ele>420</ele><time>2022-03-28T14:03:46Z</time><name>PT2863</name></trkpt>
<trkpt lat="54.457753" lon="-3.316327"><ele>420</ele><time>2022-03-28T14:03:49Z</time><name>PT2864</name></trkpt>
<trkpt lat="54.457749" lon="-3.316323"><ele>420</ele><time>2022-03-28T14:03:50Z</time><name>PT2865</name></trkpt>
<trkpt lat="54.457738" lon="-3.316315"><ele>419</ele><time>2022-03-28T14:03:52Z</time><name>PT2866</name></trkpt>
<trkpt lat="54.457725" lon="-3.316308"><ele>419</ele><time>2022-03-28T14:03:52Z</time><name>PT2867</name></trkpt>
<trkpt lat="54.457718" lon="-3.316303"><ele>419</ele><time>2022-03-28T14:03:53Z</time><name>PT2868</name></trkpt>
<trkpt lat="54.457710" lon="-3.316296"><ele>419</ele><time>2022-03-28T14:03:55Z</time><name>PT2869</name></trkpt>
<trkpt lat="54.457704" lon="-3.316286"><ele>419</ele><time>2022-03-28T14:03:55Z</time><name>PT2870</name></trkpt>
<trkpt lat="54.457698" lon="-3.316279"><ele>419</ele><time>2022-03-28T14:03:56Z</time><name>PT2871</name></trkpt>
<trkpt lat="54.457689" lon="-3.316276"><ele>419</ele><time>2022-03-28T14:03:58Z</time><name>PT2872</name></trkpt>
<trkpt lat="54.457681" lon="-3.316271"><ele>419</ele><time>2022-03-28T14:03:58Z</time><name>PT2873</name></trkpt>
<trkpt lat="54.457675" lon="-3.316269"><ele>419</ele><time>2022-03-28T14:03:59Z</time><name>PT2874</name></trkpt>
<trkpt lat="54.457667" lon="-3.316269"><ele>419</ele><time>2022-03-28T14:04:01Z</time><name>PT2875</name></trkpt>
<trkpt lat="54.457657" lon="-3.316266"><ele>419</ele><time>2022-03-28T14:04:01Z</time><name>PT2876</name></trkpt>
<trkpt lat="54.457649" lon="-3.316264"><ele>419</ele><time>2022-03-28T14:04:02Z</time><name>PT2877</name></trkpt>
<trkpt lat="54.457643" lon="-3.316261"><ele>419</ele><time>2022-03-28T14:04:04Z</time><name>PT2878</name></trkpt>
<trkpt lat="54.457636" lon="-3.316260"><ele>419</ele><time>2022-03-28T14:04:04Z</time><name>PT2879</name></trkpt>
<trkpt lat="54.457629" lon="-3.316257"><ele>419</ele><time>2022-03-28T14:04:05Z</time><name>PT2880</name></trkpt>
<trkpt lat="54.457625" lon="-3.316255"><ele>418</ele><time>2022-03-28T14:04:07Z</time><name>PT2881</name></trkpt>
<trkpt lat="54.457614" lon="-3.316250"><ele>418</ele><time>2022-03-28T14:04:07Z</time><name>PT2882</name></trkpt>
<trkpt lat="54.457608" lon="-3.316249"><ele>418</ele><time>2022-03-28T14:04:08Z</time><name>PT2883</name></trkpt>
<trkpt lat="54.457603" lon="-3.316243"><ele>418</ele><time>2022-03-28T14:04:10Z</time><name>PT2884</name></trkpt>
<trkpt lat="54.457597" lon="-3.316241"><ele>418</ele><time>2022-03-28T14:04:10Z</time><name>PT2885</name></trkpt>
<trkpt lat="54.457591" lon="-3.316241"><ele>419</ele><time>2022-03-28T14:04:11Z</time><name>PT2886</name></trkpt>
<trkpt lat="54.457584" lon="-3.316246"><ele>418</ele><time>2022-03-28T14:04:13Z</time><name>PT2887</name></trkpt>
<trkpt lat="54.457578" lon="-3.316249"><ele>418</ele><time>2022-03-28T14:04:13Z</time><name>PT2888</name></trkpt>
<trkpt lat="54.457572" lon="-3.316248"><ele>418</ele><time>2022-03-28T14:04:14Z</time><name>PT2889</name></trkpt>
<trkpt lat="54.457562" lon="-3.316244"><ele>418</ele><time>2022-03-28T14:04:16Z</time><name>PT2890</name></trkpt>
<trkpt lat="54.457554" lon="-3.316241"><ele>418</ele><time>2022-03-28T14:04:16Z</time><name>PT2891</name></trkpt>
<trkpt lat="54.457544" lon="-3.316242"><ele>418</ele><time>2022-03-28T14:04:17Z</time><name>PT2892</name></trkpt>
<trkpt lat="54.457535" lon="-3.316243"><ele>418</ele><time>2022-03-28T14:04:19Z</time><name>PT2893</name></trkpt>
<trkpt lat="54.457524" lon="-3.316244"><ele>417</ele><time>2022-03-28T14:04:19Z</time><name>PT2894</name></trkpt>
<trkpt lat="54.457511" lon="-3.316242"><ele>417</ele><time>2022-03-28T14:04:20Z</time><name>PT2895</name></trkpt>
<trkpt lat="54.457501" lon="-3.316245"><ele>417</ele><time>2022-03-28T14:04:22Z</time><name>PT2896</name></trkpt>
<trkpt lat="54.457492" lon="-3.316251"><ele>417</ele><time>2022-03-28T14:04:22Z</time><name>PT2897</name></trkpt>
<trkpt lat="54.457484" lon="-3.316254"><ele>417</ele><time>2022-03-28T14:04:23Z</time><name>PT2898</name></trkpt>
<trkpt lat="54.457480" lon="-3.316255"><ele>417</ele><time>2022-03-28T14:04:25Z</time><name>PT2899</name></trkpt>
<trkpt lat="54.457472" lon="-3.316258"><ele>417</ele><time>2022-03-28T14:04:25Z</time><name>PT2900</name></trkpt>
<trkpt lat="54.457464" lon="-3.316260"><ele>417</ele><time>2022-03-28T14:04:26Z</time><name>PT2901</name></trkpt>
<trkpt lat="54.457457" lon="-3.316263"><ele>417</ele><time>2022-03-28T14:04:28Z</time><name>PT2902</name></trkpt>
<trkpt lat="54.457448" lon="-3.316262"><ele>417</ele><time>2022-03-28T14:04:28Z</time><name>PT2903</name></trkpt>
<trkpt lat="54.457436" lon="-3.316261"><ele>417</ele><time>2022-03-28T14:04:29Z</time><name>PT2904</name></trkpt>
<trkpt lat="54.457429" lon="-3.316259"><ele>417</ele><time>2022-03-28T14:04:31Z</time><name>PT2905</name></trkpt>
<trkpt lat="54.457421" lon="-3.316257"><ele>417</ele><time>2022-03-28T14:04:31Z</time><name>PT2906</name></trkpt>
<trkpt lat="54.457411" lon="-3.316256"><ele>417</ele><time>2022-03-28T14:04:32Z</time><name>PT2907</name></trkpt>
<trkpt lat="54.457403" lon="-3.316257"><ele>417</ele><time>2022-03-28T14:04:34Z</time><name>PT2908</name></trkpt>
<trkpt lat="54.457395" lon="-3.316256"><ele>417</ele><time>2022-03-28T14:04:34Z</time><name>PT2909</name></trkpt>
<trkpt lat="54.457387" lon="-3.316254"><ele>417</ele><time>2022-03-28T14:04:35Z</time><name>PT2910</name></trkpt>
<trkpt lat="54.457379" lon="-3.316257"><ele>417</ele><time>2022-03-28T14:04:37Z</time><name>PT2911</name></trkpt>
<trkpt lat="54.457371" lon="-3.316259"><ele>417</ele><time>2022-03-28T14:04:37Z</time><name>PT2912</name></trkpt>
<trkpt lat="54.457366" lon="-3.316259"><ele>417</ele><time>2022-03-28T14:04:38Z</time><name>PT2913</name></trkpt>
<trkpt lat="54.457361" lon="-3.316258"><ele>416</ele><time>2022-03-28T14:04:40Z</time><name>PT2914</name></trkpt>
<trkpt lat="54.457354" lon="-3.316258"><ele>416</ele><time>2022-03-28T14:04:40Z</time><name>PT2915</name></trkpt>
<trkpt lat="54.457346" lon="-3.316255"><ele>416</ele><time>2022-03-28T14:04:41Z</time><name>PT2916</name></trkpt>
<trkpt lat="54.457338" lon="-3.316252"><ele>417</ele><time>2022-03-28T14:04:43Z</time><name>PT2917</name></trkpt>
<trkpt lat="54.457328" lon="-3.316253"><ele>417</ele><time>2022-03-28T14:04:43Z</time><name>PT2918</name></trkpt>
<trkpt lat="54.457321" lon="-3.316246"><ele>416</ele><time>2022-03-28T14:04:44Z</time><name>PT2919</name></trkpt>
<trkpt lat="54.457314" lon="-3.316242"><ele>417</ele><time>2022-03-28T14:04:46Z</time><name>PT2920</name></trkpt>
<trkpt lat="54.457306" lon="-3.316238"><ele>416</ele><time>2022-03-28T14:04:46Z</time><name>PT2921</name></trkpt>
<trkpt lat="54.457300" lon="-3.316238"><ele>416</ele><time>2022-03-28T14:04:47Z</time><name>PT2922</name></trkpt>
<trkpt lat="54.457297" lon="-3.316237"><ele>416</ele><time>2022-03-28T14:04:49Z</time><name>PT2923</name></trkpt>
<trkpt lat="54.457294" lon="-3.316241"><ele>417</ele><time>2022-03-28T14:04:49Z</time><name>PT2924</name></trkpt>
<trkpt lat="54.457291" lon="-3.316242"><ele>417</ele><time>2022-03-28T14:04:50Z</time><name>PT2925</name></trkpt>
<trkpt lat="54.457288" lon="-3.316243"><ele>417</ele><time>2022-03-28T14:04:52Z</time><name>PT2926</name></trkpt>
<trkpt lat="54.457281" lon="-3.316246"><ele>416</ele><time>2022-03-28T14:04:52Z</time><name>PT2927</name></trkpt>
<trkpt lat="54.457274" lon="-3.316254"><ele>416</ele><time>2022-03-28T14:04:53Z</time><name>PT2928</name></trkpt>
<trkpt lat="54.457269" lon="-3.316263"><ele>416</ele><time>2022-03-28T14:04:55Z</time><name>PT2929</name></trkpt>
<trkpt lat="54.457267" lon="-3.316271"><ele>416</ele><time>2022-03-28T14:04:55Z</time><name>PT2930</name></trkpt>
<trkpt lat="54.457265" lon="-3.316282"><ele>416</ele><time>2022-03-28T14:04:56Z</time><name>PT2931</name></trkpt>
<trkpt lat="54.457262" lon="-3.316290"><ele>415</ele><time>2022-03-28T14:04:58Z</time><name>PT2932</name></trkpt>
<trkpt lat="54.457258" lon="-3.316297"><ele>415</ele><time>2022-03-28T14:04:58Z</time><name>PT2933</name></trkpt>
<trkpt lat="54.457251" lon="-3.316300"><ele>414</ele><time>2022-03-28T14:04:59Z</time><name>PT2934</name></trkpt>
<trkpt lat="54.457245" lon="-3.316305"><ele>414</ele><time>2022-03-28T14:05:01Z</time><name>PT2935</name></trkpt>
<trkpt lat="54.457240" lon="-3.316309"><ele>414</ele><time>2022-03-28T14:05:01Z</time><name>PT2936</name></trkpt>
<trkpt lat="54.457236" lon="-3.316315"><ele>414</ele><time>2022-03-28T14:05:02Z</time><name>PT2937</name></trkpt>
<trkpt lat="54.457230" lon="-3.316318"><ele>413</ele><time>2022-03-28T14:05:04Z</time><name>PT2938</name></trkpt>
<trkpt lat="54.457224" lon="-3.316319"><ele>413</ele><time>2022-03-28T14:05:04Z</time><name>PT2939</name></trkpt>
<trkpt lat="54.457219" lon="-3.316316"><ele>413</ele><time>2022-03-28T14:05:05Z</time><name>PT2940</name></trkpt>
<trkpt lat="54.457213" lon="-3.316316"><ele>413</ele><time>2022-03-28T14:05:07Z</time><name>PT2941</name></trkpt>
<trkpt lat="54.457204" lon="-3.316319"><ele>412</ele><time>2022-03-28T14:05:07Z</time><name>PT2942</name></trkpt>
<trkpt lat="54.457197" lon="-3.316326"><ele>412</ele><time>2022-03-28T14:05:08Z</time><name>PT2943</name></trkpt>
<trkpt lat="54.457190" lon="-3.316334"><ele>412</ele><time>2022-03-28T14:05:10Z</time><name>PT2944</name></trkpt>
<trkpt lat="54.457182" lon="-3.316341"><ele>412</ele><time>2022-03-28T14:05:10Z</time><name>PT2945</name></trkpt>
<trkpt lat="54.457176" lon="-3.316349"><ele>412</ele><time>2022-03-28T14:05:11Z</time><name>PT2946</name></trkpt>
<trkpt lat="54.457170" lon="-3.316356"><ele>411</ele><time>2022-03-28T14:05:13Z</time><name>PT2947</name></trkpt>
<trkpt lat="54.457161" lon="-3.316364"><ele>411</ele><time>2022-03-28T14:05:13Z</time><name>PT2948</name></trkpt>
<trkpt lat="54.457151" lon="-3.316366"><ele>411</ele><time>2022-03-28T14:05:14Z</time><name>PT2949</name></trkpt>
<trkpt lat="54.457144" lon="-3.316364"><ele>410</ele><time>2022-03-28T14:05:16Z</time><name>PT2950</name></trkpt>
<trkpt lat="54.457137" lon="-3.316362"><ele>410</ele><time>2022-03-28T14:05:16Z</time><name>PT2951</name></trkpt>
<trkpt lat="54.457129" lon="-3.316361"><ele>410</ele><time>2022-03-28T14:05:17Z</time><name>PT2952</name></trkpt>
<trkpt lat="54.457123" lon="-3.316361"><ele>410</ele><time>2022-03-28T14:05:19Z</time><name>PT2953</name></trkpt>
<trkpt lat="54.457118" lon="-3.316363"><ele>409</ele><time>2022-03-28T14:05:19Z</time><name>PT2954</name></trkpt>
<trkpt lat="54.457111" lon="-3.316366"><ele>409</ele><time>2022-03-28T14:05:20Z</time><name>PT2955</name></trkpt>
<trkpt lat="54.457104" lon="-3.316367"><ele>409</ele><time>2022-03-28T14:05:22Z</time><name>PT2956</name></trkpt>
<trkpt lat="54.457098" lon="-3.316368"><ele>409</ele><time>2022-03-28T14:05:22Z</time><name>PT2957</name></trkpt>
<trkpt lat="54.457090" lon="-3.316369"><ele>409</ele><time>2022-03-28T14:05:23Z</time><name>PT2958</name></trkpt>
<trkpt lat="54.457080" lon="-3.316370"><ele>409</ele><time>2022-03-28T14:05:25Z</time><name>PT2959</name></trkpt>
<trkpt lat="54.457072" lon="-3.316370"><ele>408</ele><time>2022-03-28T14:05:25Z</time><name>PT2960</name></trkpt>
<trkpt lat="54.457065" lon="-3.316367"><ele>408</ele><time>2022-03-28T14:05:26Z</time><name>PT2961</name></trkpt>
<trkpt lat="54.457059" lon="-3.316364"><ele>408</ele><time>2022-03-28T14:05:28Z</time><name>PT2962</name></trkpt>
<trkpt lat="54.457052" lon="-3.316361"><ele>408</ele><time>2022-03-28T14:05:28Z</time><name>PT2963</name></trkpt>
<trkpt lat="54.457044" lon="-3.316359"><ele>407</ele><time>2022-03-28T14:05:29Z</time><name>PT2964</name></trkpt>
<trkpt lat="54.457038" lon="-3.316358"><ele>407</ele><time>2022-03-28T14:05:31Z</time><name>PT2965</name></trkpt>
<trkpt lat="54.457032" lon="-3.316359"><ele>407</ele><time>2022-03-28T14:05:31Z</time><name>PT2966</name></trkpt>
<trkpt lat="54.457023" lon="-3.316365"><ele>407</ele><time>2022-03-28T14:05:32Z</time><name>PT2967</name></trkpt>
<trkpt lat="54.457015" lon="-3.316369"><ele>407</ele><time>2022-03-28T14:05:34Z</time><name>PT2968</name></trkpt>
<trkpt lat="54.457009" lon="-3.316371"><ele>406</ele><time>2022-03-28T14:05:34Z</time><name>PT2969</name></trkpt>
<trkpt lat="54.457004" lon="-3.316371"><ele>406</ele><time>2022-03-28T14:05:35Z</time><name>PT2970</name></trkpt>
<trkpt lat="54.456997" lon="-3.316369"><ele>406</ele><time>2022-03-28T14:05:36Z</time><name>PT2971</name></trkpt>
<trkpt lat="54.456988" lon="-3.316364"><ele>406</ele><time>2022-03-28T14:05:37Z</time><name>PT2972</name></trkpt>
<trkpt lat="54.456980" lon="-3.316365"><ele>406</ele><time>2022-03-28T14:05:39Z</time><name>PT2973</name></trkpt>
<trkpt lat="54.456973" lon="-3.316371"><ele>405</ele><time>2022-03-28T14:05:39Z</time><name>PT2974</name></trkpt>
<trkpt lat="54.456966" lon="-3.316376"><ele>405</ele><time>2022-03-28T14:05:40Z</time><name>PT2975</name></trkpt>
<trkpt lat="54.456959" lon="-3.316378"><ele>405</ele><time>2022-03-28T14:05:42Z</time><name>PT2976</name></trkpt>
<trkpt lat="54.456952" lon="-3.316387"><ele>405</ele><time>2022-03-28T14:05:42Z</time><name>PT2977</name></trkpt>
<trkpt lat="54.456947" lon="-3.316401"><ele>405</ele><time>2022-03-28T14:05:43Z</time><name>PT2978</name></trkpt>
<trkpt lat="54.456945" lon="-3.316420"><ele>405</ele><time>2022-03-28T14:05:45Z</time><name>PT2979</name></trkpt>
<trkpt lat="54.456943" lon="-3.316436"><ele>404</ele><time>2022-03-28T14:05:45Z</time><name>PT2980</name></trkpt>
<trkpt lat="54.456938" lon="-3.316449"><ele>405</ele><time>2022-03-28T14:05:46Z</time><name>PT2981</name></trkpt>
<trkpt lat="54.456932" lon="-3.316457"><ele>405</ele><time>2022-03-28T14:05:48Z</time><name>PT2982</name></trkpt>
<trkpt lat="54.456923" lon="-3.316460"><ele>404</ele><time>2022-03-28T14:05:48Z</time><name>PT2983</name></trkpt>
<trkpt lat="54.456915" lon="-3.316463"><ele>404</ele><time>2022-03-28T14:05:49Z</time><name>PT2984</name></trkpt>
<trkpt lat="54.456907" lon="-3.316468"><ele>404</ele><time>2022-03-28T14:05:51Z</time><name>PT2985</name></trkpt>
<trkpt lat="54.456900" lon="-3.316469"><ele>403</ele><time>2022-03-28T14:05:51Z</time><name>PT2986</name></trkpt>
<trkpt lat="54.456895" lon="-3.316468"><ele>403</ele><time>2022-03-28T14:05:52Z</time><name>PT2987</name></trkpt>
<trkpt lat="54.456890" lon="-3.316466"><ele>403</ele><time>2022-03-28T14:05:54Z</time><name>PT2988</name></trkpt>
<trkpt lat="54.456886" lon="-3.316463"><ele>403</ele><time>2022-03-28T14:05:54Z</time><name>PT2989</name></trkpt>
<trkpt lat="54.456884" lon="-3.316462"><ele>403</ele><time>2022-03-28T14:05:55Z</time><name>PT2990</name></trkpt>
<trkpt lat="54.456879" lon="-3.316462"><ele>403</ele><time>2022-03-28T14:05:57Z</time><name>PT2991</name></trkpt>
<trkpt lat="54.456876" lon="-3.316458"><ele>403</ele><time>2022-03-28T14:05:57Z</time><name>PT2992</name></trkpt>
<trkpt lat="54.456869" lon="-3.316459"><ele>403</ele><time>2022-03-28T14:05:58Z</time><name>PT2993</name></trkpt>
<trkpt lat="54.456858" lon="-3.316459"><ele>403</ele><time>2022-03-28T14:06:00Z</time><name>PT2994</name></trkpt>
<trkpt lat="54.456846" lon="-3.316458"><ele>403</ele><time>2022-03-28T14:06:00Z</time><name>PT2995</name></trkpt>
<trkpt lat="54.456834" lon="-3.316455"><ele>403</ele><time>2022-03-28T14:06:01Z</time><name>PT2996</name></trkpt>
<trkpt lat="54.456823" lon="-3.316450"><ele>402</ele><time>2022-03-28T14:06:03Z</time><name>PT2997</name></trkpt>
<trkpt lat="54.456812" lon="-3.316446"><ele>402</ele><time>2022-03-28T14:06:03Z</time><name>PT2998</name></trkpt>
<trkpt lat="54.456800" lon="-3.316441"><ele>402</ele><time>2022-03-28T14:06:04Z</time><name>PT2999</name></trkpt>
<trkpt lat="54.456786" lon="-3.316435"><ele>402</ele><time>2022-03-28T14:06:06Z</time><name>PT3000</name></trkpt>
<trkpt lat="54.456776" lon="-3.316432"><ele>402</ele><time>2022-03-28T14:06:06Z</time><name>PT3001</name></trkpt>
<trkpt lat="54.456763" lon="-3.316428"><ele>402</ele><time>2022-03-28T14:06:07Z</time><name>PT3002</name></trkpt>
<trkpt lat="54.456753" lon="-3.316419"><ele>402</ele><time>2022-03-28T14:06:09Z</time><name>PT3003</name></trkpt>
<trkpt lat="54.456743" lon="-3.316414"><ele>403</ele><time>2022-03-28T14:06:09Z</time><name>PT3004</name></trkpt>
<trkpt lat="54.456736" lon="-3.316412"><ele>403</ele><time>2022-03-28T14:06:10Z</time><name>PT3005</name></trkpt>
<trkpt lat="54.456730" lon="-3.316405"><ele>403</ele><time>2022-03-28T14:06:12Z</time><name>PT3006</name></trkpt>
<trkpt lat="54.456726" lon="-3.316405"><ele>403</ele><time>2022-03-28T14:06:12Z</time><name>PT3007</name></trkpt>
<trkpt lat="54.456722" lon="-3.316403"><ele>403</ele><time>2022-03-28T14:06:13Z</time><name>PT3008</name></trkpt>
<trkpt lat="54.456722" lon="-3.316398"><ele>403</ele><time>2022-03-28T14:06:15Z</time><name>PT3009</name></trkpt>
<trkpt lat="54.456717" lon="-3.316385"><ele>402</ele><time>2022-03-28T14:06:16Z</time><name>PT3010</name></trkpt>
<trkpt lat="54.456714" lon="-3.316384"><ele>402</ele><time>2022-03-28T14:06:18Z</time><name>PT3011</name></trkpt>
<trkpt lat="54.456712" lon="-3.316382"><ele>402</ele><time>2022-03-28T14:06:18Z</time><name>PT3012</name></trkpt>
<trkpt lat="54.456708" lon="-3.316382"><ele>403</ele><time>2022-03-28T14:06:19Z</time><name>PT3013</name></trkpt>
<trkpt lat="54.456702" lon="-3.316381"><ele>403</ele><time>2022-03-28T14:08:03Z</time><name>PT3014</name></trkpt>
<trkpt lat="54.456690" lon="-3.316363"><ele>403</ele><time>2022-03-28T14:08:03Z</time><name>PT3015</name></trkpt>
<trkpt lat="54.456680" lon="-3.316346"><ele>403</ele><time>2022-03-28T14:08:04Z</time><name>PT3016</name></trkpt>
<trkpt lat="54.456671" lon="-3.316326"><ele>403</ele><time>2022-03-28T14:08:06Z</time><name>PT3017</name></trkpt>
<trkpt lat="54.456663" lon="-3.316311"><ele>403</ele><time>2022-03-28T14:08:06Z</time><name>PT3018</name></trkpt>
<trkpt lat="54.456656" lon="-3.316298"><ele>403</ele><time>2022-03-28T14:08:08Z</time><name>PT3019</name></trkpt>
<trkpt lat="54.456653" lon="-3.316287"><ele>403</ele><time>2022-03-28T14:08:09Z</time><name>PT3020</name></trkpt>
<trkpt lat="54.456648" lon="-3.316277"><ele>403</ele><time>2022-03-28T14:08:09Z</time><name>PT3021</name></trkpt>
<trkpt lat="54.456636" lon="-3.316260"><ele>402</ele><time>2022-03-28T14:08:10Z</time><name>PT3022</name></trkpt>
<trkpt lat="54.456626" lon="-3.316250"><ele>402</ele><time>2022-03-28T14:08:12Z</time><name>PT3023</name></trkpt>
<trkpt lat="54.456618" lon="-3.316244"><ele>402</ele><time>2022-03-28T14:08:12Z</time><name>PT3024</name></trkpt>
<trkpt lat="54.456613" lon="-3.316240"><ele>403</ele><time>2022-03-28T14:08:13Z</time><name>PT3025</name></trkpt>
<trkpt lat="54.456611" lon="-3.316235"><ele>403</ele><time>2022-03-28T14:08:15Z</time><name>PT3026</name></trkpt>
<trkpt lat="54.456607" lon="-3.316227"><ele>403</ele><time>2022-03-28T14:08:17Z</time><name>PT3027</name></trkpt>
<trkpt lat="54.456603" lon="-3.316221"><ele>402</ele><time>2022-03-28T14:08:18Z</time><name>PT3028</name></trkpt>
<trkpt lat="54.456599" lon="-3.316217"><ele>402</ele><time>2022-03-28T14:08:18Z</time><name>PT3029</name></trkpt>
<trkpt lat="54.456594" lon="-3.316212"><ele>402</ele><time>2022-03-28T14:08:22Z</time><name>PT3030</name></trkpt>
<trkpt lat="54.456584" lon="-3.316203"><ele>402</ele><time>2022-03-28T14:08:24Z</time><name>PT3031</name></trkpt>
<trkpt lat="54.456571" lon="-3.316190"><ele>401</ele><time>2022-03-28T14:08:24Z</time><name>PT3032</name></trkpt>
<trkpt lat="54.456560" lon="-3.316187"><ele>401</ele><time>2022-03-28T14:08:25Z</time><name>PT3033</name></trkpt>
<trkpt lat="54.456553" lon="-3.316187"><ele>401</ele><time>2022-03-28T14:08:27Z</time><name>PT3034</name></trkpt>
<trkpt lat="54.456543" lon="-3.316187"><ele>401</ele><time>2022-03-28T14:08:27Z</time><name>PT3035</name></trkpt>
<trkpt lat="54.456533" lon="-3.316186"><ele>401</ele><time>2022-03-28T14:08:28Z</time><name>PT3036</name></trkpt>
<trkpt lat="54.456526" lon="-3.316178"><ele>401</ele><time>2022-03-28T14:08:30Z</time><name>PT3037</name></trkpt>
<trkpt lat="54.456516" lon="-3.316180"><ele>401</ele><time>2022-03-28T14:08:30Z</time><name>PT3038</name></trkpt>
<trkpt lat="54.456504" lon="-3.316179"><ele>401</ele><time>2022-03-28T14:08:32Z</time><name>PT3039</name></trkpt>
<trkpt lat="54.456492" lon="-3.316169"><ele>401</ele><time>2022-03-28T14:08:33Z</time><name>PT3040</name></trkpt>
<trkpt lat="54.456486" lon="-3.316160"><ele>402</ele><time>2022-03-28T14:08:33Z</time><name>PT3041</name></trkpt>
<trkpt lat="54.456478" lon="-3.316150"><ele>402</ele><time>2022-03-28T14:08:34Z</time><name>PT3042</name></trkpt>
<trkpt lat="54.456466" lon="-3.316144"><ele>403</ele><time>2022-03-28T14:08:36Z</time><name>PT3043</name></trkpt>
<trkpt lat="54.456455" lon="-3.316141"><ele>403</ele><time>2022-03-28T14:08:36Z</time><name>PT3044</name></trkpt>
<trkpt lat="54.456447" lon="-3.316135"><ele>404</ele><time>2022-03-28T14:08:37Z</time><name>PT3045</name></trkpt>
<trkpt lat="54.456437" lon="-3.316130"><ele>404</ele><time>2022-03-28T14:08:39Z</time><name>PT3046</name></trkpt>
<trkpt lat="54.456430" lon="-3.316127"><ele>404</ele><time>2022-03-28T14:08:39Z</time><name>PT3047</name></trkpt>
<trkpt lat="54.456420" lon="-3.316125"><ele>405</ele><time>2022-03-28T14:08:40Z</time><name>PT3048</name></trkpt>
<trkpt lat="54.456413" lon="-3.316122"><ele>405</ele><time>2022-03-28T14:08:42Z</time><name>PT3049</name></trkpt>
<trkpt lat="54.456406" lon="-3.316116"><ele>405</ele><time>2022-03-28T14:08:42Z</time><name>PT3050</name></trkpt>
<trkpt lat="54.456394" lon="-3.316111"><ele>405</ele><time>2022-03-28T14:08:43Z</time><name>PT3051</name></trkpt>
<trkpt lat="54.456383" lon="-3.316103"><ele>405</ele><time>2022-03-28T14:08:45Z</time><name>PT3052</name></trkpt>
<trkpt lat="54.456371" lon="-3.316099"><ele>406</ele><time>2022-03-28T14:08:45Z</time><name>PT3053</name></trkpt>
<trkpt lat="54.456359" lon="-3.316092"><ele>407</ele><time>2022-03-28T14:08:46Z</time><name>PT3054</name></trkpt>
<trkpt lat="54.456347" lon="-3.316081"><ele>407</ele><time>2022-03-28T14:08:48Z</time><name>PT3055</name></trkpt>
<trkpt lat="54.456339" lon="-3.316070"><ele>407</ele><time>2022-03-28T14:08:48Z</time><name>PT3056</name></trkpt>
<trkpt lat="54.456332" lon="-3.316065"><ele>407</ele><time>2022-03-28T14:08:49Z</time><name>PT3057</name></trkpt>
<trkpt lat="54.456322" lon="-3.316058"><ele>407</ele><time>2022-03-28T14:08:51Z</time><name>PT3058</name></trkpt>
<trkpt lat="54.456313" lon="-3.316054"><ele>407</ele><time>2022-03-28T14:08:51Z</time><name>PT3059</name></trkpt>
<trkpt lat="54.456303" lon="-3.316051"><ele>407</ele><time>2022-03-28T14:08:52Z</time><name>PT3060</name></trkpt>
<trkpt lat="54.456293" lon="-3.316047"><ele>407</ele><time>2022-03-28T14:08:54Z</time><name>PT3061</name></trkpt>
<trkpt lat="54.456277" lon="-3.316044"><ele>407</ele><time>2022-03-28T14:08:54Z</time><name>PT3062</name></trkpt>
<trkpt lat="54.456266" lon="-3.316033"><ele>406</ele><time>2022-03-28T14:08:55Z</time><name>PT3063</name></trkpt>
<trkpt lat="54.456257" lon="-3.316020"><ele>406</ele><time>2022-03-28T14:08:57Z</time><name>PT3064</name></trkpt>
<trkpt lat="54.456247" lon="-3.315998"><ele>406</ele><time>2022-03-28T14:08:57Z</time><name>PT3065</name></trkpt>
<trkpt lat="54.456236" lon="-3.315975"><ele>405</ele><time>2022-03-28T14:08:58Z</time><name>PT3066</name></trkpt>
<trkpt lat="54.456232" lon="-3.315957"><ele>405</ele><time>2022-03-28T14:09:00Z</time><name>PT3067</name></trkpt>
<trkpt lat="54.456226" lon="-3.315947"><ele>405</ele><time>2022-03-28T14:09:00Z</time><name>PT3068</name></trkpt>
<trkpt lat="54.456218" lon="-3.315935"><ele>405</ele><time>2022-03-28T14:09:01Z</time><name>PT3069</name></trkpt>
<trkpt lat="54.456210" lon="-3.315925"><ele>405</ele><time>2022-03-28T14:09:03Z</time><name>PT3070</name></trkpt>
<trkpt lat="54.456200" lon="-3.315918"><ele>405</ele><time>2022-03-28T14:09:03Z</time><name>PT3071</name></trkpt>
<trkpt lat="54.456188" lon="-3.315914"><ele>405</ele><time>2022-03-28T14:09:04Z</time><name>PT3072</name></trkpt>
<trkpt lat="54.456178" lon="-3.315907"><ele>405</ele><time>2022-03-28T14:09:06Z</time><name>PT3073</name></trkpt>
<trkpt lat="54.456167" lon="-3.315900"><ele>405</ele><time>2022-03-28T14:09:06Z</time><name>PT3074</name></trkpt>
<trkpt lat="54.456155" lon="-3.315887"><ele>405</ele><time>2022-03-28T14:09:07Z</time><name>PT3075</name></trkpt>
<trkpt lat="54.456145" lon="-3.315875"><ele>405</ele><time>2022-03-28T14:09:09Z</time><name>PT3076</name></trkpt>
<trkpt lat="54.456138" lon="-3.315850"><ele>406</ele><time>2022-03-28T14:09:09Z</time><name>PT3077</name></trkpt>
<trkpt lat="54.456131" lon="-3.315832"><ele>406</ele><time>2022-03-28T14:09:10Z</time><name>PT3078</name></trkpt>
<trkpt lat="54.456124" lon="-3.315824"><ele>406</ele><time>2022-03-28T14:09:12Z</time><name>PT3079</name></trkpt>
<trkpt lat="54.456115" lon="-3.315816"><ele>406</ele><time>2022-03-28T14:09:12Z</time><name>PT3080</name></trkpt>
<trkpt lat="54.456106" lon="-3.315806"><ele>406</ele><time>2022-03-28T14:09:13Z</time><name>PT3081</name></trkpt>
<trkpt lat="54.456097" lon="-3.315795"><ele>406</ele><time>2022-03-28T14:09:15Z</time><name>PT3082</name></trkpt>
<trkpt lat="54.456088" lon="-3.315784"><ele>406</ele><time>2022-03-28T14:09:15Z</time><name>PT3083</name></trkpt>
<trkpt lat="54.456084" lon="-3.315773"><ele>406</ele><time>2022-03-28T14:09:16Z</time><name>PT3084</name></trkpt>
<trkpt lat="54.456073" lon="-3.315768"><ele>406</ele><time>2022-03-28T14:09:18Z</time><name>PT3085</name></trkpt>
<trkpt lat="54.456067" lon="-3.315764"><ele>406</ele><time>2022-03-28T14:09:18Z</time><name>PT3086</name></trkpt>
<trkpt lat="54.456059" lon="-3.315759"><ele>406</ele><time>2022-03-28T14:09:19Z</time><name>PT3087</name></trkpt>
<trkpt lat="54.456051" lon="-3.315754"><ele>406</ele><time>2022-03-28T14:09:21Z</time><name>PT3088</name></trkpt>
<trkpt lat="54.456045" lon="-3.315753"><ele>407</ele><time>2022-03-28T14:09:21Z</time><name>PT3089</name></trkpt>
<trkpt lat="54.456039" lon="-3.315745"><ele>406</ele><time>2022-03-28T14:09:22Z</time><name>PT3090</name></trkpt>
<trkpt lat="54.456034" lon="-3.315735"><ele>406</ele><time>2022-03-28T14:09:24Z</time><name>PT3091</name></trkpt>
<trkpt lat="54.456028" lon="-3.315724"><ele>406</ele><time>2022-03-28T14:09:24Z</time><name>PT3092</name></trkpt>
<trkpt lat="54.456018" lon="-3.315713"><ele>406</ele><time>2022-03-28T14:09:25Z</time><name>PT3093</name></trkpt>
<trkpt lat="54.456016" lon="-3.315697"><ele>405</ele><time>2022-03-28T14:09:27Z</time><name>PT3094</name></trkpt>
<trkpt lat="54.456014" lon="-3.315682"><ele>405</ele><time>2022-03-28T14:09:27Z</time><name>PT3095</name></trkpt>
<trkpt lat="54.456013" lon="-3.315669"><ele>405</ele><time>2022-03-28T14:09:28Z</time><name>PT3096</name></trkpt>
<trkpt lat="54.456011" lon="-3.315657"><ele>405</ele><time>2022-03-28T14:09:30Z</time><name>PT3097</name></trkpt>
<trkpt lat="54.456006" lon="-3.315644"><ele>405</ele><time>2022-03-28T14:09:30Z</time><name>PT3098</name></trkpt>
<trkpt lat="54.456004" lon="-3.315636"><ele>405</ele><time>2022-03-28T14:09:31Z</time><name>PT3099</name></trkpt>
<trkpt lat="54.456002" lon="-3.315634"><ele>405</ele><time>2022-03-28T14:09:33Z</time><name>PT3100</name></trkpt>
<trkpt lat="54.456000" lon="-3.315631"><ele>405</ele><time>2022-03-28T14:09:33Z</time><name>PT3101</name></trkpt>
<trkpt lat="54.455996" lon="-3.315628"><ele>405</ele><time>2022-03-28T14:09:34Z</time><name>PT3102</name></trkpt>
<trkpt lat="54.455991" lon="-3.315628"><ele>406</ele><time>2022-03-28T14:09:36Z</time><name>PT3103</name></trkpt>
<trkpt lat="54.455987" lon="-3.315628"><ele>405</ele><time>2022-03-28T14:09:36Z</time><name>PT3104</name></trkpt>
<trkpt lat="54.455984" lon="-3.315627"><ele>405</ele><time>2022-03-28T14:09:37Z</time><name>PT3105</name></trkpt>
<trkpt lat="54.455980" lon="-3.315626"><ele>406</ele><time>2022-03-28T14:09:39Z</time><name>PT3106</name></trkpt>
<trkpt lat="54.455977" lon="-3.315629"><ele>406</ele><time>2022-03-28T14:09:39Z</time><name>PT3107</name></trkpt>
<trkpt lat="54.455972" lon="-3.315629"><ele>405</ele><time>2022-03-28T14:09:40Z</time><name>PT3108</name></trkpt>
<trkpt lat="54.455966" lon="-3.315628"><ele>405</ele><time>2022-03-28T14:09:42Z</time><name>PT3109</name></trkpt>
<trkpt lat="54.455961" lon="-3.315628"><ele>405</ele><time>2022-03-28T14:09:42Z</time><name>PT3110</name></trkpt>
<trkpt lat="54.455947" lon="-3.315623"><ele>406</ele><time>2022-03-28T14:09:45Z</time><name>PT3111</name></trkpt>
<trkpt lat="54.455941" lon="-3.315625"><ele>406</ele><time>2022-03-28T14:09:45Z</time><name>PT3112</name></trkpt>
<trkpt lat="54.455935" lon="-3.315626"><ele>406</ele><time>2022-03-28T14:09:46Z</time><name>PT3113</name></trkpt>
<trkpt lat="54.455931" lon="-3.315616"><ele>406</ele><time>2022-03-28T14:09:48Z</time><name>PT3114</name></trkpt>
<trkpt lat="54.455929" lon="-3.315615"><ele>406</ele><time>2022-03-28T14:09:48Z</time><name>PT3115</name></trkpt>
<trkpt lat="54.455928" lon="-3.315616"><ele>406</ele><time>2022-03-28T14:09:49Z</time><name>PT3116</name></trkpt>
<trkpt lat="54.455930" lon="-3.315614"><ele>406</ele><time>2022-03-28T14:09:51Z</time><name>PT3117</name></trkpt>
<trkpt lat="54.455930" lon="-3.315612"><ele>407</ele><time>2022-03-28T14:09:51Z</time><name>PT3118</name></trkpt>
<trkpt lat="54.455926" lon="-3.315610"><ele>406</ele><time>2022-03-28T14:09:52Z</time><name>PT3119</name></trkpt>
<trkpt lat="54.455921" lon="-3.315611"><ele>405</ele><time>2022-03-28T14:09:54Z</time><name>PT3120</name></trkpt>
<trkpt lat="54.455913" lon="-3.315619"><ele>405</ele><time>2022-03-28T14:09:54Z</time><name>PT3121</name></trkpt>
<trkpt lat="54.455914" lon="-3.315623"><ele>405</ele><time>2022-03-28T14:09:55Z</time><name>PT3122</name></trkpt>
<trkpt lat="54.455910" lon="-3.315623"><ele>405</ele><time>2022-03-28T14:09:57Z</time><name>PT3123</name></trkpt>
<trkpt lat="54.455909" lon="-3.315618"><ele>406</ele><time>2022-03-28T14:09:57Z</time><name>PT3124</name></trkpt>
<trkpt lat="54.455907" lon="-3.315616"><ele>406</ele><time>2022-03-28T14:09:58Z</time><name>PT3125</name></trkpt>
<trkpt lat="54.455902" lon="-3.315622"><ele>407</ele><time>2022-03-28T14:10:00Z</time><name>PT3126</name></trkpt>
<trkpt lat="54.455899" lon="-3.315618"><ele>407</ele><time>2022-03-28T14:10:00Z</time><name>PT3127</name></trkpt>
<trkpt lat="54.455896" lon="-3.315619"><ele>407</ele><time>2022-03-28T14:10:01Z</time><name>PT3128</name></trkpt>
<trkpt lat="54.455897" lon="-3.315618"><ele>407</ele><time>2022-03-28T14:10:03Z</time><name>PT3129</name></trkpt>
<trkpt lat="54.455895" lon="-3.315616"><ele>407</ele><time>2022-03-28T14:10:03Z</time><name>PT3130</name></trkpt>
<trkpt lat="54.455892" lon="-3.315614"><ele>407</ele><time>2022-03-28T14:10:09Z</time><name>PT3131</name></trkpt>
<trkpt lat="54.455886" lon="-3.315613"><ele>407</ele><time>2022-03-28T14:10:10Z</time><name>PT3132</name></trkpt>
<trkpt lat="54.455878" lon="-3.315622"><ele>408</ele><time>2022-03-28T14:10:12Z</time><name>PT3133</name></trkpt>
<trkpt lat="54.455866" lon="-3.315617"><ele>408</ele><time>2022-03-28T14:10:12Z</time><name>PT3134</name></trkpt>
<trkpt lat="54.455857" lon="-3.315615"><ele>408</ele><time>2022-03-28T14:10:13Z</time><name>PT3135</name></trkpt>
<trkpt lat="54.455855" lon="-3.315610"><ele>408</ele><time>2022-03-28T14:10:15Z</time><name>PT3136</name></trkpt>
<trkpt lat="54.455848" lon="-3.315608"><ele>408</ele><time>2022-03-28T14:10:15Z</time><name>PT3137</name></trkpt>
<trkpt lat="54.455843" lon="-3.315610"><ele>408</ele><time>2022-03-28T14:10:16Z</time><name>PT3138</name></trkpt>
<trkpt lat="54.455838" lon="-3.315607"><ele>408</ele><time>2022-03-28T14:10:18Z</time><name>PT3139</name></trkpt>
<trkpt lat="54.455836" lon="-3.315612"><ele>408</ele><time>2022-03-28T14:10:18Z</time><name>PT3140</name></trkpt>
<trkpt lat="54.455832" lon="-3.315615"><ele>407</ele><time>2022-03-28T14:10:19Z</time><name>PT3141</name></trkpt>
<trkpt lat="54.455826" lon="-3.315622"><ele>408</ele><time>2022-03-28T14:10:21Z</time><name>PT3142</name></trkpt>
<trkpt lat="54.455821" lon="-3.315623"><ele>408</ele><time>2022-03-28T14:10:21Z</time><name>PT3143</name></trkpt>
<trkpt lat="54.455814" lon="-3.315624"><ele>409</ele><time>2022-03-28T14:10:22Z</time><name>PT3144</name></trkpt>
<trkpt lat="54.455811" lon="-3.315628"><ele>409</ele><time>2022-03-28T14:10:24Z</time><name>PT3145</name></trkpt>
<trkpt lat="54.455810" lon="-3.315632"><ele>409</ele><time>2022-03-28T14:10:24Z</time><name>PT3146</name></trkpt>
<trkpt lat="54.455809" lon="-3.315636"><ele>408</ele><time>2022-03-28T14:10:25Z</time><name>PT3147</name></trkpt>
<trkpt lat="54.455807" lon="-3.315638"><ele>408</ele><time>2022-03-28T14:10:27Z</time><name>PT3148</name></trkpt>
<trkpt lat="54.455804" lon="-3.315640"><ele>408</ele><time>2022-03-28T14:10:27Z</time><name>PT3149</name></trkpt>
<trkpt lat="54.455781" lon="-3.315668"><ele>409</ele><time>2022-03-28T14:10:31Z</time><name>PT3150</name></trkpt>
<trkpt lat="54.455761" lon="-3.315677"><ele>410</ele><time>2022-03-28T14:10:34Z</time><name>PT3151</name></trkpt>
<trkpt lat="54.455746" lon="-3.315677"><ele>410</ele><time>2022-03-28T14:10:37Z</time><name>PT3152</name></trkpt>
<trkpt lat="54.455739" lon="-3.315671"><ele>410</ele><time>2022-03-28T14:10:40Z</time><name>PT3153</name></trkpt>
<trkpt lat="54.455732" lon="-3.315666"><ele>410</ele><time>2022-03-28T14:10:43Z</time><name>PT3154</name></trkpt>
<trkpt lat="54.455720" lon="-3.315673"><ele>409</ele><time>2022-03-28T14:10:46Z</time><name>PT3155</name></trkpt>
<trkpt lat="54.455709" lon="-3.315678"><ele>408</ele><time>2022-03-28T14:10:49Z</time><name>PT3156</name></trkpt>
<trkpt lat="54.455696" lon="-3.315688"><ele>408</ele><time>2022-03-28T14:10:52Z</time><name>PT3157</name></trkpt>
<trkpt lat="54.455681" lon="-3.315695"><ele>407</ele><time>2022-03-28T14:10:57Z</time><name>PT3158</name></trkpt>
<trkpt lat="54.455658" lon="-3.315691"><ele>407</ele><time>2022-03-28T14:11:00Z</time><name>PT3159</name></trkpt>
<trkpt lat="54.455640" lon="-3.315696"><ele>407</ele><time>2022-03-28T14:11:03Z</time><name>PT3160</name></trkpt>
<trkpt lat="54.455616" lon="-3.315699"><ele>406</ele><time>2022-03-28T14:11:06Z</time><name>PT3161</name></trkpt>
<trkpt lat="54.455601" lon="-3.315717"><ele>404</ele><time>2022-03-28T14:11:10Z</time><name>PT3162</name></trkpt>
<trkpt lat="54.455591" lon="-3.315734"><ele>404</ele><time>2022-03-28T14:11:13Z</time><name>PT3163</name></trkpt>
<trkpt lat="54.455585" lon="-3.315745"><ele>403</ele><time>2022-03-28T14:11:18Z</time><name>PT3164</name></trkpt>
<trkpt lat="54.455583" lon="-3.315751"><ele>403</ele><time>2022-03-28T14:11:21Z</time><name>PT3165</name></trkpt>
<trkpt lat="54.455584" lon="-3.315743"><ele>403</ele><time>2022-03-28T14:11:24Z</time><name>PT3166</name></trkpt>
<trkpt lat="54.455562" lon="-3.315734"><ele>403</ele><time>2022-03-28T14:11:27Z</time><name>PT3167</name></trkpt>
<trkpt lat="54.455546" lon="-3.315738"><ele>402</ele><time>2022-03-28T14:11:31Z</time><name>PT3168</name></trkpt>
<trkpt lat="54.455540" lon="-3.315733"><ele>402</ele><time>2022-03-28T14:11:34Z</time><name>PT3169</name></trkpt>
<trkpt lat="54.455536" lon="-3.315742"><ele>403</ele><time>2022-03-28T14:11:39Z</time><name>PT3170</name></trkpt>
<trkpt lat="54.455520" lon="-3.315741"><ele>403</ele><time>2022-03-28T14:11:42Z</time><name>PT3171</name></trkpt>
<trkpt lat="54.455498" lon="-3.315741"><ele>402</ele><time>2022-03-28T14:11:45Z</time><name>PT3172</name></trkpt>
<trkpt lat="54.455467" lon="-3.315745"><ele>402</ele><time>2022-03-28T14:11:49Z</time><name>PT3173</name></trkpt>
<trkpt lat="54.455448" lon="-3.315759"><ele>401</ele><time>2022-03-28T14:11:52Z</time><name>PT3174</name></trkpt>
<trkpt lat="54.455417" lon="-3.315787"><ele>401</ele><time>2022-03-28T14:11:57Z</time><name>PT3175</name></trkpt>
<trkpt lat="54.455390" lon="-3.315802"><ele>402</ele><time>2022-03-28T14:12:00Z</time><name>PT3176</name></trkpt>
<trkpt lat="54.455372" lon="-3.315821"><ele>401</ele><time>2022-03-28T14:12:03Z</time><name>PT3177</name></trkpt>
<trkpt lat="54.455357" lon="-3.315832"><ele>401</ele><time>2022-03-28T14:12:06Z</time><name>PT3178</name></trkpt>
<trkpt lat="54.455335" lon="-3.315857"><ele>401</ele><time>2022-03-28T14:12:09Z</time><name>PT3179</name></trkpt>
<trkpt lat="54.455318" lon="-3.315862"><ele>402</ele><time>2022-03-28T14:12:12Z</time><name>PT3180</name></trkpt>
<trkpt lat="54.455291" lon="-3.315888"><ele>402</ele><time>2022-03-28T14:12:16Z</time><name>PT3181</name></trkpt>
<trkpt lat="54.455265" lon="-3.315905"><ele>401</ele><time>2022-03-28T14:12:21Z</time><name>PT3182</name></trkpt>
<trkpt lat="54.455233" lon="-3.315946"><ele>401</ele><time>2022-03-28T14:12:24Z</time><name>PT3183</name></trkpt>
<trkpt lat="54.455191" lon="-3.315963"><ele>402</ele><time>2022-03-28T14:12:28Z</time><name>PT3184</name></trkpt>
<trkpt lat="54.455162" lon="-3.315978"><ele>401</ele><time>2022-03-28T14:12:33Z</time><name>PT3185</name></trkpt>
<trkpt lat="54.455136" lon="-3.315996"><ele>402</ele><time>2022-03-28T14:12:36Z</time><name>PT3186</name></trkpt>
<trkpt lat="54.455107" lon="-3.316001"><ele>402</ele><time>2022-03-28T14:12:39Z</time><name>PT3187</name></trkpt>
<trkpt lat="54.455072" lon="-3.316012"><ele>402</ele><time>2022-03-28T14:12:43Z</time><name>PT3188</name></trkpt>
<trkpt lat="54.455046" lon="-3.316014"><ele>402</ele><time>2022-03-28T14:12:46Z</time><name>PT3189</name></trkpt>
<trkpt lat="54.455007" lon="-3.316029"><ele>403</ele><time>2022-03-28T14:12:51Z</time><name>PT3190</name></trkpt>
<trkpt lat="54.454975" lon="-3.316054"><ele>402</ele><time>2022-03-28T14:12:54Z</time><name>PT3191</name></trkpt>
<trkpt lat="54.454950" lon="-3.316064"><ele>401</ele><time>2022-03-28T14:12:58Z</time><name>PT3192</name></trkpt>
<trkpt lat="54.454925" lon="-3.316091"><ele>403</ele><time>2022-03-28T14:13:03Z</time><name>PT3193</name></trkpt>
<trkpt lat="54.454903" lon="-3.316118"><ele>403</ele><time>2022-03-28T14:13:06Z</time><name>PT3194</name></trkpt>
<trkpt lat="54.454890" lon="-3.316131"><ele>404</ele><time>2022-03-28T14:13:09Z</time><name>PT3195</name></trkpt>
<trkpt lat="54.454887" lon="-3.316136"><ele>403</ele><time>2022-03-28T14:13:13Z</time><name>PT3196</name></trkpt>
<trkpt lat="54.454870" lon="-3.316136"><ele>403</ele><time>2022-03-28T14:13:16Z</time><name>PT3197</name></trkpt>
<trkpt lat="54.454857" lon="-3.316141"><ele>404</ele><time>2022-03-28T14:13:21Z</time><name>PT3198</name></trkpt>
<trkpt lat="54.454851" lon="-3.316155"><ele>403</ele><time>2022-03-28T14:13:24Z</time><name>PT3199</name></trkpt>
<trkpt lat="54.454849" lon="-3.316180"><ele>403</ele><time>2022-03-28T14:13:31Z</time><name>PT3200</name></trkpt>
<trkpt lat="54.454835" lon="-3.316226"><ele>403</ele><time>2022-03-28T14:13:36Z</time><name>PT3201</name></trkpt>
<trkpt lat="54.454814" lon="-3.316267"><ele>403</ele><time>2022-03-28T14:13:39Z</time><name>PT3202</name></trkpt>
<trkpt lat="54.454791" lon="-3.316286"><ele>402</ele><time>2022-03-28T14:13:43Z</time><name>PT3203</name></trkpt>
<trkpt lat="54.454780" lon="-3.316298"><ele>401</ele><time>2022-03-28T14:13:46Z</time><name>PT3204</name></trkpt>
<trkpt lat="54.454755" lon="-3.316317"><ele>402</ele><time>2022-03-28T14:13:51Z</time><name>PT3205</name></trkpt>
<trkpt lat="54.454735" lon="-3.316334"><ele>401</ele><time>2022-03-28T14:13:54Z</time><name>PT3206</name></trkpt>
<trkpt lat="54.454725" lon="-3.316371"><ele>401</ele><time>2022-03-28T14:13:57Z</time><name>PT3207</name></trkpt>
<trkpt lat="54.454711" lon="-3.316414"><ele>402</ele><time>2022-03-28T14:14:00Z</time><name>PT3208</name></trkpt>
<trkpt lat="54.454690" lon="-3.316448"><ele>402</ele><time>2022-03-28T14:14:03Z</time><name>PT3209</name></trkpt>
<trkpt lat="54.454673" lon="-3.316484"><ele>403</ele><time>2022-03-28T14:14:06Z</time><name>PT3210</name></trkpt>
<trkpt lat="54.454656" lon="-3.316522"><ele>403</ele><time>2022-03-28T14:14:09Z</time><name>PT3211</name></trkpt>
<trkpt lat="54.454641" lon="-3.316559"><ele>403</ele><time>2022-03-28T14:14:12Z</time><name>PT3212</name></trkpt>
<trkpt lat="54.454623" lon="-3.316609"><ele>404</ele><time>2022-03-28T14:14:15Z</time><name>PT3213</name></trkpt>
<trkpt lat="54.454606" lon="-3.316645"><ele>403</ele><time>2022-03-28T14:14:18Z</time><name>PT3214</name></trkpt>
<trkpt lat="54.454583" lon="-3.316670"><ele>403</ele><time>2022-03-28T14:14:21Z</time><name>PT3215</name></trkpt>
<trkpt lat="54.454553" lon="-3.316694"><ele>403</ele><time>2022-03-28T14:14:25Z</time><name>PT3216</name></trkpt>
<trkpt lat="54.454532" lon="-3.316727"><ele>404</ele><time>2022-03-28T14:14:28Z</time><name>PT3217</name></trkpt>
<trkpt lat="54.454517" lon="-3.316757"><ele>405</ele><time>2022-03-28T14:14:31Z</time><name>PT3218</name></trkpt>
<trkpt lat="54.454500" lon="-3.316784"><ele>403</ele><time>2022-03-28T14:14:34Z</time><name>PT3219</name></trkpt>
<trkpt lat="54.454472" lon="-3.316817"><ele>403</ele><time>2022-03-28T14:14:39Z</time><name>PT3220</name></trkpt>
<trkpt lat="54.454454" lon="-3.316846"><ele>402</ele><time>2022-03-28T14:14:42Z</time><name>PT3221</name></trkpt>
<trkpt lat="54.454446" lon="-3.316862"><ele>402</ele><time>2022-03-28T14:14:45Z</time><name>PT3222</name></trkpt>
<trkpt lat="54.454428" lon="-3.316884"><ele>402</ele><time>2022-03-28T14:14:48Z</time><name>PT3223</name></trkpt>
<trkpt lat="54.454398" lon="-3.316901"><ele>402</ele><time>2022-03-28T14:14:52Z</time><name>PT3224</name></trkpt>
<trkpt lat="54.454380" lon="-3.316913"><ele>402</ele><time>2022-03-28T14:14:55Z</time><name>PT3225</name></trkpt>
<trkpt lat="54.454354" lon="-3.316949"><ele>403</ele><time>2022-03-28T14:15:00Z</time><name>PT3226</name></trkpt>
<trkpt lat="54.454334" lon="-3.316967"><ele>402</ele><time>2022-03-28T14:15:03Z</time><name>PT3227</name></trkpt>
<trkpt lat="54.454306" lon="-3.317009"><ele>402</ele><time>2022-03-28T14:15:06Z</time><name>PT3228</name></trkpt>
<trkpt lat="54.454270" lon="-3.317053"><ele>402</ele><time>2022-03-28T14:15:10Z</time><name>PT3229</name></trkpt>
<trkpt lat="54.454248" lon="-3.317086"><ele>402</ele><time>2022-03-28T14:15:13Z</time><name>PT3230</name></trkpt>
<trkpt lat="54.454218" lon="-3.317132"><ele>401</ele><time>2022-03-28T14:15:18Z</time><name>PT3231</name></trkpt>
<trkpt lat="54.454194" lon="-3.317180"><ele>402</ele><time>2022-03-28T14:15:21Z</time><name>PT3232</name></trkpt>
<trkpt lat="54.454170" lon="-3.317210"><ele>402</ele><time>2022-03-28T14:15:24Z</time><name>PT3233</name></trkpt>
<trkpt lat="54.454134" lon="-3.317249"><ele>402</ele><time>2022-03-28T14:15:28Z</time><name>PT3234</name></trkpt>
<trkpt lat="54.454111" lon="-3.317315"><ele>402</ele><time>2022-03-28T14:15:33Z</time><name>PT3235</name></trkpt>
<trkpt lat="54.454094" lon="-3.317366"><ele>402</ele><time>2022-03-28T14:15:36Z</time><name>PT3236</name></trkpt>
<trkpt lat="54.454070" lon="-3.317411"><ele>404</ele><time>2022-03-28T14:15:39Z</time><name>PT3237</name></trkpt>
<trkpt lat="54.454030" lon="-3.317451"><ele>404</ele><time>2022-03-28T14:15:42Z</time><name>PT3238</name></trkpt>
<trkpt lat="54.454001" lon="-3.317484"><ele>403</ele><time>2022-03-28T14:15:45Z</time><name>PT3239</name></trkpt>
<trkpt lat="54.453966" lon="-3.317495"><ele>403</ele><time>2022-03-28T14:15:48Z</time><name>PT3240</name></trkpt>
<trkpt lat="54.453932" lon="-3.317519"><ele>403</ele><time>2022-03-28T14:15:52Z</time><name>PT3241</name></trkpt>
<trkpt lat="54.453899" lon="-3.317574"><ele>403</ele><time>2022-03-28T14:15:57Z</time><name>PT3242</name></trkpt>
<trkpt lat="54.453879" lon="-3.317616"><ele>403</ele><time>2022-03-28T14:16:00Z</time><name>PT3243</name></trkpt>
<trkpt lat="54.453856" lon="-3.317647"><ele>403</ele><time>2022-03-28T14:16:03Z</time><name>PT3244</name></trkpt>
<trkpt lat="54.453830" lon="-3.317686"><ele>403</ele><time>2022-03-28T14:16:06Z</time><name>PT3245</name></trkpt>
<trkpt lat="54.453796" lon="-3.317720"><ele>402</ele><time>2022-03-28T14:16:09Z</time><name>PT3246</name></trkpt>
<trkpt lat="54.453763" lon="-3.317779"><ele>403</ele><time>2022-03-28T14:16:13Z</time><name>PT3247</name></trkpt>
<trkpt lat="54.453736" lon="-3.317815"><ele>403</ele><time>2022-03-28T14:16:16Z</time><name>PT3248</name></trkpt>
<trkpt lat="54.453706" lon="-3.317856"><ele>403</ele><time>2022-03-28T14:16:21Z</time><name>PT3249</name></trkpt>
<trkpt lat="54.453680" lon="-3.317897"><ele>403</ele><time>2022-03-28T14:16:24Z</time><name>PT3250</name></trkpt>
<trkpt lat="54.453651" lon="-3.317949"><ele>402</ele><time>2022-03-28T14:16:27Z</time><name>PT3251</name></trkpt>
<trkpt lat="54.453620" lon="-3.318007"><ele>403</ele><time>2022-03-28T14:16:31Z</time><name>PT3252</name></trkpt>
<trkpt lat="54.453590" lon="-3.318059"><ele>402</ele><time>2022-03-28T14:16:36Z</time><name>PT3253</name></trkpt>
<trkpt lat="54.453571" lon="-3.318100"><ele>401</ele><time>2022-03-28T14:16:39Z</time><name>PT3254</name></trkpt>
<trkpt lat="54.453539" lon="-3.318135"><ele>402</ele><time>2022-03-28T14:16:42Z</time><name>PT3255</name></trkpt>
<trkpt lat="54.453508" lon="-3.318180"><ele>402</ele><time>2022-03-28T14:16:45Z</time><name>PT3256</name></trkpt>
<trkpt lat="54.453470" lon="-3.318206"><ele>401</ele><time>2022-03-28T14:16:49Z</time><name>PT3257</name></trkpt>
<trkpt lat="54.453435" lon="-3.318253"><ele>401</ele><time>2022-03-28T14:16:54Z</time><name>PT3258</name></trkpt>
<trkpt lat="54.453405" lon="-3.318320"><ele>401</ele><time>2022-03-28T14:16:57Z</time><name>PT3259</name></trkpt>
<trkpt lat="54.453378" lon="-3.318375"><ele>402</ele><time>2022-03-28T14:17:01Z</time><name>PT3260</name></trkpt>
<trkpt lat="54.453341" lon="-3.318430"><ele>401</ele><time>2022-03-28T14:17:06Z</time><name>PT3261</name></trkpt>
<trkpt lat="54.453312" lon="-3.318464"><ele>401</ele><time>2022-03-28T14:17:09Z</time><name>PT3262</name></trkpt>
<trkpt lat="54.453274" lon="-3.318511"><ele>401</ele><time>2022-03-28T14:17:12Z</time><name>PT3263</name></trkpt>
<trkpt lat="54.453249" lon="-3.318539"><ele>401</ele><time>2022-03-28T14:17:15Z</time><name>PT3264</name></trkpt>
<trkpt lat="54.453218" lon="-3.318593"><ele>402</ele><time>2022-03-28T14:17:19Z</time><name>PT3265</name></trkpt>
<trkpt lat="54.453190" lon="-3.318647"><ele>401</ele><time>2022-03-28T14:17:24Z</time><name>PT3266</name></trkpt>
<trkpt lat="54.453158" lon="-3.318699"><ele>400</ele><time>2022-03-28T14:17:27Z</time><name>PT3267</name></trkpt>
<trkpt lat="54.453135" lon="-3.318743"><ele>400</ele><time>2022-03-28T14:17:30Z</time><name>PT3268</name></trkpt>
<trkpt lat="54.453104" lon="-3.318788"><ele>399</ele><time>2022-03-28T14:17:34Z</time><name>PT3269</name></trkpt>
<trkpt lat="54.453066" lon="-3.318836"><ele>399</ele><time>2022-03-28T14:17:39Z</time><name>PT3270</name></trkpt>
<trkpt lat="54.453024" lon="-3.318880"><ele>398</ele><time>2022-03-28T14:17:42Z</time><name>PT3271</name></trkpt>
<trkpt lat="54.452981" lon="-3.318926"><ele>398</ele><time>2022-03-28T14:17:46Z</time><name>PT3272</name></trkpt>
<trkpt lat="54.452956" lon="-3.318968"><ele>398</ele><time>2022-03-28T14:17:49Z</time><name>PT3273</name></trkpt>
<trkpt lat="54.452921" lon="-3.319010"><ele>397</ele><time>2022-03-28T14:17:54Z</time><name>PT3274</name></trkpt>
<trkpt lat="54.452890" lon="-3.319038"><ele>396</ele><time>2022-03-28T14:17:57Z</time><name>PT3275</name></trkpt>
<trkpt lat="54.452859" lon="-3.319063"><ele>395</ele><time>2022-03-28T14:18:00Z</time><name>PT3276</name></trkpt>
<trkpt lat="54.452816" lon="-3.319095"><ele>394</ele><time>2022-03-28T14:18:03Z</time><name>PT3277</name></trkpt>
<trkpt lat="54.452801" lon="-3.319129"><ele>394</ele><time>2022-03-28T14:18:06Z</time><name>PT3278</name></trkpt>
<trkpt lat="54.452772" lon="-3.319148"><ele>394</ele><time>2022-03-28T14:18:09Z</time><name>PT3279</name></trkpt>
<trkpt lat="54.452730" lon="-3.319165"><ele>396</ele><time>2022-03-28T14:18:13Z</time><name>PT3280</name></trkpt>
<trkpt lat="54.452689" lon="-3.319209"><ele>397</ele><time>2022-03-28T14:18:18Z</time><name>PT3281</name></trkpt>
<trkpt lat="54.452648" lon="-3.319238"><ele>396</ele><time>2022-03-28T14:18:21Z</time><name>PT3282</name></trkpt>
<trkpt lat="54.452618" lon="-3.319258"><ele>396</ele><time>2022-03-28T14:18:24Z</time><name>PT3283</name></trkpt>
<trkpt lat="54.452576" lon="-3.319265"><ele>394</ele><time>2022-03-28T14:18:28Z</time><name>PT3284</name></trkpt>
<trkpt lat="54.452537" lon="-3.319277"><ele>393</ele><time>2022-03-28T14:18:33Z</time><name>PT3285</name></trkpt>
<trkpt lat="54.452509" lon="-3.319297"><ele>392</ele><time>2022-03-28T14:18:36Z</time><name>PT3286</name></trkpt>
<trkpt lat="54.452477" lon="-3.319334"><ele>392</ele><time>2022-03-28T14:18:39Z</time><name>PT3287</name></trkpt>
<trkpt lat="54.452449" lon="-3.319363"><ele>391</ele><time>2022-03-28T14:18:43Z</time><name>PT3288</name></trkpt>
<trkpt lat="54.452414" lon="-3.319396"><ele>390</ele><time>2022-03-28T14:18:48Z</time><name>PT3289</name></trkpt>
<trkpt lat="54.452381" lon="-3.319426"><ele>389</ele><time>2022-03-28T14:18:51Z</time><name>PT3290</name></trkpt>
<trkpt lat="54.452354" lon="-3.319450"><ele>389</ele><time>2022-03-28T14:18:54Z</time><name>PT3291</name></trkpt>
<trkpt lat="54.452322" lon="-3.319470"><ele>389</ele><time>2022-03-28T14:18:57Z</time><name>PT3292</name></trkpt>
<trkpt lat="54.452296" lon="-3.319482"><ele>388</ele><time>2022-03-28T14:19:00Z</time><name>PT3293</name></trkpt>
<trkpt lat="54.452260" lon="-3.319483"><ele>388</ele><time>2022-03-28T14:19:04Z</time><name>PT3294</name></trkpt>
<trkpt lat="54.452232" lon="-3.319481"><ele>388</ele><time>2022-03-28T14:19:07Z</time><name>PT3295</name></trkpt>
<trkpt lat="54.452200" lon="-3.319486"><ele>388</ele><time>2022-03-28T14:19:10Z</time><name>PT3296</name></trkpt>
<trkpt lat="54.452171" lon="-3.319507"><ele>388</ele><time>2022-03-28T14:19:13Z</time><name>PT3297</name></trkpt>
<trkpt lat="54.452137" lon="-3.319532"><ele>389</ele><time>2022-03-28T14:19:18Z</time><name>PT3298</name></trkpt>
<trkpt lat="54.452112" lon="-3.319565"><ele>389</ele><time>2022-03-28T14:19:21Z</time><name>PT3299</name></trkpt>
<trkpt lat="54.452087" lon="-3.319614"><ele>388</ele><time>2022-03-28T14:19:24Z</time><name>PT3300</name></trkpt>
<trkpt lat="54.452054" lon="-3.319650"><ele>387</ele><time>2022-03-28T14:19:27Z</time><name>PT3301</name></trkpt>
<trkpt lat="54.452020" lon="-3.319695"><ele>386</ele><time>2022-03-28T14:19:31Z</time><name>PT3302</name></trkpt>
<trkpt lat="54.451983" lon="-3.319738"><ele>386</ele><time>2022-03-28T14:19:36Z</time><name>PT3303</name></trkpt>
<trkpt lat="54.451960" lon="-3.319770"><ele>385</ele><time>2022-03-28T14:19:39Z</time><name>PT3304</name></trkpt>
<trkpt lat="54.451926" lon="-3.319825"><ele>383</ele><time>2022-03-28T14:19:42Z</time><name>PT3305</name></trkpt>
<trkpt lat="54.451904" lon="-3.319850"><ele>383</ele><time>2022-03-28T14:19:45Z</time><name>PT3306</name></trkpt>
<trkpt lat="54.451872" lon="-3.319904"><ele>383</ele><time>2022-03-28T14:19:49Z</time><name>PT3307</name></trkpt>
<trkpt lat="54.451843" lon="-3.319932"><ele>381</ele><time>2022-03-28T14:19:52Z</time><name>PT3308</name></trkpt>
<trkpt lat="54.451815" lon="-3.319963"><ele>380</ele><time>2022-03-28T14:19:55Z</time><name>PT3309</name></trkpt>
<trkpt lat="54.451776" lon="-3.320004"><ele>381</ele><time>2022-03-28T14:20:00Z</time><name>PT3310</name></trkpt>
<trkpt lat="54.451738" lon="-3.320042"><ele>382</ele><time>2022-03-28T14:20:03Z</time><name>PT3311</name></trkpt>
<trkpt lat="54.451699" lon="-3.320075"><ele>382</ele><time>2022-03-28T14:20:07Z</time><name>PT3312</name></trkpt>
<trkpt lat="54.451659" lon="-3.320099"><ele>381</ele><time>2022-03-28T14:20:12Z</time><name>PT3313</name></trkpt>
<trkpt lat="54.451626" lon="-3.320115"><ele>381</ele><time>2022-03-28T14:20:15Z</time><name>PT3314</name></trkpt>
<trkpt lat="54.451584" lon="-3.320132"><ele>381</ele><time>2022-03-28T14:20:18Z</time><name>PT3315</name></trkpt>
<trkpt lat="54.451541" lon="-3.320144"><ele>380</ele><time>2022-03-28T14:20:22Z</time><name>PT3316</name></trkpt>
<trkpt lat="54.451511" lon="-3.320153"><ele>381</ele><time>2022-03-28T14:20:25Z</time><name>PT3317</name></trkpt>
<trkpt lat="54.451487" lon="-3.320153"><ele>382</ele><time>2022-03-28T14:20:28Z</time><name>PT3318</name></trkpt>
<trkpt lat="54.451456" lon="-3.320159"><ele>382</ele><time>2022-03-28T14:20:31Z</time><name>PT3319</name></trkpt>
<trkpt lat="54.451423" lon="-3.320180"><ele>381</ele><time>2022-03-28T14:20:36Z</time><name>PT3320</name></trkpt>
<trkpt lat="54.451408" lon="-3.320198"><ele>381</ele><time>2022-03-28T14:20:39Z</time><name>PT3321</name></trkpt>
<trkpt lat="54.451388" lon="-3.320220"><ele>381</ele><time>2022-03-28T14:20:42Z</time><name>PT3322</name></trkpt>
<trkpt lat="54.451366" lon="-3.320226"><ele>381</ele><time>2022-03-28T14:20:45Z</time><name>PT3323</name></trkpt>
<trkpt lat="54.451333" lon="-3.320227"><ele>380</ele><time>2022-03-28T14:20:49Z</time><name>PT3324</name></trkpt>
<trkpt lat="54.451315" lon="-3.320236"><ele>380</ele><time>2022-03-28T14:20:52Z</time><name>PT3325</name></trkpt>
<trkpt lat="54.451293" lon="-3.320240"><ele>380</ele><time>2022-03-28T14:20:57Z</time><name>PT3326</name></trkpt>
<trkpt lat="54.451267" lon="-3.320265"><ele>380</ele><time>2022-03-28T14:21:00Z</time><name>PT3327</name></trkpt>
<trkpt lat="54.451238" lon="-3.320290"><ele>379</ele><time>2022-03-28T14:21:04Z</time><name>PT3328</name></trkpt>
<trkpt lat="54.451206" lon="-3.320341"><ele>379</ele><time>2022-03-28T14:21:09Z</time><name>PT3329</name></trkpt>
<trkpt lat="54.451173" lon="-3.320362"><ele>380</ele><time>2022-03-28T14:21:12Z</time><name>PT3330</name></trkpt>
<trkpt lat="54.451154" lon="-3.320393"><ele>379</ele><time>2022-03-28T14:21:15Z</time><name>PT3331</name></trkpt>
<trkpt lat="54.451128" lon="-3.320398"><ele>380</ele><time>2022-03-28T14:21:18Z</time><name>PT3332</name></trkpt>
<trkpt lat="54.451104" lon="-3.320418"><ele>380</ele><time>2022-03-28T14:21:21Z</time><name>PT3333</name></trkpt>
<trkpt lat="54.451073" lon="-3.320445"><ele>379</ele><time>2022-03-28T14:21:24Z</time><name>PT3334</name></trkpt>
<trkpt lat="54.451042" lon="-3.320467"><ele>379</ele><time>2022-03-28T14:21:28Z</time><name>PT3335</name></trkpt>
<trkpt lat="54.451023" lon="-3.320491"><ele>379</ele><time>2022-03-28T14:21:31Z</time><name>PT3336</name></trkpt>
<trkpt lat="54.450988" lon="-3.320528"><ele>378</ele><time>2022-03-28T14:21:36Z</time><name>PT3337</name></trkpt>
<trkpt lat="54.450964" lon="-3.320566"><ele>377</ele><time>2022-03-28T14:21:39Z</time><name>PT3338</name></trkpt>
<trkpt lat="54.450946" lon="-3.320600"><ele>376</ele><time>2022-03-28T14:21:43Z</time><name>PT3339</name></trkpt>
<trkpt lat="54.450924" lon="-3.320612"><ele>376</ele><time>2022-03-28T14:21:48Z</time><name>PT3340</name></trkpt>
<trkpt lat="54.450906" lon="-3.320614"><ele>375</ele><time>2022-03-28T14:21:51Z</time><name>PT3341</name></trkpt>
<trkpt lat="54.450890" lon="-3.320617"><ele>375</ele><time>2022-03-28T14:21:54Z</time><name>PT3342</name></trkpt>
<trkpt lat="54.450880" lon="-3.320636"><ele>374</ele><time>2022-03-28T14:21:57Z</time><name>PT3343</name></trkpt>
<trkpt lat="54.450870" lon="-3.320659"><ele>373</ele><time>2022-03-28T14:22:00Z</time><name>PT3344</name></trkpt>
<trkpt lat="54.450857" lon="-3.320682"><ele>372</ele><time>2022-03-28T14:22:03Z</time><name>PT3345</name></trkpt>
<trkpt lat="54.450821" lon="-3.320703"><ele>372</ele><time>2022-03-28T14:22:07Z</time><name>PT3346</name></trkpt>
<trkpt lat="54.450797" lon="-3.320698"><ele>371</ele><time>2022-03-28T14:22:10Z</time><name>PT3347</name></trkpt>
<trkpt lat="54.450770" lon="-3.320702"><ele>370</ele><time>2022-03-28T14:22:15Z</time><name>PT3348</name></trkpt>
<trkpt lat="54.450750" lon="-3.320710"><ele>370</ele><time>2022-03-28T14:22:18Z</time><name>PT3349</name></trkpt>
<trkpt lat="54.450713" lon="-3.320726"><ele>369</ele><time>2022-03-28T14:22:21Z</time><name>PT3350</name></trkpt>
<trkpt lat="54.450680" lon="-3.320740"><ele>368</ele><time>2022-03-28T14:22:24Z</time><name>PT3351</name></trkpt>
<trkpt lat="54.450649" lon="-3.320750"><ele>369</ele><time>2022-03-28T14:22:27Z</time><name>PT3352</name></trkpt>
<trkpt lat="54.450629" lon="-3.320776"><ele>369</ele><time>2022-03-28T14:22:31Z</time><name>PT3353</name></trkpt>
<trkpt lat="54.450610" lon="-3.320804"><ele>368</ele><time>2022-03-28T14:22:34Z</time><name>PT3354</name></trkpt>
<trkpt lat="54.450587" lon="-3.320839"><ele>367</ele><time>2022-03-28T14:22:39Z</time><name>PT3355</name></trkpt>
<trkpt lat="54.450573" lon="-3.320882"><ele>367</ele><time>2022-03-28T14:22:42Z</time><name>PT3356</name></trkpt>
<trkpt lat="54.450549" lon="-3.320904"><ele>367</ele><time>2022-03-28T14:22:46Z</time><name>PT3357</name></trkpt>
<trkpt lat="54.450531" lon="-3.320914"><ele>367</ele><time>2022-03-28T14:22:49Z</time><name>PT3358</name></trkpt>
<trkpt lat="54.450512" lon="-3.320922"><ele>366</ele><time>2022-03-28T14:22:54Z</time><name>PT3359</name></trkpt>
<trkpt lat="54.450508" lon="-3.320944"><ele>365</ele><time>2022-03-28T14:22:57Z</time><name>PT3360</name></trkpt>
<trkpt lat="54.450512" lon="-3.320973"><ele>364</ele><time>2022-03-28T14:23:00Z</time><name>PT3361</name></trkpt>
<trkpt lat="54.450498" lon="-3.321003"><ele>364</ele><time>2022-03-28T14:23:03Z</time><name>PT3362</name></trkpt>
<trkpt lat="54.450482" lon="-3.321015"><ele>364</ele><time>2022-03-28T14:23:06Z</time><name>PT3363</name></trkpt>
<trkpt lat="54.450440" lon="-3.321017"><ele>363</ele><time>2022-03-28T14:23:10Z</time><name>PT3364</name></trkpt>
<trkpt lat="54.450416" lon="-3.321019"><ele>363</ele><time>2022-03-28T14:23:13Z</time><name>PT3365</name></trkpt>
<trkpt lat="54.450385" lon="-3.321019"><ele>363</ele><time>2022-03-28T14:23:16Z</time><name>PT3366</name></trkpt>
<trkpt lat="54.450342" lon="-3.321024"><ele>362</ele><time>2022-03-28T14:23:21Z</time><name>PT3367</name></trkpt>
<trkpt lat="54.450301" lon="-3.321053"><ele>362</ele><time>2022-03-28T14:23:24Z</time><name>PT3368</name></trkpt>
<trkpt lat="54.450254" lon="-3.321047"><ele>361</ele><time>2022-03-28T14:23:28Z</time><name>PT3369</name></trkpt>
<trkpt lat="54.450225" lon="-3.321045"><ele>361</ele><time>2022-03-28T14:23:31Z</time><name>PT3370</name></trkpt>
<trkpt lat="54.450196" lon="-3.321042"><ele>361</ele><time>2022-03-28T14:23:36Z</time><name>PT3371</name></trkpt>
<trkpt lat="54.450176" lon="-3.321023"><ele>362</ele><time>2022-03-28T14:23:39Z</time><name>PT3372</name></trkpt>
<trkpt lat="54.450156" lon="-3.321007"><ele>363</ele><time>2022-03-28T14:23:42Z</time><name>PT3373</name></trkpt>
<trkpt lat="54.450135" lon="-3.321000"><ele>362</ele><time>2022-03-28T14:23:45Z</time><name>PT3374</name></trkpt>
<trkpt lat="54.450097" lon="-3.320998"><ele>362</ele><time>2022-03-28T14:23:49Z</time><name>PT3375</name></trkpt>
<trkpt lat="54.450071" lon="-3.320961"><ele>362</ele><time>2022-03-28T14:23:54Z</time><name>PT3376</name></trkpt>
<trkpt lat="54.450047" lon="-3.320964"><ele>362</ele><time>2022-03-28T14:23:57Z</time><name>PT3377</name></trkpt>
<trkpt lat="54.450030" lon="-3.320962"><ele>361</ele><time>2022-03-28T14:24:00Z</time><name>PT3378</name></trkpt>
<trkpt lat="54.450010" lon="-3.320967"><ele>361</ele><time>2022-03-28T14:24:03Z</time><name>PT3379</name></trkpt>
<trkpt lat="54.449990" lon="-3.320961"><ele>361</ele><time>2022-03-28T14:24:06Z</time><name>PT3380</name></trkpt>
<trkpt lat="54.449973" lon="-3.320957"><ele>360</ele><time>2022-03-28T14:24:09Z</time><name>PT3381</name></trkpt>
<trkpt lat="54.449963" lon="-3.320976"><ele>360</ele><time>2022-03-28T14:24:12Z</time><name>PT3382</name></trkpt>
<trkpt lat="54.449960" lon="-3.320984"><ele>360</ele><time>2022-03-28T14:24:15Z</time><name>PT3383</name></trkpt>
<trkpt lat="54.449966" lon="-3.320973"><ele>359</ele><time>2022-03-28T14:24:18Z</time><name>PT3384</name></trkpt>
<trkpt lat="54.449948" lon="-3.320993"><ele>359</ele><time>2022-03-28T14:24:22Z</time><name>PT3385</name></trkpt>
<trkpt lat="54.449929" lon="-3.320991"><ele>359</ele><time>2022-03-28T14:24:25Z</time><name>PT3386</name></trkpt>
<trkpt lat="54.449911" lon="-3.320993"><ele>359</ele><time>2022-03-28T14:24:28Z</time><name>PT3387</name></trkpt>
<trkpt lat="54.449901" lon="-3.320996"><ele>359</ele><time>2022-03-28T14:24:31Z</time><name>PT3388</name></trkpt>
<trkpt lat="54.449886" lon="-3.321019"><ele>358</ele><time>2022-03-28T14:24:36Z</time><name>PT3389</name></trkpt>
<trkpt lat="54.449859" lon="-3.321038"><ele>358</ele><time>2022-03-28T14:24:39Z</time><name>PT3390</name></trkpt>
<trkpt lat="54.449833" lon="-3.321064"><ele>355</ele><time>2022-03-28T14:24:43Z</time><name>PT3391</name></trkpt>
<trkpt lat="54.449820" lon="-3.321086"><ele>353</ele><time>2022-03-28T14:24:46Z</time><name>PT3392</name></trkpt>
<trkpt lat="54.449805" lon="-3.321112"><ele>351</ele><time>2022-03-28T14:24:51Z</time><name>PT3393</name></trkpt>
<trkpt lat="54.449789" lon="-3.321132"><ele>351</ele><time>2022-03-28T14:24:54Z</time><name>PT3394</name></trkpt>
<trkpt lat="54.449790" lon="-3.321132"><ele>351</ele><time>2022-03-28T14:24:57Z</time><name>PT3395</name></trkpt>
<trkpt lat="54.449772" lon="-3.321158"><ele>351</ele><time>2022-03-28T14:25:00Z</time><name>PT3396</name></trkpt>
<trkpt lat="54.449770" lon="-3.321164"><ele>352</ele><time>2022-03-28T14:25:03Z</time><name>PT3397</name></trkpt>
<trkpt lat="54.449764" lon="-3.321163"><ele>352</ele><time>2022-03-28T14:25:06Z</time><name>PT3398</name></trkpt>
<trkpt lat="54.449756" lon="-3.321177"><ele>351</ele><time>2022-03-28T14:25:10Z</time><name>PT3399</name></trkpt>
<trkpt lat="54.449760" lon="-3.321193"><ele>351</ele><time>2022-03-28T14:25:13Z</time><name>PT3400</name></trkpt>
<trkpt lat="54.449769" lon="-3.321195"><ele>349</ele><time>2022-03-28T14:25:18Z</time><name>PT3401</name></trkpt>
<trkpt lat="54.449778" lon="-3.321219"><ele>348</ele><time>2022-03-28T14:25:21Z</time><name>PT3402</name></trkpt>
<trkpt lat="54.449806" lon="-3.321244"><ele>349</ele><time>2022-03-28T14:25:24Z</time><name>PT3403</name></trkpt>
<trkpt lat="54.449795" lon="-3.321265"><ele>349</ele><time>2022-03-28T14:25:27Z</time><name>PT3404</name></trkpt>
<trkpt lat="54.449774" lon="-3.321273"><ele>348</ele><time>2022-03-28T14:25:31Z</time><name>PT3405</name></trkpt>
<trkpt lat="54.449773" lon="-3.321297"><ele>347</ele><time>2022-03-28T14:25:36Z</time><name>PT3406</name></trkpt>
<trkpt lat="54.449747" lon="-3.321316"><ele>347</ele><time>2022-03-28T14:25:39Z</time><name>PT3407</name></trkpt>
<trkpt lat="54.449729" lon="-3.321313"><ele>347</ele><time>2022-03-28T14:25:42Z</time><name>PT3408</name></trkpt>
<trkpt lat="54.449698" lon="-3.321297"><ele>346</ele><time>2022-03-28T14:25:46Z</time><name>PT3409</name></trkpt>
<trkpt lat="54.449673" lon="-3.321304"><ele>347</ele><time>2022-03-28T14:25:51Z</time><name>PT3410</name></trkpt>
<trkpt lat="54.449654" lon="-3.321314"><ele>347</ele><time>2022-03-28T14:25:54Z</time><name>PT3411</name></trkpt>
<trkpt lat="54.449632" lon="-3.321315"><ele>346</ele><time>2022-03-28T14:25:57Z</time><name>PT3412</name></trkpt>
<trkpt lat="54.449609" lon="-3.321321"><ele>346</ele><time>2022-03-28T14:26:00Z</time><name>PT3413</name></trkpt>
<trkpt lat="54.449589" lon="-3.321321"><ele>346</ele><time>2022-03-28T14:26:03Z</time><name>PT3414</name></trkpt>
<trkpt lat="54.449545" lon="-3.321325"><ele>348</ele><time>2022-03-28T14:26:06Z</time><name>PT3415</name></trkpt>
<trkpt lat="54.449509" lon="-3.321333"><ele>348</ele><time>2022-03-28T14:26:10Z</time><name>PT3416</name></trkpt>
<trkpt lat="54.449487" lon="-3.321327"><ele>348</ele><time>2022-03-28T14:26:13Z</time><name>PT3417</name></trkpt>
<trkpt lat="54.449471" lon="-3.321331"><ele>347</ele><time>2022-03-28T14:26:18Z</time><name>PT3418</name></trkpt>
<trkpt lat="54.449461" lon="-3.321339"><ele>345</ele><time>2022-03-28T14:26:21Z</time><name>PT3419</name></trkpt>
<trkpt lat="54.449452" lon="-3.321340"><ele>344</ele><time>2022-03-28T14:26:24Z</time><name>PT3420</name></trkpt>
<trkpt lat="54.449445" lon="-3.321363"><ele>343</ele><time>2022-03-28T14:26:28Z</time><name>PT3421</name></trkpt>
<trkpt lat="54.449424" lon="-3.321372"><ele>342</ele><time>2022-03-28T14:26:31Z</time><name>PT3422</name></trkpt>
<trkpt lat="54.449399" lon="-3.321405"><ele>341</ele><time>2022-03-28T14:26:36Z</time><name>PT3423</name></trkpt>
<trkpt lat="54.449373" lon="-3.321422"><ele>340</ele><time>2022-03-28T14:26:39Z</time><name>PT3424</name></trkpt>
<trkpt lat="54.449353" lon="-3.321413"><ele>340</ele><time>2022-03-28T14:26:43Z</time><name>PT3425</name></trkpt>
<trkpt lat="54.449336" lon="-3.321417"><ele>340</ele><time>2022-03-28T14:26:46Z</time><name>PT3426</name></trkpt>
<trkpt lat="54.449308" lon="-3.321432"><ele>338</ele><time>2022-03-28T14:26:51Z</time><name>PT3427</name></trkpt>
<trkpt lat="54.449285" lon="-3.321434"><ele>338</ele><time>2022-03-28T14:26:54Z</time><name>PT3428</name></trkpt>
<trkpt lat="54.449264" lon="-3.321452"><ele>338</ele><time>2022-03-28T14:26:57Z</time><name>PT3429</name></trkpt>
<trkpt lat="54.449241" lon="-3.321477"><ele>338</ele><time>2022-03-28T14:27:00Z</time><name>PT3430</name></trkpt>
<trkpt lat="54.449208" lon="-3.321498"><ele>337</ele><time>2022-03-28T14:27:04Z</time><name>PT3431</name></trkpt>
<trkpt lat="54.449196" lon="-3.321508"><ele>336</ele><time>2022-03-28T14:27:07Z</time><name>PT3432</name></trkpt>
<trkpt lat="54.449191" lon="-3.321512"><ele>335</ele><time>2022-03-28T14:27:12Z</time><name>PT3433</name></trkpt>
<trkpt lat="54.449160" lon="-3.321532"><ele>334</ele><time>2022-03-28T14:27:15Z</time><name>PT3434</name></trkpt>
<trkpt lat="54.449129" lon="-3.321555"><ele>334</ele><time>2022-03-28T14:27:18Z</time><name>PT3435</name></trkpt>
<trkpt lat="54.449100" lon="-3.321578"><ele>335</ele><time>2022-03-28T14:27:22Z</time><name>PT3436</name></trkpt>
<trkpt lat="54.449068" lon="-3.321578"><ele>334</ele><time>2022-03-28T14:27:27Z</time><name>PT3437</name></trkpt>
<trkpt lat="54.449046" lon="-3.321570"><ele>335</ele><time>2022-03-28T14:27:30Z</time><name>PT3438</name></trkpt>
<trkpt lat="54.449018" lon="-3.321545"><ele>334</ele><time>2022-03-28T14:27:33Z</time><name>PT3439</name></trkpt>
<trkpt lat="54.448986" lon="-3.321561"><ele>334</ele><time>2022-03-28T14:27:37Z</time><name>PT3440</name></trkpt>
<trkpt lat="54.448948" lon="-3.321566"><ele>334</ele><time>2022-03-28T14:27:42Z</time><name>PT3441</name></trkpt>
<trkpt lat="54.448915" lon="-3.321580"><ele>333</ele><time>2022-03-28T14:27:45Z</time><name>PT3442</name></trkpt>
<trkpt lat="54.448876" lon="-3.321584"><ele>332</ele><time>2022-03-28T14:27:49Z</time><name>PT3443</name></trkpt>
<trkpt lat="54.448844" lon="-3.321580"><ele>331</ele><time>2022-03-28T14:27:54Z</time><name>PT3444</name></trkpt>
<trkpt lat="54.448819" lon="-3.321573"><ele>330</ele><time>2022-03-28T14:27:57Z</time><name>PT3445</name></trkpt>
<trkpt lat="54.448790" lon="-3.321550"><ele>330</ele><time>2022-03-28T14:28:00Z</time><name>PT3446</name></trkpt>
<trkpt lat="54.448769" lon="-3.321517"><ele>328</ele><time>2022-03-28T14:28:04Z</time><name>PT3447</name></trkpt>
<trkpt lat="54.448753" lon="-3.321509"><ele>327</ele><time>2022-03-28T14:28:09Z</time><name>PT3448</name></trkpt>
<trkpt lat="54.448726" lon="-3.321522"><ele>329</ele><time>2022-03-28T14:28:12Z</time><name>PT3449</name></trkpt>
<trkpt lat="54.448700" lon="-3.321519"><ele>331</ele><time>2022-03-28T14:28:15Z</time><name>PT3450</name></trkpt>
<trkpt lat="54.448686" lon="-3.321532"><ele>329</ele><time>2022-03-28T14:28:20Z</time><name>PT3451</name></trkpt>
<trkpt lat="54.448656" lon="-3.321539"><ele>329</ele><time>2022-03-28T14:28:23Z</time><name>PT3452</name></trkpt>
<trkpt lat="54.448647" lon="-3.321549"><ele>328</ele><time>2022-03-28T14:28:27Z</time><name>PT3453</name></trkpt>
<trkpt lat="54.448632" lon="-3.321564"><ele>327</ele><time>2022-03-28T14:28:32Z</time><name>PT3454</name></trkpt>
<trkpt lat="54.448629" lon="-3.321578"><ele>327</ele><time>2022-03-28T14:28:35Z</time><name>PT3455</name></trkpt>
<trkpt lat="54.448613" lon="-3.321602"><ele>325</ele><time>2022-03-28T14:28:38Z</time><name>PT3456</name></trkpt>
<trkpt lat="54.448609" lon="-3.321610"><ele>326</ele><time>2022-03-28T14:28:41Z</time><name>PT3457</name></trkpt>
<trkpt lat="54.448599" lon="-3.321641"><ele>326</ele><time>2022-03-28T14:28:44Z</time><name>PT3458</name></trkpt>
<trkpt lat="54.448565" lon="-3.321658"><ele>325</ele><time>2022-03-28T14:28:48Z</time><name>PT3459</name></trkpt>
<trkpt lat="54.448546" lon="-3.321661"><ele>325</ele><time>2022-03-28T14:28:53Z</time><name>PT3460</name></trkpt>
<trkpt lat="54.448521" lon="-3.321680"><ele>325</ele><time>2022-03-28T14:28:56Z</time><name>PT3461</name></trkpt>
<trkpt lat="54.448502" lon="-3.321696"><ele>325</ele><time>2022-03-28T14:29:00Z</time><name>PT3462</name></trkpt>
<trkpt lat="54.448491" lon="-3.321700"><ele>325</ele><time>2022-03-28T14:29:03Z</time><name>PT3463</name></trkpt>
<trkpt lat="54.448483" lon="-3.321702"><ele>323</ele><time>2022-03-28T14:29:08Z</time><name>PT3464</name></trkpt>
<trkpt lat="54.448467" lon="-3.321730"><ele>322</ele><time>2022-03-28T14:29:11Z</time><name>PT3465</name></trkpt>
<trkpt lat="54.448459" lon="-3.321742"><ele>323</ele><time>2022-03-28T14:29:14Z</time><name>PT3466</name></trkpt>
<trkpt lat="54.448447" lon="-3.321757"><ele>322</ele><time>2022-03-28T14:29:18Z</time><name>PT3467</name></trkpt>
<trkpt lat="54.448418" lon="-3.321769"><ele>322</ele><time>2022-03-28T14:29:23Z</time><name>PT3468</name></trkpt>
<trkpt lat="54.448399" lon="-3.321770"><ele>322</ele><time>2022-03-28T14:29:26Z</time><name>PT3469</name></trkpt>
<trkpt lat="54.448380" lon="-3.321769"><ele>321</ele><time>2022-03-28T14:29:29Z</time><name>PT3470</name></trkpt>
<trkpt lat="54.448365" lon="-3.321784"><ele>321</ele><time>2022-03-28T14:29:33Z</time><name>PT3471</name></trkpt>
<trkpt lat="54.448360" lon="-3.321809"><ele>321</ele><time>2022-03-28T14:29:36Z</time><name>PT3472</name></trkpt>
<trkpt lat="54.448340" lon="-3.321827"><ele>320</ele><time>2022-03-28T14:29:41Z</time><name>PT3473</name></trkpt>
<trkpt lat="54.448322" lon="-3.321834"><ele>320</ele><time>2022-03-28T14:29:44Z</time><name>PT3474</name></trkpt>
<trkpt lat="54.448304" lon="-3.321840"><ele>320</ele><time>2022-03-28T14:29:47Z</time><name>PT3475</name></trkpt>
<trkpt lat="54.448293" lon="-3.321841"><ele>320</ele><time>2022-03-28T14:29:50Z</time><name>PT3476</name></trkpt>
<trkpt lat="54.448285" lon="-3.321842"><ele>321</ele><time>2022-03-28T14:29:53Z</time><name>PT3477</name></trkpt>
<trkpt lat="54.448259" lon="-3.321834"><ele>321</ele><time>2022-03-28T14:29:57Z</time><name>PT3478</name></trkpt>
<trkpt lat="54.448241" lon="-3.321844"><ele>319</ele><time>2022-03-28T14:30:02Z</time><name>PT3479</name></trkpt>
<trkpt lat="54.448223" lon="-3.321854"><ele>318</ele><time>2022-03-28T14:30:05Z</time><name>PT3480</name></trkpt>
<trkpt lat="54.448209" lon="-3.321854"><ele>317</ele><time>2022-03-28T14:30:08Z</time><name>PT3481</name></trkpt>
<trkpt lat="54.448192" lon="-3.321850"><ele>317</ele><time>2022-03-28T14:30:15Z</time><name>PT3482</name></trkpt>
<trkpt lat="54.448160" lon="-3.321863"><ele>315</ele><time>2022-03-28T14:30:20Z</time><name>PT3483</name></trkpt>
<trkpt lat="54.448148" lon="-3.321858"><ele>315</ele><time>2022-03-28T14:30:23Z</time><name>PT3484</name></trkpt>
<trkpt lat="54.448134" lon="-3.321861"><ele>315</ele><time>2022-03-28T14:30:26Z</time><name>PT3485</name></trkpt>
<trkpt lat="54.448102" lon="-3.321881"><ele>313</ele><time>2022-03-28T14:30:30Z</time><name>PT3486</name></trkpt>
<trkpt lat="54.448084" lon="-3.321898"><ele>312</ele><time>2022-03-28T14:30:33Z</time><name>PT3487</name></trkpt>
<trkpt lat="54.448058" lon="-3.321900"><ele>312</ele><time>2022-03-28T14:30:38Z</time><name>PT3488</name></trkpt>
<trkpt lat="54.448037" lon="-3.321888"><ele>312</ele><time>2022-03-28T14:30:41Z</time><name>PT3489</name></trkpt>
<trkpt lat="54.448003" lon="-3.321890"><ele>311</ele><time>2022-03-28T14:30:44Z</time><name>PT3490</name></trkpt>
<trkpt lat="54.447971" lon="-3.321905"><ele>310</ele><time>2022-03-28T14:30:47Z</time><name>PT3491</name></trkpt>
<trkpt lat="54.447942" lon="-3.321912"><ele>310</ele><time>2022-03-28T14:30:51Z</time><name>PT3492</name></trkpt>
<trkpt lat="54.447912" lon="-3.321908"><ele>309</ele><time>2022-03-28T14:30:56Z</time><name>PT3493</name></trkpt>
<trkpt lat="54.447893" lon="-3.321893"><ele>309</ele><time>2022-03-28T14:30:59Z</time><name>PT3494</name></trkpt>
<trkpt lat="54.447876" lon="-3.321848"><ele>309</ele><time>2022-03-28T14:31:02Z</time><name>PT3495</name></trkpt>
<trkpt lat="54.447854" lon="-3.321834"><ele>309</ele><time>2022-03-28T14:31:05Z</time><name>PT3496</name></trkpt>
<trkpt lat="54.447832" lon="-3.321809"><ele>309</ele><time>2022-03-28T14:31:08Z</time><name>PT3497</name></trkpt>
<trkpt lat="54.447822" lon="-3.321776"><ele>309</ele><time>2022-03-28T14:31:12Z</time><name>PT3498</name></trkpt>
<trkpt lat="54.447811" lon="-3.321763"><ele>309</ele><time>2022-03-28T14:31:15Z</time><name>PT3499</name></trkpt>
<trkpt lat="54.447795" lon="-3.321752"><ele>309</ele><time>2022-03-28T14:31:18Z</time><name>PT3500</name></trkpt>
<trkpt lat="54.447768" lon="-3.321760"><ele>309</ele><time>2022-03-28T14:31:23Z</time><name>PT3501</name></trkpt>
<trkpt lat="54.447753" lon="-3.321768"><ele>308</ele><time>2022-03-28T14:31:26Z</time><name>PT3502</name></trkpt>
<trkpt lat="54.447722" lon="-3.321779"><ele>306</ele><time>2022-03-28T14:31:29Z</time><name>PT3503</name></trkpt>
<trkpt lat="54.447695" lon="-3.321780"><ele>305</ele><time>2022-03-28T14:31:33Z</time><name>PT3504</name></trkpt>
<trkpt lat="54.447677" lon="-3.321792"><ele>304</ele><time>2022-03-28T14:31:36Z</time><name>PT3505</name></trkpt>
<trkpt lat="54.447646" lon="-3.321799"><ele>303</ele><time>2022-03-28T14:31:41Z</time><name>PT3506</name></trkpt>
<trkpt lat="54.447627" lon="-3.321805"><ele>304</ele><time>2022-03-28T14:31:44Z</time><name>PT3507</name></trkpt>
<trkpt lat="54.447614" lon="-3.321817"><ele>303</ele><time>2022-03-28T14:31:47Z</time><name>PT3508</name></trkpt>
<trkpt lat="54.447597" lon="-3.321823"><ele>302</ele><time>2022-03-28T14:31:50Z</time><name>PT3509</name></trkpt>
<trkpt lat="54.447587" lon="-3.321839"><ele>301</ele><time>2022-03-28T14:31:53Z</time><name>PT3510</name></trkpt>
<trkpt lat="54.447580" lon="-3.321843"><ele>300</ele><time>2022-03-28T14:31:56Z</time><name>PT3511</name></trkpt>
<trkpt lat="54.447572" lon="-3.321853"><ele>299</ele><time>2022-03-28T14:31:59Z</time><name>PT3512</name></trkpt>
<trkpt lat="54.447558" lon="-3.321848"><ele>299</ele><time>2022-03-28T14:32:03Z</time><name>PT3513</name></trkpt>
<trkpt lat="54.447534" lon="-3.321853"><ele>297</ele><time>2022-03-28T14:32:06Z</time><name>PT3514</name></trkpt>
<trkpt lat="54.447517" lon="-3.321850"><ele>296</ele><time>2022-03-28T14:32:11Z</time><name>PT3515</name></trkpt>
<trkpt lat="54.447492" lon="-3.321848"><ele>295</ele><time>2022-03-28T14:32:14Z</time><name>PT3516</name></trkpt>
<trkpt lat="54.447448" lon="-3.321858"><ele>296</ele><time>2022-03-28T14:32:18Z</time><name>PT3517</name></trkpt>
<trkpt lat="54.447429" lon="-3.321858"><ele>296</ele><time>2022-03-28T14:32:21Z</time><name>PT3518</name></trkpt>
<trkpt lat="54.447407" lon="-3.321854"><ele>296</ele><time>2022-03-28T14:32:24Z</time><name>PT3519</name></trkpt>
<trkpt lat="54.447375" lon="-3.321866"><ele>296</ele><time>2022-03-28T14:32:27Z</time><name>PT3520</name></trkpt>
<trkpt lat="54.447345" lon="-3.321879"><ele>295</ele><time>2022-03-28T14:32:32Z</time><name>PT3521</name></trkpt>
<trkpt lat="54.447316" lon="-3.321884"><ele>294</ele><time>2022-03-28T14:32:35Z</time><name>PT3522</name></trkpt>
<trkpt lat="54.447291" lon="-3.321891"><ele>293</ele><time>2022-03-28T14:32:39Z</time><name>PT3523</name></trkpt>
<trkpt lat="54.447276" lon="-3.321911"><ele>292</ele><time>2022-03-28T14:32:44Z</time><name>PT3524</name></trkpt>
<trkpt lat="54.447264" lon="-3.321915"><ele>292</ele><time>2022-03-28T14:32:47Z</time><name>PT3525</name></trkpt>
<trkpt lat="54.447235" lon="-3.321912"><ele>291</ele><time>2022-03-28T14:32:50Z</time><name>PT3526</name></trkpt>
<trkpt lat="54.447222" lon="-3.321914"><ele>290</ele><time>2022-03-28T14:32:53Z</time><name>PT3527</name></trkpt>
<trkpt lat="54.447220" lon="-3.321920"><ele>289</ele><time>2022-03-28T14:33:00Z</time><name>PT3528</name></trkpt>
<trkpt lat="54.447205" lon="-3.321931"><ele>288</ele><time>2022-03-28T14:33:05Z</time><name>PT3529</name></trkpt>
<trkpt lat="54.447195" lon="-3.321930"><ele>289</ele><time>2022-03-28T14:33:08Z</time><name>PT3530</name></trkpt>
<trkpt lat="54.447185" lon="-3.321922"><ele>288</ele><time>2022-03-28T14:33:12Z</time><name>PT3531</name></trkpt>
<trkpt lat="54.447185" lon="-3.321923"><ele>287</ele><time>2022-03-28T14:33:17Z</time><name>PT3532</name></trkpt>
<trkpt lat="54.447178" lon="-3.321936"><ele>287</ele><time>2022-03-28T14:33:20Z</time><name>PT3533</name></trkpt>
<trkpt lat="54.447170" lon="-3.321932"><ele>287</ele><time>2022-03-28T14:33:23Z</time><name>PT3534</name></trkpt>
<trkpt lat="54.447150" lon="-3.321929"><ele>287</ele><time>2022-03-28T14:33:30Z</time><name>PT3535</name></trkpt>
<trkpt lat="54.447130" lon="-3.321934"><ele>286</ele><time>2022-03-28T14:33:35Z</time><name>PT3536</name></trkpt>
<trkpt lat="54.447096" lon="-3.321949"><ele>285</ele><time>2022-03-28T14:33:38Z</time><name>PT3537</name></trkpt>
<trkpt lat="54.447068" lon="-3.321958"><ele>284</ele><time>2022-03-28T14:33:42Z</time><name>PT3538</name></trkpt>
<trkpt lat="54.447020" lon="-3.321960"><ele>282</ele><time>2022-03-28T14:33:47Z</time><name>PT3539</name></trkpt>
<trkpt lat="54.446990" lon="-3.321956"><ele>283</ele><time>2022-03-28T14:33:50Z</time><name>PT3540</name></trkpt>
<trkpt lat="54.446965" lon="-3.321964"><ele>282</ele><time>2022-03-28T14:33:54Z</time><name>PT3541</name></trkpt>
<trkpt lat="54.446953" lon="-3.321977"><ele>281</ele><time>2022-03-28T14:33:57Z</time><name>PT3542</name></trkpt>
<trkpt lat="54.446943" lon="-3.322006"><ele>281</ele><time>2022-03-28T14:34:02Z</time><name>PT3543</name></trkpt>
<trkpt lat="54.446936" lon="-3.322034"><ele>281</ele><time>2022-03-28T14:34:05Z</time><name>PT3544</name></trkpt>
<trkpt lat="54.446934" lon="-3.322038"><ele>281</ele><time>2022-03-28T14:34:08Z</time><name>PT3545</name></trkpt>
<trkpt lat="54.446936" lon="-3.322040"><ele>281</ele><time>2022-03-28T14:34:12Z</time><name>PT3546</name></trkpt>
<trkpt lat="54.446929" lon="-3.322054"><ele>280</ele><time>2022-03-28T14:34:17Z</time><name>PT3547</name></trkpt>
<trkpt lat="54.446919" lon="-3.322067"><ele>280</ele><time>2022-03-28T14:34:20Z</time><name>PT3548</name></trkpt>
<trkpt lat="54.446913" lon="-3.322065"><ele>280</ele><time>2022-03-28T14:34:23Z</time><name>PT3549</name></trkpt>
<trkpt lat="54.446904" lon="-3.322061"><ele>280</ele><time>2022-03-28T14:34:27Z</time><name>PT3550</name></trkpt>
<trkpt lat="54.446888" lon="-3.322072"><ele>279</ele><time>2022-03-28T14:34:32Z</time><name>PT3551</name></trkpt>
<trkpt lat="54.446884" lon="-3.322071"><ele>278</ele><time>2022-03-28T14:34:35Z</time><name>PT3552</name></trkpt>
<trkpt lat="54.446871" lon="-3.322084"><ele>277</ele><time>2022-03-28T14:34:38Z</time><name>PT3553</name></trkpt>
<trkpt lat="54.446840" lon="-3.322109"><ele>277</ele><time>2022-03-28T14:34:41Z</time><name>PT3554</name></trkpt>
<trkpt lat="54.446810" lon="-3.322125"><ele>276</ele><time>2022-03-28T14:34:45Z</time><name>PT3555</name></trkpt>
<trkpt lat="54.446780" lon="-3.322134"><ele>274</ele><time>2022-03-28T14:34:50Z</time><name>PT3556</name></trkpt>
<trkpt lat="54.446759" lon="-3.322143"><ele>275</ele><time>2022-03-28T14:34:53Z</time><name>PT3557</name></trkpt>
<trkpt lat="54.446735" lon="-3.322158"><ele>274</ele><time>2022-03-28T14:34:56Z</time><name>PT3558</name></trkpt>
<trkpt lat="54.446722" lon="-3.322181"><ele>275</ele><time>2022-03-28T14:34:59Z</time><name>PT3559</name></trkpt>
<trkpt lat="54.446710" lon="-3.322202"><ele>273</ele><time>2022-03-28T14:35:03Z</time><name>PT3560</name></trkpt>
<trkpt lat="54.446703" lon="-3.322226"><ele>273</ele><time>2022-03-28T14:35:06Z</time><name>PT3561</name></trkpt>
<trkpt lat="54.446698" lon="-3.322232"><ele>272</ele><time>2022-03-28T14:35:09Z</time><name>PT3562</name></trkpt>
<trkpt lat="54.446700" lon="-3.322244"><ele>270</ele><time>2022-03-28T14:35:14Z</time><name>PT3563</name></trkpt>
<trkpt lat="54.446691" lon="-3.322264"><ele>269</ele><time>2022-03-28T14:35:17Z</time><name>PT3564</name></trkpt>
<trkpt lat="54.446677" lon="-3.322265"><ele>269</ele><time>2022-03-28T14:35:20Z</time><name>PT3565</name></trkpt>
<trkpt lat="54.446654" lon="-3.322292"><ele>268</ele><time>2022-03-28T14:35:23Z</time><name>PT3566</name></trkpt>
<trkpt lat="54.446640" lon="-3.322309"><ele>267</ele><time>2022-03-28T14:35:26Z</time><name>PT3567</name></trkpt>
<trkpt lat="54.446632" lon="-3.322347"><ele>267</ele><time>2022-03-28T14:35:29Z</time><name>PT3568</name></trkpt>
<trkpt lat="54.446617" lon="-3.322357"><ele>267</ele><time>2022-03-28T14:35:35Z</time><name>PT3569</name></trkpt>
<trkpt lat="54.446604" lon="-3.322372"><ele>265</ele><time>2022-03-28T14:35:38Z</time><name>PT3570</name></trkpt>
<trkpt lat="54.446591" lon="-3.322402"><ele>264</ele><time>2022-03-28T14:35:41Z</time><name>PT3571</name></trkpt>
<trkpt lat="54.446589" lon="-3.322425"><ele>263</ele><time>2022-03-28T14:35:45Z</time><name>PT3572</name></trkpt>
<trkpt lat="54.446569" lon="-3.322437"><ele>263</ele><time>2022-03-28T14:35:48Z</time><name>PT3573</name></trkpt>
<trkpt lat="54.446546" lon="-3.322443"><ele>264</ele><time>2022-03-28T14:35:53Z</time><name>PT3574</name></trkpt>
<trkpt lat="54.446536" lon="-3.322449"><ele>264</ele><time>2022-03-28T14:35:56Z</time><name>PT3575</name></trkpt>
<trkpt lat="54.446515" lon="-3.322476"><ele>263</ele><time>2022-03-28T14:35:59Z</time><name>PT3576</name></trkpt>
<trkpt lat="54.446497" lon="-3.322481"><ele>264</ele><time>2022-03-28T14:36:02Z</time><name>PT3577</name></trkpt>
<trkpt lat="54.446474" lon="-3.322492"><ele>263</ele><time>2022-03-28T14:36:06Z</time><name>PT3578</name></trkpt>
<trkpt lat="54.446455" lon="-3.322500"><ele>262</ele><time>2022-03-28T14:36:09Z</time><name>PT3579</name></trkpt>
<trkpt lat="54.446420" lon="-3.322496"><ele>261</ele><time>2022-03-28T14:36:14Z</time><name>PT3580</name></trkpt>
<trkpt lat="54.446393" lon="-3.322508"><ele>262</ele><time>2022-03-28T14:36:17Z</time><name>PT3581</name></trkpt>
<trkpt lat="54.446360" lon="-3.322514"><ele>262</ele><time>2022-03-28T14:36:21Z</time><name>PT3582</name></trkpt>
<trkpt lat="54.446332" lon="-3.322530"><ele>260</ele><time>2022-03-28T14:36:26Z</time><name>PT3583</name></trkpt>
<trkpt lat="54.446305" lon="-3.322534"><ele>258</ele><time>2022-03-28T14:36:29Z</time><name>PT3584</name></trkpt>
<trkpt lat="54.446282" lon="-3.322539"><ele>259</ele><time>2022-03-28T14:36:33Z</time><name>PT3585</name></trkpt>
<trkpt lat="54.446265" lon="-3.322550"><ele>259</ele><time>2022-03-28T14:36:38Z</time><name>PT3586</name></trkpt>
<trkpt lat="54.446255" lon="-3.322557"><ele>257</ele><time>2022-03-28T14:36:41Z</time><name>PT3587</name></trkpt>
<trkpt lat="54.446246" lon="-3.322573"><ele>257</ele><time>2022-03-28T14:36:44Z</time><name>PT3588</name></trkpt>
<trkpt lat="54.446230" lon="-3.322574"><ele>257</ele><time>2022-03-28T14:36:47Z</time><name>PT3589</name></trkpt>
<trkpt lat="54.446204" lon="-3.322602"><ele>256</ele><time>2022-03-28T14:36:51Z</time><name>PT3590</name></trkpt>
<trkpt lat="54.446188" lon="-3.322635"><ele>255</ele><time>2022-03-28T14:36:54Z</time><name>PT3591</name></trkpt>
<trkpt lat="54.446164" lon="-3.322651"><ele>254</ele><time>2022-03-28T14:36:59Z</time><name>PT3592</name></trkpt>
<trkpt lat="54.446147" lon="-3.322653"><ele>254</ele><time>2022-03-28T14:37:02Z</time><name>PT3593</name></trkpt>
<trkpt lat="54.446136" lon="-3.322657"><ele>254</ele><time>2022-03-28T14:37:05Z</time><name>PT3594</name></trkpt>
<trkpt lat="54.446099" lon="-3.322691"><ele>254</ele><time>2022-03-28T14:37:08Z</time><name>PT3595</name></trkpt>
<trkpt lat="54.446076" lon="-3.322711"><ele>254</ele><time>2022-03-28T14:37:12Z</time><name>PT3596</name></trkpt>
<trkpt lat="54.446046" lon="-3.322723"><ele>253</ele><time>2022-03-28T14:37:17Z</time><name>PT3597</name></trkpt>
<trkpt lat="54.446014" lon="-3.322735"><ele>250</ele><time>2022-03-28T14:37:20Z</time><name>PT3598</name></trkpt>
<trkpt lat="54.445990" lon="-3.322732"><ele>249</ele><time>2022-03-28T14:37:24Z</time><name>PT3599</name></trkpt>
<trkpt lat="54.445975" lon="-3.322723"><ele>248</ele><time>2022-03-28T14:37:27Z</time><name>PT3600</name></trkpt>
<trkpt lat="54.445972" lon="-3.322720"><ele>248</ele><time>2022-03-28T14:37:32Z</time><name>PT3601</name></trkpt>
<trkpt lat="54.445965" lon="-3.322716"><ele>247</ele><time>2022-03-28T14:37:38Z</time><name>PT3602</name></trkpt>
<trkpt lat="54.445943" lon="-3.322709"><ele>247</ele><time>2022-03-28T14:37:41Z</time><name>PT3603</name></trkpt>
<trkpt lat="54.445924" lon="-3.322706"><ele>246</ele><time>2022-03-28T14:37:44Z</time><name>PT3604</name></trkpt>
<trkpt lat="54.445899" lon="-3.322692"><ele>246</ele><time>2022-03-28T14:37:47Z</time><name>PT3605</name></trkpt>
<trkpt lat="54.445885" lon="-3.322694"><ele>246</ele><time>2022-03-28T14:37:50Z</time><name>PT3606</name></trkpt>
<trkpt lat="54.445866" lon="-3.322701"><ele>244</ele><time>2022-03-28T14:37:54Z</time><name>PT3607</name></trkpt>
<trkpt lat="54.445828" lon="-3.322693"><ele>243</ele><time>2022-03-28T14:37:59Z</time><name>PT3608</name></trkpt>
<trkpt lat="54.445797" lon="-3.322698"><ele>243</ele><time>2022-03-28T14:38:02Z</time><name>PT3609</name></trkpt>
<trkpt lat="54.445762" lon="-3.322713"><ele>243</ele><time>2022-03-28T14:38:05Z</time><name>PT3610</name></trkpt>
<trkpt lat="54.445734" lon="-3.322738"><ele>243</ele><time>2022-03-28T14:38:08Z</time><name>PT3611</name></trkpt>
<trkpt lat="54.445708" lon="-3.322775"><ele>243</ele><time>2022-03-28T14:38:11Z</time><name>PT3612</name></trkpt>
<trkpt lat="54.445680" lon="-3.322804"><ele>242</ele><time>2022-03-28T14:38:14Z</time><name>PT3613</name></trkpt>
<trkpt lat="54.445654" lon="-3.322810"><ele>241</ele><time>2022-03-28T14:38:17Z</time><name>PT3614</name></trkpt>
<trkpt lat="54.445631" lon="-3.322829"><ele>240</ele><time>2022-03-28T14:38:21Z</time><name>PT3615</name></trkpt>
<trkpt lat="54.445596" lon="-3.322844"><ele>240</ele><time>2022-03-28T14:38:26Z</time><name>PT3616</name></trkpt>
<trkpt lat="54.445556" lon="-3.322863"><ele>239</ele><time>2022-03-28T14:38:29Z</time><name>PT3617</name></trkpt>
<trkpt lat="54.445513" lon="-3.322862"><ele>239</ele><time>2022-03-28T14:38:32Z</time><name>PT3618</name></trkpt>
<trkpt lat="54.445477" lon="-3.322880"><ele>239</ele><time>2022-03-28T14:38:36Z</time><name>PT3619</name></trkpt>
<trkpt lat="54.445434" lon="-3.322887"><ele>238</ele><time>2022-03-28T14:38:41Z</time><name>PT3620</name></trkpt>
<trkpt lat="54.445397" lon="-3.322886"><ele>237</ele><time>2022-03-28T14:38:44Z</time><name>PT3621</name></trkpt>
<trkpt lat="54.445358" lon="-3.322885"><ele>237</ele><time>2022-03-28T14:38:47Z</time><name>PT3622</name></trkpt>
<trkpt lat="54.445310" lon="-3.322883"><ele>236</ele><time>2022-03-28T14:38:50Z</time><name>PT3623</name></trkpt>
<trkpt lat="54.445266" lon="-3.322900"><ele>235</ele><time>2022-03-28T14:38:54Z</time><name>PT3624</name></trkpt>
<trkpt lat="54.445237" lon="-3.322894"><ele>235</ele><time>2022-03-28T14:38:57Z</time><name>PT3625</name></trkpt>
<trkpt lat="54.445206" lon="-3.322905"><ele>234</ele><time>2022-03-28T14:39:02Z</time><name>PT3626</name></trkpt>
<trkpt lat="54.445173" lon="-3.322916"><ele>234</ele><time>2022-03-28T14:39:05Z</time><name>PT3627</name></trkpt>
<trkpt lat="54.445133" lon="-3.322936"><ele>234</ele><time>2022-03-28T14:39:09Z</time><name>PT3628</name></trkpt>
<trkpt lat="54.445098" lon="-3.322950"><ele>234</ele><time>2022-03-28T14:39:12Z</time><name>PT3629</name></trkpt>
<trkpt lat="54.445065" lon="-3.322957"><ele>233</ele><time>2022-03-28T14:39:15Z</time><name>PT3630</name></trkpt>
<trkpt lat="54.445031" lon="-3.322967"><ele>234</ele><time>2022-03-28T14:39:20Z</time><name>PT3631</name></trkpt>
<trkpt lat="54.445006" lon="-3.322981"><ele>231</ele><time>2022-03-28T14:39:23Z</time><name>PT3632</name></trkpt>
<trkpt lat="54.444958" lon="-3.322994"><ele>231</ele><time>2022-03-28T14:39:26Z</time><name>PT3633</name></trkpt>
<trkpt lat="54.444922" lon="-3.323000"><ele>230</ele><time>2022-03-28T14:39:29Z</time><name>PT3634</name></trkpt>
<trkpt lat="54.444885" lon="-3.323017"><ele>229</ele><time>2022-03-28T14:39:32Z</time><name>PT3635</name></trkpt>
<trkpt lat="54.444848" lon="-3.323026"><ele>230</ele><time>2022-03-28T14:39:35Z</time><name>PT3636</name></trkpt>
<trkpt lat="54.444800" lon="-3.323026"><ele>229</ele><time>2022-03-28T14:39:39Z</time><name>PT3637</name></trkpt>
<trkpt lat="54.444766" lon="-3.323047"><ele>230</ele><time>2022-03-28T14:39:42Z</time><name>PT3638</name></trkpt>
<trkpt lat="54.444728" lon="-3.323070"><ele>230</ele><time>2022-03-28T14:39:47Z</time><name>PT3639</name></trkpt>
<trkpt lat="54.444694" lon="-3.323076"><ele>229</ele><time>2022-03-28T14:39:50Z</time><name>PT3640</name></trkpt>
<trkpt lat="54.444656" lon="-3.323070"><ele>229</ele><time>2022-03-28T14:39:53Z</time><name>PT3641</name></trkpt>
<trkpt lat="54.444617" lon="-3.323071"><ele>228</ele><time>2022-03-28T14:39:57Z</time><name>PT3642</name></trkpt>
<trkpt lat="54.444592" lon="-3.323091"><ele>227</ele><time>2022-03-28T14:40:00Z</time><name>PT3643</name></trkpt>
<trkpt lat="54.444554" lon="-3.323099"><ele>225</ele><time>2022-03-28T14:40:05Z</time><name>PT3644</name></trkpt>
<trkpt lat="54.444517" lon="-3.323101"><ele>224</ele><time>2022-03-28T14:40:08Z</time><name>PT3645</name></trkpt>
<trkpt lat="54.444491" lon="-3.323110"><ele>223</ele><time>2022-03-28T14:40:11Z</time><name>PT3646</name></trkpt>
<trkpt lat="54.444459" lon="-3.323144"><ele>225</ele><time>2022-03-28T14:40:14Z</time><name>PT3647</name></trkpt>
<trkpt lat="54.444426" lon="-3.323158"><ele>224</ele><time>2022-03-28T14:40:17Z</time><name>PT3648</name></trkpt>
<trkpt lat="54.444388" lon="-3.323156"><ele>222</ele><time>2022-03-28T14:40:21Z</time><name>PT3649</name></trkpt>
<trkpt lat="54.444352" lon="-3.323151"><ele>221</ele><time>2022-03-28T14:40:26Z</time><name>PT3650</name></trkpt>
<trkpt lat="54.444309" lon="-3.323160"><ele>221</ele><time>2022-03-28T14:40:29Z</time><name>PT3651</name></trkpt>
<trkpt lat="54.444261" lon="-3.323163"><ele>220</ele><time>2022-03-28T14:40:33Z</time><name>PT3652</name></trkpt>
<trkpt lat="54.444230" lon="-3.323148"><ele>218</ele><time>2022-03-28T14:40:36Z</time><name>PT3653</name></trkpt>
<trkpt lat="54.444193" lon="-3.323136"><ele>216</ele><time>2022-03-28T14:40:41Z</time><name>PT3654</name></trkpt>
<trkpt lat="54.444139" lon="-3.323106"><ele>216</ele><time>2022-03-28T14:40:44Z</time><name>PT3655</name></trkpt>
<trkpt lat="54.444108" lon="-3.323107"><ele>216</ele><time>2022-03-28T14:40:47Z</time><name>PT3656</name></trkpt>
<trkpt lat="54.444080" lon="-3.323107"><ele>216</ele><time>2022-03-28T14:40:51Z</time><name>PT3657</name></trkpt>
<trkpt lat="54.444044" lon="-3.323106"><ele>214</ele><time>2022-03-28T14:40:56Z</time><name>PT3658</name></trkpt>
<trkpt lat="54.444000" lon="-3.323110"><ele>215</ele><time>2022-03-28T14:40:59Z</time><name>PT3659</name></trkpt>
<trkpt lat="54.443969" lon="-3.323116"><ele>214</ele><time>2022-03-28T14:41:02Z</time><name>PT3660</name></trkpt>
<trkpt lat="54.443941" lon="-3.323131"><ele>215</ele><time>2022-03-28T14:41:05Z</time><name>PT3661</name></trkpt>
<trkpt lat="54.443916" lon="-3.323158"><ele>212</ele><time>2022-03-28T14:41:09Z</time><name>PT3662</name></trkpt>
<trkpt lat="54.443894" lon="-3.323172"><ele>211</ele><time>2022-03-28T14:41:12Z</time><name>PT3663</name></trkpt>
<trkpt lat="54.443862" lon="-3.323181"><ele>209</ele><time>2022-03-28T14:41:17Z</time><name>PT3664</name></trkpt>
<trkpt lat="54.443834" lon="-3.323207"><ele>208</ele><time>2022-03-28T14:41:20Z</time><name>PT3665</name></trkpt>
<trkpt lat="54.443799" lon="-3.323237"><ele>207</ele><time>2022-03-28T14:41:23Z</time><name>PT3666</name></trkpt>
<trkpt lat="54.443745" lon="-3.323279"><ele>208</ele><time>2022-03-28T14:41:27Z</time><name>PT3667</name></trkpt>
<trkpt lat="54.443692" lon="-3.323301"><ele>208</ele><time>2022-03-28T14:41:32Z</time><name>PT3668</name></trkpt>
<trkpt lat="54.443656" lon="-3.323310"><ele>207</ele><time>2022-03-28T14:41:35Z</time><name>PT3669</name></trkpt>
<trkpt lat="54.443623" lon="-3.323312"><ele>207</ele><time>2022-03-28T14:41:38Z</time><name>PT3670</name></trkpt>
<trkpt lat="54.443618" lon="-3.323310"><ele>208</ele><time>2022-03-28T14:41:42Z</time><name>PT3671</name></trkpt>
<trkpt lat="54.443614" lon="-3.323303"><ele>208</ele><time>2022-03-28T14:41:45Z</time><name>PT3672</name></trkpt>
<trkpt lat="54.443593" lon="-3.323277"><ele>208</ele><time>2022-03-28T14:41:48Z</time><name>PT3673</name></trkpt>
<trkpt lat="54.443546" lon="-3.323233"><ele>208</ele><time>2022-03-28T14:41:53Z</time><name>PT3674</name></trkpt>
<trkpt lat="54.443516" lon="-3.323210"><ele>207</ele><time>2022-03-28T14:41:56Z</time><name>PT3675</name></trkpt>
<trkpt lat="54.443472" lon="-3.323173"><ele>207</ele><time>2022-03-28T14:41:59Z</time><name>PT3676</name></trkpt>
<trkpt lat="54.443431" lon="-3.323159"><ele>208</ele><time>2022-03-28T14:42:02Z</time><name>PT3677</name></trkpt>
<trkpt lat="54.443391" lon="-3.323153"><ele>207</ele><time>2022-03-28T14:42:05Z</time><name>PT3678</name></trkpt>
<trkpt lat="54.443359" lon="-3.323147"><ele>207</ele><time>2022-03-28T14:42:08Z</time><name>PT3679</name></trkpt>
<trkpt lat="54.443304" lon="-3.323132"><ele>206</ele><time>2022-03-28T14:42:12Z</time><name>PT3680</name></trkpt>
<trkpt lat="54.443275" lon="-3.323120"><ele>204</ele><time>2022-03-28T14:42:15Z</time><name>PT3681</name></trkpt>
<trkpt lat="54.443255" lon="-3.323103"><ele>205</ele><time>2022-03-28T14:42:18Z</time><name>PT3682</name></trkpt>
<trkpt lat="54.443221" lon="-3.323081"><ele>204</ele><time>2022-03-28T14:42:23Z</time><name>PT3683</name></trkpt>
<trkpt lat="54.443208" lon="-3.323054"><ele>203</ele><time>2022-03-28T14:42:26Z</time><name>PT3684</name></trkpt>
<trkpt lat="54.443200" lon="-3.323043"><ele>204</ele><time>2022-03-28T14:42:29Z</time><name>PT3685</name></trkpt>
<trkpt lat="54.443186" lon="-3.323058"><ele>204</ele><time>2022-03-28T14:42:33Z</time><name>PT3686</name></trkpt>
<trkpt lat="54.443156" lon="-3.323067"><ele>202</ele><time>2022-03-28T14:42:38Z</time><name>PT3687</name></trkpt>
<trkpt lat="54.443129" lon="-3.323050"><ele>201</ele><time>2022-03-28T14:42:41Z</time><name>PT3688</name></trkpt>
<trkpt lat="54.443109" lon="-3.323018"><ele>200</ele><time>2022-03-28T14:42:44Z</time><name>PT3689</name></trkpt>
<trkpt lat="54.443082" lon="-3.322969"><ele>200</ele><time>2022-03-28T14:42:48Z</time><name>PT3690</name></trkpt>
<trkpt lat="54.443064" lon="-3.322934"><ele>202</ele><time>2022-03-28T14:42:51Z</time><name>PT3691</name></trkpt>
<trkpt lat="54.443048" lon="-3.322910"><ele>201</ele><time>2022-03-28T14:42:54Z</time><name>PT3692</name></trkpt>
<trkpt lat="54.443023" lon="-3.322900"><ele>200</ele><time>2022-03-28T14:42:57Z</time><name>PT3693</name></trkpt>
<trkpt lat="54.443004" lon="-3.322911"><ele>197</ele><time>2022-03-28T14:43:02Z</time><name>PT3694</name></trkpt>
<trkpt lat="54.442988" lon="-3.322928"><ele>196</ele><time>2022-03-28T14:43:05Z</time><name>PT3695</name></trkpt>
<trkpt lat="54.442971" lon="-3.322956"><ele>194</ele><time>2022-03-28T14:43:08Z</time><name>PT3696</name></trkpt>
<trkpt lat="54.442951" lon="-3.322957"><ele>193</ele><time>2022-03-28T14:43:11Z</time><name>PT3697</name></trkpt>
<trkpt lat="54.442928" lon="-3.322931"><ele>192</ele><time>2022-03-28T14:43:14Z</time><name>PT3698</name></trkpt>
<trkpt lat="54.442909" lon="-3.322915"><ele>191</ele><time>2022-03-28T14:43:17Z</time><name>PT3699</name></trkpt>
<trkpt lat="54.442878" lon="-3.322893"><ele>191</ele><time>2022-03-28T14:43:21Z</time><name>PT3700</name></trkpt>
<trkpt lat="54.442852" lon="-3.322884"><ele>190</ele><time>2022-03-28T14:43:24Z</time><name>PT3701</name></trkpt>
<trkpt lat="54.442832" lon="-3.322865"><ele>189</ele><time>2022-03-28T14:43:27Z</time><name>PT3702</name></trkpt>
<trkpt lat="54.442800" lon="-3.322835"><ele>188</ele><time>2022-03-28T14:43:32Z</time><name>PT3703</name></trkpt>
<trkpt lat="54.442778" lon="-3.322823"><ele>188</ele><time>2022-03-28T14:43:35Z</time><name>PT3704</name></trkpt>
<trkpt lat="54.442758" lon="-3.322807"><ele>187</ele><time>2022-03-28T14:43:38Z</time><name>PT3705</name></trkpt>
<trkpt lat="54.442742" lon="-3.322797"><ele>185</ele><time>2022-03-28T14:43:42Z</time><name>PT3706</name></trkpt>
<trkpt lat="54.442739" lon="-3.322794"><ele>185</ele><time>2022-03-28T14:43:45Z</time><name>PT3707</name></trkpt>
<trkpt lat="54.442735" lon="-3.322798"><ele>185</ele><time>2022-03-28T14:43:50Z</time><name>PT3708</name></trkpt>
<trkpt lat="54.442734" lon="-3.322796"><ele>185</ele><time>2022-03-28T14:43:53Z</time><name>PT3709</name></trkpt>
<trkpt lat="54.442731" lon="-3.322807"><ele>185</ele><time>2022-03-28T14:44:41Z</time><name>PT3710</name></trkpt>
<trkpt lat="54.442731" lon="-3.322809"><ele>185</ele><time>2022-03-28T14:44:44Z</time><name>PT3711</name></trkpt>
<trkpt lat="54.442724" lon="-3.322814"><ele>184</ele><time>2022-03-28T14:44:47Z</time><name>PT3712</name></trkpt>
<trkpt lat="54.442716" lon="-3.322818"><ele>184</ele><time>2022-03-28T14:44:48Z</time><name>PT3713</name></trkpt>
<trkpt lat="54.442703" lon="-3.322815"><ele>184</ele><time>2022-03-28T14:44:50Z</time><name>PT3714</name></trkpt>
<trkpt lat="54.442696" lon="-3.322808"><ele>183</ele><time>2022-03-28T14:44:50Z</time><name>PT3715</name></trkpt>
<trkpt lat="54.442686" lon="-3.322809"><ele>183</ele><time>2022-03-28T14:44:51Z</time><name>PT3716</name></trkpt>
<trkpt lat="54.442677" lon="-3.322806"><ele>183</ele><time>2022-03-28T14:44:53Z</time><name>PT3717</name></trkpt>
<trkpt lat="54.442670" lon="-3.322809"><ele>183</ele><time>2022-03-28T14:44:53Z</time><name>PT3718</name></trkpt>
<trkpt lat="54.442665" lon="-3.322805"><ele>182</ele><time>2022-03-28T14:44:54Z</time><name>PT3719</name></trkpt>
<trkpt lat="54.442658" lon="-3.322798"><ele>182</ele><time>2022-03-28T14:44:56Z</time><name>PT3720</name></trkpt>
<trkpt lat="54.442652" lon="-3.322792"><ele>182</ele><time>2022-03-28T14:44:56Z</time><name>PT3721</name></trkpt>
<trkpt lat="54.442645" lon="-3.322793"><ele>182</ele><time>2022-03-28T14:44:57Z</time><name>PT3722</name></trkpt>
<trkpt lat="54.442635" lon="-3.322794"><ele>181</ele><time>2022-03-28T14:44:59Z</time><name>PT3723</name></trkpt>
<trkpt lat="54.442630" lon="-3.322792"><ele>180</ele><time>2022-03-28T14:44:59Z</time><name>PT3724</name></trkpt>
<trkpt lat="54.442622" lon="-3.322793"><ele>180</ele><time>2022-03-28T14:45:00Z</time><name>PT3725</name></trkpt>
<trkpt lat="54.442614" lon="-3.322786"><ele>180</ele><time>2022-03-28T14:45:02Z</time><name>PT3726</name></trkpt>
<trkpt lat="54.442606" lon="-3.322780"><ele>179</ele><time>2022-03-28T14:45:02Z</time><name>PT3727</name></trkpt>
<trkpt lat="54.442599" lon="-3.322774"><ele>179</ele><time>2022-03-28T14:45:03Z</time><name>PT3728</name></trkpt>
<trkpt lat="54.442591" lon="-3.322771"><ele>179</ele><time>2022-03-28T14:45:05Z</time><name>PT3729</name></trkpt>
<trkpt lat="54.442584" lon="-3.322768"><ele>178</ele><time>2022-03-28T14:45:05Z</time><name>PT3730</name></trkpt>
<trkpt lat="54.442577" lon="-3.322762"><ele>178</ele><time>2022-03-28T14:45:06Z</time><name>PT3731</name></trkpt>
<trkpt lat="54.442570" lon="-3.322755"><ele>178</ele><time>2022-03-28T14:45:08Z</time><name>PT3732</name></trkpt>
<trkpt lat="54.442563" lon="-3.322748"><ele>177</ele><time>2022-03-28T14:45:08Z</time><name>PT3733</name></trkpt>
<trkpt lat="54.442556" lon="-3.322744"><ele>177</ele><time>2022-03-28T14:45:09Z</time><name>PT3734</name></trkpt>
<trkpt lat="54.442548" lon="-3.322738"><ele>177</ele><time>2022-03-28T14:45:11Z</time><name>PT3735</name></trkpt>
<trkpt lat="54.442540" lon="-3.322730"><ele>176</ele><time>2022-03-28T14:45:11Z</time><name>PT3736</name></trkpt>
<trkpt lat="54.442533" lon="-3.322721"><ele>175</ele><time>2022-03-28T14:45:12Z</time><name>PT3737</name></trkpt>
<trkpt lat="54.442525" lon="-3.322718"><ele>175</ele><time>2022-03-28T14:45:14Z</time><name>PT3738</name></trkpt>
<trkpt lat="54.442517" lon="-3.322711"><ele>174</ele><time>2022-03-28T14:45:14Z</time><name>PT3739</name></trkpt>
<trkpt lat="54.442510" lon="-3.322703"><ele>174</ele><time>2022-03-28T14:45:15Z</time><name>PT3740</name></trkpt>
<trkpt lat="54.442503" lon="-3.322693"><ele>174</ele><time>2022-03-28T14:45:17Z</time><name>PT3741</name></trkpt>
<trkpt lat="54.442498" lon="-3.322682"><ele>173</ele><time>2022-03-28T14:45:17Z</time><name>PT3742</name></trkpt>
<trkpt lat="54.442491" lon="-3.322674"><ele>173</ele><time>2022-03-28T14:45:18Z</time><name>PT3743</name></trkpt>
<trkpt lat="54.442482" lon="-3.322670"><ele>172</ele><time>2022-03-28T14:45:20Z</time><name>PT3744</name></trkpt>
<trkpt lat="54.442472" lon="-3.322670"><ele>171</ele><time>2022-03-28T14:45:20Z</time><name>PT3745</name></trkpt>
<trkpt lat="54.442463" lon="-3.322673"><ele>171</ele><time>2022-03-28T14:45:21Z</time><name>PT3746</name></trkpt>
<trkpt lat="54.442455" lon="-3.322672"><ele>171</ele><time>2022-03-28T14:45:23Z</time><name>PT3747</name></trkpt>
<trkpt lat="54.442447" lon="-3.322668"><ele>170</ele><time>2022-03-28T14:45:23Z</time><name>PT3748</name></trkpt>
<trkpt lat="54.442439" lon="-3.322667"><ele>170</ele><time>2022-03-28T14:45:24Z</time><name>PT3749</name></trkpt>
<trkpt lat="54.442432" lon="-3.322668"><ele>169</ele><time>2022-03-28T14:45:26Z</time><name>PT3750</name></trkpt>
<trkpt lat="54.442425" lon="-3.322668"><ele>169</ele><time>2022-03-28T14:45:26Z</time><name>PT3751</name></trkpt>
<trkpt lat="54.442419" lon="-3.322666"><ele>169</ele><time>2022-03-28T14:45:27Z</time><name>PT3752</name></trkpt>
<trkpt lat="54.442412" lon="-3.322659"><ele>168</ele><time>2022-03-28T14:45:29Z</time><name>PT3753</name></trkpt>
<trkpt lat="54.442404" lon="-3.322654"><ele>168</ele><time>2022-03-28T14:45:29Z</time><name>PT3754</name></trkpt>
<trkpt lat="54.442397" lon="-3.322644"><ele>167</ele><time>2022-03-28T14:45:30Z</time><name>PT3755</name></trkpt>
<trkpt lat="54.442388" lon="-3.322632"><ele>167</ele><time>2022-03-28T14:45:32Z</time><name>PT3756</name></trkpt>
<trkpt lat="54.442382" lon="-3.322619"><ele>167</ele><time>2022-03-28T14:45:32Z</time><name>PT3757</name></trkpt>
<trkpt lat="54.442377" lon="-3.322609"><ele>166</ele><time>2022-03-28T14:45:33Z</time><name>PT3758</name></trkpt>
<trkpt lat="54.442370" lon="-3.322600"><ele>166</ele><time>2022-03-28T14:45:35Z</time><name>PT3759</name></trkpt>
<trkpt lat="54.442366" lon="-3.322592"><ele>166</ele><time>2022-03-28T14:45:35Z</time><name>PT3760</name></trkpt>
<trkpt lat="54.442362" lon="-3.322585"><ele>165</ele><time>2022-03-28T14:45:36Z</time><name>PT3761</name></trkpt>
<trkpt lat="54.442357" lon="-3.322580"><ele>164</ele><time>2022-03-28T14:45:38Z</time><name>PT3762</name></trkpt>
<trkpt lat="54.442351" lon="-3.322574"><ele>164</ele><time>2022-03-28T14:45:38Z</time><name>PT3763</name></trkpt>
<trkpt lat="54.442344" lon="-3.322567"><ele>163</ele><time>2022-03-28T14:45:39Z</time><name>PT3764</name></trkpt>
<trkpt lat="54.442339" lon="-3.322563"><ele>163</ele><time>2022-03-28T14:45:41Z</time><name>PT3765</name></trkpt>
<trkpt lat="54.442333" lon="-3.322560"><ele>163</ele><time>2022-03-28T14:45:41Z</time><name>PT3766</name></trkpt>
<trkpt lat="54.442331" lon="-3.322563"><ele>162</ele><time>2022-03-28T14:45:42Z</time><name>PT3767</name></trkpt>
<trkpt lat="54.442326" lon="-3.322567"><ele>162</ele><time>2022-03-28T14:45:44Z</time><name>PT3768</name></trkpt>
<trkpt lat="54.442320" lon="-3.322568"><ele>161</ele><time>2022-03-28T14:45:44Z</time><name>PT3769</name></trkpt>
<trkpt lat="54.442318" lon="-3.322563"><ele>161</ele><time>2022-03-28T14:45:45Z</time><name>PT3770</name></trkpt>
<trkpt lat="54.442316" lon="-3.322557"><ele>160</ele><time>2022-03-28T14:45:47Z</time><name>PT3771</name></trkpt>
<trkpt lat="54.442313" lon="-3.322550"><ele>160</ele><time>2022-03-28T14:45:47Z</time><name>PT3772</name></trkpt>
<trkpt lat="54.442306" lon="-3.322544"><ele>160</ele><time>2022-03-28T14:45:48Z</time><name>PT3773</name></trkpt>
<trkpt lat="54.442299" lon="-3.322536"><ele>160</ele><time>2022-03-28T14:45:50Z</time><name>PT3774</name></trkpt>
<trkpt lat="54.442296" lon="-3.322527"><ele>159</ele><time>2022-03-28T14:45:50Z</time><name>PT3775</name></trkpt>
<trkpt lat="54.442290" lon="-3.322519"><ele>159</ele><time>2022-03-28T14:45:51Z</time><name>PT3776</name></trkpt>
<trkpt lat="54.442284" lon="-3.322514"><ele>158</ele><time>2022-03-28T14:45:53Z</time><name>PT3777</name></trkpt>
<trkpt lat="54.442279" lon="-3.322508"><ele>158</ele><time>2022-03-28T14:45:53Z</time><name>PT3778</name></trkpt>
<trkpt lat="54.442275" lon="-3.322502"><ele>158</ele><time>2022-03-28T14:45:54Z</time><name>PT3779</name></trkpt>
<trkpt lat="54.442271" lon="-3.322497"><ele>157</ele><time>2022-03-28T14:45:56Z</time><name>PT3780</name></trkpt>
<trkpt lat="54.442266" lon="-3.322490"><ele>157</ele><time>2022-03-28T14:45:56Z</time><name>PT3781</name></trkpt>
<trkpt lat="54.442260" lon="-3.322482"><ele>156</ele><time>2022-03-28T14:45:57Z</time><name>PT3782</name></trkpt>
<trkpt lat="54.442255" lon="-3.322473"><ele>157</ele><time>2022-03-28T14:45:59Z</time><name>PT3783</name></trkpt>
<trkpt lat="54.442253" lon="-3.322466"><ele>156</ele><time>2022-03-28T14:45:59Z</time><name>PT3784</name></trkpt>
<trkpt lat="54.442251" lon="-3.322462"><ele>157</ele><time>2022-03-28T14:46:00Z</time><name>PT3785</name></trkpt>
<trkpt lat="54.442245" lon="-3.322451"><ele>156</ele><time>2022-03-28T14:46:02Z</time><name>PT3786</name></trkpt>
<trkpt lat="54.442239" lon="-3.322445"><ele>156</ele><time>2022-03-28T14:46:02Z</time><name>PT3787</name></trkpt>
<trkpt lat="54.442232" lon="-3.322443"><ele>155</ele><time>2022-03-28T14:46:03Z</time><name>PT3788</name></trkpt>
<trkpt lat="54.442225" lon="-3.322438"><ele>155</ele><time>2022-03-28T14:46:05Z</time><name>PT3789</name></trkpt>
<trkpt lat="54.442218" lon="-3.322429"><ele>155</ele><time>2022-03-28T14:46:05Z</time><name>PT3790</name></trkpt>
<trkpt lat="54.442212" lon="-3.322420"><ele>155</ele><time>2022-03-28T14:46:06Z</time><name>PT3791</name></trkpt>
<trkpt lat="54.442206" lon="-3.322413"><ele>154</ele><time>2022-03-28T14:46:08Z</time><name>PT3792</name></trkpt>
<trkpt lat="54.442198" lon="-3.322405"><ele>154</ele><time>2022-03-28T14:46:08Z</time><name>PT3793</name></trkpt>
<trkpt lat="54.442188" lon="-3.322399"><ele>154</ele><time>2022-03-28T14:46:09Z</time><name>PT3794</name></trkpt>
<trkpt lat="54.442179" lon="-3.322395"><ele>154</ele><time>2022-03-28T14:46:11Z</time><name>PT3795</name></trkpt>
<trkpt lat="54.442173" lon="-3.322388"><ele>153</ele><time>2022-03-28T14:46:11Z</time><name>PT3796</name></trkpt>
<trkpt lat="54.442166" lon="-3.322383"><ele>153</ele><time>2022-03-28T14:46:12Z</time><name>PT3797</name></trkpt>
<trkpt lat="54.442160" lon="-3.322376"><ele>152</ele><time>2022-03-28T14:46:14Z</time><name>PT3798</name></trkpt>
<trkpt lat="54.442151" lon="-3.322371"><ele>152</ele><time>2022-03-28T14:46:14Z</time><name>PT3799</name></trkpt>
<trkpt lat="54.442144" lon="-3.322369"><ele>151</ele><time>2022-03-28T14:46:15Z</time><name>PT3800</name></trkpt>
<trkpt lat="54.442137" lon="-3.322369"><ele>151</ele><time>2022-03-28T14:46:17Z</time><name>PT3801</name></trkpt>
<trkpt lat="54.442129" lon="-3.322374"><ele>151</ele><time>2022-03-28T14:46:17Z</time><name>PT3802</name></trkpt>
<trkpt lat="54.442121" lon="-3.322377"><ele>151</ele><time>2022-03-28T14:46:18Z</time><name>PT3803</name></trkpt>
<trkpt lat="54.442115" lon="-3.322372"><ele>150</ele><time>2022-03-28T14:46:20Z</time><name>PT3804</name></trkpt>
<trkpt lat="54.442110" lon="-3.322363"><ele>150</ele><time>2022-03-28T14:46:20Z</time><name>PT3805</name></trkpt>
<trkpt lat="54.442107" lon="-3.322357"><ele>150</ele><time>2022-03-28T14:46:21Z</time><name>PT3806</name></trkpt>
<trkpt lat="54.442101" lon="-3.322348"><ele>150</ele><time>2022-03-28T14:46:23Z</time><name>PT3807</name></trkpt>
<trkpt lat="54.442098" lon="-3.322340"><ele>149</ele><time>2022-03-28T14:46:23Z</time><name>PT3808</name></trkpt>
<trkpt lat="54.442095" lon="-3.322334"><ele>149</ele><time>2022-03-28T14:46:25Z</time><name>PT3809</name></trkpt>
<trkpt lat="54.442091" lon="-3.322328"><ele>149</ele><time>2022-03-28T14:46:26Z</time><name>PT3810</name></trkpt>
<trkpt lat="54.442085" lon="-3.322327"><ele>148</ele><time>2022-03-28T14:46:26Z</time><name>PT3811</name></trkpt>
<trkpt lat="54.442079" lon="-3.322325"><ele>148</ele><time>2022-03-28T14:46:27Z</time><name>PT3812</name></trkpt>
<trkpt lat="54.442073" lon="-3.322321"><ele>147</ele><time>2022-03-28T14:46:29Z</time><name>PT3813</name></trkpt>
<trkpt lat="54.442068" lon="-3.322319"><ele>147</ele><time>2022-03-28T14:46:29Z</time><name>PT3814</name></trkpt>
<trkpt lat="54.442062" lon="-3.322317"><ele>147</ele><time>2022-03-28T14:46:30Z</time><name>PT3815</name></trkpt>
<trkpt lat="54.442057" lon="-3.322316"><ele>147</ele><time>2022-03-28T14:46:32Z</time><name>PT3816</name></trkpt>
<trkpt lat="54.442051" lon="-3.322312"><ele>147</ele><time>2022-03-28T14:46:32Z</time><name>PT3817</name></trkpt>
<trkpt lat="54.442044" lon="-3.322310"><ele>147</ele><time>2022-03-28T14:46:33Z</time><name>PT3818</name></trkpt>
<trkpt lat="54.442038" lon="-3.322312"><ele>147</ele><time>2022-03-28T14:46:35Z</time><name>PT3819</name></trkpt>
<trkpt lat="54.442034" lon="-3.322309"><ele>148</ele><time>2022-03-28T14:46:35Z</time><name>PT3820</name></trkpt>
<trkpt lat="54.442031" lon="-3.322309"><ele>147</ele><time>2022-03-28T14:46:36Z</time><name>PT3821</name></trkpt>
<trkpt lat="54.442026" lon="-3.322309"><ele>147</ele><time>2022-03-28T14:46:38Z</time><name>PT3822</name></trkpt>
<trkpt lat="54.442022" lon="-3.322307"><ele>147</ele><time>2022-03-28T14:46:38Z</time><name>PT3823</name></trkpt>
<trkpt lat="54.442019" lon="-3.322302"><ele>146</ele><time>2022-03-28T14:46:39Z</time><name>PT3824</name></trkpt>
<trkpt lat="54.442017" lon="-3.322298"><ele>146</ele><time>2022-03-28T14:46:41Z</time><name>PT3825</name></trkpt>
<trkpt lat="54.442014" lon="-3.322292"><ele>146</ele><time>2022-03-28T14:46:41Z</time><name>PT3826</name></trkpt>
<trkpt lat="54.442010" lon="-3.322287"><ele>146</ele><time>2022-03-28T14:46:42Z</time><name>PT3827</name></trkpt>
<trkpt lat="54.442005" lon="-3.322286"><ele>146</ele><time>2022-03-28T14:46:44Z</time><name>PT3828</name></trkpt>
<trkpt lat="54.441999" lon="-3.322285"><ele>146</ele><time>2022-03-28T14:46:44Z</time><name>PT3829</name></trkpt>
<trkpt lat="54.441991" lon="-3.322287"><ele>146</ele><time>2022-03-28T14:46:45Z</time><name>PT3830</name></trkpt>
<trkpt lat="54.441985" lon="-3.322289"><ele>145</ele><time>2022-03-28T14:46:47Z</time><name>PT3831</name></trkpt>
<trkpt lat="54.441978" lon="-3.322288"><ele>145</ele><time>2022-03-28T14:46:47Z</time><name>PT3832</name></trkpt>
<trkpt lat="54.441950" lon="-3.322288"><ele>143</ele><time>2022-03-28T14:46:51Z</time><name>PT3833</name></trkpt>
<trkpt lat="54.441931" lon="-3.322285"><ele>142</ele><time>2022-03-28T14:46:54Z</time><name>PT3834</name></trkpt>
<trkpt lat="54.441905" lon="-3.322287"><ele>140</ele><time>2022-03-28T14:46:59Z</time><name>PT3835</name></trkpt>
<trkpt lat="54.441881" lon="-3.322283"><ele>137</ele><time>2022-03-28T14:47:02Z</time><name>PT3836</name></trkpt>
<trkpt lat="54.441860" lon="-3.322269"><ele>137</ele><time>2022-03-28T14:47:05Z</time><name>PT3837</name></trkpt>
<trkpt lat="54.441832" lon="-3.322249"><ele>136</ele><time>2022-03-28T14:47:09Z</time><name>PT3838</name></trkpt>
<trkpt lat="54.441804" lon="-3.322231"><ele>136</ele><time>2022-03-28T14:47:14Z</time><name>PT3839</name></trkpt>
<trkpt lat="54.441787" lon="-3.322208"><ele>135</ele><time>2022-03-28T14:47:17Z</time><name>PT3840</name></trkpt>
<trkpt lat="54.441772" lon="-3.322192"><ele>135</ele><time>2022-03-28T14:47:20Z</time><name>PT3841</name></trkpt>
<trkpt lat="54.441742" lon="-3.322178"><ele>134</ele><time>2022-03-28T14:47:23Z</time><name>PT3842</name></trkpt>
<trkpt lat="54.441714" lon="-3.322183"><ele>134</ele><time>2022-03-28T14:47:26Z</time><name>PT3843</name></trkpt>
<trkpt lat="54.441682" lon="-3.322175"><ele>133</ele><time>2022-03-28T14:47:30Z</time><name>PT3844</name></trkpt>
<trkpt lat="54.441672" lon="-3.322140"><ele>132</ele><time>2022-03-28T14:47:33Z</time><name>PT3845</name></trkpt>
<trkpt lat="54.441650" lon="-3.322096"><ele>131</ele><time>2022-03-28T14:47:38Z</time><name>PT3846</name></trkpt>
<trkpt lat="54.441632" lon="-3.322066"><ele>131</ele><time>2022-03-28T14:47:41Z</time><name>PT3847</name></trkpt>
<trkpt lat="54.441619" lon="-3.322039"><ele>129</ele><time>2022-03-28T14:47:44Z</time><name>PT3848</name></trkpt>
<trkpt lat="54.441600" lon="-3.322014"><ele>128</ele><time>2022-03-28T14:47:47Z</time><name>PT3849</name></trkpt>
<trkpt lat="54.441577" lon="-3.321993"><ele>128</ele><time>2022-03-28T14:47:50Z</time><name>PT3850</name></trkpt>
<trkpt lat="54.441560" lon="-3.321994"><ele>127</ele><time>2022-03-28T14:47:53Z</time><name>PT3851</name></trkpt>
<trkpt lat="54.441534" lon="-3.321998"><ele>126</ele><time>2022-03-28T14:47:57Z</time><name>PT3852</name></trkpt>
<trkpt lat="54.441524" lon="-3.321980"><ele>126</ele><time>2022-03-28T14:48:00Z</time><name>PT3853</name></trkpt>
<trkpt lat="54.441494" lon="-3.321945"><ele>125</ele><time>2022-03-28T14:48:05Z</time><name>PT3854</name></trkpt>
<trkpt lat="54.441465" lon="-3.321944"><ele>124</ele><time>2022-03-28T14:48:08Z</time><name>PT3855</name></trkpt>
<trkpt lat="54.441440" lon="-3.321932"><ele>123</ele><time>2022-03-28T14:48:11Z</time><name>PT3856</name></trkpt>
<trkpt lat="54.441414" lon="-3.321911"><ele>122</ele><time>2022-03-28T14:48:14Z</time><name>PT3857</name></trkpt>
<trkpt lat="54.441382" lon="-3.321881"><ele>121</ele><time>2022-03-28T14:48:17Z</time><name>PT3858</name></trkpt>
<trkpt lat="54.441362" lon="-3.321865"><ele>120</ele><time>2022-03-28T14:48:20Z</time><name>PT3859</name></trkpt>
<trkpt lat="54.441350" lon="-3.321845"><ele>119</ele><time>2022-03-28T14:48:23Z</time><name>PT3860</name></trkpt>
<trkpt lat="54.441326" lon="-3.321811"><ele>119</ele><time>2022-03-28T14:48:27Z</time><name>PT3861</name></trkpt>
<trkpt lat="54.441299" lon="-3.321782"><ele>118</ele><time>2022-03-28T14:48:30Z</time><name>PT3862</name></trkpt>
<trkpt lat="54.441270" lon="-3.321748"><ele>117</ele><time>2022-03-28T14:48:35Z</time><name>PT3863</name></trkpt>
<trkpt lat="54.441246" lon="-3.321716"><ele>117</ele><time>2022-03-28T14:48:38Z</time><name>PT3864</name></trkpt>
<trkpt lat="54.441226" lon="-3.321666"><ele>116</ele><time>2022-03-28T14:48:41Z</time><name>PT3865</name></trkpt>
<trkpt lat="54.441192" lon="-3.321637"><ele>115</ele><time>2022-03-28T14:48:45Z</time><name>PT3866</name></trkpt>
<trkpt lat="54.441172" lon="-3.321610"><ele>115</ele><time>2022-03-28T14:48:48Z</time><name>PT3867</name></trkpt>
<trkpt lat="54.441142" lon="-3.321571"><ele>115</ele><time>2022-03-28T14:48:53Z</time><name>PT3868</name></trkpt>
<trkpt lat="54.441124" lon="-3.321531"><ele>114</ele><time>2022-03-28T14:48:56Z</time><name>PT3869</name></trkpt>
<trkpt lat="54.441098" lon="-3.321478"><ele>114</ele><time>2022-03-28T14:48:59Z</time><name>PT3870</name></trkpt>
<trkpt lat="54.441080" lon="-3.321453"><ele>112</ele><time>2022-03-28T14:49:02Z</time><name>PT3871</name></trkpt>
<trkpt lat="54.441058" lon="-3.321421"><ele>113</ele><time>2022-03-28T14:49:05Z</time><name>PT3872</name></trkpt>
<trkpt lat="54.441037" lon="-3.321397"><ele>112</ele><time>2022-03-28T14:49:08Z</time><name>PT3873</name></trkpt>
<trkpt lat="54.441014" lon="-3.321353"><ele>110</ele><time>2022-03-28T14:49:12Z</time><name>PT3874</name></trkpt>
<trkpt lat="54.440982" lon="-3.321345"><ele>110</ele><time>2022-03-28T14:49:15Z</time><name>PT3875</name></trkpt>
<trkpt lat="54.440935" lon="-3.321354"><ele>109</ele><time>2022-03-28T14:49:20Z</time><name>PT3876</name></trkpt>
<trkpt lat="54.440884" lon="-3.321350"><ele>109</ele><time>2022-03-28T14:49:23Z</time><name>PT3877</name></trkpt>
<trkpt lat="54.440844" lon="-3.321354"><ele>109</ele><time>2022-03-28T14:49:27Z</time><name>PT3878</name></trkpt>
<trkpt lat="54.440808" lon="-3.321366"><ele>108</ele><time>2022-03-28T14:49:32Z</time><name>PT3879</name></trkpt>
<trkpt lat="54.440773" lon="-3.321378"><ele>108</ele><time>2022-03-28T14:49:35Z</time><name>PT3880</name></trkpt>
<trkpt lat="54.440746" lon="-3.321379"><ele>107</ele><time>2022-03-28T14:49:39Z</time><name>PT3881</name></trkpt>
<trkpt lat="54.440723" lon="-3.321367"><ele>106</ele><time>2022-03-28T14:49:42Z</time><name>PT3882</name></trkpt>
<trkpt lat="54.440695" lon="-3.321352"><ele>104</ele><time>2022-03-28T14:49:45Z</time><name>PT3883</name></trkpt>
<trkpt lat="54.440662" lon="-3.321329"><ele>104</ele><time>2022-03-28T14:49:48Z</time><name>PT3884</name></trkpt>
<trkpt lat="54.440627" lon="-3.321314"><ele>104</ele><time>2022-03-28T14:49:51Z</time><name>PT3885</name></trkpt>
<trkpt lat="54.440596" lon="-3.321310"><ele>104</ele><time>2022-03-28T14:49:54Z</time><name>PT3886</name></trkpt>
<trkpt lat="54.440571" lon="-3.321296"><ele>104</ele><time>2022-03-28T14:49:57Z</time><name>PT3887</name></trkpt>
<trkpt lat="54.440534" lon="-3.321287"><ele>104</ele><time>2022-03-28T14:50:00Z</time><name>PT3888</name></trkpt>
<trkpt lat="54.440498" lon="-3.321276"><ele>103</ele><time>2022-03-28T14:50:03Z</time><name>PT3889</name></trkpt>
<trkpt lat="54.440449" lon="-3.321292"><ele>103</ele><time>2022-03-28T14:50:08Z</time><name>PT3890</name></trkpt>
<trkpt lat="54.440391" lon="-3.321301"><ele>103</ele><time>2022-03-28T14:50:11Z</time><name>PT3891</name></trkpt>
<trkpt lat="54.440345" lon="-3.321319"><ele>102</ele><time>2022-03-28T14:50:15Z</time><name>PT3892</name></trkpt>
<trkpt lat="54.440315" lon="-3.321324"><ele>101</ele><time>2022-03-28T14:50:18Z</time><name>PT3893</name></trkpt>
<trkpt lat="54.440272" lon="-3.321322"><ele>99</ele><time>2022-03-28T14:50:23Z</time><name>PT3894</name></trkpt>
<trkpt lat="54.440236" lon="-3.321309"><ele>99</ele><time>2022-03-28T14:50:26Z</time><name>PT3895</name></trkpt>
<trkpt lat="54.440191" lon="-3.321306"><ele>97</ele><time>2022-03-28T14:50:29Z</time><name>PT3896</name></trkpt>
<trkpt lat="54.440158" lon="-3.321315"><ele>96</ele><time>2022-03-28T14:50:32Z</time><name>PT3897</name></trkpt>
<trkpt lat="54.440110" lon="-3.321317"><ele>95</ele><time>2022-03-28T14:50:36Z</time><name>PT3898</name></trkpt>
<trkpt lat="54.440066" lon="-3.321318"><ele>94</ele><time>2022-03-28T14:50:41Z</time><name>PT3899</name></trkpt>
<trkpt lat="54.440032" lon="-3.321317"><ele>94</ele><time>2022-03-28T14:50:44Z</time><name>PT3900</name></trkpt>
<trkpt lat="54.439997" lon="-3.321301"><ele>92</ele><time>2022-03-28T14:50:47Z</time><name>PT3901</name></trkpt>
<trkpt lat="54.439964" lon="-3.321318"><ele>91</ele><time>2022-03-28T14:50:50Z</time><name>PT3902</name></trkpt>
<trkpt lat="54.439925" lon="-3.321311"><ele>91</ele><time>2022-03-28T14:50:54Z</time><name>PT3903</name></trkpt>
<trkpt lat="54.439886" lon="-3.321296"><ele>90</ele><time>2022-03-28T14:50:57Z</time><name>PT3904</name></trkpt>
<trkpt lat="54.439845" lon="-3.321267"><ele>88</ele><time>2022-03-28T14:51:02Z</time><name>PT3905</name></trkpt>
<trkpt lat="54.439814" lon="-3.321259"><ele>88</ele><time>2022-03-28T14:51:05Z</time><name>PT3906</name></trkpt>
<trkpt lat="54.439782" lon="-3.321244"><ele>88</ele><time>2022-03-28T14:51:08Z</time><name>PT3907</name></trkpt>
<trkpt lat="54.439742" lon="-3.321230"><ele>86</ele><time>2022-03-28T14:51:11Z</time><name>PT3908</name></trkpt>
<trkpt lat="54.439711" lon="-3.321207"><ele>87</ele><time>2022-03-28T14:51:14Z</time><name>PT3909</name></trkpt>
<trkpt lat="54.439673" lon="-3.321193"><ele>86</ele><time>2022-03-28T14:51:17Z</time><name>PT3910</name></trkpt>
<trkpt lat="54.439630" lon="-3.321158"><ele>87</ele><time>2022-03-28T14:51:21Z</time><name>PT3911</name></trkpt>
<trkpt lat="54.439591" lon="-3.321151"><ele>87</ele><time>2022-03-28T14:51:24Z</time><name>PT3912</name></trkpt>
<trkpt lat="54.439554" lon="-3.321146"><ele>87</ele><time>2022-03-28T14:51:27Z</time><name>PT3913</name></trkpt>
<trkpt lat="54.439507" lon="-3.321143"><ele>87</ele><time>2022-03-28T14:51:32Z</time><name>PT3914</name></trkpt>
<trkpt lat="54.439477" lon="-3.321136"><ele>88</ele><time>2022-03-28T14:51:35Z</time><name>PT3915</name></trkpt>
<trkpt lat="54.439427" lon="-3.321129"><ele>87</ele><time>2022-03-28T14:51:38Z</time><name>PT3916</name></trkpt>
<trkpt lat="54.439389" lon="-3.321115"><ele>87</ele><time>2022-03-28T14:51:41Z</time><name>PT3917</name></trkpt>
<trkpt lat="54.439353" lon="-3.321105"><ele>88</ele><time>2022-03-28T14:51:44Z</time><name>PT3918</name></trkpt>
<trkpt lat="54.439310" lon="-3.321095"><ele>88</ele><time>2022-03-28T14:51:48Z</time><name>PT3919</name></trkpt>
<trkpt lat="54.439267" lon="-3.321085"><ele>87</ele><time>2022-03-28T14:51:53Z</time><name>PT3920</name></trkpt>
<trkpt lat="54.439233" lon="-3.321069"><ele>87</ele><time>2022-03-28T14:51:56Z</time><name>PT3921</name></trkpt>
<trkpt lat="54.439199" lon="-3.321051"><ele>86</ele><time>2022-03-28T14:51:59Z</time><name>PT3922</name></trkpt>
<trkpt lat="54.439148" lon="-3.321017"><ele>86</ele><time>2022-03-28T14:52:02Z</time><name>PT3923</name></trkpt>
<trkpt lat="54.439107" lon="-3.320973"><ele>86</ele><time>2022-03-28T14:52:06Z</time><name>PT3924</name></trkpt>
<trkpt lat="54.439059" lon="-3.320965"><ele>85</ele><time>2022-03-28T14:52:11Z</time><name>PT3925</name></trkpt>
<trkpt lat="54.439028" lon="-3.320954"><ele>85</ele><time>2022-03-28T14:52:14Z</time><name>PT3926</name></trkpt>
<trkpt lat="54.438977" lon="-3.320946"><ele>86</ele><time>2022-03-28T14:52:17Z</time><name>PT3927</name></trkpt>
<trkpt lat="54.438928" lon="-3.320922"><ele>86</ele><time>2022-03-28T14:52:21Z</time><name>PT3928</name></trkpt>
<trkpt lat="54.438894" lon="-3.320894"><ele>86</ele><time>2022-03-28T14:52:24Z</time><name>PT3929</name></trkpt>
<trkpt lat="54.438852" lon="-3.320863"><ele>85</ele><time>2022-03-28T14:52:29Z</time><name>PT3930</name></trkpt>
<trkpt lat="54.438819" lon="-3.320828"><ele>84</ele><time>2022-03-28T14:52:32Z</time><name>PT3931</name></trkpt>
<trkpt lat="54.438782" lon="-3.320786"><ele>82</ele><time>2022-03-28T14:52:35Z</time><name>PT3932</name></trkpt>
<trkpt lat="54.438738" lon="-3.320714"><ele>85</ele><time>2022-03-28T14:52:39Z</time><name>PT3933</name></trkpt>
<trkpt lat="54.438719" lon="-3.320667"><ele>84</ele><time>2022-03-28T14:52:42Z</time><name>PT3934</name></trkpt>
<trkpt lat="54.438701" lon="-3.320612"><ele>84</ele><time>2022-03-28T14:52:45Z</time><name>PT3935</name></trkpt>
<trkpt lat="54.438677" lon="-3.320554"><ele>86</ele><time>2022-03-28T14:52:48Z</time><name>PT3936</name></trkpt>
<trkpt lat="54.438666" lon="-3.320495"><ele>86</ele><time>2022-03-28T14:52:51Z</time><name>PT3937</name></trkpt>
<trkpt lat="54.438664" lon="-3.320443"><ele>85</ele><time>2022-03-28T14:52:56Z</time><name>PT3938</name></trkpt>
<trkpt lat="54.438660" lon="-3.320414"><ele>84</ele><time>2022-03-28T14:52:59Z</time><name>PT3939</name></trkpt>
<trkpt lat="54.438660" lon="-3.320412"><ele>84</ele><time>2022-03-28T14:53:02Z</time><name>PT3940</name></trkpt>
<trkpt lat="54.438657" lon="-3.320405"><ele>84</ele><time>2022-03-28T14:53:36Z</time><name>PT3941</name></trkpt>
<trkpt lat="54.438664" lon="-3.320343"><ele>85</ele><time>2022-03-28T14:53:39Z</time><name>PT3942</name></trkpt>
<trkpt lat="54.438659" lon="-3.320337"><ele>85</ele><time>2022-03-28T14:53:42Z</time><name>PT3943</name></trkpt></trkseg></trk></gpx>